17	www.findlocalweather.com									
(Timestamp)	(Location)	(Conditions)	Temp (F)	Humidity (%)	(Wind Direction)	Wind Speed (mph)	Barometer (in.)	Dewpoint (F)	Heat Index (F) 	Wind Chill (F)
Fri Jan 29 08:36:02 2010	 San Jose CA 	Mostly Cloudy	48	87	N/A		30.06	45	48	48
Fri Jan 29 08:36:03 2010	 Charlotte NC 	Clear	43	49	N	5	30.18	25	43	40
Fri Jan 29 08:36:04 2010	 San Diego CA 	Hazy	55	82	N/A		30.06	50	55	55
Fri Jan 29 08:36:05 2010	 Denver CO 	Mostly Cloudy	27	100	SSE	5	30.09	27	27	22
Fri Jan 29 08:36:06 2010	 Memphis TN 	Overcast	34	60	NE	16	30.3	21	34	24
Fri Jan 29 08:36:07 2010	 Los Angeles CA 	Clear	57	72	N/A		30.06	48	57	57
Fri Jan 29 08:36:08 2010	 El Paso TX 	Light Snow	30	93	N	13	30.09	28	30	21
Fri Jan 29 08:36:09 2010	 New York City NY 	Clear	19	42	W	18	30.18	N/A	19	5
Fri Jan 29 08:36:10 2010	 Baltimore MD 	Fair	23	36	N/A		30.33	N/A	23	23
Fri Jan 29 08:36:11 2010	 Las Vegas NV 	Clear	46	57	N	7	30.09	32	46	43
Fri Jan 29 08:36:12 2010	 Washington DC 	Partly Cloudy	25	42	NNW	14	30.33	5	25	14
Fri Jan 29 08:36:13 2010	 Austin TX 	Rain	55	94	NNW	10	29.91	54	55	53
Fri Jan 29 08:36:14 2010	 San Francisco CA 	Mostly Cloudy	48	87	E	7	30.06	45	48	46
Fri Jan 29 08:36:15 2010	 Oklahoma City OK 	Freezing Drizzle	28	86	N	16	30.15	25	28	17
Fri Jan 29 08:36:16 2010	 Nashville TN 	Mostly Cloudy	28	59	N	8	30.36	16	28	21
Fri Jan 29 08:36:17 2010	 Fort Worth TX 	Light Rain	48	87	N/A		30.06	45	48	48
Fri Jan 29 08:36:18 2010	 Phoenix AZ 	Mostly Cloudy	55	77	ESE	7	30.03	48	55	54
Fri Jan 29 08:36:19 2010	 Portland OR 	Overcast	48	62	ESE	13	30	36	48	43
Fri Jan 29 08:36:20 2010	 Chicago IL 	Partly Cloudy	7	56	NW	5	30.53	-6	7	-1
Fri Jan 29 08:36:21 2010	 San Antonio TX 	Overcast	66	94	SE	3	29.85	64	66	66
Fri Jan 29 08:36:21 2010	 Indianapolis IN 	Partly Cloudy	10	67	N	3	30.45	1	10	5
Fri Jan 29 08:36:22 2010	 Boston MA 	Clear	18	35	WNW	33	29.94	-6	18	-2
Fri Jan 29 08:36:23 2010	 Jacksonville FL 	Partly Cloudy	48	76	N/A		30.18	41	48	48
Fri Jan 29 08:36:24 2010	 Columbus OH 	Partly Cloudy	10	72	N	8	30.42	3	10	N/A
Fri Jan 29 08:36:25 2010	 Dallas TX 	Rain	43	93	W	5	30.06	41	43	40
Fri Jan 29 08:36:26 2010	 Houston TX 	Light Rain	64	94	SE	12	29.85	63	64	64
Fri Jan 29 08:36:27 2010	 Seattle WA 	Clear	46	62	SE	3	30	34	46	46
Fri Jan 29 08:36:29 2010	 Milwaukee WI 	Partly Cloudy	5	46	NW	6	30.5	-11	5	-5
Fri Jan 29 08:36:29 2010	 Detroit MI 	Clear	9	61	WNW	5	30.45	-2	9	1
Fri Jan 29 08:36:30 2010	 Philadelphia PA 	Clear	19	38	WNW	9	30.3	-2	19	10
Fri Jan 29 09:20:02 2010	 San Jose CA 	Mostly Cloudy	46	93	S	5	30.03	45	46	45
Fri Jan 29 09:20:02 2010	 Charlotte NC 	Clear	41	53	NE	5	30.18	25	41	38
Fri Jan 29 09:20:03 2010	 San Diego CA 	Fog And Mist	54	82	NW	5	30.09	48	54	53
Fri Jan 29 09:20:04 2010	 Denver CO 	Mostly Cloudy	27	100	NNE	3	30.09	27	27	23
Fri Jan 29 09:20:05 2010	 Memphis TN 	Overcast	32	64	ENE	14	30.3	21	32	23
Fri Jan 29 09:20:06 2010	 Los Angeles CA 	Clear	57	72	N/A		30.06	48	57	57
Fri Jan 29 09:20:07 2010	 El Paso TX 	Light Snow	30	93	N	10	30.12	28	30	22
Fri Jan 29 09:20:08 2010	 New York City NY 	Clear	18	45	W	14	30.21	N/A	18	5
Fri Jan 29 09:20:09 2010	 Baltimore MD 	Fair	21	35	N/A		30.36	-2	21	21
Fri Jan 29 09:20:10 2010	 Las Vegas NV 	Clear	46	57	SSE	6	30.09	32	46	44
Fri Jan 29 09:20:12 2010	 Washington DC 	Partly Cloudy	21	45	NNW	17	30.36	3	21	8
Fri Jan 29 09:20:13 2010	 Austin TX 	Rain	55	94	NNE	6	29.91	54	55	55
Fri Jan 29 09:20:14 2010	 San Francisco CA 	Mostly Cloudy	48	87	ESE	7	30.06	45	48	46
Fri Jan 29 09:20:15 2010	 Oklahoma City OK 	Freezing Drizzle	28	86	N	16	30.12	25	28	17
Fri Jan 29 09:20:17 2010	 Nashville TN 	Mostly Cloudy	28	59	NNE	10	30.36	16	28	20
Fri Jan 29 09:20:19 2010	 Fort Worth TX 	Light Rain	43	87	N/A		30.06	39	43	43
Fri Jan 29 09:20:20 2010	 Phoenix AZ 	Partly Cloudy	54	82	ESE	8	30.03	48	54	51
Fri Jan 29 09:20:21 2010	 Portland OR 	Overcast	46	66	E	9	30	36	46	42
Fri Jan 29 09:20:22 2010	 Chicago IL 	Partly Cloudy	7	51	NNW	10	30.5	-8	7	-7
Fri Jan 29 09:20:23 2010	 San Antonio TX 	Overcast	61	83	N	16	29.85	55	61	59
Fri Jan 29 09:20:24 2010	 Indianapolis IN 	Partly Cloudy	10	67	N	3	30.45	1	10	5
Fri Jan 29 09:20:25 2010	 Boston MA 	Clear	16	37	WNW	26	29.97	-6	16	-2
Fri Jan 29 09:20:26 2010	 Jacksonville FL 	Partly Cloudy	48	82	N	5	30.18	43	48	47
Fri Jan 29 09:20:28 2010	 Columbus OH 	Partly Cloudy	10	67	N	7	30.42	1	10	1
Fri Jan 29 09:20:29 2010	 Dallas TX 	Light Rain	43	87	NNE	5	30.03	39	43	40
Fri Jan 29 09:20:30 2010	 Houston TX 	Overcast	64	94	SSE	15	29.83	63	64	63
Fri Jan 29 09:20:31 2010	 Seattle WA 	Clear	46	62	N/A		30	34	46	46
Fri Jan 29 09:20:32 2010	 Milwaukee WI 	Partly Cloudy	3	55	NW	7	30.53	-9	3	-8
Fri Jan 29 09:20:33 2010	 Detroit MI 	Clear	9	61	WNW	6	30.45	-2	9	N/A
Fri Jan 29 09:20:34 2010	 Philadelphia PA 	Clear	19	32	NW	18	30.3	-6	19	5
Fri Jan 29 11:52:01 2010	 San Jose CA 	Clear	46	93	N/A		30.03	45	46	46
Fri Jan 29 11:52:02 2010	 Charlotte NC 	Clear	41	42	NE	8	30.21	19	41	36
Fri Jan 29 11:52:03 2010	 San Diego CA 	Hazy	54	82	N/A		30.06	48	54	54
Fri Jan 29 11:52:05 2010	 Denver CO 	Mostly Cloudy	27	100	N/A		30.06	27	27	27
Fri Jan 29 11:52:06 2010	 Memphis TN 	Overcast	32	64	ENE	18	30.24	21	32	21
Fri Jan 29 11:52:07 2010	 Los Angeles CA 	Clear	54	72	N/A		30.06	45	54	54
Fri Jan 29 11:52:08 2010	 El Paso TX 	Light Snow	30	80	N	13	30.12	25	30	21
Fri Jan 29 11:52:09 2010	 New York City NY 	Clear	18	41	WNW	8	30.27	-2	18	8
Fri Jan 29 11:52:10 2010	 Baltimore MD 	Fair	21	38	N/A		30.36	N/A	21	21
Fri Jan 29 11:52:11 2010	 Las Vegas NV 	Clear	45	57	NNW	10	30.09	30	45	40
Fri Jan 29 11:52:12 2010	 Washington DC 	Overcast	21	42	NNW	14	30.39	1	21	9
Fri Jan 29 11:52:13 2010	 Austin TX 	Light Rain	46	93	NNW	13	29.97	45	46	41
Fri Jan 29 11:52:14 2010	 San Francisco CA 	Mostly Cloudy	46	87	NE	3	30.03	43	46	46
Fri Jan 29 11:52:15 2010	 Oklahoma City OK 	Freezing Drizzle	27	80	NNE	10	30.12	21	27	18
Fri Jan 29 11:52:16 2010	 Nashville TN 	Overcast	28	59	N	8	30.33	16	28	21
Fri Jan 29 11:52:17 2010	 Fort Worth TX 	Light Rain	39	93	N/A		30.03	37	39	39
Fri Jan 29 11:52:18 2010	 Phoenix AZ 	Mostly Cloudy	54	82	E	7	30.03	48	54	52
Fri Jan 29 11:52:19 2010	 Portland OR 	Overcast	46	66	NE	6	29.94	36	46	44
Fri Jan 29 11:52:20 2010	 Chicago IL 	Mostly Cloudy	7	51	NNW	7	30.5	-8	7	-4
Fri Jan 29 11:52:20 2010	 San Antonio TX 	Light Rain	52	82	N	14	29.91	46	52	48
Fri Jan 29 11:52:21 2010	 Indianapolis IN 	Overcast	10	72	Variable	5	30.42	3	10	3
Fri Jan 29 11:52:23 2010	 Boston MA 	Clear	14	41	W	28	29.97	-6	14	-5
Fri Jan 29 11:52:24 2010	 Jacksonville FL 	Mostly Cloudy	48	82	NW	3	30.18	43	48	47
Fri Jan 29 11:52:25 2010	 Columbus OH 	Partly Cloudy	10	61	NNW	6	30.45	N/A	10	2
Fri Jan 29 11:52:26 2010	 Dallas TX 	Light Rain	41	93	ENE	8	30	39	41	36
Fri Jan 29 11:52:28 2010	 Houston TX 	Overcast	66	94	S	14	29.8	64	66	66
Fri Jan 29 11:52:29 2010	 Seattle WA 	Clear	45	66	N/A		29.97	34	45	45
Fri Jan 29 11:52:30 2010	 Milwaukee WI 	Partly Cloudy	3	55	NW	8	30.5	-9	3	-9
Fri Jan 29 11:52:30 2010	 Detroit MI 	Clear	7	72	W	6	30.42	N/A	7	-2
Fri Jan 29 11:52:31 2010	 Philadelphia PA 	Clear	18	41	NW	15	30.33	-2	18	4
Fri Jan 29 12:36:39 2010	 San Jose CA 	Clear	46	87	N/A		30.03	43	46	46
Fri Jan 29 12:36:40 2010	 Charlotte NC 	Clear	39	42	NE	8	30.21	18	39	34
Fri Jan 29 12:36:41 2010	 San Diego CA 	Mostly Cloudy	54	77	N/A		30.06	46	54	54
Fri Jan 29 12:36:42 2010	 Denver CO 	Mostly Cloudy	25	100	SSW	2	30.03	25	25	23
Fri Jan 29 12:36:43 2010	 Memphis TN 	Overcast	32	64	ENE	18	30.21	21	32	21
Fri Jan 29 12:36:44 2010	 Los Angeles CA 	Clear	52	77	N/A		30.03	45	52	52
Fri Jan 29 12:36:45 2010	 El Paso TX 	Overcast	30	86	N	10	30.12	27	30	22
Fri Jan 29 12:36:46 2010	 New York City NY 	Clear	18	45	W	10	30.27	N/A	18	7
Fri Jan 29 12:36:47 2010	 Baltimore MD 	Fair	19	42	N/A		30.39	N/A	19	19
Fri Jan 29 12:36:48 2010	 Las Vegas NV 	Clear	43	66	NW	7	30.09	32	43	39
Fri Jan 29 12:36:49 2010	 Washington DC 	Mostly Cloudy	19	42	NNW	14	30.39	N/A	19	7
Fri Jan 29 12:36:50 2010	 Austin TX 	Rain	45	93	NW	6	29.97	43	45	42
Fri Jan 29 12:36:51 2010	 San Francisco CA 	Overcast	48	87	N/A		30.06	45	48	48
Fri Jan 29 12:36:52 2010	 Oklahoma City OK 	Freezing Drizzle	25	86	NNE	15	30.12	21	25	13
Fri Jan 29 12:36:53 2010	 Nashville TN 	Overcast	28	59	N	12	30.33	16	28	19
Fri Jan 29 12:36:54 2010	 Fort Worth TX 	Rain	39	87	N/A		30.06	36	39	39
Fri Jan 29 12:36:55 2010	 Phoenix AZ 	Mostly Cloudy	54	82	E	5	30.03	48	54	53
Fri Jan 29 12:36:56 2010	 Portland OR 	Overcast	48	62	SE	12	29.97	36	48	44
Fri Jan 29 12:36:56 2010	 Chicago IL 	Mostly Cloudy	7	51	NW	7	30.5	-8	7	-4
Fri Jan 29 12:36:57 2010	 San Antonio TX 	Rain	48	87	N	15	29.94	45	48	43
Fri Jan 29 12:36:58 2010	 Indianapolis IN 	Overcast	12	67	NE	6	30.45	3	12	4
Fri Jan 29 12:37:00 2010	 Boston MA 	Clear	14	41	W	22	30	-6	14	-3
Fri Jan 29 12:37:00 2010	 Jacksonville FL 	Overcast	48	82	N/A		30.18	43	48	48
Fri Jan 29 12:37:02 2010	 Columbus OH 	Overcast	10	61	NNW	6	30.45	N/A	10	2
Fri Jan 29 12:37:02 2010	 Dallas TX 	Light Rain	41	93	NE	9	30	39	41	36
Fri Jan 29 12:37:03 2010	 Houston TX 	Light Rain	66	94	S	15	29.77	64	66	65
Fri Jan 29 12:37:04 2010	 Seattle WA 	Mostly Cloudy	45	71	N/A		29.97	36	45	45
Fri Jan 29 12:37:05 2010	 Milwaukee WI 	Clear	3	55	NW	7	30.5	-9	3	-8
Fri Jan 29 12:37:06 2010	 Detroit MI 	Clear	7	72	W	6	30.45	N/A	7	-2
Fri Jan 29 12:37:07 2010	 Philadelphia PA 	Clear	18	41	NW	14	30.33	-2	18	5
Fri Jan 29 13:23:11 2010	 San Jose CA 	Clear	46	87	N/A		30.03	43	46	46
Fri Jan 29 13:23:12 2010	 Charlotte NC 	Partly Cloudy	37	41	ENE	7	30.24	16	37	33
Fri Jan 29 13:23:13 2010	 San Diego CA 	Mostly Cloudy	54	77	N/A		30.06	46	54	54
Fri Jan 29 13:23:14 2010	 Denver CO 	Mostly Cloudy	25	100	SSE	3	30.03	25	25	21
Fri Jan 29 13:23:15 2010	 Memphis TN 	Overcast	32	64	ENE	13	30.24	21	32	23
Fri Jan 29 13:23:16 2010	 Los Angeles CA 	Clear	52	72	N/A		30.03	43	52	52
Fri Jan 29 13:23:17 2010	 El Paso TX 	Overcast	30	86	N	9	30.12	27	30	23
Fri Jan 29 13:23:18 2010	 New York City NY 	Clear	16	45	WNW	16	30.27	-2	16	1
Fri Jan 29 13:23:19 2010	 Baltimore MD 	Fair	19	42	N/A		30.39	N/A	19	19
Fri Jan 29 13:23:20 2010	 Las Vegas NV 	Clear	43	61	W	3	30.09	30	43	41
Fri Jan 29 13:23:21 2010	 Washington DC 	Mostly Cloudy	19	42	NNW	16	30.42	N/A	19	6
Fri Jan 29 13:23:22 2010	 Austin TX 	Rain	43	93	NW	14	30	41	43	36
Fri Jan 29 13:23:23 2010	 San Francisco CA 	Mostly Cloudy	46	87	N	5	30.03	43	46	45
Fri Jan 29 13:23:24 2010	 Oklahoma City OK 	Freezing Drizzle	25	86	N	10	30.09	21	25	15
Fri Jan 29 13:23:25 2010	 Nashville TN 	Overcast	28	59	NE	10	30.3	16	28	20
Fri Jan 29 13:23:26 2010	 Fort Worth TX 	Light Rain	37	87	N/A		30.09	34	37	37
Fri Jan 29 13:23:27 2010	 Phoenix AZ 	Mostly Cloudy	54	82	E	8	30.03	48	54	51
Fri Jan 29 13:23:27 2010	 Portland OR 	Overcast	48	62	E	14	29.97	36	48	43
Fri Jan 29 13:23:28 2010	 Chicago IL 	Overcast	7	51	NW	8	30.5	-8	7	-5
Fri Jan 29 13:23:29 2010	 San Antonio TX 	Light Rain	46	93	NNW	12	29.97	45	46	42
Fri Jan 29 13:23:30 2010	 Indianapolis IN 	Overcast	12	67	NE	7	30.45	3	12	3
Fri Jan 29 13:23:31 2010	 Boston MA 	Clear	12	44	W	26	30	-6	12	-7
Fri Jan 29 13:23:32 2010	 Jacksonville FL 	Overcast	50	88	N/A		30.18	46	50	50
Fri Jan 29 13:23:33 2010	 Columbus OH 	Overcast	10	61	N	6	30.45	N/A	10	2
Fri Jan 29 13:23:34 2010	 Dallas TX 	Light Rain	39	93	NNE	6	30	37	39	35
Fri Jan 29 13:23:35 2010	 Houston TX 	Light Rain	66	94	S	8	29.77	64	66	66
Fri Jan 29 13:23:35 2010	 Seattle WA 	Clear	45	71	N/A		29.97	36	45	45
Fri Jan 29 13:23:36 2010	 Milwaukee WI 	Partly Cloudy	3	55	WNW	7	30.53	-9	3	-8
Fri Jan 29 13:23:37 2010	 Detroit MI 	Clear	9	66	NW	5	30.45	N/A	9	1
Fri Jan 29 13:23:39 2010	 Philadelphia PA 	Partly Cloudy	18	41	NW	12	30.36	-2	18	6
Fri Jan 29 14:11:46 2010	 San Jose CA 	Clear	45	93	N/A		30.03	43	45	45
Fri Jan 29 14:11:47 2010	 Charlotte NC 	Mostly Cloudy	37	45	NE	6	30.27	18	37	33
Fri Jan 29 14:11:48 2010	 San Diego CA 	Mostly Cloudy	52	82	N/A		30.06	46	52	52
Fri Jan 29 14:11:49 2010	 Denver CO 	Partly Cloudy	21	100	SW	5	30.03	21	21	16
Fri Jan 29 14:11:50 2010	 Memphis TN 	Freezing Rain	32	64	NE	15	30.24	21	32	22
Fri Jan 29 14:11:51 2010	 Los Angeles CA 	Clear	50	76	N/A		30.03	43	50	50
Fri Jan 29 14:11:52 2010	 El Paso TX 	Overcast	30	80	NE	10	30.12	25	30	22
Fri Jan 29 14:11:53 2010	 New York City NY 	Clear	16	45	NW	15	30.3	-2	16	2
Fri Jan 29 14:11:54 2010	 Baltimore MD 	Fair	19	42	N/A		30.42	N/A	19	19
Fri Jan 29 14:11:55 2010	 Las Vegas NV 	Clear	43	61	NW	8	30.09	30	43	38
Fri Jan 29 14:11:56 2010	 Washington DC 	Mostly Cloudy	19	42	NNW	17	30.45	N/A	19	6
Fri Jan 29 14:11:57 2010	 Austin TX 	Heavy Rain	41	93	NNW	12	30.03	39	41	35
Fri Jan 29 14:11:58 2010	 San Francisco CA 	Fog And Mist	46	93	N/A		30.03	45	46	46
Fri Jan 29 14:11:59 2010	 Oklahoma City OK 	Freezing Drizzle	25	86	N/A		30.12	21	25	25
Fri Jan 29 14:12:00 2010	 Nashville TN 	Overcast	28	59	NE	10	30.3	16	28	20
Fri Jan 29 14:12:01 2010	 Fort Worth TX 	Light Rain	37	87	N	12	30.09	34	37	31
Fri Jan 29 14:12:02 2010	 Phoenix AZ 	Partly Cloudy	52	88	E	5	30.03	48	52	51
Fri Jan 29 14:12:03 2010	 Portland OR 	Overcast	46	66	SE	12	30	36	46	42
Fri Jan 29 14:12:04 2010	 Chicago IL 	Mostly Cloudy	5	60	NW	5	30.5	-6	5	-3
Fri Jan 29 14:12:05 2010	 San Antonio TX 	Light Rain	46	87	N	14	30	43	46	41
Fri Jan 29 14:12:06 2010	 Indianapolis IN 	Overcast	12	67	NNE	8	30.45	3	12	2
Fri Jan 29 14:12:07 2010	 Boston MA 	Clear	12	44	W	24	30	-6	12	-6
Fri Jan 29 14:12:08 2010	 Jacksonville FL 	Overcast	52	82	NE	3	30.18	46	52	52
Fri Jan 29 14:12:09 2010	 Columbus OH 	Overcast	10	56	NNE	8	30.47	-2	10	N/A
Fri Jan 29 14:12:10 2010	 Dallas TX 	Light Rain	39	93	N	8	30.03	37	39	34
Fri Jan 29 14:12:11 2010	 Houston TX 	Thunder Storms	63	88	NNW	16	29.8	59	63	61
Fri Jan 29 14:12:12 2010	 Seattle WA 	Mostly Cloudy	45	76	N/A		29.97	37	45	45
Fri Jan 29 14:12:13 2010	 Milwaukee WI 	Partly Cloudy	3	60	NW	7	30.5	-8	3	-8
Fri Jan 29 14:12:14 2010	 Detroit MI 	Clear	9	66	WNW	5	30.47	N/A	9	1
Fri Jan 29 14:12:15 2010	 Philadelphia PA 	Partly Cloudy	18	45	NW	12	30.36	N/A	18	6
Fri Jan 29 14:56:24 2010	 San Jose CA 	Clear	45	93	N/A		30.03	43	45	45
Fri Jan 29 14:56:25 2010	 Charlotte NC 	Mostly Cloudy	37	45	NE	6	30.27	18	37	33
Fri Jan 29 14:56:26 2010	 San Diego CA 	Mostly Cloudy	52	82	N/A		30.06	46	52	52
Fri Jan 29 14:56:27 2010	 Denver CO 	Partly Cloudy	21	100	SW	5	30.03	21	21	16
Fri Jan 29 14:56:28 2010	 Memphis TN 	Freezing Rain	32	64	NE	15	30.24	21	32	22
Fri Jan 29 14:56:29 2010	 Los Angeles CA 	Clear	50	76	N/A		30.03	43	50	50
Fri Jan 29 14:56:30 2010	 El Paso TX 	Overcast	30	80	NE	10	30.12	25	30	22
Fri Jan 29 14:56:31 2010	 New York City NY 	Clear	16	45	NW	15	30.3	-2	16	2
Fri Jan 29 14:56:32 2010	 Baltimore MD 	Fair	19	42	N/A		30.42	N/A	19	19
Fri Jan 29 14:56:33 2010	 Las Vegas NV 	Clear	43	61	NW	8	30.09	30	43	38
Fri Jan 29 14:56:34 2010	 Washington DC 	Mostly Cloudy	19	42	NNW	17	30.45	N/A	19	6
Fri Jan 29 14:56:35 2010	 Austin TX 	Light Rain	41	93	NW	10	30.03	39	41	35
Fri Jan 29 14:56:36 2010	 San Francisco CA 	Fog And Mist	46	93	N/A		30.03	45	46	46
Fri Jan 29 14:56:37 2010	 Oklahoma City OK 	Freezing Drizzle	25	86	NNE	9	30.12	21	25	16
Fri Jan 29 14:56:38 2010	 Nashville TN 	Overcast	28	59	NE	10	30.3	16	28	20
Fri Jan 29 14:56:39 2010	 Fort Worth TX 	Light Rain	37	87	N	12	30.09	34	37	31
Fri Jan 29 14:56:40 2010	 Phoenix AZ 	Partly Cloudy	52	88	E	5	30.03	48	52	51
Fri Jan 29 14:56:41 2010	 Portland OR 	Overcast	46	66	SE	12	30	36	46	42
Fri Jan 29 14:56:42 2010	 Chicago IL 	Mostly Cloudy	5	60	NW	5	30.5	-6	5	-3
Fri Jan 29 14:56:43 2010	 San Antonio TX 	Light Rain	46	87	N	14	30	43	46	41
Fri Jan 29 14:56:44 2010	 Indianapolis IN 	Overcast	12	67	NNE	8	30.45	3	12	2
Fri Jan 29 14:56:45 2010	 Boston MA 	Clear	12	44	W	24	30	-6	12	-6
Fri Jan 29 14:56:46 2010	 Jacksonville FL 	Overcast	52	82	NE	3	30.18	46	52	52
Fri Jan 29 14:56:47 2010	 Columbus OH 	Overcast	10	56	NNE	8	30.47	-2	10	N/A
Fri Jan 29 14:56:48 2010	 Dallas TX 	Light Rain	37	93	NNE	8	30.03	36	37	32
Fri Jan 29 14:56:48 2010	 Houston TX 	Rain	59	88	NW	12	29.83	55	59	57
Fri Jan 29 14:56:50 2010	 Seattle WA 	Mostly Cloudy	45	76	N/A		29.97	37	45	45
Fri Jan 29 14:56:51 2010	 Milwaukee WI 	Partly Cloudy	3	60	NW	7	30.5	-8	3	-8
Fri Jan 29 14:56:52 2010	 Detroit MI 	Clear	9	66	WNW	5	30.47	N/A	9	1
Fri Jan 29 14:56:53 2010	 Philadelphia PA 	Partly Cloudy	18	45	NW	12	30.36	N/A	18	6
Fri Jan 29 15:42:23 2010	 San Jose CA 	Mostly Cloudy	45	93	N/A		30.03	43	45	45
Fri Jan 29 15:42:24 2010	 Charlotte NC 	Mostly Cloudy	39	42	ENE	12	30.27	18	39	33
Fri Jan 29 15:42:25 2010	 San Diego CA 	Clear	52	77	N/A		30.06	45	52	52
Fri Jan 29 15:42:26 2010	 Denver CO 	Fog And Mist	21	100	SSW	3	30.03	21	21	17
Fri Jan 29 15:42:27 2010	 Memphis TN 	Overcast	30	80	ENE	15	30.24	25	30	20
Fri Jan 29 15:42:28 2010	 Los Angeles CA 	Clear	50	76	N/A		30.03	43	50	50
Fri Jan 29 15:42:29 2010	 El Paso TX 	Mostly Cloudy	30	80	N	7	30.15	25	30	24
Fri Jan 29 15:42:30 2010	 New York City NY 	Clear	16	45	WNW	17	30.3	-2	16	1
Fri Jan 29 15:42:32 2010	 Baltimore MD 	Fair	21	38	N/A		30.42	N/A	21	21
Fri Jan 29 15:42:33 2010	 Las Vegas NV 	Clear	41	70	NW	3	30.09	32	41	39
Fri Jan 29 15:42:34 2010	 Washington DC 	Overcast	21	42	NNW	16	30.45	1	21	8
Fri Jan 29 15:42:35 2010	 Austin TX 	Light Rain	39	93	NNW	9	30.06	37	39	33
Fri Jan 29 15:42:36 2010	 San Francisco CA 	Fog And Mist	46	93	N/A		30.03	45	46	46
Fri Jan 29 15:42:37 2010	 Oklahoma City OK 	Light Snow	25	86	NNE	14	30.12	21	25	14
Fri Jan 29 15:42:38 2010	 Nashville TN 	Light Snow	28	55	NE	10	30.33	14	28	20
Fri Jan 29 15:42:39 2010	 Fort Worth TX 	Light Rain	37	87	NNE	10	30.09	34	37	31
Fri Jan 29 15:42:40 2010	 Phoenix AZ 	Partly Cloudy	52	88	ESE	3	30.03	48	52	52
Fri Jan 29 15:42:40 2010	 Portland OR 	Mostly Cloudy	46	66	SE	9	29.97	36	46	42
Fri Jan 29 15:42:41 2010	 Chicago IL 	Mostly Cloudy	7	56	NW	5	30.53	-6	7	-1
Fri Jan 29 15:42:42 2010	 San Antonio TX 	Light Rain	45	81	NNW	12	30.03	39	45	39
Fri Jan 29 15:42:43 2010	 Indianapolis IN 	Overcast	12	67	NE	8	30.45	3	12	2
Fri Jan 29 15:42:44 2010	 Boston MA 	Clear	14	37	W	25	30.03	-8	14	-4
Fri Jan 29 15:42:45 2010	 Jacksonville FL 	Overcast	54	77	N	5	30.21	46	54	53
Fri Jan 29 15:42:45 2010	 Columbus OH 	Overcast	10	56	N	7	30.45	-2	10	1
Fri Jan 29 15:42:46 2010	 Dallas TX 	Light Rain	37	100	N	6	30.03	37	37	33
Fri Jan 29 15:42:47 2010	 Houston TX 	Light Rain	57	94	NW	13	29.85	55	57	55
Fri Jan 29 15:42:48 2010	 Seattle WA 	Partly Cloudy	45	76	N/A		29.97	37	45	45
Fri Jan 29 15:42:49 2010	 Milwaukee WI 	Partly Cloudy	3	60	NW	7	30.5	-8	3	-8
Fri Jan 29 15:42:50 2010	 Detroit MI 	Clear	10	61	NW	6	30.47	N/A	10	2
Fri Jan 29 15:42:51 2010	 Philadelphia PA 	Mostly Cloudy	18	45	NW	15	30.39	N/A	18	4
Fri Jan 29 16:29:32 2010	 San Jose CA 	Mostly Cloudy	45	93	N/A		30.03	43	45	45
Fri Jan 29 16:29:33 2010	 Charlotte NC 	Mostly Cloudy	39	39	E	10	30.27	16	39	33
Fri Jan 29 16:29:34 2010	 San Diego CA 	Mostly Cloudy	52	77	N/A		30.06	45	52	52
Fri Jan 29 16:29:35 2010	 Denver CO 	Fog And Mist	21	100	S	6	30.06	21	21	15
Fri Jan 29 16:29:36 2010	 Memphis TN 	Overcast	30	80	ENE	12	30.3	25	30	22
Fri Jan 29 16:29:37 2010	 Los Angeles CA 	Clear	52	62	N/A		30.06	39	52	52
Fri Jan 29 16:29:38 2010	 El Paso TX 	Mostly Cloudy	30	80	N/A		30.15	25	30	30
Fri Jan 29 16:29:40 2010	 New York City NY 	Clear	18	38	WNW	13	30.3	-4	18	5
Fri Jan 29 16:29:41 2010	 Baltimore MD 	Fair	21	38	N/A		30.45	N/A	21	21
Fri Jan 29 16:29:42 2010	 Las Vegas NV 	Clear	43	61	N/A		30.09	30	43	43
Fri Jan 29 16:29:43 2010	 Washington DC 	Overcast	21	42	NNW	15	30.45	1	21	9
Fri Jan 29 16:29:44 2010	 Austin TX 	Rain	39	93	NNW	9	30.06	37	39	33
Fri Jan 29 16:29:45 2010	 San Francisco CA 	Fog And Mist	48	87	SSE	6	30.03	45	48	46
Fri Jan 29 16:29:47 2010	 Oklahoma City OK 	Light Snow	25	80	N	17	30.09	19	25	12
Fri Jan 29 16:29:47 2010	 Nashville TN 	Light Snow	27	69	NE	13	30.36	18	27	17
Fri Jan 29 16:29:49 2010	 Fort Worth TX 	Light Rain	36	87	N	16	30.15	32	36	27
Fri Jan 29 16:29:50 2010	 Phoenix AZ 	Partly Cloudy	52	88	E	3	30.06	48	52	52
Fri Jan 29 16:29:51 2010	 Portland OR 	Overcast	48	62	SE	13	29.97	36	48	43
Fri Jan 29 16:29:52 2010	 Chicago IL 	Mostly Cloudy	9	56	N	5	30.5	-4	9	1
Fri Jan 29 16:29:53 2010	 San Antonio TX 	Overcast	45	81	NNW	13	30.03	39	45	39
Fri Jan 29 16:29:54 2010	 Indianapolis IN 	Overcast	14	62	NE	6	30.47	3	14	6
Fri Jan 29 16:29:55 2010	 Boston MA 	Clear	16	34	W	25	30.03	-8	16	-2
Fri Jan 29 16:29:56 2010	 Jacksonville FL 	Overcast	55	67	SE	5	30.21	45	55	55
Fri Jan 29 16:29:57 2010	 Columbus OH 	Overcast	12	52	N	8	30.47	-2	12	2
Fri Jan 29 16:29:57 2010	 Dallas TX 	Light Rain	37	93	N	7	30.06	36	37	33
Fri Jan 29 16:29:58 2010	 Houston TX 	Light Rain	57	88	NW	18	29.88	54	57	54
Fri Jan 29 16:29:59 2010	 Seattle WA 	Mostly Cloudy	45	71	SE	7	29.97	36	45	41
Fri Jan 29 16:30:00 2010	 Milwaukee WI 	Partly Cloudy	7	56	NW	8	30.5	-6	7	-5
Fri Jan 29 16:30:01 2010	 Detroit MI 	Clear	12	52	NW	10	30.45	-2	12	N/A
Fri Jan 29 16:30:02 2010	 Philadelphia PA 	Mostly Cloudy	19	42	NNW	14	30.39	N/A	19	7
Fri Jan 29 17:14:07 2010	 San Jose CA 	Overcast	46	87	SE	3	30.03	43	46	46
Fri Jan 29 17:14:08 2010	 Charlotte NC 	Mostly Cloudy	41	33	ENE	12	30.27	14	41	35
Fri Jan 29 17:14:09 2010	 San Diego CA 	Mostly Cloudy	54	72	E	3	30.09	45	54	54
Fri Jan 29 17:14:10 2010	 Denver CO 	Fog And Mist	25	100	SW	7	30.06	25	25	18
Fri Jan 29 17:14:10 2010	 Memphis TN 	Fog And Mist	30	86	NE	15	30.27	27	30	20
Fri Jan 29 17:14:12 2010	 Los Angeles CA 	Clear	54	58	N/A		30.06	39	54	54
Fri Jan 29 17:14:13 2010	 El Paso TX 	Mostly Cloudy	32	75	NNE	3	30.15	25	32	29
Fri Jan 29 17:14:14 2010	 New York City NY 	Clear	19	35	WNW	15	30.3	-4	19	6
Fri Jan 29 17:14:15 2010	 Baltimore MD 	Fair	21	38	N/A		30.39	N/A	21	21
Fri Jan 29 17:14:16 2010	 Las Vegas NV 	Clear	41	70	NW	3	30.12	32	41	39
Fri Jan 29 17:14:17 2010	 Washington DC 	Overcast	21	42	NNW	14	30.45	1	21	9
Fri Jan 29 17:14:18 2010	 Austin TX 	Overcast	39	93	NW	12	30.09	37	39	33
Fri Jan 29 17:14:19 2010	 San Francisco CA 	Fog And Mist	48	94	N/A		30.03	46	48	48
Fri Jan 29 17:14:21 2010	 Oklahoma City OK 	Light Snow	25	80	N	12	30.15	19	25	15
Fri Jan 29 17:14:21 2010	 Nashville TN 	Light Snow	25	86	NE	9	30.36	21	25	16
Fri Jan 29 17:14:23 2010	 Fort Worth TX 	Light Rain	34	81	N	18	30.15	28	34	24
Fri Jan 29 17:14:24 2010	 Phoenix AZ 	Partly Cloudy	54	82	E	3	30.06	48	54	54
Fri Jan 29 17:14:24 2010	 Portland OR 	Overcast	46	66	ESE	15	29.97	36	46	40
Fri Jan 29 17:14:25 2010	 Chicago IL 	Mostly Cloudy	10	56	N/A		30.53	-2	10	10
Fri Jan 29 17:14:27 2010	 San Antonio TX 	Mostly Cloudy	45	76	N	15	30.06	37	45	38
Fri Jan 29 17:14:27 2010	 Indianapolis IN 	Overcast	14	62	NE	6	30.47	3	14	6
Fri Jan 29 17:14:28 2010	 Boston MA 	Clear	18	32	WNW	28	30.03	-8	18	N/A
Fri Jan 29 17:14:29 2010	 Jacksonville FL 	Overcast	59	48	ESE	6	30.18	39	59	59
Fri Jan 29 17:14:30 2010	 Columbus OH 	Overcast	12	52	N	8	30.5	-2	12	2
Fri Jan 29 17:14:31 2010	 Dallas TX 	Light Rain	37	93	NNW	9	30.06	36	37	31
Fri Jan 29 17:14:32 2010	 Houston TX 	Overcast	54	88	NW	15	29.97	50	54	50
Fri Jan 29 17:14:33 2010	 Seattle WA 	Overcast	46	66	N/A		29.97	36	46	46
Fri Jan 29 17:14:34 2010	 Milwaukee WI 	Partly Cloudy	10	47	Variable	3	30.5	-6	10	5
Fri Jan 29 17:14:35 2010	 Detroit MI 	Clear	16	45	NW	8	30.47	-2	16	6
Fri Jan 29 17:14:36 2010	 Philadelphia PA 	Mostly Cloudy	19	42	NNW	14	30.39	N/A	19	7
Fri Jan 29 18:02:36 2010	 San Jose CA 	Overcast	46	87	SE	3	30.03	43	46	46
Fri Jan 29 18:02:37 2010	 Charlotte NC 	Mostly Cloudy	41	33	ENE	12	30.27	14	41	35
Fri Jan 29 18:02:38 2010	 San Diego CA 	Mostly Cloudy	54	72	E	3	30.09	45	54	54
Fri Jan 29 18:02:39 2010	 Denver CO 	Fog And Mist	27	100	SW	8	30.06	27	27	19
Fri Jan 29 18:02:40 2010	 Memphis TN 	Fog And Mist	30	86	ENE	17	30.21	27	30	19
Fri Jan 29 18:02:41 2010	 Los Angeles CA 	Clear	54	58	N/A		30.06	39	54	54
Fri Jan 29 18:02:43 2010	 El Paso TX 	Mostly Cloudy	32	75	NNE	3	30.15	25	32	29
Fri Jan 29 18:02:44 2010	 New York City NY 	Clear	19	35	WNW	15	30.3	-4	19	6
Fri Jan 29 18:02:45 2010	 Baltimore MD 	Fair	21	38	N/A		30.39	N/A	21	21
Fri Jan 29 18:02:46 2010	 Las Vegas NV 	Clear	41	70	NW	3	30.12	32	41	39
Fri Jan 29 18:02:47 2010	 Washington DC 	Overcast	21	42	NNW	14	30.45	1	21	9
Fri Jan 29 18:02:48 2010	 Austin TX 	Light Rain	39	87	NW	14	30.06	36	39	32
Fri Jan 29 18:02:49 2010	 San Francisco CA 	Fog And Mist	48	94	N/A		30.03	46	48	48
Fri Jan 29 18:02:50 2010	 Oklahoma City OK 	Light Snow	25	80	N	13	30.12	19	25	14
Fri Jan 29 18:02:51 2010	 Nashville TN 	Light Snow	25	86	NE	9	30.36	21	25	16
Fri Jan 29 18:02:52 2010	 Fort Worth TX 	Light Rain	34	81	NNW	16	30.18	28	34	24
Fri Jan 29 18:02:53 2010	 Phoenix AZ 	Partly Cloudy	54	82	E	3	30.06	48	54	54
Fri Jan 29 18:02:54 2010	 Portland OR 	Overcast	46	66	ESE	15	29.97	36	46	40
Fri Jan 29 18:02:55 2010	 Chicago IL 	Mostly Cloudy	10	56	N/A		30.53	-2	10	10
Fri Jan 29 18:02:56 2010	 San Antonio TX 	Mostly Cloudy	45	76	N	15	30.06	37	45	38
Fri Jan 29 18:02:57 2010	 Indianapolis IN 	Overcast	16	57	E	8	30.47	3	16	6
Fri Jan 29 18:02:58 2010	 Boston MA 	Clear	18	32	WNW	28	30.03	-8	18	N/A
Fri Jan 29 18:03:02 2010	 Jacksonville FL 	Overcast	59	48	ESE	6	30.18	39	59	59
Fri Jan 29 18:03:03 2010	 Columbus OH 	Overcast	12	52	N	8	30.5	-2	12	2
Fri Jan 29 18:03:05 2010	 Dallas TX 	Light Rain	37	93	N	7	30.09	36	37	33
Fri Jan 29 18:03:05 2010	 Houston TX 	Light Rain	52	88	NNW	25	29.97	48	52	46
Fri Jan 29 18:03:07 2010	 Seattle WA 	Overcast	46	66	N/A		29.97	36	46	46
Fri Jan 29 18:03:08 2010	 Milwaukee WI 	Partly Cloudy	10	47	Variable	3	30.5	-6	10	5
Fri Jan 29 18:03:09 2010	 Detroit MI 	Clear	16	45	NW	8	30.47	-2	16	6
Fri Jan 29 18:03:11 2010	 Philadelphia PA 	Overcast	19	42	NW	16	30.39	N/A	19	6
Fri Jan 29 18:47:29 2010	 San Jose CA 	Mostly Cloudy	48	87	NE	5	30.03	45	48	47
Fri Jan 29 18:47:30 2010	 Charlotte NC 	Mostly Cloudy	45	27	E	12	30.27	12	45	39
Fri Jan 29 18:47:31 2010	 San Diego CA 	Mostly Cloudy	55	63	E	5	30.09	43	55	55
Fri Jan 29 18:47:31 2010	 Denver CO 	Partly Cloudy	30	75	SSW	5	30.06	23	30	26
Fri Jan 29 18:47:32 2010	 Memphis TN 	Overcast	30	86	ENE	21	30.15	27	30	18
Fri Jan 29 18:47:33 2010	 Los Angeles CA 	Clear	57	59	N/A		30.06	43	57	57
Fri Jan 29 18:47:34 2010	 El Paso TX 	Partly Cloudy	36	70	N	6	30.15	27	36	31
Fri Jan 29 18:47:36 2010	 New York City NY 	Clear	19	38	WNW	12	30.27	-2	19	8
Fri Jan 29 18:47:37 2010	 Baltimore MD 	Fair	25	33	N/A		30.39	N/A	25	25
Fri Jan 29 18:47:38 2010	 Las Vegas NV 	Clear	45	61	N/A		30.12	32	45	45
Fri Jan 29 18:47:39 2010	 Washington DC 	Overcast	23	39	NW	9	30.42	1	23	14
Fri Jan 29 18:47:39 2010	 Austin TX 	Mostly Cloudy	41	81	NW	15	30.09	36	41	34
Fri Jan 29 18:47:41 2010	 San Francisco CA 	Fog And Mist	50	88	E	3	30.03	46	50	50
Fri Jan 29 18:47:42 2010	 Oklahoma City OK 	Light Snow	25	80	N	14	30.12	19	25	14
Fri Jan 29 18:47:42 2010	 Nashville TN 	Light Snow	25	86	NE	10	30.36	21	25	15
Fri Jan 29 18:47:44 2010	 Fort Worth TX 	Light Rain	34	81	NW	14	30.15	28	34	25
Fri Jan 29 18:47:45 2010	 Phoenix AZ 	Partly Cloudy	55	77	E	6	30.09	48	55	55
Fri Jan 29 18:47:45 2010	 Portland OR 	Overcast	48	62	E	13	29.97	36	48	43
Fri Jan 29 18:47:46 2010	 Chicago IL 	Mostly Cloudy	14	52	N/A		30.53	N/A	14	14
Fri Jan 29 18:47:47 2010	 San Antonio TX 	Partly Cloudy	46	66	NNW	14	30.06	36	46	41
Fri Jan 29 18:47:48 2010	 Indianapolis IN 	Overcast	18	58	ENE	12	30.45	5	18	6
Fri Jan 29 18:47:49 2010	 Boston MA 	Clear	19	27	NW	26	30	-9	19	2
Fri Jan 29 18:47:50 2010	 Jacksonville FL 	Overcast	63	39	E	8	30.15	37	63	62
Fri Jan 29 18:47:51 2010	 Columbus OH 	Overcast	14	52	NE	7	30.5	N/A	14	5
Fri Jan 29 18:47:52 2010	 Dallas TX 	Light Rain	37	93	NW	7	30.09	36	37	33
Fri Jan 29 18:47:53 2010	 Houston TX 	Light Rain	52	82	NNW	18	29.94	46	52	47
Fri Jan 29 18:47:54 2010	 Seattle WA 	Overcast	48	66	N/A		30	37	48	48
Fri Jan 29 18:47:56 2010	 Milwaukee WI 	Partly Cloudy	12	48	N/A		30.53	-4	12	12
Fri Jan 29 18:47:57 2010	 Detroit MI 	Clear	16	45	NW	5	30.47	-2	16	10
Fri Jan 29 18:47:58 2010	 Philadelphia PA 	Mostly Cloudy	21	38	NW	17	30.33	N/A	21	8
Fri Jan 29 19:39:52 2010	 San Jose CA 	Mostly Cloudy	52	82	ESE	7	30.03	46	52	50
Fri Jan 29 19:39:53 2010	 Charlotte NC 	Mostly Cloudy	43	29	NE	6	30.24	12	43	40
Fri Jan 29 19:39:54 2010	 San Diego CA 	Mostly Cloudy	61	55	S	7	30.09	45	61	60
Fri Jan 29 19:39:55 2010	 Denver CO 	Partly Cloudy	36	48	N	3	30.06	18	36	33
Fri Jan 29 19:39:56 2010	 Memphis TN 	Freezing Rain	30	86	ENE	23	30.12	27	30	18
Fri Jan 29 19:39:57 2010	 Los Angeles CA 	Clear	63	42	Variable	3	30.06	39	63	63
Fri Jan 29 19:39:59 2010	 El Paso TX 	Partly Cloudy	37	70	N	7	30.15	28	37	33
Fri Jan 29 19:40:00 2010	 New York City NY 	Partly Cloudy	21	35	W	10	30.24	-2	21	11
Fri Jan 29 19:40:01 2010	 Baltimore MD 	Fair	25	33	N/A		30.36	N/A	25	25
Fri Jan 29 19:40:02 2010	 Las Vegas NV 	Clear	48	50	N/A		30.12	30	48	48
Fri Jan 29 19:40:03 2010	 Washington DC 	Overcast	25	36	NW	12	30.39	1	25	15
Fri Jan 29 19:40:04 2010	 Austin TX 	Mostly Cloudy	43	76	NW	15	30.06	36	43	36
Fri Jan 29 19:40:05 2010	 San Francisco CA 	Fog And Mist	52	82	E	7	30.03	46	52	50
Fri Jan 29 19:40:06 2010	 Oklahoma City OK 	Snow	25	80	N	17	30.09	19	25	12
Fri Jan 29 19:40:07 2010	 Nashville TN 	Light Snow	25	86	NE	9	30.33	21	25	16
Fri Jan 29 19:40:08 2010	 Fort Worth TX 	Overcast	36	75	NW	14	30.12	28	36	27
Fri Jan 29 19:40:09 2010	 Phoenix AZ 	Partly Cloudy	59	68	E	6	30.09	48	59	59
Fri Jan 29 19:40:10 2010	 Portland OR 	Overcast	48	62	ESE	24	29.97	36	48	41
Fri Jan 29 19:40:11 2010	 Chicago IL 	Mostly Cloudy	18	49	N/A		30.47	1	18	18
Fri Jan 29 19:40:12 2010	 San Antonio TX 	Clear	48	66	NW	13	30.06	37	48	43
Fri Jan 29 19:40:13 2010	 Indianapolis IN 	Overcast	18	62	ENE	10	30.42	7	18	7
Fri Jan 29 19:40:14 2010	 Boston MA 	Partly Cloudy	19	27	W	24	29.97	-9	19	3
Fri Jan 29 19:40:15 2010	 Jacksonville FL 	Mostly Cloudy	64	40	E	6	30.12	39	64	64
Fri Jan 29 19:40:16 2010	 Columbus OH 	Overcast	16	48	N	8	30.45	N/A	16	6
Fri Jan 29 19:40:17 2010	 Dallas TX 	Light Rain	37	93	NW	14	30.03	36	37	30
Fri Jan 29 19:40:18 2010	 Houston TX 	Overcast	52	88	NNW	16	29.91	48	52	47
Fri Jan 29 19:40:18 2010	 Seattle WA 	Overcast	50	62	N/A		29.97	37	50	50
Fri Jan 29 19:40:19 2010	 Milwaukee WI 	Partly Cloudy	14	41	N/A		30.5	-6	14	14
Fri Jan 29 19:40:20 2010	 Detroit MI 	Partly Cloudy	19	42	NW	8	30.45	N/A	19	10
Fri Jan 29 19:40:21 2010	 Philadelphia PA 	Mostly Cloudy	21	38	NW	14	30.33	N/A	21	9
Fri Jan 29 20:37:51 2010	 San Jose CA 	Overcast	55	77	SE	8	30.03	48	55	54
Fri Jan 29 20:37:53 2010	 Charlotte NC 	Overcast	45	29	ENE	8	30.24	14	45	41
Fri Jan 29 20:37:53 2010	 San Diego CA 	Mostly Cloudy	61	55	S	6	30.09	45	61	61
Fri Jan 29 20:37:55 2010	 Denver CO 	Partly Cloudy	37	41	NNW	5	30.06	16	37	34
Fri Jan 29 20:37:55 2010	 Memphis TN 	Freezing Rain	30	86	E	16	30.06	27	30	20
Fri Jan 29 20:37:56 2010	 Los Angeles CA 	Clear	63	42	N/A		30.06	39	63	63
Fri Jan 29 20:37:58 2010	 El Paso TX 	Partly Cloudy	39	65	N	8	30.15	28	39	34
Fri Jan 29 20:37:59 2010	 New York City NY 	Partly Cloudy	21	35	NW	14	30.24	-2	21	9
Fri Jan 29 20:38:00 2010	 Baltimore MD 	Fair	25	33	N/A		30.36	N/A	25	25
Fri Jan 29 20:38:01 2010	 Las Vegas NV 	Clear	50	47	N/A		30.12	30	50	50
Fri Jan 29 20:38:02 2010	 Washington DC 	Overcast	25	36	NNW	9	30.39	1	25	16
Fri Jan 29 20:38:03 2010	 Austin TX 	Overcast	41	76	NW	13	30.06	34	41	34
Fri Jan 29 20:38:04 2010	 San Francisco CA 	Hazy	54	77	SE	10	30.03	46	54	51
Fri Jan 29 20:38:05 2010	 Oklahoma City OK 	Snow	21	93	N	15	30.09	19	21	9
Fri Jan 29 20:38:06 2010	 Nashville TN 	Light Snow	25	86	ENE	10	30.27	21	25	15
Fri Jan 29 20:38:07 2010	 Fort Worth TX 	Overcast	36	81	NW	18	30.09	30	36	26
Fri Jan 29 20:38:07 2010	 Phoenix AZ 	Mostly Cloudy	59	63	N/A		30.06	46	59	59
Fri Jan 29 20:38:08 2010	 Portland OR 	Light Rain	48	66	E	20	30	37	48	42
Fri Jan 29 20:38:09 2010	 Chicago IL 	Mostly Cloudy	19	49	N/A		30.45	3	19	19
Fri Jan 29 20:38:10 2010	 San Antonio TX 	Clear	52	58	NW	12	30.03	37	52	48
Fri Jan 29 20:38:11 2010	 Indianapolis IN 	Overcast	18	62	ENE	9	30.39	7	18	7
Fri Jan 29 20:38:12 2010	 Boston MA 	Partly Cloudy	19	27	WNW	24	30	-9	19	3
Fri Jan 29 20:38:13 2010	 Jacksonville FL 	Mostly Cloudy	66	43	ESE	7	30.09	43	66	66
Fri Jan 29 20:38:14 2010	 Columbus OH 	Mostly Cloudy	16	48	N	7	30.45	N/A	16	7
Fri Jan 29 20:38:15 2010	 Dallas TX 	Overcast	37	93	NW	14	30.03	36	37	30
Fri Jan 29 20:38:16 2010	 Houston TX 	Overcast	54	82	NNW	9	29.88	48	54	51
Fri Jan 29 20:38:17 2010	 Seattle WA 	Clear	52	58	N/A		30	37	52	52
Fri Jan 29 20:38:18 2010	 Milwaukee WI 	Partly Cloudy	16	37	N/A		30.45	-6	16	16
Fri Jan 29 20:38:19 2010	 Detroit MI 	Partly Cloudy	19	42	NW	5	30.45	N/A	19	14
Fri Jan 29 20:38:20 2010	 Philadelphia PA 	Mostly Cloudy	23	36	NW	15	30.3	N/A	23	11
Fri Jan 29 21:21:57 2010	 San Jose CA 	Mostly Cloudy	61	63	ESE	12	29.97	48	61	59
Fri Jan 29 21:21:58 2010	 Charlotte NC 	Overcast	43	31	NE	9	30.24	14	43	38
Fri Jan 29 21:21:59 2010	 San Diego CA 	Mostly Cloudy	61	63	S	6	30.06	48	61	61
Fri Jan 29 21:22:00 2010	 Denver CO 	Partly Cloudy	41	33	NW	3	30.03	14	41	39
Fri Jan 29 21:22:01 2010	 Memphis TN 	Freezing Rain	30	93	ENE	13	30.03	28	30	21
Fri Jan 29 21:22:02 2010	 Los Angeles CA 	Clear	66	37	N/A		30.03	39	66	66
Fri Jan 29 21:22:03 2010	 El Paso TX 	Partly Cloudy	43	61	N	7	30.09	30	43	39
Fri Jan 29 21:22:04 2010	 New York City NY 	Clear	23	33	W	14	30.24	-2	23	11
Fri Jan 29 21:22:05 2010	 Baltimore MD 	Fair	25	33	N/A		30.36	N/A	25	25
Fri Jan 29 21:22:06 2010	 Las Vegas NV 	Clear	52	44	N/A		30.09	30	52	52
Fri Jan 29 21:22:06 2010	 Washington DC 	Overcast	27	33	NW	9	30.39	1	27	18
Fri Jan 29 21:22:08 2010	 Austin TX 	Overcast	39	70	NW	13	30.06	30	39	32
Fri Jan 29 21:22:08 2010	 San Francisco CA 	Hazy	54	82	SSW	12	30	48	54	50
Fri Jan 29 21:22:10 2010	 Oklahoma City OK 	Snow	23	86	NNW	13	30.06	19	23	12
Fri Jan 29 21:22:11 2010	 Nashville TN 	Snow	25	86	NE	12	30.24	21	25	15
Fri Jan 29 21:22:11 2010	 Fort Worth TX 	Overcast	36	75	NW	16	30.09	28	36	27
Fri Jan 29 21:22:12 2010	 Phoenix AZ 	Partly Cloudy	63	56	N/A		30.03	46	63	63
Fri Jan 29 21:22:13 2010	 Portland OR 	Overcast	50	62	E	10	29.97	37	50	46
Fri Jan 29 21:22:14 2010	 Chicago IL 	Mostly Cloudy	19	58	E	9	30.42	7	19	10
Fri Jan 29 21:22:15 2010	 San Antonio TX 	Clear	54	54	NNW	10	30	37	54	51
Fri Jan 29 21:22:16 2010	 Indianapolis IN 	Overcast	18	62	ENE	8	30.36	7	18	8
Fri Jan 29 21:22:17 2010	 Boston MA 	Partly Cloudy	19	25	WNW	26	30	-11	19	2
Fri Jan 29 21:22:18 2010	 Jacksonville FL 	Overcast	68	43	NE	6	30.09	45	68	68
Fri Jan 29 21:22:19 2010	 Columbus OH 	Overcast	18	45	NE	6	30.42	N/A	18	10
Fri Jan 29 21:22:20 2010	 Dallas TX 	Light Rain	37	87	NW	15	30	34	37	29
Fri Jan 29 21:22:21 2010	 Houston TX 	Overcast	52	82	NW	17	29.91	46	52	47
Fri Jan 29 21:22:22 2010	 Seattle WA 	Overcast	54	54	N/A		29.97	37	54	54
Fri Jan 29 21:22:23 2010	 Milwaukee WI 	Partly Cloudy	18	49	ENE	7	30.42	1	18	9
Fri Jan 29 21:22:24 2010	 Detroit MI 	Clear	19	42	N	7	30.42	N/A	19	11
Fri Jan 29 21:22:26 2010	 Philadelphia PA 	Mostly Cloudy	25	33	NNW	17	30.3	N/A	25	12
Fri Jan 29 22:07:55 2010	 San Jose CA 	Mostly Cloudy	61	63	ESE	12	29.97	48	61	59
Fri Jan 29 22:07:55 2010	 Charlotte NC 	Overcast	43	31	NE	9	30.24	14	43	38
Fri Jan 29 22:07:57 2010	 San Diego CA 	Mostly Cloudy	61	63	S	6	30.06	48	61	61
Fri Jan 29 22:07:58 2010	 Denver CO 	Partly Cloudy	41	33	NW	3	30.03	14	41	39
Fri Jan 29 22:07:59 2010	 Memphis TN 	Light Rain	32	87	NE	14	30.03	28	32	23
Fri Jan 29 22:08:00 2010	 Los Angeles CA 	Clear	66	37	N/A		30.03	39	66	66
Fri Jan 29 22:08:02 2010	 El Paso TX 	Partly Cloudy	43	61	N	7	30.09	30	43	39
Fri Jan 29 22:08:03 2010	 New York City NY 	Clear	23	36	NW	12	30.24	N/A	23	13
Fri Jan 29 22:08:04 2010	 Baltimore MD 	Fair	25	33	N/A		30.33	N/A	25	25
Fri Jan 29 22:08:05 2010	 Las Vegas NV 	Clear	54	41	N/A		30.06	30	54	54
Fri Jan 29 22:08:06 2010	 Washington DC 	Overcast	27	33	NNW	13	30.36	1	27	17
Fri Jan 29 22:08:07 2010	 Austin TX 	Overcast	39	70	NW	9	30.03	30	39	33
Fri Jan 29 22:08:09 2010	 San Francisco CA 	Mostly Cloudy	55	72	W	7	29.97	46	55	54
Fri Jan 29 22:08:10 2010	 Oklahoma City OK 	Snow	21	86	N	21	30.06	18	21	7
Fri Jan 29 22:08:10 2010	 Nashville TN 	Light Snow	27	80	NE	12	30.18	21	27	17
Fri Jan 29 22:08:12 2010	 Fort Worth TX 	Overcast	34	75	NW	16	30.06	27	34	24
Fri Jan 29 22:08:13 2010	 Phoenix AZ 	Partly Cloudy	64	49	N/A		30	45	64	64
Fri Jan 29 22:08:14 2010	 Portland OR 	Overcast	50	62	E	17	29.94	37	50	45
Fri Jan 29 22:08:15 2010	 Chicago IL 	Mostly Cloudy	19	58	E	8	30.42	7	19	10
Fri Jan 29 22:08:16 2010	 San Antonio TX 	Partly Cloudy	54	54	WNW	15	30	37	54	50
Fri Jan 29 22:08:17 2010	 Indianapolis IN 	Mostly Cloudy	19	58	E	9	30.33	7	19	10
Fri Jan 29 22:08:18 2010	 Boston MA 	Partly Cloudy	19	27	WNW	23	30.03	-9	19	4
Fri Jan 29 22:08:19 2010	 Jacksonville FL 	Overcast	66	49	E	12	30.06	46	66	66
Fri Jan 29 22:08:20 2010	 Columbus OH 	Overcast	16	53	E	6	30.39	1	16	8
Fri Jan 29 22:08:21 2010	 Dallas TX 	Drizzle	36	81	NW	18	30	30	36	26
Fri Jan 29 22:08:22 2010	 Houston TX 	Overcast	48	82	NW	20	29.91	43	48	42
Fri Jan 29 22:08:23 2010	 Seattle WA 	Overcast	54	54	N/A		29.97	37	54	54
Fri Jan 29 22:08:24 2010	 Milwaukee WI 	Partly Cloudy	16	53	NE	8	30.42	1	16	6
Fri Jan 29 22:08:25 2010	 Detroit MI 	Clear	19	42	NNW	5	30.39	N/A	19	14
Fri Jan 29 22:08:27 2010	 Philadelphia PA 	Mostly Cloudy	25	33	WNW	15	30.33	N/A	25	13
Fri Jan 29 22:54:15 2010	 San Jose CA 	Mostly Cloudy	61	63	ESE	8	29.94	48	61	60
Fri Jan 29 22:54:16 2010	 Charlotte NC 	Light Snow	36	75	NE	7	30.27	28	36	31
Fri Jan 29 22:54:17 2010	 San Diego CA 	Mostly Cloudy	63	64	SSW	9	30.03	50	63	62
Fri Jan 29 22:54:18 2010	 Denver CO 	Partly Cloudy	43	26	E	2	30	10	43	43
Fri Jan 29 22:54:19 2010	 Memphis TN 	Freezing Rain	30	93	NE	18	30	28	30	19
Fri Jan 29 22:54:20 2010	 Los Angeles CA 	Clear	66	37	N/A		30	39	66	66
Fri Jan 29 22:54:22 2010	 El Paso TX 	Partly Cloudy	43	61	NW	5	30.09	30	43	40
Fri Jan 29 22:54:23 2010	 New York City NY 	Clear	23	36	NW	12	30.24	N/A	23	13
Fri Jan 29 22:54:24 2010	 Baltimore MD 	Fair	25	33	N/A		30.33	N/A	25	25
Fri Jan 29 22:54:25 2010	 Las Vegas NV 	Clear	54	41	N/A		30.06	30	54	54
Fri Jan 29 22:54:26 2010	 Washington DC 	Overcast	27	33	NNW	13	30.36	1	27	17
Fri Jan 29 22:54:27 2010	 Austin TX 	Overcast	39	70	NW	9	30.03	30	39	33
Fri Jan 29 22:54:28 2010	 San Francisco CA 	Mostly Cloudy	55	72	W	7	29.97	46	55	54
Fri Jan 29 22:54:29 2010	 Oklahoma City OK 	Snow	21	86	N	21	30.06	18	21	7
Fri Jan 29 22:54:30 2010	 Nashville TN 	Light Snow	27	80	NE	12	30.18	21	27	17
Fri Jan 29 22:54:31 2010	 Fort Worth TX 	Overcast	34	75	NW	16	30.06	27	34	24
Fri Jan 29 22:54:32 2010	 Phoenix AZ 	Partly Cloudy	64	49	N/A		30	45	64	64
Fri Jan 29 22:54:33 2010	 Portland OR 	Overcast	50	62	E	17	29.94	37	50	45
Fri Jan 29 22:54:34 2010	 Chicago IL 	Mostly Cloudy	19	58	E	8	30.42	7	19	10
Fri Jan 29 22:54:35 2010	 San Antonio TX 	Partly Cloudy	54	54	WNW	15	30	37	54	50
Fri Jan 29 22:54:36 2010	 Indianapolis IN 	Mostly Cloudy	19	58	E	9	30.33	7	19	10
Fri Jan 29 22:54:37 2010	 Boston MA 	Partly Cloudy	19	27	WNW	23	30.03	-9	19	4
Fri Jan 29 22:54:38 2010	 Jacksonville FL 	Overcast	66	49	E	12	30.06	46	66	66
Fri Jan 29 22:54:39 2010	 Columbus OH 	Overcast	16	53	E	6	30.39	1	16	8
Fri Jan 29 22:54:40 2010	 Dallas TX 	Drizzle	36	81	NW	18	30	30	36	26
Fri Jan 29 22:54:40 2010	 Houston TX 	Overcast	48	82	NW	20	29.91	43	48	42
Fri Jan 29 22:54:42 2010	 Seattle WA 	Overcast	54	54	N/A		29.97	37	54	54
Fri Jan 29 22:54:43 2010	 Milwaukee WI 	Partly Cloudy	16	53	NE	8	30.42	1	16	6
Fri Jan 29 22:54:44 2010	 Detroit MI 	Clear	19	42	NNW	5	30.39	N/A	19	14
Fri Jan 29 22:54:45 2010	 Philadelphia PA 	Mostly Cloudy	25	33	WNW	15	30.33	N/A	25	13
Fri Jan 29 23:38:23 2010	 San Jose CA 	Partly Cloudy	63	52	S	15	29.94	45	63	61
Fri Jan 29 23:38:24 2010	 Charlotte NC 	Light Snow	34	81	E	5	30.27	28	34	30
Fri Jan 29 23:38:25 2010	 San Diego CA 	Mostly Cloudy	61	72	SW	6	30.03	52	61	61
Fri Jan 29 23:38:25 2010	 Denver CO 	Partly Cloudy	43	26	NW	5	30	10	43	40
Fri Jan 29 23:38:27 2010	 Memphis TN 	Freezing Rain	30	93	ENE	17	29.97	28	30	19
Fri Jan 29 23:38:27 2010	 Los Angeles CA 	Clear	66	40	N/A		30	41	66	66
Fri Jan 29 23:38:29 2010	 El Paso TX 	Partly Cloudy	46	53	N/A		30.09	30	46	46
Fri Jan 29 23:38:30 2010	 New York City NY 	Clear	21	35	W	8	30.24	-2	21	13
Fri Jan 29 23:38:31 2010	 Baltimore MD 	Fair	27	31	N/A		30.33	N/A	27	27
Fri Jan 29 23:38:32 2010	 Las Vegas NV 	Clear	54	41	Variable	3	30.06	30	54	54
Fri Jan 29 23:38:33 2010	 Washington DC 	Overcast	27	33	NW	9	30.36	1	27	18
Fri Jan 29 23:38:34 2010	 Austin TX 	Overcast	39	65	NW	10	30.06	28	39	33
Fri Jan 29 23:38:34 2010	 San Francisco CA 	Mostly Cloudy	57	67	NW	7	29.97	46	57	56
Fri Jan 29 23:38:35 2010	 Oklahoma City OK 	Light Snow	23	93	NNW	3	30.06	21	23	19
Fri Jan 29 23:38:36 2010	 Nashville TN 	Light Snow	27	86	ENE	12	30.15	23	27	17
Fri Jan 29 23:38:37 2010	 Fort Worth TX 	Overcast	34	75	NW	14	30.09	27	34	25
Fri Jan 29 23:38:38 2010	 Phoenix AZ 	Partly Cloudy	64	46	N/A		30	43	64	64
Fri Jan 29 23:38:39 2010	 Portland OR 	Overcast	50	67	SE	8	29.97	39	50	47
Fri Jan 29 23:38:40 2010	 Chicago IL 	Mostly Cloudy	19	63	ENE	7	30.39	9	19	11
Fri Jan 29 23:38:41 2010	 San Antonio TX 	Clear	50	54	N	14	30.03	34	50	45
Fri Jan 29 23:38:41 2010	 Indianapolis IN 	Mostly Cloudy	19	58	ENE	14	30.3	7	19	7
Fri Jan 29 23:38:42 2010	 Boston MA 	Partly Cloudy	18	27	WNW	25	30.03	-11	18	1
Fri Jan 29 23:38:43 2010	 Jacksonville FL 	Overcast	63	56	E	10	30.06	46	63	62
Fri Jan 29 23:38:44 2010	 Columbus OH 	Overcast	16	53	NE	8	30.39	1	16	6
Fri Jan 29 23:38:45 2010	 Dallas TX 	Overcast	34	81	NW	17	30.03	28	34	24
Fri Jan 29 23:38:46 2010	 Houston TX 	Overcast	46	76	NW	16	29.94	39	46	40
Fri Jan 29 23:38:47 2010	 Seattle WA 	Clear	55	51	N/A		29.94	37	55	55
Fri Jan 29 23:38:48 2010	 Milwaukee WI 	Partly Cloudy	16	53	ESE	5	30.42	1	16	10
Fri Jan 29 23:38:49 2010	 Detroit MI 	Clear	19	42	Variable	7	30.39	N/A	19	11
Fri Jan 29 23:38:50 2010	 Philadelphia PA 	Mostly Cloudy	25	36	WNW	10	30.3	1	25	15
Mon Feb  1 00:05:14 2010	 San Jose CA 	Mostly Cloudy	61	59	NW	5	29.97	46	61	61
Mon Feb  1 00:05:16 2010	 Charlotte NC 	Partly Cloudy	37	48	S	3	30.21	19	37	35
Mon Feb  1 00:05:18 2010	 San Diego CA 	Partly Cloudy	61	63	W	10	29.94	48	61	60
Mon Feb  1 00:05:19 2010	 Denver CO 	Mostly Cloudy	39	48	N	10	29.8	21	39	33
Mon Feb  1 00:05:20 2010	 Memphis TN 	Partly Cloudy	37	65	Variable	3	30.3	27	37	35
Mon Feb  1 00:05:20 2010	 Los Angeles CA 	Clear	66	52	W	5	29.91	48	66	66
Mon Feb  1 00:05:22 2010	 El Paso TX 	Mostly Cloudy	57	41	N/A		29.91	34	57	57
Mon Feb  1 00:05:23 2010	 New York City NY 	Clear	28	31	SSW	8	30.09	1	28	21
Mon Feb  1 00:05:24 2010	 Baltimore MD 	Fair	30	34	N/A		30.15	5	30	30
Mon Feb  1 00:05:25 2010	 Las Vegas NV 	Clear	57	39	N/A		29.94	32	57	57
Mon Feb  1 00:05:27 2010	 Washington DC 	Clear	34	27	W	5	30.18	3	34	30
Mon Feb  1 00:05:28 2010	 Austin TX 	Hazy	36	81	E	3	30.21	30	36	33
Mon Feb  1 00:05:29 2010	 San Francisco CA 	Mostly Cloudy	54	77	NW	6	30	46	54	52
Mon Feb  1 00:05:30 2010	 Oklahoma City OK 	Fog And Mist	28	86	Variable	5	30.18	25	28	24
Mon Feb  1 00:05:32 2010	 Nashville TN 	Partly Cloudy	36	48	N/A		30.3	18	36	36
Mon Feb  1 00:05:33 2010	 Fort Worth TX 	Overcast	36	70	ESE	3	30.27	27	36	33
Mon Feb  1 00:05:34 2010	 Phoenix AZ 	Partly Cloudy	66	37	N/A		29.85	39	66	66
Mon Feb  1 00:05:36 2010	 Portland OR 	Overcast	52	77	ENE	6	29.97	45	52	50
Mon Feb  1 00:05:37 2010	 Chicago IL 	Mostly Cloudy	28	51	W	15	30.21	12	28	18
Mon Feb  1 00:05:38 2010	 San Antonio TX 	Overcast	39	70	E	9	30.18	30	39	33
Mon Feb  1 00:05:39 2010	 Indianapolis IN 	Partly Cloudy	28	51	SSW	10	30.24	12	28	20
Mon Feb  1 00:05:40 2010	 Boston MA 	Partly Cloudy	28	31	WNW	10	30	1	28	20
Mon Feb  1 00:05:41 2010	 Jacksonville FL 	Mostly Cloudy	45	71	NE	15	30.24	36	45	38
Mon Feb  1 00:05:43 2010	 Columbus OH 	Clear	30	40	W	16	30.18	9	30	20
Mon Feb  1 00:05:44 2010	 Dallas TX 	Overcast	37	70	N/A		30.21	28	37	37
Mon Feb  1 00:05:45 2010	 Houston TX 	Overcast	43	66	N/A		30.21	32	43	43
Mon Feb  1 00:05:46 2010	 Seattle WA 	Overcast	50	76	SW	5	29.97	43	50	49
Mon Feb  1 00:05:47 2010	 Milwaukee WI 	Mostly Cloudy	25	42	NW	13	30.21	5	25	14
Mon Feb  1 00:05:48 2010	 Detroit MI 	Partly Cloudy	27	54	SSW	16	30.06	12	27	15
Mon Feb  1 00:05:49 2010	 Philadelphia PA 	Clear	28	37	SSW	12	30.15	5	28	19
Mon Feb  1 00:48:33 2010	 San Jose CA 	Mostly Cloudy	59	59	SSW	5	29.97	45	59	59
Mon Feb  1 00:48:34 2010	 Charlotte NC 	Partly Cloudy	36	52	S	5	30.24	19	36	32
Mon Feb  1 00:48:35 2010	 San Diego CA 	Partly Cloudy	61	63	NW	10	29.94	48	61	60
Mon Feb  1 00:48:36 2010	 Denver CO 	Mostly Cloudy	37	52	NE	12	29.8	21	37	31
Mon Feb  1 00:48:37 2010	 Memphis TN 	Mostly Cloudy	36	70	NE	7	30.3	27	36	31
Mon Feb  1 00:48:38 2010	 Los Angeles CA 	Clear	64	52	W	5	29.91	46	64	64
Mon Feb  1 00:48:40 2010	 El Paso TX 	Overcast	57	41	S	3	29.91	34	57	57
Mon Feb  1 00:48:41 2010	 New York City NY 	Clear	28	34	SW	8	30.09	3	28	21
Mon Feb  1 00:48:42 2010	 Baltimore MD 	Fair	30	34	N/A		30.15	5	30	30
Mon Feb  1 00:48:43 2010	 Las Vegas NV 	Clear	57	36	N/A		29.94	30	57	57
Mon Feb  1 00:48:44 2010	 Washington DC 	Clear	32	32	SW	6	30.18	5	32	27
Mon Feb  1 00:48:44 2010	 Austin TX 	Hazy	36	81	N/A		30.21	30	36	36
Mon Feb  1 00:48:46 2010	 San Francisco CA 	Mostly Cloudy	54	77	NW	8	30	46	54	51
Mon Feb  1 00:48:47 2010	 Oklahoma City OK 	Fog And Mist	28	86	Variable	5	30.18	25	28	24
Mon Feb  1 00:48:48 2010	 Nashville TN 	Partly Cloudy	36	48	N/A		30.3	18	36	36
Mon Feb  1 00:48:49 2010	 Fort Worth TX 	Overcast	34	75	SSE	5	30.27	27	34	30
Mon Feb  1 00:48:50 2010	 Phoenix AZ 	Partly Cloudy	70	33	SW	7	29.85	39	70	70
Mon Feb  1 00:48:50 2010	 Portland OR 	Mostly Cloudy	52	77	E	3	29.97	45	52	52
Mon Feb  1 00:48:51 2010	 Chicago IL 	Mostly Cloudy	27	54	NW	10	30.24	12	27	18
Mon Feb  1 00:48:52 2010	 San Antonio TX 	Overcast	39	70	NE	8	30.18	30	39	34
Mon Feb  1 00:48:53 2010	 Indianapolis IN 	Partly Cloudy	27	54	SSW	9	30.24	12	27	18
Mon Feb  1 00:48:54 2010	 Boston MA 	Clear	27	36	W	13	30	3	27	17
Mon Feb  1 00:48:56 2010	 Jacksonville FL 	Mostly Cloudy	45	71	NE	14	30.24	36	45	38
Mon Feb  1 00:48:57 2010	 Columbus OH 	Partly Cloudy	28	47	SSW	10	30.18	10	28	20
Mon Feb  1 00:48:58 2010	 Dallas TX 	Mostly Cloudy	37	75	S	5	30.21	30	37	34
Mon Feb  1 00:48:59 2010	 Houston TX 	Overcast	41	66	SSW	6	30.24	30	41	38
Mon Feb  1 00:49:00 2010	 Seattle WA 	Overcast	50	76	S	6	29.97	43	50	48
Mon Feb  1 00:49:01 2010	 Milwaukee WI 	Mostly Cloudy	23	46	WNW	13	30.21	5	23	12
Mon Feb  1 00:49:02 2010	 Detroit MI 	Clear	27	54	SSW	12	30.09	12	27	17
Mon Feb  1 00:49:03 2010	 Philadelphia PA 	Clear	27	43	SW	13	30.15	7	27	17
Mon Feb  1 01:33:12 2010	 San Jose CA 	Mostly Cloudy	59	59	SSW	5	29.97	45	59	59
Mon Feb  1 01:33:13 2010	 Charlotte NC 	Clear	36	35	N/A		30.24	10	36	36
Mon Feb  1 01:33:14 2010	 San Diego CA 	Mostly Cloudy	63	64	NW	8	29.94	50	63	62
Mon Feb  1 01:33:15 2010	 Denver CO 	Partly Cloudy	36	52	NNE	5	29.83	19	36	32
Mon Feb  1 01:33:16 2010	 Memphis TN 	Clear	30	80	N	3	30.3	25	30	27
Mon Feb  1 01:33:17 2010	 Los Angeles CA 	Clear	63	52	SSW	8	29.94	45	63	62
Mon Feb  1 01:33:18 2010	 El Paso TX 	Clear	54	51	SSE	5	29.94	36	54	53
Mon Feb  1 01:33:20 2010	 New York City NY 	Clear	30	26	SSW	13	30.09	N/A	30	21
Mon Feb  1 01:33:20 2010	 Baltimore MD 	Clear	23	46	N/A		30.15	5	23	23
Mon Feb  1 01:33:21 2010	 Las Vegas NV 	Mostly Cloudy	59	34	ESE	5	29.91	30	59	59
Mon Feb  1 01:33:22 2010	 Washington DC 	Clear	28	43	SW	8	30.21	9	28	21
Mon Feb  1 01:33:23 2010	 Austin TX 	Overcast	36	81	E	3	30.21	30	36	33
Mon Feb  1 01:33:24 2010	 San Francisco CA 	Mostly Cloudy	54	82	N	5	29.97	48	54	53
Mon Feb  1 01:33:25 2010	 Oklahoma City OK 	Fog And Mist	27	100	N/A		30.15	27	27	27
Mon Feb  1 01:33:26 2010	 Nashville TN 	Clear	34	70	N/A		30.33	25	34	34
Mon Feb  1 01:33:27 2010	 Fort Worth TX 	Overcast	34	81	N/A		30.21	28	34	34
Mon Feb  1 01:33:28 2010	 Phoenix AZ 	Partly Cloudy	66	37	SW	7	29.85	39	66	66
Mon Feb  1 01:33:29 2010	 Portland OR 	Overcast	54	72	N/A		29.97	45	54	54
Mon Feb  1 01:33:30 2010	 Chicago IL 	Partly Cloudy	25	54	WNW	9	30.24	10	25	16
Mon Feb  1 01:33:31 2010	 San Antonio TX 	Mostly Cloudy	37	81	E	6	30.15	32	37	33
Mon Feb  1 01:33:32 2010	 Indianapolis IN 	Clear	27	50	W	5	30.27	10	27	22
Mon Feb  1 01:33:33 2010	 Boston MA 	Fair	21	45	W	14	29.97	3	21	9
Mon Feb  1 01:33:34 2010	 Jacksonville FL 	Overcast	43	76	NE	10	30.24	36	43	37
Mon Feb  1 01:33:35 2010	 Columbus OH 	Clear	25	59	SSW	6	30.21	12	25	19
Mon Feb  1 01:33:36 2010	 Dallas TX 	Overcast	37	75	N/A		30.21	30	37	37
Mon Feb  1 01:33:37 2010	 Houston TX 	Clear	43	71	SSW	5	30.24	34	43	40
Mon Feb  1 01:33:38 2010	 Seattle WA 	Overcast	50	76	N/A		29.97	43	50	50
Mon Feb  1 01:33:39 2010	 Milwaukee WI 	Clear	18	49	WNW	9	30.24	1	18	7
Mon Feb  1 01:33:40 2010	 Detroit MI 	Mostly Cloudy	27	54	SSW	15	30.09	12	27	16
Mon Feb  1 01:33:41 2010	 Philadelphia PA 	Clear	27	36	SSW	8	30.15	3	27	19
Mon Feb  1 02:18:06 2010	 San Jose CA 	Mostly Cloudy	55	72	NW	7	29.97	46	55	54
Mon Feb  1 02:18:07 2010	 Charlotte NC 	Partly Cloudy	30	80	SW	5	30.27	25	30	26
Mon Feb  1 02:18:08 2010	 San Diego CA 	Mostly Cloudy	57	72	WNW	7	29.97	48	57	56
Mon Feb  1 02:18:09 2010	 Denver CO 	Mostly Cloudy	30	69	NE	5	29.83	21	30	26
Mon Feb  1 02:18:10 2010	 Memphis TN 	Partly Cloudy	34	75	NE	7	30.3	27	34	28
Mon Feb  1 02:18:10 2010	 Los Angeles CA 	Clear	61	63	W	3	29.94	48	61	61
Mon Feb  1 02:18:11 2010	 El Paso TX 	Mostly Cloudy	55	47	N	3	29.91	36	55	55
Mon Feb  1 02:18:13 2010	 New York City NY 	Clear	28	31	Variable	7	30.12	1	28	22
Mon Feb  1 02:18:13 2010	 Baltimore MD 	Fair	27	50	N/A		30.18	10	27	27
Mon Feb  1 02:18:15 2010	 Las Vegas NV 	Clear	55	36	N/A		29.94	28	55	55
Mon Feb  1 02:18:15 2010	 Washington DC 	Clear	28	43	SW	5	30.21	9	28	24
Mon Feb  1 02:18:16 2010	 Austin TX 	Overcast	34	87	Variable	3	30.21	30	34	31
Mon Feb  1 02:18:17 2010	 San Francisco CA 	Mostly Cloudy	54	77	NW	5	30	46	54	53
Mon Feb  1 02:18:19 2010	 Oklahoma City OK 	Fog And Mist	27	100	N/A		30.18	27	27	27
Mon Feb  1 02:18:20 2010	 Nashville TN 	Clear	28	80	S	3	30.3	23	28	25
Mon Feb  1 02:18:21 2010	 Fort Worth TX 	Overcast	36	70	N/A		30.24	27	36	36
Mon Feb  1 02:18:22 2010	 Phoenix AZ 	Partly Cloudy	66	37	W	6	29.88	39	66	66
Mon Feb  1 02:18:23 2010	 Portland OR 	Mostly Cloudy	50	82	NW	3	29.97	45	50	50
Mon Feb  1 02:18:23 2010	 Chicago IL 	Clear	25	63	WNW	7	30.27	14	25	18
Mon Feb  1 02:18:24 2010	 San Antonio TX 	Overcast	37	75	NE	8	30.18	30	37	32
Mon Feb  1 02:18:25 2010	 Indianapolis IN 	Partly Cloudy	21	63	NW	7	30.27	10	21	13
Mon Feb  1 02:18:27 2010	 Boston MA 	Clear	27	36	SSW	14	30.03	3	27	16
Mon Feb  1 02:18:28 2010	 Jacksonville FL 	Overcast	45	76	NE	13	30.24	37	45	39
Mon Feb  1 02:18:29 2010	 Columbus OH 	Partly Cloudy	27	54	W	13	30.24	12	27	17
Mon Feb  1 02:18:29 2010	 Dallas TX 	Mostly Cloudy	37	70	N/A		30.21	28	37	37
Mon Feb  1 02:18:31 2010	 Houston TX 	Partly Cloudy	39	75	SW	6	30.21	32	39	35
Mon Feb  1 02:18:32 2010	 Seattle WA 	Mostly Cloudy	50	76	N/A		29.97	43	50	50
Mon Feb  1 02:18:33 2010	 Milwaukee WI 	Partly Cloudy	19	58	NW	8	30.24	7	19	10
Mon Feb  1 02:18:34 2010	 Detroit MI 	Overcast	27	50	WNW	14	30.15	10	27	16
Mon Feb  1 02:18:35 2010	 Philadelphia PA 	Clear	25	54	SSE	7	30.15	10	25	18
Mon Feb  1 03:02:21 2010	 San Jose CA 	Mostly Cloudy	55	72	NW	7	29.97	46	55	54
Mon Feb  1 03:02:22 2010	 Charlotte NC 	Partly Cloudy	30	80	SW	5	30.27	25	30	26
Mon Feb  1 03:02:23 2010	 San Diego CA 	Mostly Cloudy	57	72	WNW	7	29.97	48	57	56
Mon Feb  1 03:02:24 2010	 Denver CO 	Mostly Cloudy	30	69	NE	5	29.83	21	30	26
Mon Feb  1 03:02:25 2010	 Memphis TN 	Partly Cloudy	34	75	NE	7	30.3	27	34	28
Mon Feb  1 03:02:26 2010	 Los Angeles CA 	Clear	61	63	W	3	29.94	48	61	61
Mon Feb  1 03:02:27 2010	 El Paso TX 	Mostly Cloudy	55	47	N	3	29.91	36	55	55
Mon Feb  1 03:02:28 2010	 New York City NY 	Clear	28	31	Variable	7	30.12	1	28	22
Mon Feb  1 03:02:29 2010	 Baltimore MD 	Fair	27	50	N/A		30.18	10	27	27
Mon Feb  1 03:02:30 2010	 Las Vegas NV 	Clear	55	36	N/A		29.94	28	55	55
Mon Feb  1 03:02:31 2010	 Washington DC 	Clear	28	43	SW	5	30.21	9	28	24
Mon Feb  1 03:02:32 2010	 Austin TX 	Fog And Mist	34	87	N/A		30.21	30	34	34
Mon Feb  1 03:02:33 2010	 San Francisco CA 	Mostly Cloudy	54	77	NW	5	30	46	54	53
Mon Feb  1 03:02:34 2010	 Oklahoma City OK 	Fog	19	93	Variable	5	30.18	18	19	14
Mon Feb  1 03:02:35 2010	 Nashville TN 	Clear	28	80	S	3	30.3	23	28	25
Mon Feb  1 03:02:36 2010	 Fort Worth TX 	Overcast	36	70	N/A		30.24	27	36	36
Mon Feb  1 03:02:37 2010	 Phoenix AZ 	Partly Cloudy	66	37	W	6	29.88	39	66	66
Mon Feb  1 03:02:38 2010	 Portland OR 	Mostly Cloudy	50	82	NW	3	29.97	45	50	50
Mon Feb  1 03:02:39 2010	 Chicago IL 	Clear	25	63	WNW	7	30.27	14	25	18
Mon Feb  1 03:02:40 2010	 San Antonio TX 	Overcast	37	75	NE	8	30.18	30	37	32
Mon Feb  1 03:02:41 2010	 Indianapolis IN 	Partly Cloudy	21	63	NW	7	30.27	10	21	13
Mon Feb  1 03:02:42 2010	 Boston MA 	Clear	27	36	SSW	14	30.03	3	27	16
Mon Feb  1 03:02:43 2010	 Jacksonville FL 	Mostly Cloudy	45	76	NNE	12	30.24	37	45	39
Mon Feb  1 03:02:44 2010	 Columbus OH 	Partly Cloudy	27	54	W	13	30.24	12	27	17
Mon Feb  1 03:02:45 2010	 Dallas TX 	Mostly Cloudy	37	70	N/A		30.21	28	37	37
Mon Feb  1 03:02:46 2010	 Houston TX 	Partly Cloudy	39	75	SW	6	30.21	32	39	35
Mon Feb  1 03:02:47 2010	 Seattle WA 	Mostly Cloudy	50	76	N/A		29.97	43	50	50
Mon Feb  1 03:02:48 2010	 Milwaukee WI 	Partly Cloudy	19	58	NW	8	30.24	7	19	10
Mon Feb  1 03:02:49 2010	 Detroit MI 	Overcast	27	50	WNW	14	30.15	10	27	16
Mon Feb  1 03:02:50 2010	 Philadelphia PA 	Clear	25	54	SSE	7	30.15	10	25	18
Mon Feb  1 03:45:48 2010	 San Jose CA 	Mostly Cloudy	54	77	NW	9	29.97	46	54	51
Mon Feb  1 03:45:49 2010	 Charlotte NC 	Partly Cloudy	32	80	N/A		30.27	27	32	32
Mon Feb  1 03:45:49 2010	 San Diego CA 	Partly Cloudy	57	72	NW	3	29.97	48	57	57
Mon Feb  1 03:45:50 2010	 Denver CO 	Mostly Cloudy	30	69	ESE	3	29.85	21	30	27
Mon Feb  1 03:45:51 2010	 Memphis TN 	Mostly Cloudy	32	80	ENE	5	30.3	27	32	28
Mon Feb  1 03:45:52 2010	 Los Angeles CA 	Clear	59	68	N/A		29.94	48	59	59
Mon Feb  1 03:45:53 2010	 El Paso TX 	Mostly Cloudy	52	58	N/A		29.91	37	52	52
Mon Feb  1 03:45:54 2010	 New York City NY 	Clear	28	34	Variable	3	30.12	3	28	25
Mon Feb  1 03:45:55 2010	 Baltimore MD 	Fair	27	46	N/A		30.18	9	27	27
Mon Feb  1 03:45:57 2010	 Las Vegas NV 	Clear	54	47	N/A		29.94	34	54	54
Mon Feb  1 03:45:57 2010	 Washington DC 	Partly Cloudy	28	43	SW	5	30.21	9	28	24
Mon Feb  1 03:45:58 2010	 Austin TX 	Fog And Mist	34	87	N/A		30.21	30	34	34
Mon Feb  1 03:45:59 2010	 San Francisco CA 	Mostly Cloudy	52	88	N	3	30	48	52	52
Mon Feb  1 03:46:00 2010	 Oklahoma City OK 	Fog	27	100	N/A		30.15	27	27	27
Mon Feb  1 03:46:01 2010	 Nashville TN 	Partly Cloudy	28	80	N/A		30.33	23	28	28
Mon Feb  1 03:46:03 2010	 Fort Worth TX 	Partly Cloudy	34	75	N/A		30.24	27	34	34
Mon Feb  1 03:46:04 2010	 Phoenix AZ 	Partly Cloudy	64	40	W	7	29.88	39	64	64
Mon Feb  1 03:46:04 2010	 Portland OR 	Mostly Cloudy	48	87	N/A		29.97	45	48	48
Mon Feb  1 03:46:05 2010	 Chicago IL 	Partly Cloudy	23	58	NW	7	30.27	10	23	16
Mon Feb  1 03:46:07 2010	 San Antonio TX 	Overcast	37	81	NE	7	30.18	32	37	33
Mon Feb  1 03:46:08 2010	 Indianapolis IN 	Partly Cloudy	21	63	WNW	5	30.27	10	21	16
Mon Feb  1 03:46:09 2010	 Boston MA 	Partly Cloudy	25	42	SSW	9	30.03	5	25	16
Mon Feb  1 03:46:10 2010	 Jacksonville FL 	Mostly Cloudy	46	71	NE	13	30.24	37	46	41
Mon Feb  1 03:46:11 2010	 Columbus OH 	Clear	27	54	W	12	30.24	12	27	17
Mon Feb  1 03:46:12 2010	 Dallas TX 	Mostly Cloudy	36	75	N/A		30.21	28	36	36
Mon Feb  1 03:46:13 2010	 Houston TX 	Partly Cloudy	37	75	SSE	3	30.21	30	37	35
Mon Feb  1 03:46:15 2010	 Seattle WA 	Overcast	48	82	N/A		29.97	43	48	48
Mon Feb  1 03:46:15 2010	 Milwaukee WI 	Partly Cloudy	19	53	NW	7	30.27	5	19	11
Mon Feb  1 03:46:16 2010	 Detroit MI 	Overcast	25	54	NW	18	30.18	10	25	12
Mon Feb  1 03:46:18 2010	 Philadelphia PA 	Clear	25	50	S	8	30.18	9	25	17
Mon Feb  1 04:31:27 2010	 San Jose CA 	Partly Cloudy	54	77	NW	5	29.97	46	54	53
Mon Feb  1 04:31:28 2010	 Charlotte NC 	Partly Cloudy	28	86	N/A		30.27	25	28	28
Mon Feb  1 04:31:29 2010	 San Diego CA 	Partly Cloudy	57	72	N/A		29.97	48	57	57
Mon Feb  1 04:31:29 2010	 Denver CO 	Mostly Cloudy	25	86	S	7	29.85	21	25	18
Mon Feb  1 04:31:30 2010	 Memphis TN 	Mostly Cloudy	30	86	ENE	6	30.3	27	30	25
Mon Feb  1 04:31:31 2010	 Los Angeles CA 	Clear	57	72	N/A		29.94	48	57	57
Mon Feb  1 04:31:32 2010	 El Paso TX 	Partly Cloudy	48	66	N/A		29.94	37	48	48
Mon Feb  1 04:31:34 2010	 New York City NY 	Partly Cloudy	27	36	Variable	3	30.12	3	27	23
Mon Feb  1 04:31:34 2010	 Baltimore MD 	Fair	27	50	N/A		30.21	10	27	27
Mon Feb  1 04:31:36 2010	 Las Vegas NV 	Clear	54	41	N/A		29.97	30	54	54
Mon Feb  1 04:31:37 2010	 Washington DC 	Partly Cloudy	27	54	SW	7	30.21	12	27	20
Mon Feb  1 04:31:38 2010	 Austin TX 	Fog And Mist	34	87	N/A		30.21	30	34	34
Mon Feb  1 04:31:39 2010	 San Francisco CA 	Mostly Cloudy	52	82	N/A		30	46	52	52
Mon Feb  1 04:31:39 2010	 Oklahoma City OK 	Fog	28	100	Variable	5	31.01	28	28	24
Mon Feb  1 04:31:41 2010	 Nashville TN 	Partly Cloudy	27	80	N/A		30.33	21	27	27
Mon Feb  1 04:31:42 2010	 Fort Worth TX 	Clear	32	80	N/A		30.24	27	32	32
Mon Feb  1 04:31:43 2010	 Phoenix AZ 	Partly Cloudy	61	59	SW	5	29.91	46	61	61
Mon Feb  1 04:31:44 2010	 Portland OR 	Partly Cloudy	45	93	N/A		29.97	43	45	45
Mon Feb  1 04:31:45 2010	 Chicago IL 	Partly Cloudy	21	63	NNW	9	30.27	10	21	12
Mon Feb  1 04:31:46 2010	 San Antonio TX 	Overcast	37	81	NE	7	30.21	32	37	33
Mon Feb  1 04:31:48 2010	 Indianapolis IN 	Partly Cloudy	19	68	WNW	5	30.27	10	19	14
Mon Feb  1 04:31:49 2010	 Boston MA 	Mostly Cloudy	25	42	SSW	12	30.03	5	25	15
Mon Feb  1 04:31:50 2010	 Jacksonville FL 	Mostly Cloudy	46	76	NNE	13	30.24	39	46	41
Mon Feb  1 04:31:52 2010	 Columbus OH 	Clear	25	63	W	10	30.27	14	25	15
Mon Feb  1 04:31:52 2010	 Dallas TX 	Partly Cloudy	36	75	N/A		30.21	28	36	36
Mon Feb  1 04:31:53 2010	 Houston TX 	Partly Cloudy	37	81	SW	3	30.24	32	37	35
Mon Feb  1 04:31:55 2010	 Seattle WA 	Mostly Cloudy	46	87	N/A		29.97	43	46	46
Mon Feb  1 04:31:56 2010	 Milwaukee WI 	Partly Cloudy	18	58	NW	8	30.27	5	18	8
Mon Feb  1 04:31:56 2010	 Detroit MI 	Partly Cloudy	21	58	NW	13	30.21	9	21	10
Mon Feb  1 04:31:58 2010	 Philadelphia PA 	Clear	25	54	SW	8	30.18	10	25	17
Mon Feb  1 05:15:00 2010	 San Jose CA 	Partly Cloudy	54	77	N/A		29.97	46	54	54
Mon Feb  1 05:15:01 2010	 Charlotte NC 	Partly Cloudy	28	93	N/A		30.3	27	28	28
Mon Feb  1 05:15:02 2010	 San Diego CA 	Partly Cloudy	55	77	N/A		29.97	48	55	55
Mon Feb  1 05:15:03 2010	 Denver CO 	Mostly Cloudy	25	80	S	9	29.83	19	25	16
Mon Feb  1 05:15:04 2010	 Memphis TN 	Mostly Cloudy	30	80	ENE	6	30.3	25	30	25
Mon Feb  1 05:15:05 2010	 Los Angeles CA 	Clear	57	72	N/A		29.94	48	57	57
Mon Feb  1 05:15:06 2010	 El Paso TX 	Partly Cloudy	50	58	N/A		29.94	36	50	50
Mon Feb  1 05:15:08 2010	 New York City NY 	Clear	27	36	SW	8	30.12	3	27	19
Mon Feb  1 05:15:10 2010	 Baltimore MD 	Fair	27	46	N/A		30.21	9	27	27
Mon Feb  1 05:15:11 2010	 Las Vegas NV 	Clear	48	58	WNW	3	29.97	34	48	47
Mon Feb  1 05:15:12 2010	 Washington DC 	Partly Cloudy	25	54	N/A		30.24	10	25	25
Mon Feb  1 05:15:13 2010	 Austin TX 	Overcast	34	87	SE	3	30.21	30	34	31
Mon Feb  1 05:15:14 2010	 San Francisco CA 	Mostly Cloudy	52	82	N/A		29.97	46	52	52
Mon Feb  1 05:15:14 2010	 Oklahoma City OK 	Fog	28	100	Variable	5	31.01	28	28	24
Mon Feb  1 05:15:16 2010	 Nashville TN 	Partly Cloudy	27	86	N/A		30.33	23	27	27
Mon Feb  1 05:15:17 2010	 Fort Worth TX 	Clear	30	86	N/A		30.24	27	30	30
Mon Feb  1 05:15:18 2010	 Phoenix AZ 	Partly Cloudy	57	67	SW	3	29.91	46	57	57
Mon Feb  1 05:15:19 2010	 Portland OR 	Partly Cloudy	45	93	ESE	3	29.97	43	45	44
Mon Feb  1 05:15:20 2010	 Chicago IL 	Partly Cloudy	21	58	NW	6	30.3	9	21	15
Mon Feb  1 05:15:22 2010	 San Antonio TX 	Overcast	37	81	ENE	6	30.18	32	37	33
Mon Feb  1 05:15:24 2010	 Indianapolis IN 	Partly Cloudy	21	63	SSW	3	30.27	10	21	17
Mon Feb  1 05:15:25 2010	 Boston MA 	Overcast	25	42	SSW	12	30.03	5	25	15
Mon Feb  1 05:15:26 2010	 Jacksonville FL 	Mostly Cloudy	46	76	N	10	30.24	39	46	42
Mon Feb  1 05:15:27 2010	 Columbus OH 	Clear	25	63	NW	5	30.27	14	25	20
Mon Feb  1 05:15:28 2010	 Dallas TX 	Mostly Cloudy	32	87	N/A		30.21	28	32	32
Mon Feb  1 05:15:29 2010	 Houston TX 	Clear	37	81	N/A		30.21	32	37	37
Mon Feb  1 05:15:31 2010	 Seattle WA 	Overcast	48	82	N/A		29.97	43	48	48
Mon Feb  1 05:15:32 2010	 Milwaukee WI 	Partly Cloudy	18	58	NW	8	30.3	5	18	8
Mon Feb  1 05:15:33 2010	 Detroit MI 	Clear	21	58	WNW	9	30.24	9	21	12
Mon Feb  1 05:15:34 2010	 Philadelphia PA 	Clear	23	58	SW	8	30.18	10	23	15
Mon Feb  1 05:58:36 2010	 San Jose CA 	Partly Cloudy	54	77	N/A		29.97	46	54	54
Mon Feb  1 05:58:37 2010	 Charlotte NC 	Partly Cloudy	28	93	N/A		30.3	27	28	28
Mon Feb  1 05:58:38 2010	 San Diego CA 	Partly Cloudy	55	77	N/A		29.97	48	55	55
Mon Feb  1 05:58:40 2010	 Denver CO 	Mostly Cloudy	25	80	S	9	29.83	19	25	16
Mon Feb  1 05:58:41 2010	 Memphis TN 	Mostly Cloudy	30	80	ENE	6	30.3	25	30	25
Mon Feb  1 05:58:41 2010	 Los Angeles CA 	Clear	57	72	N/A		29.94	48	57	57
Mon Feb  1 05:58:42 2010	 El Paso TX 	Partly Cloudy	50	58	N/A		29.94	36	50	50
Mon Feb  1 05:58:44 2010	 New York City NY 	Clear	27	36	SW	8	30.12	3	27	19
Mon Feb  1 05:58:44 2010	 Baltimore MD 	Fair	27	46	N/A		30.21	9	27	27
Mon Feb  1 05:58:46 2010	 Las Vegas NV 	Clear	48	58	WNW	3	29.97	34	48	47
Mon Feb  1 05:58:46 2010	 Washington DC 	Partly Cloudy	25	54	N/A		30.24	10	25	25
Mon Feb  1 05:58:48 2010	 Austin TX 	Overcast	34	87	SE	3	30.21	30	34	31
Mon Feb  1 05:58:48 2010	 San Francisco CA 	Mostly Cloudy	52	82	N/A		29.97	46	52	52
Mon Feb  1 05:58:49 2010	 Oklahoma City OK 	Fog	28	100	Variable	5	31.01	28	28	24
Mon Feb  1 06:00:02 2010										
Mon Feb  1 06:00:15 2010	 Fort Worth TX 	Clear	30	86	N/A		30.24	27	30	30
Mon Feb  1 06:00:16 2010	 Phoenix AZ 	Partly Cloudy	57	67	SW	3	29.91	46	57	57
Mon Feb  1 06:00:18 2010	 Portland OR 	Partly Cloudy	45	93	ESE	3	29.97	43	45	44
Mon Feb  1 06:00:18 2010	 Chicago IL 	Partly Cloudy	21	58	NW	6	30.3	9	21	15
Mon Feb  1 06:00:19 2010	 San Antonio TX 	Overcast	37	81	ENE	6	30.18	32	37	33
Mon Feb  1 06:00:21 2010	 Indianapolis IN 	Partly Cloudy	21	63	SSW	3	30.27	10	21	17
Mon Feb  1 06:00:22 2010	 Boston MA 	Overcast	25	42	SSW	12	30.03	5	25	15
Mon Feb  1 06:00:23 2010	 Jacksonville FL 	Mostly Cloudy	46	76	N	10	30.24	39	46	42
Mon Feb  1 06:00:24 2010	 Columbus OH 	Clear	25	63	NW	5	30.27	14	25	20
Mon Feb  1 06:00:25 2010	 Dallas TX 	Mostly Cloudy	32	87	N/A		30.21	28	32	32
Mon Feb  1 06:00:26 2010	 Houston TX 	Clear	37	81	N/A		30.21	32	37	37
Mon Feb  1 06:00:27 2010	 Seattle WA 	Overcast	48	82	N/A		29.97	43	48	48
Mon Feb  1 06:00:29 2010	 Milwaukee WI 	Partly Cloudy	18	58	NW	8	30.3	5	18	8
Mon Feb  1 06:00:30 2010	 Detroit MI 	Clear	21	58	WNW	9	30.24	9	21	12
Mon Feb  1 06:00:31 2010	 Philadelphia PA 	Clear	23	58	SW	8	30.18	10	23	15
Mon Feb  1 06:42:55 2010	 San Jose CA 	Mostly Cloudy	52	82	N/A		29.97	46	52	52
Mon Feb  1 06:42:56 2010	 Charlotte NC 	Partly Cloudy	28	93	N/A		30.3	27	28	28
Mon Feb  1 06:42:57 2010	 San Diego CA 	Partly Cloudy	55	77	N/A		30	48	55	55
Mon Feb  1 06:42:59 2010	 Denver CO 	Mostly Cloudy	25	80	SSE	10	29.83	19	25	15
Mon Feb  1 06:43:00 2010	 Memphis TN 	Mostly Cloudy	30	75	ENE	6	30.3	23	30	25
Mon Feb  1 06:43:01 2010	 Los Angeles CA 	Clear	55	77	N/A		29.94	48	55	55
Mon Feb  1 06:43:02 2010	 El Paso TX 	Partly Cloudy	48	62	SSW	5	29.97	36	48	47
Mon Feb  1 06:43:03 2010	 New York City NY 	Partly Cloudy	27	36	SSW	8	30.12	3	27	19
Mon Feb  1 06:43:04 2010	 Baltimore MD 	Fair	27	50	N/A		30.21	10	27	27
Mon Feb  1 06:43:05 2010	 Las Vegas NV 	Clear	46	66	NW	6	29.97	36	46	44
Mon Feb  1 06:43:06 2010	 Washington DC 	Partly Cloudy	25	54	N/A		30.24	10	25	25
Mon Feb  1 06:43:07 2010	 Austin TX 	Overcast	34	87	SSE	3	30.21	30	34	31
Mon Feb  1 06:43:08 2010	 San Francisco CA 	Mostly Cloudy	54	72	N/A		29.97	45	54	54
Mon Feb  1 06:43:09 2010	 Oklahoma City OK 	Fog	23	100	Variable	5	30.15	23	23	18
Mon Feb  1 06:43:10 2010	 Nashville TN 	Fog And Mist	25	86	N/A		30.33	21	25	25
Mon Feb  1 06:43:11 2010	 Fort Worth TX 	Clear	32	80	N/A		30.24	27	32	32
Mon Feb  1 06:43:12 2010	 Phoenix AZ 	Partly Cloudy	57	59	N/A		29.91	43	57	57
Mon Feb  1 06:43:13 2010	 Portland OR 	Partly Cloudy	43	93	E	6	29.97	41	43	40
Mon Feb  1 06:43:14 2010	 Chicago IL 	Partly Cloudy	19	63	NW	6	30.3	9	19	12
Mon Feb  1 06:43:15 2010	 San Antonio TX 	Hazy	37	87	E	3	30.21	34	37	35
Mon Feb  1 06:43:16 2010	 Indianapolis IN 	Partly Cloudy	19	68	N/A		30.3	10	19	19
Mon Feb  1 06:43:17 2010	 Boston MA 	Overcast	25	39	SSW	15	30.03	3	25	13
Mon Feb  1 06:43:18 2010	 Jacksonville FL 	Mostly Cloudy	46	76	NE	12	30.24	39	46	42
Mon Feb  1 06:43:19 2010	 Columbus OH 	Partly Cloudy	23	68	WNW	5	30.27	14	23	18
Mon Feb  1 06:43:20 2010	 Dallas TX 	Partly Cloudy	34	81	N/A		30.21	28	34	34
Mon Feb  1 06:43:21 2010	 Houston TX 	Partly Cloudy	37	81	N/A		30.24	32	37	37
Mon Feb  1 06:43:22 2010	 Seattle WA 	Overcast	48	82	N/A		29.97	43	48	48
Mon Feb  1 06:43:23 2010	 Milwaukee WI 	Partly Cloudy	16	57	NW	7	30.3	3	16	7
Mon Feb  1 06:43:24 2010	 Detroit MI 	Clear	19	63	NW	6	30.24	9	19	12
Mon Feb  1 06:43:25 2010	 Philadelphia PA 	Clear	23	63	SW	8	30.18	12	23	15
Mon Feb  1 07:26:58 2010	 San Jose CA 	Mostly Cloudy	52	77	N/A		29.97	45	52	52
Mon Feb  1 07:26:59 2010	 Charlotte NC 	Partly Cloudy	27	93	N/A		30.3	25	27	27
Mon Feb  1 07:27:00 2010	 San Diego CA 	Partly Cloudy	55	77	N/A		30	48	55	55
Mon Feb  1 07:27:01 2010	 Denver CO 	Partly Cloudy	25	80	S	12	29.83	19	25	15
Mon Feb  1 07:27:02 2010	 Memphis TN 	Mostly Cloudy	28	74	E	6	30.3	21	28	23
Mon Feb  1 07:27:03 2010	 Los Angeles CA 	Clear	55	77	N/A		29.94	48	55	55
Mon Feb  1 07:27:04 2010	 El Paso TX 	Partly Cloudy	48	62	SW	7	29.97	36	48	46
Mon Feb  1 07:27:05 2010	 New York City NY 	Clear	27	43	Variable	6	30.12	7	27	21
Mon Feb  1 07:27:06 2010	 Baltimore MD 	Fair	27	46	N/A		30.21	9	27	27
Mon Feb  1 07:27:07 2010	 Las Vegas NV 	Clear	45	71	NW	5	30	36	45	43
Mon Feb  1 07:27:08 2010	 Washington DC 	Partly Cloudy	27	54	N/A		30.24	12	27	27
Mon Feb  1 07:27:09 2010	 Austin TX 	Overcast	34	87	SE	3	30.18	30	34	31
Mon Feb  1 07:27:10 2010	 San Francisco CA 	Mostly Cloudy	52	82	NW	3	30	46	52	52
Mon Feb  1 07:27:11 2010	 Oklahoma City OK 	Fog	23	100	SSE	5	30.15	23	23	18
Mon Feb  1 07:27:12 2010	 Nashville TN 	Fog And Mist	23	93	N/A		30.33	21	23	23
Mon Feb  1 07:27:12 2010	 Fort Worth TX 	Hazy	30	86	N/A		30.21	27	30	30
Mon Feb  1 07:27:13 2010	 Phoenix AZ 	Partly Cloudy	57	59	N/A		29.91	43	57	57
Mon Feb  1 07:27:14 2010	 Portland OR 	Partly Cloudy	41	93	E	7	29.97	39	41	37
Mon Feb  1 07:27:15 2010	 Chicago IL 	Partly Cloudy	19	63	NW	5	30.3	9	19	14
Mon Feb  1 07:27:16 2010	 San Antonio TX 	Hazy	37	87	ENE	6	30.18	34	37	33
Mon Feb  1 07:27:17 2010	 Indianapolis IN 	Mostly Cloudy	18	73	N/A		30.3	10	18	18
Mon Feb  1 07:27:18 2010	 Boston MA 	Overcast	25	46	SSW	13	30	7	25	14
Mon Feb  1 07:27:19 2010	 Jacksonville FL 	Mostly Cloudy	48	76	NE	12	30.24	41	48	44
Mon Feb  1 07:27:20 2010	 Columbus OH 	Partly Cloudy	21	68	N/A		30.3	12	21	21
Mon Feb  1 07:27:21 2010	 Dallas TX 	Fog And Mist	30	93	N/A		30.18	28	30	30
Mon Feb  1 07:27:22 2010	 Houston TX 	Partly Cloudy	37	81	ENE	3	30.24	32	37	35
Mon Feb  1 07:27:23 2010	 Seattle WA 	Mostly Cloudy	46	87	N/A		29.97	43	46	46
Mon Feb  1 07:27:24 2010	 Milwaukee WI 	Partly Cloudy	16	57	NW	9	30.3	3	16	5
Mon Feb  1 07:27:25 2010	 Detroit MI 	Clear	18	68	NW	7	30.27	9	18	9
Mon Feb  1 07:27:26 2010	 Philadelphia PA 	Clear	21	58	SSW	7	30.18	9	21	13
Mon Feb  1 08:09:52 2010	 San Jose CA 	Partly Cloudy	48	87	E	5	29.97	45	48	47
Mon Feb  1 08:09:53 2010	 Charlotte NC 	Partly Cloudy	27	93	N/A		30.3	25	27	27
Mon Feb  1 08:09:54 2010	 San Diego CA 	Partly Cloudy	54	82	N/A		29.97	48	54	54
Mon Feb  1 08:09:55 2010	 Denver CO 	Partly Cloudy	25	80	S	8	29.8	19	25	17
Mon Feb  1 08:09:56 2010	 Memphis TN 	Overcast	28	74	E	7	30.27	21	28	22
Mon Feb  1 08:09:58 2010	 Los Angeles CA 	Clear	55	77	N/A		29.94	48	55	55
Mon Feb  1 08:09:59 2010	 El Paso TX 	Partly Cloudy	46	66	SSW	7	29.94	36	46	43
Mon Feb  1 08:10:00 2010	 New York City NY 	Clear	27	39	Variable	7	30.15	5	27	20
Mon Feb  1 08:10:01 2010	 Baltimore MD 	Fair	27	50	N/A		30.24	10	27	27
Mon Feb  1 08:10:02 2010	 Las Vegas NV 	Clear	43	76	NNW	5	30	36	43	40
Mon Feb  1 08:10:03 2010	 Washington DC 	Clear	21	68	SW	7	30.27	12	21	13
Mon Feb  1 08:10:04 2010	 Austin TX 	Overcast	34	87	N/A		30.18	30	34	34
Mon Feb  1 08:10:05 2010	 San Francisco CA 	Mostly Cloudy	46	100	ENE	5	29.97	46	46	45
Mon Feb  1 08:10:06 2010	 Oklahoma City OK 	Fog	23	100	SSE	5	30.12	23	23	18
Mon Feb  1 08:10:07 2010	 Nashville TN 	Fog And Mist	23	93	N/A		30.33	21	23	23
Mon Feb  1 08:10:08 2010	 Fort Worth TX 	Fog And Mist	30	86	N/A		30.21	27	30	30
Mon Feb  1 08:10:10 2010	 Phoenix AZ 	Partly Cloudy	57	59	N/A		29.91	43	57	57
Mon Feb  1 08:10:11 2010	 Portland OR 	Mostly Cloudy	41	93	E	7	29.94	39	41	37
Mon Feb  1 08:10:12 2010	 Chicago IL 	Partly Cloudy	18	68	N/A		30.3	9	18	18
Mon Feb  1 08:10:13 2010	 San Antonio TX 	Hazy	37	87	NE	5	30.15	34	37	34
Mon Feb  1 08:10:14 2010	 Indianapolis IN 	Mostly Cloudy	19	68	N/A		30.3	10	19	19
Mon Feb  1 08:10:15 2010	 Boston MA 	Overcast	25	46	SSW	14	30	7	25	14
Mon Feb  1 08:10:16 2010	 Jacksonville FL 	Mostly Cloudy	46	87	N	9	30.24	43	46	42
Mon Feb  1 08:10:20 2010	 Columbus OH 	Mostly Cloudy	19	73	SW	3	30.3	12	19	15
Mon Feb  1 08:10:21 2010	 Dallas TX 	Fog And Mist	34	87	W	3	30.21	30	34	31
Mon Feb  1 08:10:22 2010	 Houston TX 	Hazy	37	87	NE	6	30.21	34	37	33
Mon Feb  1 08:10:23 2010	 Seattle WA 	Overcast	46	87	N/A		29.97	43	46	46
Mon Feb  1 08:10:24 2010	 Milwaukee WI 	Partly Cloudy	14	62	NW	6	30.3	3	14	6
Mon Feb  1 08:10:25 2010	 Detroit MI 	Clear	18	68	W	6	30.27	9	18	10
Mon Feb  1 08:10:26 2010	 Philadelphia PA 	Clear	23	54	SSW	12	30.21	9	23	13
Mon Feb  1 08:53:48 2010	 San Jose CA 	Partly Cloudy	48	87	E	5	29.97	45	48	47
Mon Feb  1 08:53:49 2010	 Charlotte NC 	Partly Cloudy	27	93	N/A		30.3	25	27	27
Mon Feb  1 08:53:50 2010	 San Diego CA 	Partly Cloudy	54	82	N/A		29.97	48	54	54
Mon Feb  1 08:53:51 2010	 Denver CO 	Partly Cloudy	25	80	S	8	29.8	19	25	17
Mon Feb  1 08:53:51 2010	 Memphis TN 	Overcast	28	74	E	7	30.27	21	28	22
Mon Feb  1 08:53:52 2010	 Los Angeles CA 	Clear	55	77	N/A		29.94	48	55	55
Mon Feb  1 08:53:53 2010	 El Paso TX 	Partly Cloudy	46	66	SSW	7	29.94	36	46	43
Mon Feb  1 08:53:55 2010	 New York City NY 	Clear	27	39	Variable	7	30.15	5	27	20
Mon Feb  1 08:53:56 2010	 Baltimore MD 	Fair	27	50	N/A		30.24	10	27	27
Mon Feb  1 08:53:57 2010	 Las Vegas NV 	Clear	43	76	NNW	5	30	36	43	40
Mon Feb  1 08:53:58 2010	 Washington DC 	Clear	21	68	SW	7	30.27	12	21	13
Mon Feb  1 08:53:59 2010	 Austin TX 	Overcast	34	87	N/A		30.18	30	34	34
Mon Feb  1 08:54:00 2010	 San Francisco CA 	Mostly Cloudy	46	100	ENE	5	29.97	46	46	45
Mon Feb  1 08:54:01 2010	 Oklahoma City OK 	Fog	23	100	SSE	5	30.12	23	23	18
Mon Feb  1 08:54:02 2010	 Nashville TN 	Fog	23	93	N/A		30.3	21	23	23
Mon Feb  1 08:54:03 2010	 Fort Worth TX 	Fog And Mist	30	86	N/A		30.21	27	30	30
Mon Feb  1 08:54:04 2010	 Phoenix AZ 	Partly Cloudy	57	59	N/A		29.91	43	57	57
Mon Feb  1 08:54:05 2010	 Portland OR 	Mostly Cloudy	41	93	E	7	29.94	39	41	37
Mon Feb  1 08:54:06 2010	 Chicago IL 	Partly Cloudy	18	68	N/A		30.3	9	18	18
Mon Feb  1 08:54:07 2010	 San Antonio TX 	Hazy	37	87	NE	7	30.15	34	37	33
Mon Feb  1 08:54:08 2010	 Indianapolis IN 	Mostly Cloudy	19	68	N/A		30.3	10	19	19
Mon Feb  1 08:54:09 2010	 Boston MA 	Overcast	25	46	SSW	14	30	7	25	14
Mon Feb  1 08:54:10 2010	 Jacksonville FL 	Mostly Cloudy	46	87	N	9	30.24	43	46	42
Mon Feb  1 08:54:11 2010	 Columbus OH 	Mostly Cloudy	19	73	SW	3	30.3	12	19	15
Mon Feb  1 08:54:12 2010	 Dallas TX 	Fog And Mist	34	87	W	3	30.21	30	34	31
Mon Feb  1 08:54:13 2010	 Houston TX 	Hazy	37	87	NE	6	30.21	34	37	33
Mon Feb  1 08:54:14 2010	 Seattle WA 	Overcast	46	87	N/A		29.97	43	46	46
Mon Feb  1 08:54:15 2010	 Milwaukee WI 	Partly Cloudy	14	62	NW	6	30.3	3	14	6
Mon Feb  1 08:54:16 2010	 Detroit MI 	Clear	18	68	W	6	30.27	9	18	10
Mon Feb  1 08:54:17 2010	 Philadelphia PA 	Clear	23	54	SSW	12	30.21	9	23	13
Mon Feb  1 09:36:54 2010	 San Jose CA 	Mostly Cloudy	46	87	N/A		29.97	43	46	46
Mon Feb  1 09:36:55 2010	 Charlotte NC 	Fog And Mist	27	93	N/A		30.33	25	27	27
Mon Feb  1 09:36:56 2010	 San Diego CA 	Hazy	54	82	N/A		29.97	48	54	54
Mon Feb  1 09:36:56 2010	 Denver CO 	Partly Cloudy	25	80	S	8	29.8	19	25	17
Mon Feb  1 09:36:57 2010	 Memphis TN 	Mostly Cloudy	28	74	E	5	30.27	21	28	24
Mon Feb  1 09:36:58 2010	 Los Angeles CA 	Clear	55	77	N/A		29.97	48	55	55
Mon Feb  1 09:36:59 2010	 El Paso TX 	Partly Cloudy	46	71	SSE	6	29.94	37	46	44
Mon Feb  1 09:37:01 2010	 New York City NY 	Clear	25	46	Variable	7	30.18	7	25	18
Mon Feb  1 09:37:02 2010	 Baltimore MD 	Fair	25	54	N/A		30.27	10	25	25
Mon Feb  1 09:37:03 2010	 Las Vegas NV 	Clear	45	66	NW	7	29.97	34	45	41
Mon Feb  1 09:37:04 2010	 Washington DC 	Clear	23	63	N/A		30.27	12	23	23
Mon Feb  1 09:37:05 2010	 Austin TX 	Overcast	34	87	S	5	30.18	30	34	30
Mon Feb  1 09:37:06 2010	 San Francisco CA 	Mostly Cloudy	50	82	N/A		29.97	45	50	50
Mon Feb  1 09:37:06 2010	 Oklahoma City OK 	Fog	23	100	SSE	3	30.12	23	23	19
Mon Feb  1 09:37:07 2010	 Nashville TN 	Fog	21	100	N/A		30.3	21	21	21
Mon Feb  1 09:37:09 2010	 Fort Worth TX 	Hazy	30	86	N/A		30.21	27	30	30
Mon Feb  1 09:37:09 2010	 Phoenix AZ 	Mostly Cloudy	54	72	ESE	5	29.94	45	54	53
Mon Feb  1 09:37:11 2010	 Portland OR 	Partly Cloudy	39	93	E	5	29.94	37	39	36
Mon Feb  1 09:37:11 2010	 Chicago IL 	Mostly Cloudy	18	68	NW	3	30.3	9	18	13
Mon Feb  1 09:37:12 2010	 San Antonio TX 	Fog And Mist	37	87	NE	5	30.12	34	37	34
Mon Feb  1 09:37:13 2010	 Indianapolis IN 	Overcast	19	73	N/A		30.3	12	19	19
Mon Feb  1 09:37:14 2010	 Boston MA 	Mostly Cloudy	25	46	W	15	30.03	7	25	13
Mon Feb  1 09:37:15 2010	 Jacksonville FL 	Mostly Cloudy	48	82	NE	15	30.24	43	48	43
Mon Feb  1 09:37:16 2010	 Columbus OH 	Partly Cloudy	19	73	N/A		30.33	12	19	19
Mon Feb  1 09:37:17 2010	 Dallas TX 	Fog And Mist	32	87	N/A		30.18	28	32	32
Mon Feb  1 09:37:18 2010	 Houston TX 	Hazy	37	87	NE	7	30.18	34	37	33
Mon Feb  1 09:37:19 2010	 Seattle WA 	Overcast	46	87	SSE	3	29.97	43	46	46
Mon Feb  1 09:37:20 2010	 Milwaukee WI 	Clear	14	62	W	3	30.3	3	14	9
Mon Feb  1 09:37:21 2010	 Detroit MI 	Clear	18	68	WNW	5	30.3	9	18	11
Mon Feb  1 09:37:22 2010	 Philadelphia PA 	Clear	25	46	W	12	30.24	7	25	15
Mon Feb  1 10:20:14 2010	 San Jose CA 	Clear	48	87	N/A		29.97	45	48	48
Mon Feb  1 10:20:15 2010	 Charlotte NC 	Fog And Mist	27	93	N/A		30.33	25	27	27
Mon Feb  1 10:20:15 2010	 San Diego CA 	Hazy	54	82	N/A		29.97	48	54	54
Mon Feb  1 10:20:17 2010	 Denver CO 	Partly Cloudy	23	74	S	7	29.8	16	23	16
Mon Feb  1 10:20:18 2010	 Memphis TN 	Mostly Cloudy	27	80	N/A		30.27	21	27	27
Mon Feb  1 10:20:18 2010	 Los Angeles CA 	Clear	54	77	N/A		29.97	46	54	54
Mon Feb  1 10:20:20 2010	 El Paso TX 	Mostly Cloudy	45	76	S	6	29.97	37	45	42
Mon Feb  1 10:20:20 2010	 New York City NY 	Clear	25	46	W	8	30.18	7	25	17
Mon Feb  1 10:20:21 2010	 Baltimore MD 	Fair	25	54	N/A		30.27	10	25	25
Mon Feb  1 10:20:22 2010	 Las Vegas NV 	Clear	43	71	NW	3	30	34	43	41
Mon Feb  1 10:20:23 2010	 Washington DC 	Clear	21	68	N/A		30.3	12	21	21
Mon Feb  1 10:20:24 2010	 Austin TX 	Overcast	36	81	N/A		30.15	30	36	36
Mon Feb  1 10:20:25 2010	 San Francisco CA 	Overcast	50	82	N/A		29.97	45	50	50
Mon Feb  1 10:20:26 2010	 Oklahoma City OK 	Fog	23	100	SSE	3	30.12	23	23	19
Mon Feb  1 10:20:27 2010	 Nashville TN 	Fog	19	100	N/A		30.3	19	19	19
Mon Feb  1 10:20:29 2010	 Fort Worth TX 	Hazy	32	80	N/A		30.21	27	32	32
Mon Feb  1 10:20:30 2010	 Phoenix AZ 	Partly Cloudy	54	67	SE	3	29.94	43	54	54
Mon Feb  1 10:20:31 2010	 Portland OR 	Partly Cloudy	39	93	N/A		29.94	37	39	39
Mon Feb  1 10:20:32 2010	 Chicago IL 	Overcast	19	63	N/A		30.3	9	19	19
Mon Feb  1 10:20:32 2010	 San Antonio TX 	Fog And Mist	37	87	NE	5	30.12	34	37	34
Mon Feb  1 10:20:33 2010	 Indianapolis IN 	Overcast	19	68	ENE	3	30.27	10	19	15
Mon Feb  1 10:20:34 2010	 Boston MA 	Clear	25	46	SSW	16	30.03	7	25	13
Mon Feb  1 10:20:35 2010	 Jacksonville FL 	Mostly Cloudy	48	82	NE	10	30.21	43	48	44
Mon Feb  1 10:20:36 2010	 Columbus OH 	Partly Cloudy	18	79	N/A		30.33	12	18	18
Mon Feb  1 10:20:37 2010	 Dallas TX 	Fog And Mist	34	81	N/A		30.18	28	34	34
Mon Feb  1 10:20:38 2010	 Houston TX 	Mostly Cloudy	37	87	NE	8	30.15	34	37	32
Mon Feb  1 10:20:40 2010	 Seattle WA 	Mostly Cloudy	46	87	N/A		29.94	43	46	46
Mon Feb  1 10:20:41 2010	 Milwaukee WI 	Clear	12	67	N/A		30.3	3	12	12
Mon Feb  1 10:20:42 2010	 Detroit MI 	Clear	16	73	SSW	5	30.3	9	16	10
Mon Feb  1 10:20:43 2010	 Philadelphia PA 	Clear	25	50	W	8	30.24	9	25	17
Mon Feb  1 11:03:20 2010	 San Jose CA 	Clear	48	87	N/A		29.97	45	48	48
Mon Feb  1 11:03:21 2010	 Charlotte NC 	Fog And Mist	27	93	N/A		30.33	25	27	27
Mon Feb  1 11:03:22 2010	 San Diego CA 	Hazy	54	82	N/A		29.97	48	54	54
Mon Feb  1 11:03:23 2010	 Denver CO 	Partly Cloudy	23	74	S	7	29.8	16	23	16
Mon Feb  1 11:03:24 2010	 Memphis TN 	Mostly Cloudy	27	80	N/A		30.27	21	27	27
Mon Feb  1 11:03:25 2010	 Los Angeles CA 	Clear	54	77	N/A		29.97	46	54	54
Mon Feb  1 11:03:26 2010	 El Paso TX 	Mostly Cloudy	45	76	S	6	29.97	37	45	42
Mon Feb  1 11:03:27 2010	 New York City NY 	Clear	25	46	W	8	30.18	7	25	17
Mon Feb  1 11:03:28 2010	 Baltimore MD 	Fair	25	54	N/A		30.27	10	25	25
Mon Feb  1 11:03:30 2010	 Las Vegas NV 	Clear	43	71	NW	3	30	34	43	41
Mon Feb  1 11:03:31 2010	 Washington DC 	Clear	21	68	N/A		30.3	12	21	21
Mon Feb  1 11:03:32 2010	 Austin TX 	Overcast	36	81	N/A		30.15	30	36	36
Mon Feb  1 11:03:33 2010	 San Francisco CA 	Overcast	50	82	N/A		29.97	45	50	50
Mon Feb  1 11:03:34 2010	 Oklahoma City OK 	Fog	23	100	SSE	3	30.12	23	23	19
Mon Feb  1 11:03:35 2010	 Nashville TN 	Fog And Mist	19	100	N/A		30.3	19	19	19
Mon Feb  1 11:03:36 2010	 Fort Worth TX 	Hazy	32	80	N/A		30.21	27	32	32
Mon Feb  1 11:03:37 2010	 Phoenix AZ 	Partly Cloudy	54	67	SE	3	29.94	43	54	54
Mon Feb  1 11:03:38 2010	 Portland OR 	Mostly Cloudy	37	93	N/A		29.94	36	37	37
Mon Feb  1 11:03:39 2010	 Chicago IL 	Overcast	19	63	N/A		30.3	9	19	19
Mon Feb  1 11:03:39 2010	 San Antonio TX 	Fog And Mist	37	87	NE	6	30.12	34	37	33
Mon Feb  1 11:03:40 2010	 Indianapolis IN 	Overcast	19	68	ENE	3	30.27	10	19	15
Mon Feb  1 11:03:41 2010	 Boston MA 	Clear	25	46	SSW	16	30.03	7	25	13
Mon Feb  1 11:03:42 2010	 Jacksonville FL 	Mostly Cloudy	48	82	NE	10	30.21	43	48	44
Mon Feb  1 11:03:44 2010	 Columbus OH 	Partly Cloudy	18	79	N/A		30.33	12	18	18
Mon Feb  1 11:03:45 2010	 Dallas TX 	Fog And Mist	34	81	N/A		30.18	28	34	34
Mon Feb  1 11:03:45 2010	 Houston TX 	Mostly Cloudy	37	87	NE	8	30.15	34	37	32
Mon Feb  1 11:03:47 2010	 Seattle WA 	Mostly Cloudy	46	87	N/A		29.94	43	46	46
Mon Feb  1 11:03:48 2010	 Milwaukee WI 	Clear	12	67	N/A		30.3	3	12	12
Mon Feb  1 11:03:49 2010	 Detroit MI 	Clear	16	73	SSW	5	30.3	9	16	10
Mon Feb  1 11:03:50 2010	 Philadelphia PA 	Clear	25	50	W	8	30.24	9	25	17
Mon Feb  1 11:46:42 2010	 San Jose CA 	Clear	46	87	SE	5	29.97	43	46	45
Mon Feb  1 11:46:43 2010	 Charlotte NC 	Fog And Mist	27	86	N/A		30.3	23	27	27
Mon Feb  1 11:46:44 2010	 San Diego CA 	Hazy	54	82	N/A		29.97	48	54	54
Mon Feb  1 11:46:45 2010	 Denver CO 	Partly Cloudy	23	68	SW	7	29.8	14	23	16
Mon Feb  1 11:46:46 2010	 Memphis TN 	Mostly Cloudy	27	80	N/A		30.27	21	27	27
Mon Feb  1 11:46:46 2010	 Los Angeles CA 	Hazy	52	82	N/A		29.97	46	52	52
Mon Feb  1 11:46:48 2010	 El Paso TX 	Mostly Cloudy	46	71	N/A		29.97	37	46	46
Mon Feb  1 11:46:49 2010	 New York City NY 	Clear	27	43	W	16	30.21	7	27	15
Mon Feb  1 11:46:49 2010	 Baltimore MD 	Fair	27	50	N/A		30.27	10	27	27
Mon Feb  1 11:46:50 2010	 Las Vegas NV 	Clear	41	76	N/A		30	34	41	41
Mon Feb  1 11:46:51 2010	 Washington DC 	Clear	21	68	N/A		30.33	12	21	21
Mon Feb  1 11:46:52 2010	 Austin TX 	Overcast	36	81	N/A		30.15	30	36	36
Mon Feb  1 11:46:53 2010	 San Francisco CA 	Overcast	48	94	N/A		30	46	48	48
Mon Feb  1 11:46:54 2010	 Oklahoma City OK 	Fog	25	100	SSE	6	30.09	25	25	19
Mon Feb  1 11:46:55 2010	 Nashville TN 	Fog	19	100	N/A		30.3	19	19	19
Mon Feb  1 11:46:56 2010	 Fort Worth TX 	Hazy	32	80	N/A		30.18	27	32	32
Mon Feb  1 11:46:57 2010	 Phoenix AZ 	Partly Cloudy	52	72	E	5	29.94	43	52	51
Mon Feb  1 11:46:58 2010	 Portland OR 	Fog And Mist	39	93	N/A		29.94	37	39	39
Mon Feb  1 11:46:59 2010	 Chicago IL 	Overcast	19	68	N	3	30.3	10	19	15
Mon Feb  1 11:47:00 2010	 San Antonio TX 	Fog And Mist	37	87	NE	8	30.12	34	37	32
Mon Feb  1 11:47:01 2010	 Indianapolis IN 	Overcast	21	68	N/A		30.27	12	21	21
Mon Feb  1 11:47:01 2010	 Boston MA 	Clear	25	46	SSW	14	30.03	7	25	14
Mon Feb  1 11:47:02 2010	 Jacksonville FL 	Mostly Cloudy	48	82	NE	14	30.21	43	48	43
Mon Feb  1 11:47:04 2010	 Columbus OH 	Mostly Cloudy	18	79	N/A		30.33	12	18	18
Mon Feb  1 11:47:05 2010	 Dallas TX 	Fog And Mist	34	87	N/A		30.18	30	34	34
Mon Feb  1 11:47:05 2010	 Houston TX 	Mostly Cloudy	39	81	NE	6	30.15	34	39	35
Mon Feb  1 11:47:07 2010	 Seattle WA 	Partly Cloudy	45	87	N/A		29.94	41	45	45
Mon Feb  1 11:47:07 2010	 Milwaukee WI 	Partly Cloudy	12	67	NW	5	30.3	3	12	5
Mon Feb  1 11:47:08 2010	 Detroit MI 	Clear	16	73	SSW	5	30.3	9	16	10
Mon Feb  1 11:47:09 2010	 Philadelphia PA 	Clear	23	54	SSW	12	30.27	9	23	13
Mon Feb  1 12:30:04 2010	 San Jose CA 	Clear	46	87	N/A		29.97	43	46	46
Mon Feb  1 12:30:06 2010	 Charlotte NC 	Fog And Mist	25	86	N/A		30.3	21	25	25
Mon Feb  1 12:30:07 2010	 San Diego CA 	Hazy	54	82	N/A		29.97	48	54	54
Mon Feb  1 12:30:09 2010	 Denver CO 	Partly Cloudy	23	68	SW	7	29.8	14	23	16
Mon Feb  1 12:30:11 2010	 Memphis TN 	Overcast	27	80	E	5	30.27	21	27	22
Mon Feb  1 12:30:11 2010	 Los Angeles CA 	Fog And Mist	52	82	N/A		29.97	46	52	52
Mon Feb  1 12:30:13 2010	 El Paso TX 	Mostly Cloudy	45	76	N/A		29.97	37	45	45
Mon Feb  1 12:30:14 2010	 New York City NY 	Clear	27	46	W	9	30.21	9	27	18
Mon Feb  1 12:30:16 2010	 Baltimore MD 	Fair	25	54	N/A		30.33	10	25	25
Mon Feb  1 12:30:17 2010	 Las Vegas NV 	Clear	41	76	N/A		30	34	41	41
Mon Feb  1 12:30:18 2010	 Washington DC 	Clear	25	54	NNW	8	30.33	10	25	17
Mon Feb  1 12:30:19 2010	 Austin TX 	Overcast	36	81	N/A		30.15	30	36	36
Mon Feb  1 12:30:20 2010	 San Francisco CA 	Overcast	48	94	N/A		30	46	48	48
Mon Feb  1 12:30:21 2010	 Oklahoma City OK 	Fog	27	100	SSE	7	30.06	27	27	20
Mon Feb  1 12:30:23 2010	 Nashville TN 	Fog	19	93	NE	3	30.3	18	19	15
Mon Feb  1 12:30:24 2010	 Fort Worth TX 	Fog And Mist	30	86	N/A		30.18	27	30	30
Mon Feb  1 12:30:25 2010	 Phoenix AZ 	Partly Cloudy	52	72	E	3	29.94	43	52	52
Mon Feb  1 12:30:26 2010	 Portland OR 	Fog And Mist	39	100	N/A		29.91	39	39	39
Mon Feb  1 12:30:26 2010	 Chicago IL 	Overcast	21	63	NNW	3	30.3	10	21	17
Mon Feb  1 12:30:28 2010	 San Antonio TX 	Fog And Mist	37	93	ENE	6	30.12	36	37	33
Mon Feb  1 12:30:29 2010	 Indianapolis IN 	Overcast	21	80	S	3	30.27	16	21	17
Mon Feb  1 12:30:30 2010	 Boston MA 	Clear	23	54	SSW	16	30.06	9	23	11
Mon Feb  1 12:30:31 2010	 Jacksonville FL 	Mostly Cloudy	50	82	NE	12	30.21	45	50	46
Mon Feb  1 12:30:32 2010	 Columbus OH 	Overcast	18	79	N/A		30.33	12	18	18
Mon Feb  1 12:30:33 2010	 Dallas TX 	Fog And Mist	34	87	N/A		30.15	30	34	34
Mon Feb  1 12:30:33 2010	 Houston TX 	Clear	39	81	NE	6	30.15	34	39	35
Mon Feb  1 12:30:34 2010	 Seattle WA 	Clear	43	87	N/A		29.94	39	43	43
Mon Feb  1 12:30:35 2010	 Milwaukee WI 	Clear	14	62	NW	3	30.3	3	14	9
Mon Feb  1 12:30:37 2010	 Detroit MI 	Clear	16	73	W	3	30.3	9	16	11
Mon Feb  1 12:30:38 2010	 Philadelphia PA 	Clear	27	46	W	12	30.3	9	27	17
Mon Feb  1 13:13:28 2010	 San Jose CA 	Clear	46	87	N/A		29.97	43	46	46
Mon Feb  1 13:13:29 2010	 Charlotte NC 	Fog And Mist	25	93	N/A		30.33	23	25	25
Mon Feb  1 13:13:30 2010	 San Diego CA 	Hazy	52	82	N/A		29.94	46	52	52
Mon Feb  1 13:13:31 2010	 Denver CO 	Partly Cloudy	23	68	SW	13	29.8	14	23	12
Mon Feb  1 13:13:32 2010	 Memphis TN 	Mostly Cloudy	25	86	N/A		30.27	21	25	25
Mon Feb  1 13:13:33 2010	 Los Angeles CA 	Hazy	52	77	N/A		29.94	45	52	52
Mon Feb  1 13:13:34 2010	 El Paso TX 	Mostly Cloudy	43	81	N/A		29.97	37	43	43
Mon Feb  1 13:13:35 2010	 New York City NY 	Clear	25	50	SSW	6	30.24	9	25	19
Mon Feb  1 13:13:36 2010	 Baltimore MD 	Fair	27	50	N/A		30.33	10	27	27
Mon Feb  1 13:13:37 2010	 Las Vegas NV 	Clear	39	75	NNW	3	30	32	39	37
Mon Feb  1 13:13:38 2010	 Washington DC 	Partly Cloudy	27	50	NW	13	30.36	10	27	17
Mon Feb  1 13:13:39 2010	 Austin TX 	Overcast	36	81	N/A		30.12	30	36	36
Mon Feb  1 13:13:40 2010	 San Francisco CA 	Mostly Cloudy	48	94	ESE	5	29.97	46	48	47
Mon Feb  1 13:13:41 2010	 Oklahoma City OK 	Fog And Mist	27	100	SE	6	30.06	27	27	21
Mon Feb  1 13:13:42 2010	 Nashville TN 	Fog	19	93	N/A		30.3	18	19	19
Mon Feb  1 13:13:43 2010	 Fort Worth TX 	Fog And Mist	28	93	N/A		30.18	27	28	28
Mon Feb  1 13:13:44 2010	 Phoenix AZ 	Partly Cloudy	50	76	ESE	3	29.94	43	50	50
Mon Feb  1 13:13:45 2010	 Portland OR 	Fog And Mist	39	100	WNW	3	29.91	39	39	37
Mon Feb  1 13:13:46 2010	 Chicago IL 	Overcast	21	63	N/A		30.3	10	21	21
Mon Feb  1 13:13:47 2010	 San Antonio TX 	Light Rain	37	93	ENE	6	30.12	36	37	33
Mon Feb  1 13:13:48 2010	 Indianapolis IN 	Overcast	21	74	N/A		30.27	14	21	21
Mon Feb  1 13:13:49 2010	 Boston MA 	Clear	23	54	SSW	17	30.09	9	23	10
Mon Feb  1 13:13:50 2010	 Jacksonville FL 	Mostly Cloudy	52	82	NE	12	30.21	46	52	48
Mon Feb  1 13:13:51 2010	 Columbus OH 	Mostly Cloudy	16	86	ENE	3	30.3	12	16	11
Mon Feb  1 13:13:52 2010	 Dallas TX 	Fog And Mist	32	93	E	3	30.12	30	32	29
Mon Feb  1 13:13:52 2010	 Houston TX 	Mostly Cloudy	39	81	NE	6	30.15	34	39	35
Mon Feb  1 13:13:53 2010	 Seattle WA 	Fog And Mist	43	81	N/A		29.91	37	43	43
Mon Feb  1 13:13:54 2010	 Milwaukee WI 	Partly Cloudy	16	62	NW	3	30.3	5	16	11
Mon Feb  1 13:13:55 2010	 Detroit MI 	Clear	14	79	SSW	3	30.3	9	14	9
Mon Feb  1 13:13:56 2010	 Philadelphia PA 	Partly Cloudy	25	50	SSW	10	30.33	9	25	15
Mon Feb  1 13:57:20 2010	 San Jose CA 	Clear	46	87	N/A		29.97	43	46	46
Mon Feb  1 13:57:21 2010	 Charlotte NC 	Fog And Mist	25	93	N/A		30.33	23	25	25
Mon Feb  1 13:57:21 2010	 San Diego CA 	Hazy	52	82	N/A		29.94	46	52	52
Mon Feb  1 13:57:23 2010	 Denver CO 	Partly Cloudy	23	68	SW	13	29.8	14	23	12
Mon Feb  1 13:57:23 2010	 Memphis TN 	Mostly Cloudy	25	86	N/A		30.27	21	25	25
Mon Feb  1 13:57:24 2010	 Los Angeles CA 	Hazy	52	77	N/A		29.94	45	52	52
Mon Feb  1 13:57:25 2010	 El Paso TX 	Mostly Cloudy	43	81	N/A		29.97	37	43	43
Mon Feb  1 13:57:27 2010	 New York City NY 	Clear	25	50	SSW	6	30.24	9	25	19
Mon Feb  1 13:57:28 2010	 Baltimore MD 	Fair	27	50	N/A		30.33	10	27	27
Mon Feb  1 13:57:29 2010	 Las Vegas NV 	Clear	39	75	NNW	3	30	32	39	37
Mon Feb  1 13:57:30 2010	 Washington DC 	Partly Cloudy	27	50	NW	13	30.36	10	27	17
Mon Feb  1 13:57:31 2010	 Austin TX 	Overcast	36	87	N/A		30.12	32	36	36
Mon Feb  1 13:57:33 2010	 San Francisco CA 	Mostly Cloudy	48	94	ESE	5	29.97	46	48	47
Mon Feb  1 13:57:34 2010	 Oklahoma City OK 	Fog And Mist	27	100	SSE	14	30.06	27	27	16
Mon Feb  1 13:57:35 2010	 Nashville TN 	Fog	19	93	N/A		30.3	18	19	19
Mon Feb  1 13:57:36 2010	 Fort Worth TX 	Fog And Mist	30	86	Variable	3	30.18	27	30	27
Mon Feb  1 13:57:37 2010	 Phoenix AZ 	Partly Cloudy	50	76	ESE	3	29.94	43	50	50
Mon Feb  1 13:57:38 2010	 Portland OR 	Fog And Mist	39	100	N/A		29.91	39	39	39
Mon Feb  1 13:57:38 2010	 Chicago IL 	Overcast	21	63	N/A		30.3	10	21	21
Mon Feb  1 13:57:39 2010	 San Antonio TX 	Fog And Mist	37	93	NNE	6	30.12	36	37	33
Mon Feb  1 13:57:40 2010	 Indianapolis IN 	Overcast	21	74	N/A		30.27	14	21	21
Mon Feb  1 13:57:41 2010	 Boston MA 	Clear	23	54	SSW	17	30.09	9	23	10
Mon Feb  1 13:57:42 2010	 Jacksonville FL 	Mostly Cloudy	52	82	NE	12	30.21	46	52	48
Mon Feb  1 13:57:43 2010	 Columbus OH 	Mostly Cloudy	16	86	ENE	3	30.3	12	16	11
Mon Feb  1 13:57:44 2010	 Dallas TX 	Fog And Mist	32	93	E	3	30.12	30	32	29
Mon Feb  1 13:57:45 2010	 Houston TX 	Mostly Cloudy	39	81	NE	6	30.15	34	39	35
Mon Feb  1 13:57:46 2010	 Seattle WA 	Fog And Mist	43	81	N/A		29.91	37	43	43
Mon Feb  1 13:57:48 2010	 Milwaukee WI 	Partly Cloudy	16	62	NW	3	30.3	5	16	11
Mon Feb  1 13:57:48 2010	 Detroit MI 	Clear	14	79	SSW	3	30.3	9	14	9
Mon Feb  1 13:57:49 2010	 Philadelphia PA 	Partly Cloudy	25	50	SSW	10	30.33	9	25	15
Mon Feb  1 14:41:55 2010	 San Jose CA 	Clear	46	87	N/A		29.97	43	46	46
Mon Feb  1 14:41:56 2010	 Charlotte NC 	Fog And Mist	21	93	N	3	30.36	19	21	17
Mon Feb  1 14:41:57 2010	 San Diego CA 	Fog And Mist	52	82	N/A		29.97	46	52	52
Mon Feb  1 14:41:58 2010	 Denver CO 	Clear	25	54	SW	12	29.8	10	25	15
Mon Feb  1 14:41:59 2010	 Memphis TN 	Mostly Cloudy	27	80	N/A		30.27	21	27	27
Mon Feb  1 14:42:00 2010	 Los Angeles CA 	Clear	50	82	N/A		29.94	45	50	50
Mon Feb  1 14:42:01 2010	 El Paso TX 	Mostly Cloudy	43	81	N/A		29.97	37	43	43
Mon Feb  1 14:42:02 2010	 New York City NY 	Clear	27	50	SSW	9	30.27	10	27	18
Mon Feb  1 14:42:02 2010	 Baltimore MD 	Fair	27	46	N/A		30.36	9	27	27
Mon Feb  1 14:42:04 2010	 Las Vegas NV 	Clear	37	81	NW	5	30	32	37	34
Mon Feb  1 14:42:05 2010	 Washington DC 	Mostly Cloudy	27	50	NNW	7	30.39	10	27	20
Mon Feb  1 14:42:06 2010	 Austin TX 	Fog And Mist	36	87	N/A		30.12	32	36	36
Mon Feb  1 14:42:07 2010	 San Francisco CA 	Mostly Cloudy	45	93	N/A		29.97	43	45	45
Mon Feb  1 14:42:08 2010	 Oklahoma City OK 	Fog And Mist	27	100	SSE	14	30.06	27	27	16
Mon Feb  1 14:42:09 2010	 Nashville TN 	Fog And Mist	19	86	N/A		30.3	16	19	19
Mon Feb  1 14:42:10 2010	 Fort Worth TX 	Fog And Mist	30	86	Variable	3	30.15	27	30	27
Mon Feb  1 14:42:11 2010	 Phoenix AZ 	Partly Cloudy	50	76	ESE	6	29.94	43	50	48
Mon Feb  1 14:42:12 2010	 Portland OR 	Fog And Mist	39	100	N/A		29.94	39	39	39
Mon Feb  1 14:42:13 2010	 Chicago IL 	Overcast	21	63	N/A		30.3	10	21	21
Mon Feb  1 14:42:14 2010	 San Antonio TX 	Light Rain	37	93	NE	3	30.12	36	37	35
Mon Feb  1 14:42:15 2010	 Indianapolis IN 	Partly Cloudy	19	73	SE	5	30.3	12	19	14
Mon Feb  1 14:42:16 2010	 Boston MA 	Clear	23	54	SSW	16	30.12	9	23	11
Mon Feb  1 14:42:18 2010	 Jacksonville FL 	Overcast	52	82	NE	14	30.24	46	52	48
Mon Feb  1 14:42:19 2010	 Columbus OH 	Mostly Cloudy	18	79	N/A		30.3	12	18	18
Mon Feb  1 14:42:19 2010	 Dallas TX 	Fog And Mist	34	87	SE	6	30.12	30	34	29
Mon Feb  1 14:42:20 2010	 Houston TX 	Overcast	41	81	ENE	6	30.15	36	41	38
Mon Feb  1 14:42:21 2010	 Seattle WA 	Clear	39	93	N/A		29.91	37	39	39
Mon Feb  1 14:42:22 2010	 Milwaukee WI 	Overcast	16	67	NW	3	30.3	7	16	11
Mon Feb  1 14:42:23 2010	 Detroit MI 	Clear	14	79	SSW	3	30.33	9	14	9
Mon Feb  1 14:42:24 2010	 Philadelphia PA 	Partly Cloudy	27	46	WNW	8	30.36	9	27	19
Mon Feb  1 15:26:09 2010	 San Jose CA 	Mostly Cloudy	43	93	SE	5	29.94	41	43	40
Mon Feb  1 15:26:10 2010	 Charlotte NC 	Fog And Mist	30	100	N/A		30.36	30	30	30
Mon Feb  1 15:26:11 2010	 San Diego CA 	Hazy	52	82	N/A		29.97	46	52	52
Mon Feb  1 15:26:12 2010	 Denver CO 	Partly Cloudy	23	54	SW	9	29.83	9	23	14
Mon Feb  1 15:26:13 2010	 Memphis TN 	Overcast	28	86	N/A		30.27	25	28	28
Mon Feb  1 15:26:14 2010	 Los Angeles CA 	Clear	52	77	N/A		29.94	45	52	52
Mon Feb  1 15:26:15 2010	 El Paso TX 	Overcast	41	87	SSE	6	29.97	37	41	38
Mon Feb  1 15:26:17 2010	 New York City NY 	Clear	27	50	Variable	7	30.3	10	27	20
Mon Feb  1 15:26:17 2010	 Baltimore MD 	Fair	30	47	N/A		30.36	12	30	30
Mon Feb  1 15:26:19 2010	 Las Vegas NV 	Clear	37	75	W	3	30	30	37	35
Mon Feb  1 15:26:19 2010	 Washington DC 	Mostly Cloudy	28	51	NNW	10	30.39	12	28	20
Mon Feb  1 15:26:20 2010	 Austin TX 	Fog And Mist	37	87	N/A		30.12	34	37	37
Mon Feb  1 15:26:21 2010	 San Francisco CA 	Mostly Cloudy	45	100	N/A		29.97	45	45	45
Mon Feb  1 15:26:22 2010	 Oklahoma City OK 	Fog And Mist	28	93	SSE	13	30.06	27	28	19
Mon Feb  1 15:26:23 2010	 Nashville TN 	Fog And Mist	19	93	N/A		30.3	18	19	19
Mon Feb  1 15:26:24 2010	 Fort Worth TX 	Fog And Mist	32	87	S	5	30.15	28	32	28
Mon Feb  1 15:26:25 2010	 Phoenix AZ 	Partly Cloudy	48	76	ESE	5	29.97	41	48	47
Mon Feb  1 15:26:26 2010	 Portland OR 	Light Rain	39	93	E	3	29.91	37	39	37
Mon Feb  1 15:26:27 2010	 Chicago IL 	Overcast	23	63	N/A		30.33	12	23	23
Mon Feb  1 15:26:28 2010	 San Antonio TX 	Light Rain	37	100	NE	3	30.12	37	37	35
Mon Feb  1 15:26:29 2010	 Indianapolis IN 	Mostly Cloudy	21	80	N/A		30.3	16	21	21
Mon Feb  1 15:26:30 2010	 Boston MA 	Clear	27	46	SSW	17	30.12	9	27	15
Mon Feb  1 15:26:31 2010	 Jacksonville FL 	Overcast	54	77	NE	12	30.24	46	54	50
Mon Feb  1 15:26:32 2010	 Columbus OH 	Mostly Cloudy	19	86	SW	6	30.36	16	19	12
Mon Feb  1 15:26:33 2010	 Dallas TX 	Fog And Mist	36	81	SE	7	30.12	30	36	31
Mon Feb  1 15:26:34 2010	 Houston TX 	Hazy	43	76	ENE	8	30.12	36	43	38
Mon Feb  1 15:26:35 2010	 Seattle WA 	Fog And Mist	39	87	N/A		29.91	36	39	39
Mon Feb  1 15:26:35 2010	 Milwaukee WI 	Overcast	16	67	Variable	3	30.33	7	16	11
Mon Feb  1 15:26:36 2010	 Detroit MI 	Clear	16	79	N/A		30.33	10	16	16
Mon Feb  1 15:26:37 2010	 Philadelphia PA 	Clear	28	43	NW	8	30.36	9	28	21
Mon Feb  1 16:10:17 2010	 San Jose CA 	Mostly Cloudy	45	93	SE	6	29.94	43	45	42
Mon Feb  1 16:10:18 2010	 Charlotte NC 	Mostly Cloudy	32	93	N/A		30.36	30	32	32
Mon Feb  1 16:10:19 2010	 San Diego CA 	Hazy	54	82	N/A		29.97	48	54	54
Mon Feb  1 16:10:20 2010	 Denver CO 	Partly Cloudy	27	50	SSW	8	29.83	10	27	19
Mon Feb  1 16:10:20 2010	 Memphis TN 	Mostly Cloudy	32	80	E	3	30.27	27	32	29
Mon Feb  1 16:10:21 2010	 Los Angeles CA 	Clear	52	72	N/A		29.94	43	52	52
Mon Feb  1 16:10:22 2010	 El Paso TX 	Mostly Cloudy	45	81	SE	3	30	39	45	44
Mon Feb  1 16:10:24 2010	 New York City NY 	Clear	28	47	W	14	30.3	10	28	18
Mon Feb  1 16:10:25 2010	 Baltimore MD 	Fair	30	47	N/A		30.36	12	30	30
Mon Feb  1 16:10:26 2010	 Las Vegas NV 	Clear	39	70	N/A		30.03	30	39	39
Mon Feb  1 16:10:27 2010	 Washington DC 	Mostly Cloudy	30	47	NNW	7	30.39	12	30	24
Mon Feb  1 16:10:28 2010	 Austin TX 	Fog And Mist	37	87	N/A		30.15	34	37	37
Mon Feb  1 16:10:29 2010	 San Francisco CA 	Mostly Cloudy	45	93	ESE	3	29.97	43	45	44
Mon Feb  1 16:10:30 2010	 Oklahoma City OK 	Fog And Mist	28	93	S	9	30.06	27	28	20
Mon Feb  1 16:10:31 2010	 Nashville TN 	Fog And Mist	25	93	N/A		30.33	23	25	25
Mon Feb  1 16:10:32 2010	 Fort Worth TX 	Fog And Mist	34	87	S	6	30.18	30	34	29
Mon Feb  1 16:10:33 2010	 Phoenix AZ 	Mostly Cloudy	48	76	E	6	29.97	41	48	46
Mon Feb  1 16:10:34 2010	 Portland OR 	Overcast	41	87	E	13	29.91	37	41	34
Mon Feb  1 16:10:36 2010	 Chicago IL 	Overcast	25	59	N/A		30.33	12	25	25
Mon Feb  1 16:10:37 2010	 San Antonio TX 	Fog And Mist	39	93	ENE	6	30.15	37	39	35
Mon Feb  1 16:10:38 2010	 Indianapolis IN 	Mostly Cloudy	25	69	SSE	3	30.3	16	25	21
Mon Feb  1 16:10:39 2010	 Boston MA 	Partly Cloudy	28	43	SSW	14	30.15	9	28	18
Mon Feb  1 16:10:40 2010	 Jacksonville FL 	Overcast	55	77	NE	13	30.24	48	55	52
Mon Feb  1 16:10:41 2010	 Columbus OH 	Hazy	23	74	SSE	6	30.33	16	23	17
Mon Feb  1 16:10:42 2010	 Dallas TX 	Hazy	36	81	SSE	3	30.15	30	36	33
Mon Feb  1 16:10:43 2010	 Houston TX 	Light Rain	45	76	ENE	7	30.15	37	45	41
Mon Feb  1 16:10:44 2010	 Seattle WA 	Clear	39	93	N/A		29.91	37	39	39
Mon Feb  1 16:10:45 2010	 Milwaukee WI 	Hazy	19	63	N/A		30.3	9	19	19
Mon Feb  1 16:10:46 2010	 Detroit MI 	Clear	21	68	SSW	7	30.33	12	21	13
Mon Feb  1 16:10:46 2010	 Philadelphia PA 	Partly Cloudy	30	43	NW	12	30.33	10	30	22
Mon Feb  1 16:55:35 2010	 San Jose CA 	Mostly Cloudy	45	93	SE	6	29.94	43	45	42
Mon Feb  1 16:55:36 2010	 Charlotte NC 	Mostly Cloudy	32	93	N/A		30.36	30	32	32
Mon Feb  1 16:55:37 2010	 San Diego CA 	Hazy	54	82	N/A		29.97	48	54	54
Mon Feb  1 16:55:38 2010	 Denver CO 	Partly Cloudy	27	50	SSW	8	29.83	10	27	19
Mon Feb  1 16:55:39 2010	 Memphis TN 	Mostly Cloudy	32	80	E	3	30.27	27	32	29
Mon Feb  1 16:55:40 2010	 Los Angeles CA 	Clear	52	72	N/A		29.94	43	52	52
Mon Feb  1 16:55:41 2010	 El Paso TX 	Mostly Cloudy	45	81	SE	3	30	39	45	44
Mon Feb  1 16:55:42 2010	 New York City NY 	Clear	28	47	W	14	30.3	10	28	18
Mon Feb  1 16:55:43 2010	 Baltimore MD 	Fair	30	47	N/A		30.36	12	30	30
Mon Feb  1 16:55:44 2010	 Las Vegas NV 	Clear	39	70	N/A		30.03	30	39	39
Mon Feb  1 16:55:45 2010	 Washington DC 	Mostly Cloudy	30	47	NNW	7	30.39	12	30	24
Mon Feb  1 16:55:46 2010	 Austin TX 	Fog And Mist	37	87	N/A		30.15	34	37	37
Mon Feb  1 16:55:47 2010	 San Francisco CA 	Mostly Cloudy	45	93	ESE	3	29.97	43	45	44
Mon Feb  1 16:55:48 2010	 Oklahoma City OK 	Fog And Mist	28	93	S	9	30.06	27	28	20
Mon Feb  1 16:55:49 2010	 Nashville TN 	Fog And Mist	25	93	N/A		30.33	23	25	25
Mon Feb  1 16:55:50 2010	 Fort Worth TX 	Fog And Mist	34	87	S	6	30.18	30	34	29
Mon Feb  1 16:55:51 2010	 Phoenix AZ 	Mostly Cloudy	48	76	E	6	29.97	41	48	46
Mon Feb  1 16:55:52 2010	 Portland OR 	Overcast	41	87	E	13	29.91	37	41	34
Mon Feb  1 16:55:53 2010	 Chicago IL 	Overcast	25	59	N/A		30.33	12	25	25
Mon Feb  1 16:55:54 2010	 San Antonio TX 	Fog And Mist	39	93	ENE	7	30.15	37	39	35
Mon Feb  1 16:55:55 2010	 Indianapolis IN 	Mostly Cloudy	25	69	SSE	3	30.3	16	25	21
Mon Feb  1 16:55:56 2010	 Boston MA 	Partly Cloudy	28	43	SSW	14	30.15	9	28	18
Mon Feb  1 16:55:57 2010	 Jacksonville FL 	Overcast	55	77	NE	13	30.24	48	55	52
Mon Feb  1 16:55:58 2010	 Columbus OH 	Hazy	23	74	SSE	6	30.33	16	23	17
Mon Feb  1 16:55:59 2010	 Dallas TX 	Hazy	36	81	SSE	3	30.15	30	36	33
Mon Feb  1 16:56:00 2010	 Houston TX 	Light Rain	45	76	ENE	7	30.15	37	45	41
Mon Feb  1 16:56:01 2010	 Seattle WA 	Clear	39	93	N/A		29.91	37	39	39
Mon Feb  1 16:56:02 2010	 Milwaukee WI 	Hazy	19	63	N/A		30.3	9	19	19
Mon Feb  1 16:56:03 2010	 Detroit MI 	Clear	21	68	SSW	7	30.33	12	21	13
Mon Feb  1 16:56:04 2010	 Philadelphia PA 	Partly Cloudy	30	43	NW	12	30.33	10	30	22
Mon Feb  1 17:39:37 2010	 San Jose CA 	Mostly Cloudy	45	93	N/A		29.97	43	45	45
Mon Feb  1 17:39:38 2010	 Charlotte NC 	Mostly Cloudy	37	75	SW	3	30.36	30	37	35
Mon Feb  1 17:39:39 2010	 San Diego CA 	Fog And Mist	54	82	N/A		30	48	54	54
Mon Feb  1 17:39:40 2010	 Denver CO 	Partly Cloudy	34	38	SSW	7	29.83	10	34	28
Mon Feb  1 17:39:41 2010	 Memphis TN 	Mostly Cloudy	37	70	SE	7	30.27	28	37	33
Mon Feb  1 17:39:42 2010	 Los Angeles CA 	Clear	52	77	N/A		29.97	45	52	52
Mon Feb  1 17:39:43 2010	 El Paso TX 	Mostly Cloudy	48	71	N/A		30	39	48	48
Mon Feb  1 17:39:44 2010	 New York City NY 	Clear	28	43	W	12	30.27	9	28	19
Mon Feb  1 17:39:46 2010	 Baltimore MD 	Fair	34	41	N/A		30.36	12	34	34
Mon Feb  1 17:39:47 2010	 Las Vegas NV 	Clear	41	66	N/A		30.03	30	41	41
Mon Feb  1 17:39:47 2010	 Washington DC 	Mostly Cloudy	32	44	N	10	30.39	12	32	24
Mon Feb  1 17:39:48 2010	 Austin TX 	Fog And Mist	37	93	N/A		30.15	36	37	37
Mon Feb  1 17:39:49 2010	 San Francisco CA 	Fog And Mist	46	93	N/A		29.97	45	46	46
Mon Feb  1 17:39:50 2010	 Oklahoma City OK 	Fog And Mist	28	93	SSE	9	30.06	27	28	20
Mon Feb  1 17:39:52 2010	 Nashville TN 	Fog And Mist	28	86	N/A		30.3	25	28	28
Mon Feb  1 17:39:53 2010	 Fort Worth TX 	Fog And Mist	34	87	S	7	30.18	30	34	28
Mon Feb  1 17:39:54 2010	 Phoenix AZ 	Mostly Cloudy	52	67	E	6	29.97	41	52	50
Mon Feb  1 17:39:55 2010	 Portland OR 	Overcast	39	93	SE	6	29.91	37	39	35
Mon Feb  1 17:39:56 2010	 Chicago IL 	Overcast	25	59	S	3	30.3	12	25	21
Mon Feb  1 17:39:57 2010	 San Antonio TX 	Fog And Mist	39	93	ENE	5	30.15	37	39	36
Mon Feb  1 17:39:58 2010	 Indianapolis IN 	Mostly Cloudy	27	64	SSE	6	30.3	16	27	21
Mon Feb  1 17:39:59 2010	 Boston MA 	Partly Cloudy	30	37	SSW	16	30.15	7	30	20
Mon Feb  1 17:40:00 2010	 Jacksonville FL 	Overcast	57	72	NE	12	30.24	48	57	55
Mon Feb  1 17:40:01 2010	 Columbus OH 	Mostly Cloudy	27	64	S	5	30.33	16	27	22
Mon Feb  1 17:40:02 2010	 Dallas TX 	Overcast	37	81	S	6	30.15	32	37	33
Mon Feb  1 17:40:02 2010	 Houston TX 	Light Rain	45	81	E	5	30.18	39	45	43
Mon Feb  1 17:40:04 2010	 Seattle WA 	Mostly Cloudy	39	93	N/A		29.91	37	39	39
Mon Feb  1 17:40:05 2010	 Milwaukee WI 	Hazy	21	63	N/A		30.3	10	21	21
Mon Feb  1 17:40:06 2010	 Detroit MI 	Clear	23	58	SSW	8	30.33	10	23	15
Mon Feb  1 17:40:07 2010	 Philadelphia PA 	Mostly Cloudy	32	40	NW	9	30.33	10	32	25
Mon Feb  1 18:22:46 2010	 San Jose CA 	Mostly Cloudy	48	87	N/A		29.97	45	48	48
Mon Feb  1 18:22:47 2010	 Charlotte NC 	Mostly Cloudy	41	66	Variable	3	30.36	30	41	39
Mon Feb  1 18:22:47 2010	 San Diego CA 	Hazy	57	77	NNE	3	30	50	57	57
Mon Feb  1 18:22:48 2010	 Denver CO 	Partly Cloudy	39	26	NNW	7	29.85	7	39	35
Mon Feb  1 18:22:49 2010	 Memphis TN 	Mostly Cloudy	39	65	N/A		30.24	28	39	39
Mon Feb  1 18:22:51 2010	 Los Angeles CA 	Clear	57	63	N/A		29.97	45	57	57
Mon Feb  1 18:22:51 2010	 El Paso TX 	Mostly Cloudy	52	62	SE	5	30.03	39	52	51
Mon Feb  1 18:22:53 2010	 New York City NY 	Clear	32	40	WNW	9	30.24	10	32	25
Mon Feb  1 18:22:54 2010	 Baltimore MD 	Fair	34	41	N/A		30.33	12	34	34
Mon Feb  1 18:22:55 2010	 Las Vegas NV 	Clear	46	53	N/A		30.03	30	46	46
Mon Feb  1 18:22:56 2010	 Washington DC 	Overcast	34	41	NW	5	30.39	12	34	30
Mon Feb  1 18:22:57 2010	 Austin TX 	Fog And Mist	39	87	N/A		30.15	36	39	39
Mon Feb  1 18:22:58 2010	 San Francisco CA 	Fog And Mist	50	88	E	7	29.97	46	50	48
Mon Feb  1 18:22:59 2010	 Oklahoma City OK 	Fog And Mist	30	93	S	12	30.06	28	30	22
Mon Feb  1 18:23:00 2010	 Nashville TN 	Mostly Cloudy	34	70	S	3	30.3	25	34	31
Mon Feb  1 18:23:01 2010	 Fort Worth TX 	Fog And Mist	36	87	S	5	30.15	32	36	32
Mon Feb  1 18:23:03 2010	 Phoenix AZ 	Mostly Cloudy	55	59	E	8	30	41	55	54
Mon Feb  1 18:23:06 2010	 Portland OR 	Overcast	41	87	N/A		29.91	37	41	41
Mon Feb  1 18:23:07 2010	 Chicago IL 	Overcast	27	54	N/A		30.3	12	27	27
Mon Feb  1 18:23:08 2010	 San Antonio TX 	Fog And Mist	41	93	NNE	5	30.12	39	41	38
Mon Feb  1 18:23:09 2010	 Indianapolis IN 	Mostly Cloudy	28	59	SSE	5	30.3	16	28	24
Mon Feb  1 18:23:10 2010	 Boston MA 	Partly Cloudy	34	32	SSW	14	30.12	7	34	25
Mon Feb  1 18:23:11 2010	 Jacksonville FL 	Overcast	57	72	NE	12	30.21	48	57	55
Mon Feb  1 18:23:12 2010	 Columbus OH 	Mostly Cloudy	28	59	S	3	30.33	16	28	25
Mon Feb  1 18:23:13 2010	 Dallas TX 	Mostly Cloudy	41	76	S	6	30.12	34	41	38
Mon Feb  1 18:23:14 2010	 Houston TX 	Light Rain	45	93	E	7	30.15	43	45	41
Mon Feb  1 18:23:15 2010	 Seattle WA 	Partly Cloudy	43	87	N/A		29.88	39	43	43
Mon Feb  1 18:23:17 2010	 Milwaukee WI 	Overcast	23	54	N/A		30.3	9	23	23
Mon Feb  1 18:23:18 2010	 Detroit MI 	Mostly Cloudy	25	54	SSW	9	30.33	10	25	16
Mon Feb  1 18:23:19 2010	 Philadelphia PA 	Mostly Cloudy	32	40	NW	13	30.3	10	32	23
Mon Feb  1 19:06:29 2010	 San Jose CA 	Mostly Cloudy	48	87	N/A		29.97	45	48	48
Mon Feb  1 19:06:30 2010	 Charlotte NC 	Mostly Cloudy	41	66	Variable	3	30.36	30	41	39
Mon Feb  1 19:06:31 2010	 San Diego CA 	Hazy	57	77	NNE	3	30	50	57	57
Mon Feb  1 19:06:32 2010	 Denver CO 	Partly Cloudy	39	26	NNW	7	29.85	7	39	35
Mon Feb  1 19:06:32 2010	 Memphis TN 	Mostly Cloudy	39	65	N/A		30.24	28	39	39
Mon Feb  1 19:06:33 2010	 Los Angeles CA 	Clear	57	63	N/A		29.97	45	57	57
Mon Feb  1 19:06:34 2010	 El Paso TX 	Mostly Cloudy	52	62	SE	5	30.03	39	52	51
Mon Feb  1 19:06:36 2010	 New York City NY 	Clear	32	40	WNW	9	30.24	10	32	25
Mon Feb  1 19:06:37 2010	 Baltimore MD 	Fair	34	41	N/A		30.33	12	34	34
Mon Feb  1 19:06:38 2010	 Las Vegas NV 	Clear	46	53	N/A		30.03	30	46	46
Mon Feb  1 19:06:39 2010	 Washington DC 	Overcast	34	41	NW	5	30.39	12	34	30
Mon Feb  1 19:06:40 2010	 Austin TX 	Fog And Mist	39	93	N/A		30.15	37	39	39
Mon Feb  1 19:06:41 2010	 San Francisco CA 	Fog And Mist	50	88	E	7	29.97	46	50	48
Mon Feb  1 19:06:42 2010	 Oklahoma City OK 	Fog And Mist	30	93	S	7	30.06	28	30	24
Mon Feb  1 19:06:43 2010	 Nashville TN 	Mostly Cloudy	34	70	S	3	30.3	25	34	31
Mon Feb  1 19:06:44 2010	 Fort Worth TX 	Fog And Mist	36	87	S	5	30.15	32	36	32
Mon Feb  1 19:06:46 2010	 Phoenix AZ 	Mostly Cloudy	55	59	E	8	30	41	55	54
Mon Feb  1 19:06:47 2010	 Portland OR 	Overcast	41	87	N/A		29.91	37	41	41
Mon Feb  1 19:06:48 2010	 Chicago IL 	Overcast	27	54	N/A		30.3	12	27	27
Mon Feb  1 19:06:49 2010	 San Antonio TX 	Fog And Mist	43	87	NE	5	30.12	39	43	40
Mon Feb  1 19:06:50 2010	 Indianapolis IN 	Mostly Cloudy	28	59	SSE	5	30.3	16	28	24
Mon Feb  1 19:06:51 2010	 Boston MA 	Partly Cloudy	34	32	SSW	14	30.12	7	34	25
Mon Feb  1 19:06:52 2010	 Jacksonville FL 	Overcast	57	72	NE	12	30.21	48	57	55
Mon Feb  1 19:06:53 2010	 Columbus OH 	Mostly Cloudy	28	59	S	3	30.33	16	28	25
Mon Feb  1 19:06:55 2010	 Dallas TX 	Overcast	45	66	S	10	30.12	34	45	40
Mon Feb  1 19:06:56 2010	 Houston TX 	Light Rain	46	87	ENE	6	30.15	43	46	44
Mon Feb  1 19:06:57 2010	 Seattle WA 	Partly Cloudy	43	87	N/A		29.88	39	43	43
Mon Feb  1 19:06:58 2010	 Milwaukee WI 	Overcast	23	54	N/A		30.3	9	23	23
Mon Feb  1 19:06:59 2010	 Detroit MI 	Mostly Cloudy	25	54	SSW	9	30.33	10	25	16
Mon Feb  1 19:07:00 2010	 Philadelphia PA 	Mostly Cloudy	32	40	NW	13	30.3	10	32	23
Mon Feb  1 19:51:42 2010	 San Jose CA 	Mostly Cloudy	52	77	SE	5	29.94	45	52	51
Mon Feb  1 19:51:42 2010	 Charlotte NC 	Partly Cloudy	43	53	SW	5	30.33	27	43	40
Mon Feb  1 19:51:43 2010	 San Diego CA 	Mostly Cloudy	57	72	N	5	30	48	57	57
Mon Feb  1 19:51:44 2010	 Denver CO 	Partly Cloudy	41	22	SSW	9	29.85	5	41	36
Mon Feb  1 19:51:45 2010	 Memphis TN 	Mostly Cloudy	45	57	SE	6	30.21	30	45	42
Mon Feb  1 19:51:46 2010	 Los Angeles CA 	Hazy	61	55	N/A		29.97	45	61	61
Mon Feb  1 19:51:47 2010	 El Paso TX 	Partly Cloudy	55	51	N/A		30	37	55	55
Mon Feb  1 19:51:48 2010	 New York City NY 	Clear	34	35	W	12	30.24	9	34	26
Mon Feb  1 19:51:49 2010	 Baltimore MD 	Fair	36	41	N/A		30.33	14	36	36
Mon Feb  1 19:51:50 2010	 Las Vegas NV 	Clear	48	58	N/A		30.03	34	48	48
Mon Feb  1 19:51:51 2010	 Washington DC 	Overcast	36	38	WNW	14	30.36	12	36	27
Mon Feb  1 19:51:52 2010	 Austin TX 	Fog And Mist	39	93	N/A		30.12	37	39	39
Mon Feb  1 19:51:53 2010	 San Francisco CA 	Mostly Cloudy	52	77	N/A		29.97	45	52	52
Mon Feb  1 19:51:54 2010	 Oklahoma City OK 	Fog And Mist	30	93	S	10	30.03	28	30	22
Mon Feb  1 19:51:55 2010	 Nashville TN 	Mostly Cloudy	37	60	S	3	30.27	25	37	35
Mon Feb  1 19:51:56 2010	 Fort Worth TX 	Hazy	39	81	S	7	30.15	34	39	35
Mon Feb  1 19:51:57 2010	 Phoenix AZ 	Mostly Cloudy	57	51	E	7	30	39	57	56
Mon Feb  1 19:51:58 2010	 Portland OR 	Overcast	43	81	N/A		29.91	37	43	43
Mon Feb  1 19:51:58 2010	 Chicago IL 	Overcast	27	54	N/A		30.27	12	27	27
Mon Feb  1 19:51:59 2010	 San Antonio TX 	Fog And Mist	43	87	NE	6	30.09	39	43	40
Mon Feb  1 19:52:01 2010	 Indianapolis IN 	Mostly Cloudy	30	55	N/A		30.27	16	30	30
Mon Feb  1 19:52:02 2010	 Boston MA 	Partly Cloudy	34	35	SSW	13	30.09	9	34	26
Mon Feb  1 19:52:03 2010	 Jacksonville FL 	Overcast	59	72	NE	14	30.21	50	59	57
Mon Feb  1 19:52:04 2010	 Columbus OH 	Mostly Cloudy	30	55	SSE	8	30.33	16	30	23
Mon Feb  1 19:52:05 2010	 Dallas TX 	Overcast	46	66	SSE	9	30.09	36	46	42
Mon Feb  1 19:52:06 2010	 Houston TX 	Light Rain	46	87	E	5	30.12	43	46	45
Mon Feb  1 19:52:07 2010	 Seattle WA 	Partly Cloudy	45	87	N/A		29.88	41	45	45
Mon Feb  1 19:52:08 2010	 Milwaukee WI 	Overcast	25	50	N/A		30.27	9	25	25
Mon Feb  1 19:52:09 2010	 Detroit MI 	Overcast	27	50	WNW	7	30.3	10	27	20
Mon Feb  1 19:52:10 2010	 Philadelphia PA 	Overcast	34	38	WNW	9	30.27	10	34	27
Mon Feb  1 20:38:02 2010	 San Jose CA 	Mostly Cloudy	57	63	N/A		29.94	45	57	57
Mon Feb  1 20:38:02 2010	 Charlotte NC 	Partly Cloudy	45	46	N/A		30.3	25	45	45
Mon Feb  1 20:38:03 2010	 San Diego CA 	Mostly Cloudy	61	63	NE	3	29.97	48	61	61
Mon Feb  1 20:38:04 2010	 Denver CO 	Partly Cloudy	43	22	N	2	29.83	7	43	43
Mon Feb  1 20:38:06 2010	 Memphis TN 	Overcast	46	53	N/A		30.18	30	46	46
Mon Feb  1 20:38:06 2010	 Los Angeles CA 	Hazy	63	56	N/A		29.97	46	63	63
Mon Feb  1 20:38:07 2010	 El Paso TX 	Partly Cloudy	61	29	WNW	13	29.97	28	61	59
Mon Feb  1 20:38:09 2010	 New York City NY 	Clear	34	35	SSW	7	30.21	9	34	28
Mon Feb  1 20:38:10 2010	 Baltimore MD 	Fair	36	41	N/A		30.3	14	36	36
Mon Feb  1 20:38:11 2010	 Las Vegas NV 	Clear	52	47	N/A		30.03	32	52	52
Mon Feb  1 20:38:12 2010	 Washington DC 	Overcast	37	35	WNW	8	30.33	12	37	32
Mon Feb  1 20:38:12 2010	 Austin TX 	Fog And Mist	43	87	N/A		30.09	39	43	43
Mon Feb  1 20:38:13 2010	 San Francisco CA 	Mostly Cloudy	52	82	N/A		29.97	46	52	52
Mon Feb  1 20:38:15 2010	 Oklahoma City OK 	Fog And Mist	30	93	SSE	10	30.03	28	30	22
Mon Feb  1 20:38:16 2010	 Nashville TN 	Mostly Cloudy	41	53	N/A		30.24	25	41	41
Mon Feb  1 20:38:17 2010	 Fort Worth TX 	Overcast	41	76	S	6	30.12	34	41	38
Mon Feb  1 20:38:18 2010	 Phoenix AZ 	Mostly Cloudy	61	52	E	5	29.97	43	61	61
Mon Feb  1 20:38:19 2010	 Portland OR 	Light Rain	43	87	WNW	3	29.91	39	43	41
Mon Feb  1 20:38:20 2010	 Chicago IL 	Overcast	28	55	N/A		30.24	14	28	28
Mon Feb  1 20:38:21 2010	 San Antonio TX 	Light Rain	45	93	N	3	30.06	43	45	44
Mon Feb  1 20:38:22 2010	 Indianapolis IN 	Mostly Cloudy	34	48	S	5	30.21	16	34	30
Mon Feb  1 20:38:23 2010	 Boston MA 	Partly Cloudy	34	25	NW	20	30.09	1	34	23
Mon Feb  1 20:38:25 2010	 Jacksonville FL 	Overcast	59	72	NE	16	30.18	50	59	56
Mon Feb  1 20:38:25 2010	 Columbus OH 	Mostly Cloudy	34	44	N/A		30.27	14	34	34
Mon Feb  1 20:38:26 2010	 Dallas TX 	Overcast	45	71	SSW	9	30.06	36	45	40
Mon Feb  1 20:38:27 2010	 Houston TX 	Light Rain	46	93	ENE	6	30.09	45	46	44
Mon Feb  1 20:38:28 2010	 Seattle WA 	Overcast	46	82	N/A		29.91	41	46	46
Mon Feb  1 20:38:29 2010	 Milwaukee WI 	Overcast	25	50	N/A		30.24	9	25	25
Mon Feb  1 20:38:30 2010	 Detroit MI 	Partly Cloudy	27	54	SSW	8	30.27	12	27	19
Mon Feb  1 20:38:32 2010	 Philadelphia PA 	Mostly Cloudy	36	38	SSW	15	30.27	12	36	27
Mon Feb  1 21:22:49 2010	 San Jose CA 	Mostly Cloudy	61	55	ENE	3	29.94	45	61	61
Mon Feb  1 21:22:50 2010	 Charlotte NC 	Partly Cloudy	46	40	SSE	3	30.27	23	46	46
Mon Feb  1 21:22:51 2010	 San Diego CA 	Mostly Cloudy	61	63	Variable	5	29.94	48	61	61
Mon Feb  1 21:22:52 2010	 Denver CO 	Partly Cloudy	45	21	N	3	29.83	7	45	44
Mon Feb  1 21:22:53 2010	 Memphis TN 	Overcast	46	50	SSE	5	30.15	28	46	45
Mon Feb  1 21:22:54 2010	 Los Angeles CA 	Hazy	64	49	N/A		29.94	45	64	64
Mon Feb  1 21:22:55 2010	 El Paso TX 	Partly Cloudy	61	34	W	13	29.94	32	61	59
Mon Feb  1 21:22:57 2010	 New York City NY 	Clear	34	35	SSW	10	30.21	9	34	27
Mon Feb  1 21:22:58 2010	 Baltimore MD 	Fair	36	38	N/A		30.3	12	36	36
Mon Feb  1 21:22:59 2010	 Las Vegas NV 	Clear	54	38	E	5	30	28	54	53
Mon Feb  1 21:23:00 2010	 Washington DC 	Overcast	37	35	W	8	30.3	12	37	32
Mon Feb  1 21:23:00 2010	 Austin TX 	Fog And Mist	43	87	N/A		30.06	39	43	43
Mon Feb  1 21:23:02 2010	 San Francisco CA 	Mostly Cloudy	54	77	N/A		29.94	46	54	54
Mon Feb  1 21:23:03 2010	 Oklahoma City OK 	Fog And Mist	30	93	SW	9	30	28	30	23
Mon Feb  1 21:23:04 2010	 Nashville TN 	Mostly Cloudy	43	53	E	6	30.21	27	43	40
Mon Feb  1 21:23:05 2010	 Fort Worth TX 	Overcast	43	71	S	7	30.09	34	43	39
Mon Feb  1 21:23:06 2010	 Phoenix AZ 	Mostly Cloudy	63	42	N/A		29.94	39	63	63
Mon Feb  1 21:23:07 2010	 Portland OR 	Light Rain	43	87	NE	5	29.91	39	43	40
Mon Feb  1 21:23:08 2010	 Chicago IL 	Overcast	30	55	N/A		30.21	16	30	30
Mon Feb  1 21:23:09 2010	 San Antonio TX 	Fog And Mist	45	93	NE	3	30.06	43	45	44
Mon Feb  1 21:23:10 2010	 Indianapolis IN 	Mostly Cloudy	36	44	N/A		30.21	16	36	36
Mon Feb  1 21:23:11 2010	 Boston MA 	Partly Cloudy	34	29	W	16	30.09	5	34	24
Mon Feb  1 21:23:12 2010	 Jacksonville FL 	Overcast	59	77	NE	15	30.15	52	59	56
Mon Feb  1 21:23:13 2010	 Columbus OH 	Mostly Cloudy	34	44	N/A		30.27	14	34	34
Mon Feb  1 21:23:14 2010	 Dallas TX 	Overcast	46	66	SW	7	30.06	36	46	43
Mon Feb  1 21:23:15 2010	 Houston TX 	Fog And Mist	48	94	E	7	30.06	46	48	46
Mon Feb  1 21:23:16 2010	 Seattle WA 	Overcast	48	76	N/A		29.88	41	48	48
Mon Feb  1 21:23:17 2010	 Milwaukee WI 	Mostly Cloudy	28	47	ENE	5	30.21	10	28	24
Mon Feb  1 21:23:18 2010	 Detroit MI 	Overcast	27	54	SSW	8	30.27	12	27	19
Mon Feb  1 21:23:19 2010	 Philadelphia PA 	Mostly Cloudy	36	38	W	16	30.27	12	36	27
Mon Feb  1 22:06:23 2010	 San Jose CA 	Mostly Cloudy	61	55	ENE	3	29.94	45	61	61
Mon Feb  1 22:06:24 2010	 Charlotte NC 	Partly Cloudy	46	40	SSE	3	30.27	23	46	46
Mon Feb  1 22:06:24 2010	 San Diego CA 	Mostly Cloudy	61	63	Variable	5	29.94	48	61	61
Mon Feb  1 22:06:26 2010	 Denver CO 	Partly Cloudy	45	21	N	3	29.83	7	45	44
Mon Feb  1 22:06:26 2010	 Memphis TN 	Overcast	46	50	SSE	5	30.15	28	46	45
Mon Feb  1 22:06:27 2010	 Los Angeles CA 	Hazy	64	49	N/A		29.94	45	64	64
Mon Feb  1 22:06:28 2010	 El Paso TX 	Partly Cloudy	61	34	W	13	29.94	32	61	59
Mon Feb  1 22:06:30 2010	 New York City NY 	Clear	34	35	SSW	10	30.21	9	34	27
Mon Feb  1 22:06:31 2010	 Baltimore MD 	Fair	36	38	N/A		30.3	12	36	36
Mon Feb  1 22:06:33 2010	 Las Vegas NV 	Clear	54	38	E	5	30	28	54	53
Mon Feb  1 22:06:33 2010	 Washington DC 	Overcast	37	35	W	8	30.3	12	37	32
Mon Feb  1 22:06:34 2010	 Austin TX 	Fog And Mist	45	81	N/A		30.06	39	45	45
Mon Feb  1 22:06:35 2010	 San Francisco CA 	Mostly Cloudy	54	77	N/A		29.94	46	54	54
Mon Feb  1 22:06:36 2010	 Oklahoma City OK 	Fog And Mist	30	93	SW	9	30	28	30	23
Mon Feb  1 22:06:37 2010	 Nashville TN 	Mostly Cloudy	43	53	E	6	30.21	27	43	40
Mon Feb  1 22:06:38 2010	 Fort Worth TX 	Overcast	43	71	S	7	30.09	34	43	39
Mon Feb  1 22:06:39 2010	 Phoenix AZ 	Mostly Cloudy	63	42	N/A		29.94	39	63	63
Mon Feb  1 22:06:40 2010	 Portland OR 	Light Rain	43	87	E	12	29.88	39	43	37
Mon Feb  1 22:06:41 2010	 Chicago IL 	Overcast	30	55	N/A		30.21	16	30	30
Mon Feb  1 22:06:42 2010	 San Antonio TX 	Fog And Mist	45	93	ENE	5	30.03	43	45	43
Mon Feb  1 22:06:43 2010	 Indianapolis IN 	Mostly Cloudy	36	44	N/A		30.21	16	36	36
Mon Feb  1 22:06:44 2010	 Boston MA 	Partly Cloudy	34	29	W	16	30.09	5	34	24
Mon Feb  1 22:06:46 2010	 Jacksonville FL 	Overcast	59	77	NE	15	30.15	52	59	56
Mon Feb  1 22:06:47 2010	 Columbus OH 	Mostly Cloudy	34	44	N/A		30.27	14	34	34
Mon Feb  1 22:06:48 2010	 Dallas TX 	Overcast	46	66	SW	7	30.06	36	46	43
Mon Feb  1 22:06:49 2010	 Houston TX 	Fog And Mist	48	94	E	7	30.06	46	48	46
Mon Feb  1 22:06:50 2010	 Seattle WA 	Overcast	48	76	N/A		29.88	41	48	48
Mon Feb  1 22:06:51 2010	 Milwaukee WI 	Mostly Cloudy	28	47	ENE	5	30.21	10	28	24
Mon Feb  1 22:06:52 2010	 Detroit MI 	Overcast	27	54	SSW	8	30.27	12	27	19
Mon Feb  1 22:06:53 2010	 Philadelphia PA 	Mostly Cloudy	36	38	W	16	30.27	12	36	27
Mon Feb  1 22:49:38 2010	 San Jose CA 	Mostly Cloudy	63	49	E	5	29.91	43	63	63
Mon Feb  1 22:49:39 2010	 Charlotte NC 	Partly Cloudy	48	34	N/A		30.24	21	48	48
Mon Feb  1 22:49:40 2010	 San Diego CA 	Mostly Cloudy	63	64	WNW	6	29.91	50	63	63
Mon Feb  1 22:49:41 2010	 Denver CO 	Partly Cloudy	45	21	N/A		29.83	7	45	45
Mon Feb  1 22:49:42 2010	 Memphis TN 	Overcast	46	53	SE	3	30.15	30	46	46
Mon Feb  1 22:49:43 2010	 Los Angeles CA 	Hazy	66	46	N/A		29.91	45	66	66
Mon Feb  1 22:49:44 2010	 El Paso TX 	Partly Cloudy	61	36	N/A		29.94	34	61	61
Mon Feb  1 22:49:46 2010	 New York City NY 	Clear	36	32	W	9	30.24	9	36	29
Mon Feb  1 22:49:46 2010	 Baltimore MD 	Fair	36	38	N/A		30.3	12	36	36
Mon Feb  1 22:49:47 2010	 Las Vegas NV 	Clear	55	36	Variable	5	29.97	28	55	55
Mon Feb  1 22:49:48 2010	 Washington DC 	Mostly Cloudy	39	33	WNW	7	30.3	12	39	35
Mon Feb  1 22:49:49 2010	 Austin TX 	Overcast	46	76	N/A		30.06	39	46	46
Mon Feb  1 22:49:50 2010	 San Francisco CA 	Mostly Cloudy	57	67	S	3	29.91	46	57	57
Mon Feb  1 22:49:51 2010	 Oklahoma City OK 	Fog And Mist	30	93	SSE	8	30	28	30	23
Mon Feb  1 22:49:52 2010	 Nashville TN 	Overcast	39	65	ESE	5	30.18	28	39	36
Mon Feb  1 22:49:53 2010	 Fort Worth TX 	Overcast	43	76	S	7	30.06	36	43	39
Mon Feb  1 22:49:54 2010	 Phoenix AZ 	Mostly Cloudy	64	40	N/A		29.91	39	64	64
Mon Feb  1 22:49:55 2010	 Portland OR 	Light Rain	43	93	SE	7	29.88	41	43	39
Mon Feb  1 22:49:56 2010	 Chicago IL 	Overcast	30	55	N/A		30.21	16	30	30
Mon Feb  1 22:49:57 2010	 San Antonio TX 	Fog And Mist	45	93	E	3	30.03	43	45	44
Mon Feb  1 22:49:58 2010	 Indianapolis IN 	Mostly Cloudy	37	41	N/A		30.18	16	37	37
Mon Feb  1 22:49:59 2010	 Boston MA 	Partly Cloudy	34	27	SSW	21	30.09	3	34	23
Mon Feb  1 22:50:00 2010	 Jacksonville FL 	Overcast	57	82	NE	10	30.15	52	57	55
Mon Feb  1 22:50:01 2010	 Columbus OH 	Overcast	34	44	N/A		30.24	14	34	34
Mon Feb  1 22:50:02 2010	 Dallas TX 	Overcast	46	66	SSW	8	30.03	36	46	43
Mon Feb  1 22:50:03 2010	 Houston TX 	Fog And Mist	50	88	E	7	30.06	46	50	48
Mon Feb  1 22:50:04 2010	 Seattle WA 	Partly Cloudy	48	71	N/A		29.85	39	48	48
Mon Feb  1 22:50:05 2010	 Milwaukee WI 	Overcast	27	54	E	5	30.21	12	27	22
Mon Feb  1 22:50:06 2010	 Detroit MI 	Overcast	27	54	SW	8	30.24	12	27	19
Mon Feb  1 22:50:07 2010	 Philadelphia PA 	Mostly Cloudy	36	35	WNW	10	30.27	10	36	29
Mon Feb  1 23:34:28 2010	 San Jose CA 	Mostly Cloudy	63	49	SSE	6	29.88	43	63	63
Mon Feb  1 23:34:28 2010	 Charlotte NC 	Partly Cloudy	45	46	S	6	30.24	25	45	42
Mon Feb  1 23:34:29 2010	 San Diego CA 	Mostly Cloudy	61	68	N/A		29.91	50	61	61
Mon Feb  1 23:34:30 2010	 Denver CO 	Partly Cloudy	46	21	N	9	29.83	9	46	42
Mon Feb  1 23:34:32 2010	 Memphis TN 	Overcast	46	53	SE	3	30.12	30	46	46
Mon Feb  1 23:34:33 2010	 Los Angeles CA 	Hazy	68	43	N/A		29.88	45	68	68
Mon Feb  1 23:34:34 2010	 El Paso TX 	Mostly Cloudy	63	30	W	9	29.91	30	63	62
Mon Feb  1 23:34:35 2010	 New York City NY 	Clear	34	38	Variable	6	30.24	10	34	29
Mon Feb  1 23:34:36 2010	 Baltimore MD 	Fair	36	38	N/A		30.3	12	36	36
Mon Feb  1 23:34:38 2010	 Las Vegas NV 	Clear	55	33	SE	7	29.94	27	55	54
Mon Feb  1 23:34:38 2010	 Washington DC 	Mostly Cloudy	39	33	W	6	30.3	12	39	35
Mon Feb  1 23:34:39 2010	 Austin TX 	Hazy	45	81	N/A		30.03	39	45	45
Mon Feb  1 23:35:55 2010	 San Francisco CA 	Overcast	55	72	NW	10	29.91	46	55	53
Mon Feb  1 23:35:57 2010	 Oklahoma City OK 	Fog And Mist	32	87	SW	5	30	28	32	28
Mon Feb  1 23:35:58 2010	 Nashville TN 	Overcast	39	65	SE	5	30.18	28	39	36
Mon Feb  1 23:35:58 2010	 Fort Worth TX 	Overcast	45	71	SSW	8	30.06	36	45	41
Mon Feb  1 23:35:59 2010	 Phoenix AZ 	Mostly Cloudy	64	34	N/A		29.91	36	64	64
Mon Feb  1 23:36:00 2010	 Portland OR 	Overcast	45	93	ESE	8	29.85	43	45	41
Mon Feb  1 23:36:01 2010	 Chicago IL 	Hazy	30	55	SSE	3	30.21	16	30	27
Mon Feb  1 23:36:02 2010	 San Antonio TX 	Fog And Mist	45	93	N/A		30.03	43	45	45
Mon Feb  1 23:36:03 2010	 Indianapolis IN 	Mostly Cloudy	36	41	SE	3	30.18	14	36	33
Mon Feb  1 23:36:04 2010	 Boston MA 	Partly Cloudy	32	29	W	14	30.12	3	32	23
Mon Feb  1 23:36:05 2010	 Jacksonville FL 	Overcast	57	82	NE	10	30.15	52	57	55
Mon Feb  1 23:36:06 2010	 Columbus OH 	Mostly Cloudy	34	44	N/A		30.24	14	34	34
Mon Feb  1 23:36:07 2010	 Dallas TX 	Overcast	46	71	SSW	5	30.03	37	46	45
Mon Feb  1 23:36:08 2010	 Houston TX 	Fog And Mist	50	88	E	6	30.06	46	50	48
Mon Feb  1 23:36:09 2010	 Seattle WA 	Overcast	48	71	N/A		29.83	39	48	48
Mon Feb  1 23:36:10 2010	 Milwaukee WI 	Mostly Cloudy	27	54	E	7	30.21	12	27	20
Mon Feb  1 23:36:11 2010	 Detroit MI 	Overcast	27	54	SSW	6	30.27	12	27	21
Mon Feb  1 23:36:12 2010	 Philadelphia PA 	Mostly Cloudy	36	35	W	12	30.27	10	36	28
Sat Jan 30 00:22:25 2010	 San Jose CA 	Mostly Cloudy	61	55	S	17	29.97	45	61	58
Sat Jan 30 00:22:26 2010	 Charlotte NC 	Light Snow	32	93	N	6	30.27	30	32	27
Sat Jan 30 00:22:27 2010	 San Diego CA 	Mostly Cloudy	63	68	WNW	6	30.03	52	63	63
Sat Jan 30 00:22:28 2010	 Denver CO 	Partly Cloudy	43	24	NNW	3	30	9	43	41
Sat Jan 30 00:22:29 2010	 Memphis TN 	Freezing Rain	30	93	NE	13	30	28	30	21
Sat Jan 30 00:22:31 2010	 Los Angeles CA 	Clear	66	46	W	5	30	45	66	66
Sat Jan 30 00:22:32 2010	 El Paso TX 	Partly Cloudy	46	53	N	5	30.09	30	46	45
Sat Jan 30 00:22:33 2010	 New York City NY 	Clear	21	38	NW	9	30.27	N/A	21	12
Sat Jan 30 00:22:34 2010	 Baltimore MD 	Fair	25	30	N/A		30.36	-2	25	25
Sat Jan 30 00:22:35 2010	 Las Vegas NV 	Clear	55	41	SE	7	30.03	32	55	54
Sat Jan 30 00:22:36 2010	 Washington DC 	Overcast	27	33	NNW	10	30.36	1	27	18
Sat Jan 30 00:22:37 2010	 Austin TX 	Partly Cloudy	39	61	NW	14	30.06	27	39	32
Sat Jan 30 00:22:38 2010	 San Francisco CA 	Overcast	55	77	SW	10	29.97	48	55	53
Sat Jan 30 00:22:39 2010	 Oklahoma City OK 	Fog And Mist	23	93	NNW	3	30.06	21	23	19
Sat Jan 30 00:22:40 2010	 Nashville TN 	Light Snow	27	86	NE	12	30.12	23	27	17
Sat Jan 30 00:22:41 2010	 Fort Worth TX 	Overcast	34	75	N	17	30.12	27	34	24
Sat Jan 30 00:22:42 2010	 Phoenix AZ 	Partly Cloudy	66	43	ESE	3	30	43	66	66
Sat Jan 30 00:22:43 2010	 Portland OR 	Overcast	48	71	SE	13	29.97	39	48	43
Sat Jan 30 00:22:44 2010	 Chicago IL 	Mostly Cloudy	18	68	ENE	8	30.39	9	18	8
Sat Jan 30 00:22:45 2010	 San Antonio TX 	Clear	50	50	NNW	12	30.03	32	50	46
Sat Jan 30 00:22:46 2010	 Indianapolis IN 	Overcast	18	68	ENE	10	30.3	9	18	7
Sat Jan 30 00:22:47 2010	 Boston MA 	Partly Cloudy	18	29	WNW	25	30.06	-9	18	1
Sat Jan 30 00:22:48 2010	 Jacksonville FL 	Overcast	61	55	E	9	30.06	45	61	60
Sat Jan 30 00:22:49 2010	 Columbus OH 	Overcast	16	53	NE	6	30.36	1	16	8
Sat Jan 30 00:22:50 2010	 Dallas TX 	Overcast	34	81	NW	16	30.03	28	34	24
Sat Jan 30 00:22:50 2010	 Houston TX 	Overcast	48	71	NW	14	29.94	39	48	43
Sat Jan 30 00:22:51 2010	 Seattle WA 	Mostly Cloudy	55	51	N/A		29.94	37	55	55
Sat Jan 30 00:22:52 2010	 Milwaukee WI 	Partly Cloudy	16	57	NE	3	30.42	3	16	11
Sat Jan 30 00:22:53 2010	 Detroit MI 	Clear	18	45	NNE	5	30.42	N/A	18	11
Sat Jan 30 00:22:54 2010	 Philadelphia PA 	Mostly Cloudy	23	39	WNW	12	30.33	1	23	13
Sat Jan 30 01:06:31 2010	 San Jose CA 	Mostly Cloudy	61	55	S	17	29.97	45	61	58
Sat Jan 30 01:06:32 2010	 Charlotte NC 	Light Snow	34	87	NE	7	30.24	30	34	28
Sat Jan 30 01:06:33 2010	 San Diego CA 	Mostly Cloudy	63	68	WNW	6	30.03	52	63	63
Sat Jan 30 01:06:34 2010	 Denver CO 	Partly Cloudy	43	24	NNW	3	30	9	43	41
Sat Jan 30 01:06:35 2010	 Memphis TN 	Freezing Rain	30	93	NE	13	30	28	30	21
Sat Jan 30 01:06:35 2010	 Los Angeles CA 	Clear	66	46	W	5	30	45	66	66
Sat Jan 30 01:06:37 2010	 El Paso TX 	Partly Cloudy	46	53	N	5	30.09	30	46	45
Sat Jan 30 01:06:38 2010	 New York City NY 	Clear	21	38	NW	9	30.27	N/A	21	12
Sat Jan 30 01:06:39 2010	 Baltimore MD 	Fair	25	30	N/A		30.36	-2	25	25
Sat Jan 30 01:06:40 2010	 Las Vegas NV 	Clear	55	41	SE	7	30.03	32	55	54
Sat Jan 30 01:06:41 2010	 Washington DC 	Overcast	27	33	NNW	10	30.36	1	27	18
Sat Jan 30 01:06:41 2010	 Austin TX 	Partly Cloudy	39	61	NW	14	30.06	27	39	32
Sat Jan 30 01:06:43 2010	 San Francisco CA 	Overcast	55	77	SW	10	29.97	48	55	53
Sat Jan 30 01:06:43 2010	 Oklahoma City OK 	Light Snow	23	100	NNW	17	30.06	23	23	10
Sat Jan 30 01:06:44 2010	 Nashville TN 	Light Snow	27	86	NE	12	30.09	23	27	17
Sat Jan 30 01:06:45 2010	 Fort Worth TX 	Overcast	34	75	N	17	30.12	27	34	24
Sat Jan 30 01:06:46 2010	 Phoenix AZ 	Partly Cloudy	66	43	ESE	3	30	43	66	66
Sat Jan 30 01:06:47 2010	 Portland OR 	Overcast	48	71	SE	13	29.97	39	48	43
Sat Jan 30 01:06:48 2010	 Chicago IL 	Mostly Cloudy	18	68	ENE	8	30.39	9	18	8
Sat Jan 30 01:06:49 2010	 San Antonio TX 	Clear	50	50	NNW	12	30.03	32	50	46
Sat Jan 30 01:06:50 2010	 Indianapolis IN 	Overcast	18	68	ENE	10	30.3	9	18	7
Sat Jan 30 01:06:51 2010	 Boston MA 	Partly Cloudy	18	29	WNW	25	30.06	-9	18	1
Sat Jan 30 01:06:52 2010	 Jacksonville FL 	Overcast	61	55	E	9	30.06	45	61	60
Sat Jan 30 01:06:53 2010	 Columbus OH 	Overcast	16	53	NE	6	30.36	1	16	8
Sat Jan 30 01:06:54 2010	 Dallas TX 	Overcast	34	81	NW	16	30.03	28	34	24
Sat Jan 30 01:06:55 2010	 Houston TX 	Overcast	48	71	NW	14	29.94	39	48	43
Sat Jan 30 01:06:57 2010	 Seattle WA 	Mostly Cloudy	55	51	N/A		29.94	37	55	55
Sat Jan 30 01:06:58 2010	 Milwaukee WI 	Partly Cloudy	16	57	NE	3	30.42	3	16	11
Sat Jan 30 01:06:59 2010	 Detroit MI 	Clear	18	45	NNE	5	30.42	N/A	18	11
Sat Jan 30 01:07:00 2010	 Philadelphia PA 	Mostly Cloudy	23	39	WNW	12	30.33	1	23	13
Sat Jan 30 01:50:07 2010	 San Jose CA 	Mostly Cloudy	59	55	S	13	29.94	43	59	57
Sat Jan 30 01:50:08 2010	 Charlotte NC 	Light Snow	34	87	ENE	8	30.24	30	34	28
Sat Jan 30 01:50:09 2010	 San Diego CA 	Overcast	61	72	WNW	6	30.03	52	61	61
Sat Jan 30 01:50:10 2010	 Denver CO 	Partly Cloudy	39	30	NNW	2	30	10	39	39
Sat Jan 30 01:50:11 2010	 Memphis TN 	Freezing Rain	30	86	NE	17	29.97	27	30	19
Sat Jan 30 01:50:12 2010	 Los Angeles CA 	Clear	66	49	Variable	3	30	46	66	66
Sat Jan 30 01:50:16 2010	 El Paso TX 	Partly Cloudy	46	53	N	3	30.09	30	46	46
Sat Jan 30 01:50:17 2010	 New York City NY 	Clear	21	42	W	10	30.27	1	21	11
Sat Jan 30 01:50:20 2010	 Baltimore MD 	Fair	25	33	N/A		30.36	N/A	25	25
Sat Jan 30 01:50:21 2010	 Las Vegas NV 	Clear	55	41	ESE	5	30.03	32	55	55
Sat Jan 30 01:50:22 2010	 Washington DC 	Overcast	27	33	NW	12	30.39	1	27	17
Sat Jan 30 01:50:23 2010	 Austin TX 	Mostly Cloudy	37	60	NNW	8	30.09	25	37	32
Sat Jan 30 01:50:24 2010	 San Francisco CA 	Mostly Cloudy	57	67	SSE	9	29.94	46	57	55
Sat Jan 30 01:50:25 2010	 Oklahoma City OK 	Fog And Mist	23	100	N	14	30.06	23	23	11
Sat Jan 30 01:50:25 2010	 Nashville TN 	Light Snow	27	86	NE	15	30.09	23	27	16
Sat Jan 30 01:50:26 2010	 Fort Worth TX 	Overcast	32	75	NW	18	30.12	25	32	21
Sat Jan 30 01:50:27 2010	 Phoenix AZ 	Partly Cloudy	64	46	SW	3	30	43	64	64
Sat Jan 30 01:50:28 2010	 Portland OR 	Overcast	48	66	SE	9	29.97	37	48	44
Sat Jan 30 01:50:29 2010	 Chicago IL 	Light Snow	18	68	N	5	30.39	9	18	11
Sat Jan 30 01:50:30 2010	 San Antonio TX 	Clear	46	50	NNW	12	30.06	28	46	42
Sat Jan 30 01:50:31 2010	 Indianapolis IN 	Overcast	18	62	ENE	13	30.3	7	18	5
Sat Jan 30 01:50:32 2010	 Boston MA 	Partly Cloudy	16	29	WNW	25	30.06	-11	16	-2
Sat Jan 30 01:50:34 2010	 Jacksonville FL 	Overcast	59	68	ENE	5	30.06	48	59	59
Sat Jan 30 01:50:35 2010	 Columbus OH 	Overcast	16	53	NE	7	30.36	1	16	7
Sat Jan 30 01:50:35 2010	 Dallas TX 	Overcast	34	75	NW	20	30.06	27	34	23
Sat Jan 30 01:50:36 2010	 Houston TX 	Overcast	46	76	NW	21	29.97	39	46	39
Sat Jan 30 01:50:37 2010	 Seattle WA 	Overcast	54	54	N/A		29.97	37	54	54
Sat Jan 30 01:50:39 2010	 Milwaukee WI 	Partly Cloudy	16	62	N/A		30.42	5	16	16
Sat Jan 30 01:50:40 2010	 Detroit MI 	Clear	18	45	NE	5	30.42	N/A	18	11
Sat Jan 30 01:50:41 2010	 Philadelphia PA 	Mostly Cloudy	23	39	NW	10	30.33	1	23	13
Sat Jan 30 02:34:45 2010	 San Jose CA 	Mostly Cloudy	57	59	S	7	29.94	43	57	56
Sat Jan 30 02:34:46 2010	 Charlotte NC 	Light Snow	32	93	NE	7	30.24	30	32	26
Sat Jan 30 02:34:47 2010	 San Diego CA 	Overcast	61	72	WNW	3	30.03	52	61	61
Sat Jan 30 02:34:48 2010	 Denver CO 	Partly Cloudy	37	30	N/A		30	9	37	37
Sat Jan 30 02:34:49 2010	 Memphis TN 	Freezing Rain	30	86	NE	16	29.94	27	30	20
Sat Jan 30 02:34:49 2010	 Los Angeles CA 	Clear	63	59	N/A		30	48	63	63
Sat Jan 30 02:34:52 2010	 El Paso TX 	Partly Cloudy	45	61	SSW	7	30.09	32	45	41
Sat Jan 30 02:34:53 2010	 New York City NY 	Clear	19	42	W	10	30.27	N/A	19	9
Sat Jan 30 02:34:54 2010	 Baltimore MD 	Fair	25	33	N/A		30.36	N/A	25	25
Sat Jan 30 02:34:55 2010	 Las Vegas NV 	Clear	54	47	ESE	5	30.03	34	54	53
Sat Jan 30 02:34:56 2010	 Washington DC 	Mostly Cloudy	25	36	NNW	14	30.39	1	25	14
Sat Jan 30 02:34:56 2010	 Austin TX 	Partly Cloudy	36	65	NNW	8	30.09	25	36	30
Sat Jan 30 02:34:58 2010	 San Francisco CA 	Rain	54	82	S	6	29.97	48	54	52
Sat Jan 30 02:34:59 2010	 Oklahoma City OK 	Light Snow	23	100	N	9	30.06	23	23	14
Sat Jan 30 02:35:00 2010	 Nashville TN 	Freezing Rain	27	93	NE	13	30.06	25	27	17
Sat Jan 30 02:35:01 2010	 Fort Worth TX 	Overcast	30	75	NNW	14	30.15	23	30	21
Sat Jan 30 02:35:02 2010	 Phoenix AZ 	Partly Cloudy	63	52	SW	3	30	45	63	63
Sat Jan 30 02:35:02 2010	 Portland OR 	Overcast	48	66	SE	10	29.97	37	48	44
Sat Jan 30 02:35:03 2010	 Chicago IL 	Light Snow	19	68	NNE	7	30.36	10	19	11
Sat Jan 30 02:35:04 2010	 San Antonio TX 	Clear	45	53	NNW	9	30.06	28	45	40
Sat Jan 30 02:35:05 2010	 Indianapolis IN 	Overcast	18	62	ENE	10	30.27	7	18	7
Sat Jan 30 02:35:06 2010	 Boston MA 	Clear	16	29	WNW	22	30.06	-11	16	-1
Sat Jan 30 02:35:07 2010	 Jacksonville FL 	Overcast	57	82	NE	8	30.06	52	57	56
Sat Jan 30 02:35:08 2010	 Columbus OH 	Overcast	16	53	NE	5	30.36	1	16	10
Sat Jan 30 02:35:09 2010	 Dallas TX 	Overcast	32	75	NW	23	30.09	25	32	20
Sat Jan 30 02:35:10 2010	 Houston TX 	Overcast	45	71	NW	17	29.97	36	45	38
Sat Jan 30 02:35:11 2010	 Seattle WA 	Overcast	54	54	N/A		29.97	37	54	54
Sat Jan 30 02:35:12 2010	 Milwaukee WI 	Mostly Cloudy	16	67	NNW	5	30.39	7	16	10
Sat Jan 30 02:35:13 2010	 Detroit MI 	Clear	16	53	NNE	5	30.42	1	16	10
Sat Jan 30 02:35:14 2010	 Philadelphia PA 	Mostly Cloudy	23	39	WNW	10	30.33	1	23	13
Sat Jan 30 03:18:30 2010	 San Jose CA 	Rain	54	82	SW	3	29.97	48	54	54
Sat Jan 30 03:18:31 2010	 Charlotte NC 	Light Snow	32	93	NE	7	30.21	30	32	26
Sat Jan 30 03:18:32 2010	 San Diego CA 	Overcast	59	77	W	3	30.03	52	59	59
Sat Jan 30 03:18:33 2010	 Denver CO 	Partly Cloudy	36	30	N/A		30	7	36	36
Sat Jan 30 03:18:34 2010	 Memphis TN 	Freezing Rain	30	86	NE	16	29.94	27	30	20
Sat Jan 30 03:18:34 2010	 Los Angeles CA 	Clear	61	68	N/A		30	50	61	61
Sat Jan 30 03:18:35 2010	 El Paso TX 	Clear	45	61	W	5	30.09	32	45	43
Sat Jan 30 03:18:38 2010	 New York City NY 	Clear	19	45	Variable	5	30.3	1	19	14
Sat Jan 30 03:18:39 2010	 Baltimore MD 	Fair	25	33	N/A		30.36	N/A	25	25
Sat Jan 30 03:18:40 2010	 Las Vegas NV 	Clear	52	54	E	5	30.03	36	52	51
Sat Jan 30 03:18:41 2010	 Washington DC 	Overcast	25	36	N	15	30.39	1	25	13
Sat Jan 30 03:18:42 2010	 Austin TX 	Overcast	36	65	NNW	7	30.12	25	36	31
Sat Jan 30 03:18:43 2010	 San Francisco CA 	Rain	52	88	SE	16	29.97	48	52	47
Sat Jan 30 03:18:44 2010	 Oklahoma City OK 	Light Snow	23	100	NNW	7	30.09	23	23	16
Sat Jan 30 03:18:45 2010	 Nashville TN 	Light Snow	27	93	NE	10	30.06	25	27	18
Sat Jan 30 03:18:46 2010	 Fort Worth TX 	Overcast	30	75	NW	14	30.15	23	30	21
Sat Jan 30 03:18:47 2010	 Phoenix AZ 	Partly Cloudy	61	59	N/A		30	46	61	61
Sat Jan 30 03:18:48 2010	 Portland OR 	Light Rain	46	76	ESE	9	29.97	39	46	42
Sat Jan 30 03:18:49 2010	 Chicago IL 	Light Snow	19	68	N	6	30.36	10	19	12
Sat Jan 30 03:18:50 2010	 San Antonio TX 	Clear	43	57	NW	10	30.09	28	43	37
Sat Jan 30 03:18:50 2010	 Indianapolis IN 	Overcast	18	68	ENE	14	30.27	9	18	5
Sat Jan 30 03:18:52 2010	 Boston MA 	Clear	14	31	WNW	23	30.09	-11	14	-3
Sat Jan 30 03:18:53 2010	 Jacksonville FL 	Overcast	55	88	NE	7	30.03	52	55	54
Sat Jan 30 03:18:54 2010	 Columbus OH 	Overcast	16	57	NE	6	30.33	3	16	8
Sat Jan 30 03:18:54 2010	 Dallas TX 	Overcast	32	75	NW	17	30.09	25	32	22
Sat Jan 30 03:18:55 2010	 Houston TX 	Overcast	43	71	NW	14	30	34	43	36
Sat Jan 30 03:18:56 2010	 Seattle WA 	Overcast	52	62	N/A		29.97	39	52	52
Sat Jan 30 03:18:57 2010	 Milwaukee WI 	Mostly Cloudy	16	67	NNW	3	30.36	7	16	11
Sat Jan 30 03:18:58 2010	 Detroit MI 	Clear	14	57	NE	5	30.39	1	14	7
Sat Jan 30 03:19:00 2010	 Philadelphia PA 	Mostly Cloudy	21	42	NW	7	30.33	1	21	13
Sat Jan 30 04:02:21 2010	 San Jose CA 	Rain	52	88	N/A		30	48	52	52
Sat Jan 30 04:02:22 2010	 Charlotte NC 	Light Snow	32	93	ENE	8	30.18	30	32	26
Sat Jan 30 04:02:23 2010	 San Diego CA 	Overcast	59	77	W	3	30.03	52	59	59
Sat Jan 30 04:02:24 2010	 Denver CO 	Partly Cloudy	36	30	N/A		30	7	36	36
Sat Jan 30 04:02:25 2010	 Memphis TN 	Freezing Drizzle	30	86	NE	14	29.94	27	30	21
Sat Jan 30 04:02:26 2010	 Los Angeles CA 	Clear	61	68	N/A		30	50	61	61
Sat Jan 30 04:02:27 2010	 El Paso TX 	Clear	45	61	W	5	30.09	32	45	43
Sat Jan 30 04:02:28 2010	 New York City NY 	Clear	19	45	Variable	5	30.3	1	19	14
Sat Jan 30 04:02:29 2010	 Baltimore MD 	Fair	25	33	N/A		30.36	N/A	25	25
Sat Jan 30 04:02:30 2010	 Las Vegas NV 	Clear	52	54	E	5	30.03	36	52	51
Sat Jan 30 04:02:31 2010	 Washington DC 	Overcast	25	36	N	15	30.39	1	25	13
Sat Jan 30 04:02:32 2010	 Austin TX 	Overcast	36	65	NNW	7	30.12	25	36	31
Sat Jan 30 04:02:33 2010	 San Francisco CA 	Rain	52	88	SE	16	29.97	48	52	47
Sat Jan 30 04:02:34 2010	 Oklahoma City OK 	Overcast	23	100	N	9	30.09	23	23	14
Sat Jan 30 04:02:35 2010	 Nashville TN 	Light Snow	27	86	NE	14	30.03	23	27	16
Sat Jan 30 04:02:36 2010	 Fort Worth TX 	Overcast	30	75	NW	14	30.15	23	30	21
Sat Jan 30 04:02:37 2010	 Phoenix AZ 	Partly Cloudy	61	59	N/A		30	46	61	61
Sat Jan 30 04:02:39 2010	 Portland OR 	Light Rain	46	76	ESE	9	29.97	39	46	42
Sat Jan 30 04:02:39 2010	 Chicago IL 	Light Snow	19	73	NNW	5	30.36	12	19	14
Sat Jan 30 04:02:40 2010	 San Antonio TX 	Clear	43	57	NW	10	30.09	28	43	37
Sat Jan 30 04:02:42 2010	 Indianapolis IN 	Overcast	18	68	ENE	14	30.27	9	18	5
Sat Jan 30 04:02:42 2010	 Boston MA 	Clear	14	31	WNW	23	30.09	-11	14	-3
Sat Jan 30 04:02:44 2010	 Jacksonville FL 	Overcast	55	88	NE	7	30.03	52	55	54
Sat Jan 30 04:02:45 2010	 Columbus OH 	Overcast	16	57	NE	6	30.33	3	16	8
Sat Jan 30 04:02:45 2010	 Dallas TX 	Overcast	32	75	NW	17	30.09	25	32	22
Sat Jan 30 04:02:46 2010	 Houston TX 	Overcast	43	71	NW	14	30	34	43	36
Sat Jan 30 04:02:47 2010	 Seattle WA 	Overcast	52	62	N/A		29.97	39	52	52
Sat Jan 30 04:02:49 2010	 Milwaukee WI 	Mostly Cloudy	16	67	NNW	3	30.36	7	16	11
Sat Jan 30 04:02:51 2010	 Detroit MI 	Clear	14	57	NE	5	30.39	1	14	7
Sat Jan 30 04:02:52 2010	 Philadelphia PA 	Mostly Cloudy	21	42	NW	7	30.33	1	21	13
Sat Jan 30 04:46:07 2010	 San Jose CA 	Overcast	52	100	SE	6	29.97	52	52	50
Sat Jan 30 04:46:08 2010	 Charlotte NC 	Light Snow	32	87	ENE	9	30.15	28	32	25
Sat Jan 30 04:46:09 2010	 San Diego CA 	Hazy	59	77	WNW	3	30.03	52	59	59
Sat Jan 30 04:46:10 2010	 Denver CO 	Partly Cloudy	34	38	E	3	30	10	34	31
Sat Jan 30 04:46:10 2010	 Memphis TN 	Freezing Drizzle	30	86	NE	16	29.94	27	30	20
Sat Jan 30 04:46:11 2010	 Los Angeles CA 	Clear	57	82	N/A		30.03	52	57	57
Sat Jan 30 04:46:12 2010	 El Paso TX 	Clear	41	66	NE	8	30.12	30	41	36
Sat Jan 30 04:46:14 2010	 New York City NY 	Clear	18	45	NW	9	30.3	N/A	18	7
Sat Jan 30 04:46:14 2010	 Baltimore MD 	Fair	23	36	N/A		30.36	N/A	23	23
Sat Jan 30 04:46:16 2010	 Las Vegas NV 	Clear	48	66	N/A		30.03	37	48	48
Sat Jan 30 04:46:16 2010	 Washington DC 	Overcast	25	33	NNW	17	30.39	N/A	25	12
Sat Jan 30 04:46:17 2010	 Austin TX 	Partly Cloudy	36	65	NNW	10	30.12	25	36	29
Sat Jan 30 04:46:18 2010	 San Francisco CA 	Light Rain	52	88	SE	8	29.97	48	52	49
Sat Jan 30 04:46:19 2010	 Oklahoma City OK 	Overcast	21	86	NNW	7	30.12	18	21	13
Sat Jan 30 04:46:20 2010	 Nashville TN 	Light Snow	27	93	NE	10	30.03	25	27	18
Sat Jan 30 04:46:21 2010	 Fort Worth TX 	Overcast	30	75	NW	16	30.15	23	30	20
Sat Jan 30 04:46:22 2010	 Phoenix AZ 	Partly Cloudy	61	59	N/A		30	46	61	61
Sat Jan 30 04:46:23 2010	 Portland OR 	Overcast	46	76	ESE	8	29.97	39	46	43
Sat Jan 30 04:46:24 2010	 Chicago IL 	Light Snow	19	73	NNW	5	30.33	12	19	14
Sat Jan 30 04:46:25 2010	 San Antonio TX 	Clear	43	53	NNW	8	30.09	27	43	38
Sat Jan 30 04:46:26 2010	 Indianapolis IN 	Light Snow	18	68	ENE	15	30.24	9	18	4
Sat Jan 30 04:46:27 2010	 Boston MA 	Clear	12	34	NW	22	30.09	-11	12	-5
Sat Jan 30 04:46:28 2010	 Jacksonville FL 	Mostly Cloudy	55	88	NNE	5	30.03	52	55	55
Sat Jan 30 04:46:29 2010	 Columbus OH 	Overcast	16	57	NE	7	30.33	3	16	7
Sat Jan 30 04:46:30 2010	 Dallas TX 	Overcast	30	80	NW	15	30.09	25	30	20
Sat Jan 30 04:46:31 2010	 Houston TX 	Overcast	39	75	NW	18	30.03	32	39	31
Sat Jan 30 04:46:32 2010	 Seattle WA 	Overcast	54	58	N/A		29.97	39	54	54
Sat Jan 30 04:46:33 2010	 Milwaukee WI 	Overcast	16	62	NW	6	30.36	5	16	8
Sat Jan 30 04:46:34 2010	 Detroit MI 	Clear	14	62	NE	5	30.39	3	14	7
Sat Jan 30 04:46:35 2010	 Philadelphia PA 	Mostly Cloudy	21	38	NW	10	30.33	N/A	21	11
Sat Jan 30 05:29:52 2010	 San Jose CA 	Overcast	52	100	SE	7	29.97	52	52	50
Sat Jan 30 05:29:53 2010	 Charlotte NC 	Light Snow	32	87	NE	6	30.18	28	32	27
Sat Jan 30 05:29:53 2010	 San Diego CA 	Overcast	57	82	N/A		30.03	52	57	57
Sat Jan 30 05:29:55 2010	 Denver CO 	Partly Cloudy	25	63	S	7	30.03	14	25	18
Sat Jan 30 05:29:55 2010	 Memphis TN 	Freezing Drizzle	30	86	NE	12	29.94	27	30	22
Sat Jan 30 05:29:57 2010	 Los Angeles CA 	Hazy	57	82	N/A		30.03	52	57	57
Sat Jan 30 05:29:58 2010	 El Paso TX 	Clear	37	75	NE	3	30.12	30	37	35
Sat Jan 30 05:29:59 2010	 New York City NY 	Clear	18	45	WNW	10	30.3	N/A	18	7
Sat Jan 30 05:30:00 2010	 Baltimore MD 	Fair	23	39	N/A		30.36	1	23	23
Sat Jan 30 05:30:01 2010	 Las Vegas NV 	Clear	50	58	N/A		30.03	36	50	50
Sat Jan 30 05:30:02 2010	 Washington DC 	Overcast	23	39	NNW	12	30.39	1	23	13
Sat Jan 30 05:30:03 2010	 Austin TX 	Clear	34	70	Variable	5	30.12	25	34	30
Sat Jan 30 05:30:04 2010	 San Francisco CA 	Overcast	52	88	SSE	9	29.97	48	52	49
Sat Jan 30 05:30:05 2010	 Oklahoma City OK 	Overcast	23	86	N	8	30.12	19	23	15
Sat Jan 30 05:30:06 2010	 Nashville TN 	Light Snow	27	93	NE	10	29.97	25	27	18
Sat Jan 30 05:30:07 2010	 Fort Worth TX 	Overcast	30	69	NW	15	30.18	21	30	20
Sat Jan 30 05:30:08 2010	 Phoenix AZ 	Partly Cloudy	59	63	N/A		30	46	59	59
Sat Jan 30 05:30:09 2010	 Portland OR 	Overcast	46	76	E	6	29.97	39	46	44
Sat Jan 30 05:30:10 2010	 Chicago IL 	Light Snow	19	73	SE	10	30.33	12	19	9
Sat Jan 30 05:30:11 2010	 San Antonio TX 	Clear	39	61	NNW	10	30.12	27	39	33
Sat Jan 30 05:30:12 2010	 Indianapolis IN 	Light Snow	16	67	ENE	12	30.21	7	16	4
Sat Jan 30 05:30:12 2010	 Boston MA 	Clear	12	34	W	18	30.12	-11	12	-4
Sat Jan 30 05:30:13 2010	 Jacksonville FL 	Overcast	57	82	N	5	30.03	52	57	57
Sat Jan 30 05:30:15 2010	 Columbus OH 	Overcast	16	57	E	8	30.33	3	16	6
Sat Jan 30 05:30:15 2010	 Dallas TX 	Overcast	30	80	NW	16	30.12	25	30	20
Sat Jan 30 05:30:17 2010	 Houston TX 	Overcast	39	70	NW	17	30.06	30	39	31
Sat Jan 30 05:30:18 2010	 Seattle WA 	Overcast	52	72	N	3	29.97	43	52	52
Sat Jan 30 05:30:19 2010	 Milwaukee WI 	Overcast	16	57	WNW	7	30.36	3	16	7
Sat Jan 30 05:30:20 2010	 Detroit MI 	Clear	14	62	ENE	3	30.39	3	14	9
Sat Jan 30 05:30:21 2010	 Philadelphia PA 	Mostly Cloudy	21	42	NW	12	30.33	1	21	10
Sat Jan 30 06:13:37 2010	 San Jose CA 	Overcast	52	100	SSE	7	29.97	52	52	50
Sat Jan 30 06:13:38 2010	 Charlotte NC 	Light Snow	30	93	ENE	8	30.12	28	30	23
Sat Jan 30 06:13:39 2010	 San Diego CA 	Partly Cloudy	57	77	N/A		30.03	50	57	57
Sat Jan 30 06:13:40 2010	 Denver CO 	Partly Cloudy	27	54	S	6	30.03	12	27	21
Sat Jan 30 06:13:41 2010	 Memphis TN 	Freezing Drizzle	28	93	N	12	29.94	27	28	19
Sat Jan 30 06:13:42 2010	 Los Angeles CA 	Fog And Mist	55	88	N/A		30.03	52	55	55
Sat Jan 30 06:13:43 2010	 El Paso TX 	Clear	37	75	N	6	30.12	30	37	33
Sat Jan 30 06:13:44 2010	 New York City NY 	Clear	16	45	Variable	5	30.3	-2	16	10
Sat Jan 30 06:13:45 2010	 Baltimore MD 	Fair	23	39	N/A		30.36	1	23	23
Sat Jan 30 06:13:46 2010	 Las Vegas NV 	Clear	48	62	N/A		30.03	36	48	48
Sat Jan 30 06:13:47 2010	 Washington DC 	Overcast	23	39	NNW	12	30.39	1	23	13
Sat Jan 30 06:13:48 2010	 Austin TX 	Mostly Cloudy	34	70	NNW	8	30.12	25	34	28
Sat Jan 30 06:13:49 2010	 San Francisco CA 	Light Rain	52	94	S	8	30	50	52	49
Sat Jan 30 06:13:51 2010	 Oklahoma City OK 	Overcast	21	93	N	9	30.12	19	21	12
Sat Jan 30 06:13:52 2010	 Nashville TN 	Fog And Mist	27	93	NE	12	29.97	25	27	17
Sat Jan 30 06:13:53 2010	 Fort Worth TX 	Overcast	30	69	NW	13	30.18	21	30	21
Sat Jan 30 06:13:54 2010	 Phoenix AZ 	Partly Cloudy	57	72	N/A		30	48	57	57
Sat Jan 30 06:13:55 2010	 Portland OR 	Light Rain	45	81	N/A		29.97	39	45	45
Sat Jan 30 06:13:56 2010	 Chicago IL 	Light Snow	19	68	SE	8	30.33	10	19	10
Sat Jan 30 06:13:57 2010	 San Antonio TX 	Clear	37	65	NNW	10	30.15	27	37	31
Sat Jan 30 06:13:58 2010	 Indianapolis IN 	Light Snow	16	67	ENE	13	30.21	7	16	3
Sat Jan 30 06:13:59 2010	 Boston MA 	Clear	10	36	WNW	17	30.12	-11	10	-6
Sat Jan 30 06:14:00 2010	 Jacksonville FL 	Overcast	57	88	NNE	6	30	54	57	57
Sat Jan 30 06:14:01 2010	 Columbus OH 	Overcast	16	57	ENE	8	30.3	3	16	6
Sat Jan 30 06:14:02 2010	 Dallas TX 	Overcast	30	80	NNW	14	30.12	25	30	21
Sat Jan 30 06:14:03 2010	 Houston TX 	Overcast	39	70	NW	18	30.06	30	39	31
Sat Jan 30 06:14:04 2010	 Seattle WA 	Overcast	50	76	N/A		29.97	43	50	50
Sat Jan 30 06:14:05 2010	 Milwaukee WI 	Overcast	16	57	WNW	8	30.33	3	16	6
Sat Jan 30 06:14:06 2010	 Detroit MI 	Clear	12	67	ENE	5	30.39	3	12	5
Sat Jan 30 06:14:07 2010	 Philadelphia PA 	Overcast	21	42	NW	10	30.33	1	21	11
Sat Jan 30 06:59:11 2010	 San Jose CA 	Overcast	52	100	SSE	7	29.97	52	52	50
Sat Jan 30 06:59:12 2010	 Charlotte NC 	Light Snow	30	93	ENE	8	30.12	28	30	23
Sat Jan 30 06:59:13 2010	 San Diego CA 	Partly Cloudy	57	77	N/A		30.03	50	57	57
Sat Jan 30 06:59:14 2010	 Denver CO 	Partly Cloudy	27	54	S	6	30.03	12	27	21
Sat Jan 30 06:59:16 2010	 Memphis TN 	Freezing Drizzle	28	93	N	12	29.94	27	28	19
Sat Jan 30 06:59:17 2010	 Los Angeles CA 	Fog And Mist	55	88	N/A		30.03	52	55	55
Sat Jan 30 06:59:18 2010	 El Paso TX 	Clear	37	75	N	6	30.12	30	37	33
Sat Jan 30 06:59:20 2010	 New York City NY 	Clear	16	45	Variable	5	30.3	-2	16	10
Sat Jan 30 06:59:20 2010	 Baltimore MD 	Fair	23	39	N/A		30.36	1	23	23
Sat Jan 30 06:59:22 2010	 Las Vegas NV 	Clear	48	62	N/A		30.03	36	48	48
Sat Jan 30 06:59:23 2010	 Washington DC 	Overcast	23	39	NNW	12	30.39	1	23	13
Sat Jan 30 06:59:25 2010	 Austin TX 	Partly Cloudy	34	70	NNW	9	30.12	25	34	27
Sat Jan 30 06:59:27 2010	 San Francisco CA 	Mostly Cloudy	52	88	S	6	30	48	52	50
Sat Jan 30 06:59:28 2010	 Oklahoma City OK 	Overcast	21	93	N	9	30.12	19	21	12
Sat Jan 30 06:59:29 2010	 Nashville TN 	Fog And Mist	27	93	NE	12	29.97	25	27	17
Sat Jan 30 06:59:30 2010	 Fort Worth TX 	Overcast	30	69	N/A		30.18	21	30	30
Sat Jan 30 06:59:31 2010	 Phoenix AZ 	Partly Cloudy	57	72	N/A		30	48	57	57
Sat Jan 30 06:59:32 2010	 Portland OR 	Light Rain	45	81	N/A		29.97	39	45	45
Sat Jan 30 06:59:33 2010	 Chicago IL 	Light Snow	19	68	SE	8	30.33	10	19	10
Sat Jan 30 06:59:34 2010	 San Antonio TX 	Clear	37	65	NNW	10	30.15	27	37	31
Sat Jan 30 06:59:35 2010	 Indianapolis IN 	Light Snow	16	67	ENE	13	30.21	7	16	3
Sat Jan 30 06:59:36 2010	 Boston MA 	Clear	10	36	WNW	17	30.12	-11	10	-6
Sat Jan 30 06:59:37 2010	 Jacksonville FL 	Overcast	57	88	NNE	6	30	54	57	57
Sat Jan 30 06:59:38 2010	 Columbus OH 	Overcast	16	57	ENE	8	30.3	3	16	6
Sat Jan 30 06:59:39 2010	 Dallas TX 	Overcast	30	80	NNW	14	30.12	25	30	21
Sat Jan 30 06:59:40 2010	 Houston TX 	Overcast	39	70	NW	18	30.06	30	39	31
Sat Jan 30 06:59:41 2010	 Seattle WA 	Overcast	50	76	N/A		29.97	43	50	50
Sat Jan 30 06:59:42 2010	 Milwaukee WI 	Overcast	16	57	NW	7	30.33	3	16	7
Sat Jan 30 06:59:43 2010	 Detroit MI 	Clear	12	67	ENE	5	30.39	3	12	5
Sat Jan 30 06:59:44 2010	 Philadelphia PA 	Overcast	21	42	NW	10	30.33	1	21	11
Sat Jan 30 07:42:51 2010	 San Jose CA 	Mostly Cloudy	52	100	SE	7	30	52	52	50
Sat Jan 30 07:42:52 2010	 Charlotte NC 	Light Snow	30	93	ENE	9	30.09	28	30	23
Sat Jan 30 07:42:53 2010	 San Diego CA 	Partly Cloudy	55	77	N/A		30.06	48	55	55
Sat Jan 30 07:42:54 2010	 Denver CO 	Partly Cloudy	25	63	S	8	30.03	14	25	17
Sat Jan 30 07:42:55 2010	 Memphis TN 	Freezing Drizzle	28	86	N	10	29.94	25	28	20
Sat Jan 30 07:42:56 2010	 Los Angeles CA 	Fog And Mist	55	88	N/A		30.03	52	55	55
Sat Jan 30 07:42:57 2010	 El Paso TX 	Clear	37	75	N	6	30.12	30	37	33
Sat Jan 30 07:42:58 2010	 New York City NY 	Clear	16	45	W	8	30.3	-2	16	6
Sat Jan 30 07:42:59 2010	 Baltimore MD 	Fair	21	38	N/A		30.36	N/A	21	21
Sat Jan 30 07:42:59 2010	 Las Vegas NV 	Clear	46	66	N/A		30.03	36	46	46
Sat Jan 30 07:43:00 2010	 Washington DC 	Overcast	21	42	NW	14	30.36	1	21	9
Sat Jan 30 07:43:01 2010	 Austin TX 	Clear	32	75	NNW	7	30.12	25	32	26
Sat Jan 30 07:43:02 2010	 San Francisco CA 	Mostly Cloudy	52	88	SSE	7	30	48	52	50
Sat Jan 30 07:43:03 2010	 Oklahoma City OK 	Overcast	21	93	N	9	30.12	19	21	12
Sat Jan 30 07:43:04 2010	 Nashville TN 	Fog And Mist	27	93	NE	13	29.97	25	27	17
Sat Jan 30 07:43:05 2010	 Fort Worth TX 	Overcast	30	69	N/A		30.18	21	30	30
Sat Jan 30 07:43:06 2010	 Phoenix AZ 	Partly Cloudy	55	72	ENE	3	30	46	55	55
Sat Jan 30 07:43:07 2010	 Portland OR 	Light Rain	45	81	N/A		29.97	39	45	45
Sat Jan 30 07:43:08 2010	 Chicago IL 	Light Snow	19	68	SE	7	30.33	10	19	11
Sat Jan 30 07:43:09 2010	 San Antonio TX 	Clear	37	60	N	9	30.15	25	37	31
Sat Jan 30 07:43:10 2010	 Indianapolis IN 	Light Snow	16	67	NE	14	30.21	7	16	2
Sat Jan 30 07:43:11 2010	 Boston MA 	Partly Cloudy	9	39	WNW	20	30.12	-11	9	-9
Sat Jan 30 07:43:12 2010	 Jacksonville FL 	Overcast	57	88	N	9	30	54	57	55
Sat Jan 30 07:43:13 2010	 Columbus OH 	Overcast	16	57	ENE	8	30.27	3	16	6
Sat Jan 30 07:43:14 2010	 Dallas TX 	Overcast	30	75	NNW	18	30.12	23	30	19
Sat Jan 30 07:43:15 2010	 Houston TX 	Overcast	39	70	NW	16	30.06	30	39	31
Sat Jan 30 07:43:16 2010	 Seattle WA 	Overcast	48	87	N/A		29.97	45	48	48
Sat Jan 30 07:43:17 2010	 Milwaukee WI 	Overcast	16	57	NW	10	30.33	3	16	4
Sat Jan 30 07:43:18 2010	 Detroit MI 	Clear	12	67	N/A		30.36	3	12	12
Sat Jan 30 07:43:20 2010	 Philadelphia PA 	Overcast	21	38	NNW	13	30.33	N/A	21	10
Sat Jan 30 08:25:51 2010	 San Jose CA 	Mostly Cloudy	52	88	N/A		30	48	52	52
Sat Jan 30 08:25:53 2010	 Charlotte NC 	Light Snow	30	86	ENE	13	30.06	27	30	21
Sat Jan 30 08:25:54 2010	 San Diego CA 	Hazy	55	77	N/A		30.06	48	55	55
Sat Jan 30 08:25:54 2010	 Denver CO 	Partly Cloudy	25	63	S	7	30.03	14	25	18
Sat Jan 30 08:25:55 2010	 Memphis TN 	Light Snow	28	86	N	14	29.94	25	28	18
Sat Jan 30 08:25:56 2010	 Los Angeles CA 	Fog And Mist	54	88	N/A		30.03	50	54	54
Sat Jan 30 08:25:57 2010	 El Paso TX 	Partly Cloudy	36	81	N/A		30.12	30	36	36
Sat Jan 30 08:25:59 2010	 New York City NY 	Clear	16	48	Variable	7	30.33	N/A	16	7
Sat Jan 30 08:25:59 2010	 Baltimore MD 	Fair	21	42	N/A		30.36	1	21	21
Sat Jan 30 08:26:00 2010	 Las Vegas NV 	Clear	46	71	SSW	5	30.03	37	46	45
Sat Jan 30 08:26:03 2010	 Washington DC 	Overcast	21	42	NNW	8	30.36	1	21	13
Sat Jan 30 08:26:04 2010	 Austin TX 	Clear	30	75	Variable	5	30.12	23	30	26
Sat Jan 30 08:26:06 2010	 San Francisco CA 	Mostly Cloudy	52	88	N/A		30	48	52	52
Sat Jan 30 08:26:07 2010	 Oklahoma City OK 	Overcast	21	93	N	8	30.12	19	21	13
Sat Jan 30 08:26:08 2010	 Nashville TN 	Light Snow	27	93	NE	9	29.94	25	27	18
Sat Jan 30 08:26:09 2010	 Fort Worth TX 	Overcast	30	69	N/A		30.18	21	30	30
Sat Jan 30 08:26:10 2010	 Phoenix AZ 	Mostly Cloudy	54	72	E	5	30	45	54	53
Sat Jan 30 08:26:10 2010	 Portland OR 	Light Rain	45	81	N/A		29.97	39	45	45
Sat Jan 30 08:26:11 2010	 Chicago IL 	Light Snow	18	68	ESE	10	30.3	9	18	7
Sat Jan 30 08:26:12 2010	 San Antonio TX 	Clear	37	60	NNW	9	30.12	25	37	31
Sat Jan 30 08:26:13 2010	 Indianapolis IN 	Overcast	16	67	NE	14	30.18	7	16	2
Sat Jan 30 08:26:14 2010	 Boston MA 	Partly Cloudy	9	39	WNW	15	30.15	-11	9	-7
Sat Jan 30 08:26:15 2010	 Jacksonville FL 	Overcast	57	88	ENE	3	29.97	54	57	57
Sat Jan 30 08:26:16 2010	 Columbus OH 	Overcast	16	57	ENE	13	30.27	3	16	3
Sat Jan 30 08:26:17 2010	 Dallas TX 	Overcast	28	80	NW	16	30.12	23	28	17
Sat Jan 30 08:26:18 2010	 Houston TX 	Overcast	37	70	NNW	16	30.06	28	37	29
Sat Jan 30 08:26:19 2010	 Seattle WA 	Light Rain	48	82	SE	5	29.97	43	48	47
Sat Jan 30 08:26:21 2010	 Milwaukee WI 	Light Snow	16	62	NNW	9	30.33	5	16	5
Sat Jan 30 08:26:22 2010	 Detroit MI 	Clear	12	67	N/A		30.36	3	12	12
Sat Jan 30 08:26:23 2010	 Philadelphia PA 	Overcast	19	42	NNW	12	30.33	N/A	19	8
Sat Jan 30 11:55:18 2010	 San Jose CA 	Clear	48	100	N/A		30	48	48	48
Sat Jan 30 11:55:19 2010	 Charlotte NC 	Fog And Mist	28	93	NE	6	30	27	28	23
Sat Jan 30 11:55:20 2010	 San Diego CA 	Fog And Mist	52	82	N/A		30.03	46	52	52
Sat Jan 30 11:55:21 2010	 Denver CO 	Partly Cloudy	23	58	S	6	30.03	10	23	17
Sat Jan 30 11:55:22 2010	 Memphis TN 	Fog And Mist	25	86	NNE	13	29.94	21	25	14
Sat Jan 30 11:55:23 2010	 Los Angeles CA 	Hazy	54	82	N/A		30	48	54	54
Sat Jan 30 11:55:24 2010	 El Paso TX 	Clear	30	93	NE	3	30.12	28	30	27
Sat Jan 30 11:55:25 2010	 New York City NY 	Clear	16	45	NW	12	30.3	-2	16	4
Sat Jan 30 11:55:26 2010	 Baltimore MD 	Fair	21	42	N/A		30.3	1	21	21
Sat Jan 30 11:55:27 2010	 Las Vegas NV 	Clear	46	66	N/A		30	36	46	46
Sat Jan 30 11:55:28 2010	 Washington DC 	Overcast	21	42	N	8	30.3	1	21	13
Sat Jan 30 11:55:29 2010	 Austin TX 	Mostly Cloudy	30	75	NW	5	30.15	23	30	26
Sat Jan 30 11:55:30 2010	 San Francisco CA 	Mostly Cloudy	50	94	SE	7	30	48	50	48
Sat Jan 30 11:55:31 2010	 Oklahoma City OK 	Overcast	19	86	N	12	30.12	16	19	8
Sat Jan 30 11:55:32 2010	 Nashville TN 	Light Snow	25	93	N	12	29.91	23	25	15
Sat Jan 30 11:55:33 2010	 Fort Worth TX 	Overcast	27	69	N/A		30.21	18	27	27
Sat Jan 30 11:55:34 2010	 Phoenix AZ 	Partly Cloudy	52	77	N/A		30	45	52	52
Sat Jan 30 11:55:35 2010	 Portland OR 	Light Rain	43	87	ESE	7	29.97	39	43	39
Sat Jan 30 11:55:36 2010	 Chicago IL 	Overcast	19	63	E	8	30.27	9	19	10
Sat Jan 30 11:55:37 2010	 San Antonio TX 	Clear	36	65	NW	3	30.15	25	36	33
Sat Jan 30 11:55:38 2010	 Indianapolis IN 	Overcast	16	67	ENE	12	30.12	7	16	4
Sat Jan 30 11:55:39 2010	 Boston MA 	Clear	7	43	W	18	30.15	-11	7	-11
Sat Jan 30 11:55:40 2010	 Jacksonville FL 	Overcast	57	94	N/A		29.88	55	57	57
Sat Jan 30 11:55:41 2010	 Columbus OH 	Overcast	16	57	ENE	13	30.18	3	16	3
Sat Jan 30 11:55:42 2010	 Dallas TX 	Overcast	27	80	NNW	16	30.15	21	27	15
Sat Jan 30 11:55:43 2010	 Houston TX 	Mostly Cloudy	36	70	NW	12	30.09	27	36	28
Sat Jan 30 11:55:44 2010	 Seattle WA 	Light Rain	46	87	SE	3	29.97	43	46	46
Sat Jan 30 11:55:45 2010	 Milwaukee WI 	Light Snow	18	73	NNW	7	30.27	10	18	9
Sat Jan 30 11:55:48 2010	 Detroit MI 	Clear	10	72	N	6	30.3	3	10	2
Sat Jan 30 11:55:49 2010	 Philadelphia PA 	Overcast	19	42	N	12	30.3	N/A	19	8
Sat Jan 30 12:39:17 2010	 San Jose CA 	Clear	46	93	SSE	5	30	45	46	45
Sat Jan 30 12:39:18 2010	 Charlotte NC 	Fog And Mist	28	93	ENE	9	30	27	28	20
Sat Jan 30 12:39:18 2010	 San Diego CA 	Fog And Mist	52	82	N/A		30	46	52	52
Sat Jan 30 12:39:19 2010	 Denver CO 	Partly Cloudy	23	58	S	7	30.03	10	23	16
Sat Jan 30 12:39:20 2010	 Memphis TN 	Overcast	25	86	N	9	29.97	21	25	16
Sat Jan 30 12:39:21 2010	 Los Angeles CA 	Hazy	54	82	N/A		30	48	54	54
Sat Jan 30 12:39:22 2010	 El Paso TX 	Clear	30	93	N/A		30.09	28	30	30
Sat Jan 30 12:39:23 2010	 New York City NY 	Clear	16	45	W	9	30.3	-2	16	5
Sat Jan 30 12:39:24 2010	 Baltimore MD 	Fair	21	45	N/A		30.3	3	21	21
Sat Jan 30 12:39:25 2010	 Las Vegas NV 	Clear	43	76	W	3	30	36	43	41
Sat Jan 30 12:39:26 2010	 Washington DC 	Overcast	21	42	NNE	12	30.3	1	21	10
Sat Jan 30 12:39:28 2010	 Austin TX 	Overcast	30	75	NNW	5	30.15	23	30	26
Sat Jan 30 12:39:29 2010	 San Francisco CA 	Mostly Cloudy	50	94	SE	6	30.03	48	50	48
Sat Jan 30 12:39:30 2010	 Oklahoma City OK 	Overcast	19	86	N	13	30.15	16	19	8
Sat Jan 30 12:39:31 2010	 Nashville TN 	Light Snow	23	86	N	13	29.91	19	23	12
Sat Jan 30 12:39:32 2010	 Fort Worth TX 	Overcast	27	74	N/A		30.21	19	27	27
Sat Jan 30 12:39:33 2010	 Phoenix AZ 	Partly Cloudy	52	77	SE	6	30	45	52	50
Sat Jan 30 12:39:34 2010	 Portland OR 	Light Rain	43	87	SE	7	29.97	39	43	39
Sat Jan 30 12:39:34 2010	 Chicago IL 	Overcast	19	63	E	9	30.27	9	19	10
Sat Jan 30 12:39:35 2010	 San Antonio TX 	Clear	34	70	NW	5	30.15	25	34	30
Sat Jan 30 12:39:36 2010	 Indianapolis IN 	Overcast	16	62	NE	16	30.12	5	16	1
Sat Jan 30 12:39:37 2010	 Boston MA 	Partly Cloudy	7	43	W	14	30.15	-11	7	-9
Sat Jan 30 12:39:38 2010	 Jacksonville FL 	Overcast	61	88	S	9	29.83	57	61	60
Sat Jan 30 12:39:39 2010	 Columbus OH 	Mostly Cloudy	16	57	ENE	9	30.18	3	16	5
Sat Jan 30 12:39:40 2010	 Dallas TX 	Overcast	27	80	NNW	13	30.15	21	27	17
Sat Jan 30 12:39:41 2010	 Houston TX 	Mostly Cloudy	36	70	NW	13	30.09	27	36	28
Sat Jan 30 12:39:42 2010	 Seattle WA 	Light Rain	46	87	S	3	29.97	43	46	46
Sat Jan 30 12:39:43 2010	 Milwaukee WI 	Light Snow	18	73	NNW	8	30.27	10	18	8
Sat Jan 30 12:39:44 2010	 Detroit MI 	Clear	10	72	N	5	30.3	3	10	3
Sat Jan 30 12:39:45 2010	 Philadelphia PA 	Overcast	18	45	NNW	10	30.3	N/A	18	7
Sat Jan 30 13:22:21 2010	 San Jose CA 	Clear	46	93	E	3	30	45	46	46
Sat Jan 30 13:22:22 2010	 Charlotte NC 	Fog And Mist	28	93	NE	9	30	27	28	20
Sat Jan 30 13:22:22 2010	 San Diego CA 	Fog And Mist	50	88	N/A		30	46	50	50
Sat Jan 30 13:22:24 2010	 Denver CO 	Partly Cloudy	23	58	S	8	30.03	10	23	15
Sat Jan 30 13:22:25 2010	 Memphis TN 	Overcast	25	86	N	10	29.97	21	25	15
Sat Jan 30 13:22:26 2010	 Los Angeles CA 	Hazy	52	82	N/A		30	46	52	52
Sat Jan 30 13:22:27 2010	 El Paso TX 	Clear	30	86	NNE	3	30.09	27	30	27
Sat Jan 30 13:22:28 2010	 New York City NY 	Clear	12	44	WNW	9	30.27	-6	12	1
Sat Jan 30 13:22:29 2010	 Baltimore MD 	Fair	21	45	N/A		30.27	3	21	21
Sat Jan 30 13:22:30 2010	 Las Vegas NV 	Clear	43	76	SSW	3	30	36	43	41
Sat Jan 30 13:22:31 2010	 Washington DC 	Overcast	21	42	NNE	10	30.27	1	21	11
Sat Jan 30 13:22:32 2010	 Austin TX 	Overcast	32	69	NW	8	30.15	23	32	26
Sat Jan 30 13:22:33 2010	 San Francisco CA 	Partly Cloudy	48	94	SE	3	30.03	46	48	47
Sat Jan 30 13:22:34 2010	 Oklahoma City OK 	Overcast	21	80	N	12	30.15	16	21	10
Sat Jan 30 13:22:35 2010	 Nashville TN 	Light Snow	23	86	NNE	13	29.91	19	23	12
Sat Jan 30 13:22:36 2010	 Fort Worth TX 	Overcast	27	69	N/A		30.21	18	27	27
Sat Jan 30 13:22:37 2010	 Phoenix AZ 	Partly Cloudy	52	72	ESE	7	29.97	43	52	50
Sat Jan 30 13:22:38 2010	 Portland OR 	Light Rain	43	87	SE	6	29.97	39	43	40
Sat Jan 30 13:22:39 2010	 Chicago IL 	Overcast	19	63	E	12	30.27	9	19	8
Sat Jan 30 13:22:39 2010	 San Antonio TX 	Clear	34	70	NNW	6	30.18	25	34	29
Sat Jan 30 13:22:40 2010	 Indianapolis IN 	Overcast	16	62	NE	12	30.12	5	16	4
Sat Jan 30 13:22:41 2010	 Boston MA 	Partly Cloudy	7	43	NW	13	30.18	-11	7	-8
Sat Jan 30 13:22:42 2010	 Jacksonville FL 	Overcast	61	88	S	10	29.83	57	61	60
Sat Jan 30 13:22:43 2010	 Columbus OH 	Overcast	16	57	ENE	13	30.15	3	16	3
Sat Jan 30 13:22:44 2010	 Dallas TX 	Overcast	27	74	NNW	16	30.18	19	27	15
Sat Jan 30 13:22:45 2010	 Houston TX 	Mostly Cloudy	34	75	NW	12	30.12	27	34	26
Sat Jan 30 13:22:46 2010	 Seattle WA 	Light Rain	45	93	SE	5	29.97	43	45	43
Sat Jan 30 13:22:47 2010	 Milwaukee WI 	Light Snow	19	73	NNW	8	30.27	12	19	10
Sat Jan 30 13:22:48 2010	 Detroit MI 	Clear	10	72	N	3	30.3	3	10	5
Sat Jan 30 13:22:49 2010	 Philadelphia PA 	Overcast	18	41	NNW	10	30.3	-2	18	7
Sat Jan 30 14:06:12 2010	 San Jose CA 	Clear	46	93	E	3	30	45	46	46
Sat Jan 30 14:06:12 2010	 Charlotte NC 	Fog And Mist	28	93	NE	14	29.97	27	28	18
Sat Jan 30 14:06:13 2010	 San Diego CA 	Fog And Mist	50	88	N/A		30	46	50	50
Sat Jan 30 14:06:15 2010	 Denver CO 	Partly Cloudy	23	58	S	8	30.03	10	23	15
Sat Jan 30 14:06:16 2010	 Memphis TN 	Light Snow	25	80	N	9	30	19	25	16
Sat Jan 30 14:06:17 2010	 Los Angeles CA 	Hazy	52	82	N/A		30	46	52	52
Sat Jan 30 14:06:19 2010	 El Paso TX 	Clear	30	86	NNE	3	30.09	27	30	27
Sat Jan 30 14:06:20 2010	 New York City NY 	Clear	12	44	WNW	9	30.27	-6	12	1
Sat Jan 30 14:06:21 2010	 Baltimore MD 	Fair	21	45	N/A		30.27	3	21	21
Sat Jan 30 14:06:22 2010	 Las Vegas NV 	Clear	43	76	SSW	3	30	36	43	41
Sat Jan 30 14:06:24 2010	 Washington DC 	Overcast	21	42	NNE	10	30.27	1	21	11
Sat Jan 30 14:06:25 2010	 Austin TX 	Overcast	32	69	NW	8	30.15	23	32	26
Sat Jan 30 14:06:26 2010	 San Francisco CA 	Partly Cloudy	48	94	SE	3	30.03	46	48	47
Sat Jan 30 14:06:28 2010	 Oklahoma City OK 	Overcast	21	80	N	13	30.15	16	21	10
Sat Jan 30 14:06:28 2010	 Nashville TN 	Light Snow	23	86	NNE	13	29.91	19	23	12
Sat Jan 30 14:06:29 2010	 Fort Worth TX 	Overcast	27	69	N/A		30.21	18	27	27
Sat Jan 30 14:06:30 2010	 Phoenix AZ 	Partly Cloudy	52	72	ESE	7	29.97	43	52	50
Sat Jan 30 14:06:31 2010	 Portland OR 	Light Rain	43	87	SE	6	29.97	39	43	40
Sat Jan 30 14:06:33 2010	 Chicago IL 	Overcast	19	63	E	12	30.27	9	19	8
Sat Jan 30 14:06:34 2010	 San Antonio TX 	Clear	34	70	NNW	6	30.18	25	34	29
Sat Jan 30 14:06:35 2010	 Indianapolis IN 	Overcast	16	62	NE	12	30.12	5	16	4
Sat Jan 30 14:06:35 2010	 Boston MA 	Partly Cloudy	7	43	NW	13	30.18	-11	7	-8
Sat Jan 30 14:06:36 2010	 Jacksonville FL 	Overcast	61	88	S	10	29.83	57	61	60
Sat Jan 30 14:06:38 2010	 Columbus OH 	Overcast	16	57	ENE	13	30.15	3	16	3
Sat Jan 30 14:06:38 2010	 Dallas TX 	Overcast	27	74	NNW	16	30.18	19	27	15
Sat Jan 30 14:06:39 2010	 Houston TX 	Mostly Cloudy	34	75	NW	12	30.12	27	34	26
Sat Jan 30 14:06:40 2010	 Seattle WA 	Light Rain	45	93	SE	5	29.97	43	45	43
Sat Jan 30 14:06:42 2010	 Milwaukee WI 	Light Snow	19	73	NNW	8	30.27	12	19	10
Sat Jan 30 14:06:43 2010	 Detroit MI 	Clear	10	72	N	3	30.3	3	10	5
Sat Jan 30 14:06:44 2010	 Philadelphia PA 	Overcast	18	41	NNW	10	30.3	-2	18	7
Sat Jan 30 14:50:23 2010	 San Jose CA 	Clear	43	100	ESE	5	30.03	43	43	40
Sat Jan 30 14:50:24 2010	 Charlotte NC 	Fog And Mist	28	93	NNE	9	30	27	28	20
Sat Jan 30 14:50:25 2010	 San Diego CA 	Fog And Mist	48	94	N/A		30	46	48	48
Sat Jan 30 14:50:26 2010	 Denver CO 	Partly Cloudy	21	63	SW	6	30.03	10	21	15
Sat Jan 30 14:50:27 2010	 Memphis TN 	Fog And Mist	25	86	NNW	9	30	21	25	16
Sat Jan 30 14:50:28 2010	 Los Angeles CA 	Clear	52	77	N/A		29.97	45	52	52
Sat Jan 30 14:50:29 2010	 El Paso TX 	Clear	30	86	N	6	30.12	27	30	25
Sat Jan 30 14:50:30 2010	 New York City NY 	Clear	12	44	W	10	30.3	-6	12	N/A
Sat Jan 30 14:50:31 2010	 Baltimore MD 	Fair	21	42	N/A		30.24	1	21	21
Sat Jan 30 14:50:32 2010	 Las Vegas NV 	Clear	39	87	N/A		30	36	39	39
Sat Jan 30 14:50:33 2010	 Washington DC 	Overcast	21	45	NE	12	30.24	3	21	10
Sat Jan 30 14:50:34 2010	 Austin TX 	Overcast	32	69	NNW	6	30.18	23	32	27
Sat Jan 30 14:50:35 2010	 San Francisco CA 	Mostly Cloudy	46	93	N/A		30.03	45	46	46
Sat Jan 30 14:50:36 2010	 Oklahoma City OK 	Overcast	21	86	N	12	30.18	18	21	10
Sat Jan 30 14:50:37 2010	 Nashville TN 	Light Snow	21	93	N	8	29.91	19	21	13
Sat Jan 30 14:50:38 2010	 Fort Worth TX 	Overcast	27	69	N/A		30.24	18	27	27
Sat Jan 30 14:50:39 2010	 Phoenix AZ 	Partly Cloudy	52	72	E	7	29.97	43	52	50
Sat Jan 30 14:50:40 2010	 Portland OR 	Light Rain	43	87	SE	7	29.97	39	43	39
Sat Jan 30 14:50:41 2010	 Chicago IL 	Light Snow	18	62	E	9	30.27	7	18	7
Sat Jan 30 14:50:42 2010	 San Antonio TX 	Clear	34	65	N	7	30.18	23	34	28
Sat Jan 30 14:50:43 2010	 Indianapolis IN 	Overcast	16	67	NE	12	30.09	7	16	4
Sat Jan 30 14:50:43 2010	 Boston MA 	Partly Cloudy	7	43	NW	15	30.18	-11	7	-9
Sat Jan 30 14:50:45 2010	 Jacksonville FL 	Overcast	63	83	S	9	29.83	57	63	62
Sat Jan 30 14:50:45 2010	 Columbus OH 	Overcast	16	57	NE	13	30.15	3	16	3
Sat Jan 30 14:50:46 2010	 Dallas TX 	Overcast	27	74	NNW	10	30.18	19	27	18
Sat Jan 30 14:50:47 2010	 Houston TX 	Overcast	36	70	WNW	7	30.12	27	36	31
Sat Jan 30 14:50:48 2010	 Seattle WA 	Light Rain	46	87	N/A		29.97	43	46	46
Sat Jan 30 14:50:49 2010	 Milwaukee WI 	Light Snow	19	73	NW	5	30.27	12	19	14
Sat Jan 30 14:50:50 2010	 Detroit MI 	Overcast	12	67	N	7	30.3	3	12	3
Sat Jan 30 14:50:51 2010	 Philadelphia PA 	Overcast	18	41	N	7	30.3	-2	18	9
Sat Jan 30 15:34:56 2010	 San Jose CA 	Fog	45	93	SE	6	30.03	43	45	42
Sat Jan 30 15:34:57 2010	 Charlotte NC 	Fog And Mist	28	86	NNE	14	30	25	28	18
Sat Jan 30 15:34:58 2010	 San Diego CA 	Fog And Mist	50	88	N/A		30	46	50	50
Sat Jan 30 15:34:59 2010	 Denver CO 	Partly Cloudy	21	63	S	8	30.03	10	21	13
Sat Jan 30 15:34:59 2010	 Memphis TN 	Overcast	25	86	N	9	30.03	21	25	16
Sat Jan 30 15:35:00 2010	 Los Angeles CA 	Fog And Mist	48	87	N/A		30	45	48	48
Sat Jan 30 15:35:01 2010	 El Paso TX 	Clear	30	86	N	7	30.12	27	30	24
Sat Jan 30 15:35:02 2010	 New York City NY 	Clear	14	41	N	12	30.3	-6	14	2
Sat Jan 30 15:35:03 2010	 Baltimore MD 	Fair	21	42	N/A		30.24	1	21	21
Sat Jan 30 15:35:04 2010	 Las Vegas NV 	Clear	43	76	SSE	3	30	36	43	41
Sat Jan 30 15:35:05 2010	 Washington DC 	Light Snow	21	49	E	13	30.27	5	21	10
Sat Jan 30 15:35:06 2010	 Austin TX 	Clear	30	69	N	5	30.21	21	30	26
Sat Jan 30 15:35:07 2010	 San Francisco CA 	Mostly Cloudy	46	93	N/A		30.03	45	46	46
Sat Jan 30 15:35:08 2010	 Oklahoma City OK 	Overcast	21	86	N	12	30.18	18	21	10
Sat Jan 30 15:35:09 2010	 Nashville TN 	Overcast	21	86	N	10	29.94	18	21	11
Sat Jan 30 15:35:10 2010	 Fort Worth TX 	Overcast	27	69	NNW	13	30.27	18	27	17
Sat Jan 30 15:35:11 2010	 Phoenix AZ 	Mostly Cloudy	50	76	E	6	29.97	43	50	48
Sat Jan 30 15:35:13 2010	 Portland OR 	Overcast	43	87	E	6	29.97	39	43	40
Sat Jan 30 15:35:13 2010	 Chicago IL 	Mostly Cloudy	18	62	ENE	13	30.27	7	18	5
Sat Jan 30 15:35:14 2010	 San Antonio TX 	Clear	34	70	NNW	5	30.21	25	34	30
Sat Jan 30 15:35:15 2010	 Indianapolis IN 	Mostly Cloudy	16	67	NE	14	30.12	7	16	2
Sat Jan 30 15:35:16 2010	 Boston MA 	Mostly Cloudy	9	43	NW	15	30.18	-9	9	-7
Sat Jan 30 15:35:17 2010	 Jacksonville FL 	Overcast	64	78	SW	7	29.85	57	64	64
Sat Jan 30 15:35:18 2010	 Columbus OH 	Overcast	16	57	NE	14	30.15	3	16	2
Sat Jan 30 15:35:18 2010	 Dallas TX 	Overcast	27	80	N	12	30.21	21	27	17
Sat Jan 30 15:35:19 2010	 Houston TX 	Overcast	36	70	NNW	14	30.15	27	36	27
Sat Jan 30 15:35:21 2010	 Seattle WA 	Light Rain	45	93	N/A		29.97	43	45	45
Sat Jan 30 15:35:22 2010	 Milwaukee WI 	Light Snow	19	73	NW	5	30.27	12	19	14
Sat Jan 30 15:35:23 2010	 Detroit MI 	Overcast	14	67	NNE	5	30.3	5	14	7
Sat Jan 30 15:35:24 2010	 Philadelphia PA 	Overcast	18	45	NNE	13	30.27	N/A	18	5
Sat Jan 30 16:21:12 2010	 San Jose CA 	Fog	45	100	N/A		30.03	45	45	45
Sat Jan 30 16:21:13 2010	 Charlotte NC 	Fog And Mist	27	93	NNE	13	30	25	27	17
Sat Jan 30 16:21:14 2010	 San Diego CA 	Fog And Mist	52	82	N	3	30	46	52	52
Sat Jan 30 16:21:15 2010	 Denver CO 	Partly Cloudy	25	59	SSE	6	30.03	12	25	19
Sat Jan 30 16:21:16 2010	 Memphis TN 	Overcast	25	86	NNW	9	30.06	21	25	16
Sat Jan 30 16:21:17 2010	 Los Angeles CA 	Fog And Mist	48	87	N/A		30	45	48	48
Sat Jan 30 16:21:18 2010	 El Paso TX 	Clear	34	81	NE	6	30.15	28	34	29
Sat Jan 30 16:21:19 2010	 New York City NY 	Clear	12	44	W	7	30.27	-6	12	3
Sat Jan 30 16:21:19 2010	 Baltimore MD 	Fair	21	45	N/A		30.24	3	21	21
Sat Jan 30 16:21:21 2010	 Las Vegas NV 	Clear	39	81	N	3	30	34	39	37
Sat Jan 30 16:21:22 2010	 Washington DC 	Snow	19	73	NE	7	30.24	12	19	11
Sat Jan 30 16:21:22 2010	 Austin TX 	Partly Cloudy	32	64	NNW	9	30.21	21	32	25
Sat Jan 30 16:21:24 2010	 San Francisco CA 	Mostly Cloudy	46	93	N/A		30.06	45	46	46
Sat Jan 30 16:21:25 2010	 Oklahoma City OK 	Overcast	21	86	N	12	30.18	18	21	10
Sat Jan 30 16:21:26 2010	 Nashville TN 	Overcast	23	80	NNE	10	29.97	18	23	13
Sat Jan 30 16:21:27 2010	 Fort Worth TX 	Overcast	27	74	NNW	14	30.3	19	27	16
Sat Jan 30 16:21:28 2010	 Phoenix AZ 	Mostly Cloudy	52	72	N/A		29.97	43	52	52
Sat Jan 30 16:21:29 2010	 Portland OR 	Overcast	43	81	SE	6	29.97	37	43	40
Sat Jan 30 16:21:30 2010	 Chicago IL 	Mostly Cloudy	19	63	E	12	30.27	9	19	8
Sat Jan 30 16:21:30 2010	 San Antonio TX 	Clear	36	65	N	14	30.21	25	36	27
Sat Jan 30 16:21:32 2010	 Indianapolis IN 	Mostly Cloudy	18	62	NE	16	30.12	7	18	4
Sat Jan 30 16:21:32 2010	 Boston MA 	Mostly Cloudy	12	40	NW	15	30.21	-8	12	-3
Sat Jan 30 16:21:33 2010	 Jacksonville FL 	Rain	63	94	S	10	29.88	61	63	62
Sat Jan 30 16:21:34 2010	 Columbus OH 	Overcast	18	58	NE	12	30.15	5	18	6
Sat Jan 30 16:21:35 2010	 Dallas TX 	Overcast	27	74	NNW	13	30.24	19	27	17
Sat Jan 30 16:21:36 2010	 Houston TX 	Overcast	36	75	NNW	16	30.15	28	36	27
Sat Jan 30 16:21:37 2010	 Seattle WA 	Light Rain	45	93	SE	3	29.97	43	45	44
Sat Jan 30 16:21:38 2010	 Milwaukee WI 	Light Snow	19	79	NW	5	30.27	14	19	14
Sat Jan 30 16:21:39 2010	 Detroit MI 	Overcast	16	73	NE	10	30.3	9	16	4
Sat Jan 30 16:21:40 2010	 Philadelphia PA 	Overcast	19	42	NNE	13	30.27	N/A	19	8
Sat Jan 30 17:05:32 2010	 San Jose CA 	Fog	45	100	N/A		30.03	45	45	45
Sat Jan 30 17:05:33 2010	 Charlotte NC 	Fog And Mist	27	93	NE	15	29.97	25	27	16
Sat Jan 30 17:05:34 2010	 San Diego CA 	Fog And Mist	52	82	N	3	30	46	52	52
Sat Jan 30 17:05:35 2010	 Denver CO 	Partly Cloudy	25	59	SSE	6	30.03	12	25	19
Sat Jan 30 17:05:36 2010	 Memphis TN 	Overcast	25	86	NNW	9	30.06	21	25	16
Sat Jan 30 17:05:36 2010	 Los Angeles CA 	Fog And Mist	48	87	N/A		30	45	48	48
Sat Jan 30 17:05:37 2010	 El Paso TX 	Clear	34	81	NE	6	30.15	28	34	29
Sat Jan 30 17:05:39 2010	 New York City NY 	Clear	12	44	W	7	30.27	-6	12	3
Sat Jan 30 17:05:39 2010	 Baltimore MD 	Fair	21	45	N/A		30.24	3	21	21
Sat Jan 30 17:05:40 2010	 Las Vegas NV 	Clear	39	81	N	3	30	34	39	37
Sat Jan 30 17:05:41 2010	 Washington DC 	Snow	18	79	NE	10	30.24	12	18	7
Sat Jan 30 17:05:43 2010	 Austin TX 	Mostly Cloudy	36	65	NNW	8	30.24	25	36	30
Sat Jan 30 17:05:44 2010	 San Francisco CA 	Mostly Cloudy	46	93	N/A		30.06	45	46	46
Sat Jan 30 17:05:45 2010	 Oklahoma City OK 	Overcast	21	74	NNW	12	30.24	14	21	10
Sat Jan 30 17:05:46 2010	 Nashville TN 	Light Snow	23	80	N	12	29.97	18	23	13
Sat Jan 30 17:05:47 2010	 Fort Worth TX 	Overcast	27	74	NNW	14	30.3	19	27	16
Sat Jan 30 17:05:49 2010	 Phoenix AZ 	Mostly Cloudy	52	72	N/A		29.97	43	52	52
Sat Jan 30 17:05:50 2010	 Portland OR 	Overcast	43	81	SE	6	30	37	43	40
Sat Jan 30 17:05:50 2010	 Chicago IL 	Mostly Cloudy	19	63	ENE	10	30.27	9	19	9
Sat Jan 30 17:05:52 2010	 San Antonio TX 	Clear	36	65	N	14	30.21	25	36	27
Sat Jan 30 17:05:52 2010	 Indianapolis IN 	Mostly Cloudy	18	62	NE	16	30.12	7	18	4
Sat Jan 30 17:05:53 2010	 Boston MA 	Mostly Cloudy	12	40	NW	15	30.21	-8	12	-3
Sat Jan 30 17:05:54 2010	 Jacksonville FL 	Light Rain	63	94	S	14	29.85	61	63	61
Sat Jan 30 17:05:55 2010	 Columbus OH 	Overcast	18	58	NE	12	30.15	5	18	6
Sat Jan 30 17:05:56 2010	 Dallas TX 	Overcast	27	74	NNW	13	30.24	19	27	17
Sat Jan 30 17:05:57 2010	 Houston TX 	Overcast	36	75	NNW	16	30.15	28	36	27
Sat Jan 30 17:05:58 2010	 Seattle WA 	Light Rain	45	93	SE	3	29.97	43	45	44
Sat Jan 30 17:05:59 2010	 Milwaukee WI 	Light Snow	19	86	NW	5	30.27	16	19	14
Sat Jan 30 17:06:00 2010	 Detroit MI 	Overcast	16	73	NE	10	30.3	9	16	4
Sat Jan 30 17:06:01 2010	 Philadelphia PA 	Overcast	19	42	NNE	13	30.27	N/A	19	8
Sat Jan 30 17:49:05 2010	 San Jose CA 	Fog	46	100	SE	5	30.06	46	46	45
Sat Jan 30 17:49:06 2010	 Charlotte NC 	Fog And Mist	27	86	NNE	10	29.97	23	27	18
Sat Jan 30 17:49:07 2010	 San Diego CA 	Fog And Mist	52	88	N/A		30.03	48	52	52
Sat Jan 30 17:49:08 2010	 Denver CO 	Partly Cloudy	32	44	S	10	30.03	12	32	24
Sat Jan 30 17:49:09 2010	 Memphis TN 	Overcast	25	86	NNW	13	30.09	21	25	14
Sat Jan 30 17:49:10 2010	 Los Angeles CA 	Hazy	54	77	N/A		30	46	54	54
Sat Jan 30 17:49:11 2010	 El Paso TX 	Clear	36	81	NNE	6	30.15	30	36	31
Sat Jan 30 17:49:12 2010	 New York City NY 	Clear	16	37	Variable	5	30.24	-6	16	10
Sat Jan 30 17:49:13 2010	 Baltimore MD 	Fair	19	63	N/A		30.24	9	19	19
Sat Jan 30 17:49:14 2010	 Las Vegas NV 	Clear	41	81	N/A		30.03	36	41	41
Sat Jan 30 17:49:15 2010	 Washington DC 	Snow	18	79	NE	7	30.24	12	18	9
Sat Jan 30 17:49:16 2010	 Austin TX 	Partly Cloudy	34	65	NNW	9	30.24	23	34	27
Sat Jan 30 17:49:17 2010	 San Francisco CA 	Mostly Cloudy	46	100	N/A		30.06	46	46	46
Sat Jan 30 17:49:18 2010	 Oklahoma City OK 	Overcast	21	80	NNW	12	30.24	16	21	10
Sat Jan 30 17:49:19 2010	 Nashville TN 	Light Snow	23	80	N	13	30	18	23	12
Sat Jan 30 17:49:20 2010	 Fort Worth TX 	Overcast	27	74	N	13	30.3	19	27	17
Sat Jan 30 17:49:20 2010	 Phoenix AZ 	Mostly Cloudy	55	55	ENE	8	30	39	55	54
Sat Jan 30 17:49:21 2010	 Portland OR 	Overcast	43	81	ESE	6	30	37	43	40
Sat Jan 30 17:49:22 2010	 Chicago IL 	Mostly Cloudy	21	58	E	12	30.27	9	21	10
Sat Jan 30 17:49:23 2010	 San Antonio TX 	Clear	39	56	N	12	30.24	25	39	33
Sat Jan 30 17:49:24 2010	 Indianapolis IN 	Mostly Cloudy	19	58	NE	15	30.12	7	19	6
Sat Jan 30 17:49:25 2010	 Boston MA 	Partly Cloudy	14	41	NW	13	30.18	-6	14	1
Sat Jan 30 17:49:26 2010	 Jacksonville FL 	Light Rain	63	94	S	12	29.83	61	63	62
Sat Jan 30 17:49:27 2010	 Columbus OH 	Overcast	19	53	NE	15	30.15	5	19	6
Sat Jan 30 17:49:28 2010	 Dallas TX 	Overcast	27	74	N	13	30.27	19	27	17
Sat Jan 30 17:49:29 2010	 Houston TX 	Overcast	37	70	NNW	15	30.18	28	37	29
Sat Jan 30 17:49:30 2010	 Seattle WA 	Light Rain	45	93	SE	3	29.97	43	45	44
Sat Jan 30 17:49:31 2010	 Milwaukee WI 	Light Snow	21	80	N	5	30.27	16	21	16
Sat Jan 30 17:49:32 2010	 Detroit MI 	Partly Cloudy	18	73	E	9	30.27	10	18	7
Sat Jan 30 17:49:32 2010	 Philadelphia PA 	Overcast	19	38	N	10	30.24	-2	19	9
Sat Jan 30 18:32:56 2010	 San Jose CA 	Partly Cloudy	46	100	N/A		30.06	46	46	46
Sat Jan 30 18:32:58 2010	 Charlotte NC 	Fog And Mist	25	86	NNE	17	29.94	21	25	12
Sat Jan 30 18:32:59 2010	 San Diego CA 	Hazy	55	77	NE	6	30.03	48	55	55
Sat Jan 30 18:32:59 2010	 Denver CO 	Partly Cloudy	37	35	SW	10	30.03	12	37	31
Sat Jan 30 18:33:00 2010	 Memphis TN 	Hazy	25	80	NNW	12	30.12	19	25	15
Sat Jan 30 18:33:01 2010	 Los Angeles CA 	Hazy	55	72	N/A		30	46	55	55
Sat Jan 30 18:33:02 2010	 El Paso TX 	Partly Cloudy	39	70	N/A		30.15	30	39	39
Sat Jan 30 18:33:04 2010	 New York City NY 	Clear	18	38	Variable	6	30.21	-4	18	10
Sat Jan 30 18:33:05 2010	 Baltimore MD 	Fair	18	79	N/A		30.24	12	18	18
Sat Jan 30 18:33:06 2010	 Las Vegas NV 	Clear	46	71	S	5	30	37	46	45
Sat Jan 30 18:33:07 2010	 Washington DC 	Snow	18	79	N	13	30.24	12	18	5
Sat Jan 30 18:33:08 2010	 Austin TX 	Clear	37	60	N	7	30.24	25	37	33
Sat Jan 30 18:33:09 2010	 San Francisco CA 	Partly Cloudy	50	88	SSE	8	30.06	46	50	47
Sat Jan 30 18:33:10 2010	 Oklahoma City OK 	Overcast	23	80	NNW	12	30.27	18	23	13
Sat Jan 30 18:33:11 2010	 Nashville TN 	Light Snow	25	74	N	13	30	18	25	14
Sat Jan 30 18:33:12 2010	 Fort Worth TX 	Overcast	28	69	NNW	10	30.33	19	28	20
Sat Jan 30 18:33:13 2010	 Phoenix AZ 	Mostly Cloudy	57	48	E	10	30	37	57	55
Sat Jan 30 18:33:14 2010	 Portland OR 	Light Rain	43	81	ESE	8	30	37	43	38
Sat Jan 30 18:33:15 2010	 Chicago IL 	Partly Cloudy	21	58	E	8	30.27	9	21	13
Sat Jan 30 18:33:16 2010	 San Antonio TX 	Clear	43	53	N	8	30.24	27	43	38
Sat Jan 30 18:33:17 2010	 Indianapolis IN 	Mostly Cloudy	21	58	ENE	12	30.15	9	21	10
Sat Jan 30 18:33:18 2010	 Boston MA 	Mostly Cloudy	18	38	NNW	12	30.15	-4	18	6
Sat Jan 30 18:33:19 2010	 Jacksonville FL 	Overcast	63	100	S	10	29.83	63	63	62
Sat Jan 30 18:33:20 2010	 Columbus OH 	Mostly Cloudy	19	53	NE	10	30.15	5	19	9
Sat Jan 30 18:33:21 2010	 Dallas TX 	Overcast	28	74	N	13	30.27	21	28	19
Sat Jan 30 18:33:21 2010	 Houston TX 	Overcast	37	70	NNW	15	30.18	28	37	29
Sat Jan 30 18:33:22 2010	 Seattle WA 	Light Rain	45	93	SSE	3	29.97	43	45	44
Sat Jan 30 18:33:23 2010	 Milwaukee WI 	Light Snow	21	86	N/A		30.24	18	21	21
Sat Jan 30 18:33:24 2010	 Detroit MI 	Mostly Cloudy	18	62	SE	8	30.27	7	18	8
Sat Jan 30 18:33:25 2010	 Philadelphia PA 	Overcast	19	32	N	9	30.24	-6	19	10
Sat Jan 30 19:16:06 2010	 San Jose CA 	Partly Cloudy	48	100	N/A		30.06	48	48	48
Sat Jan 30 19:16:07 2010	 Charlotte NC 	Fog And Mist	25	80	NE	16	29.91	19	25	13
Sat Jan 30 19:16:08 2010	 San Diego CA 	Partly Cloudy	61	63	N/A		30.03	48	61	61
Sat Jan 30 19:16:09 2010	 Denver CO 	Partly Cloudy	43	29	SSE	6	30.03	12	43	40
Sat Jan 30 19:16:10 2010	 Memphis TN 	Overcast	25	86	N	9	30.09	21	25	16
Sat Jan 30 19:16:11 2010	 Los Angeles CA 	Hazy	59	68	N/A		30	48	59	59
Sat Jan 30 19:16:12 2010	 El Paso TX 	Partly Cloudy	45	61	Variable	5	30.15	32	45	43
Sat Jan 30 19:16:13 2010	 New York City NY 	Partly Cloudy	18	41	Variable	6	30.18	-2	18	10
Sat Jan 30 19:16:14 2010	 Baltimore MD 	Fair	18	79	N/A		30.21	12	18	18
Sat Jan 30 19:16:14 2010	 Las Vegas NV 	Clear	48	62	SSE	7	30	36	48	46
Sat Jan 30 19:16:15 2010	 Washington DC 	Snow	19	73	NNE	12	30.21	12	19	8
Sat Jan 30 19:16:16 2010	 Austin TX 	Clear	37	60	N	9	30.24	25	37	31
Sat Jan 30 19:16:17 2010	 San Francisco CA 	Partly Cloudy	52	82	SE	7	30.09	46	52	50
Sat Jan 30 19:16:18 2010	 Oklahoma City OK 	Overcast	27	74	N	6	30.24	19	27	21
Sat Jan 30 19:16:19 2010	 Nashville TN 	Overcast	25	74	N	12	29.97	18	25	15
Sat Jan 30 19:16:20 2010	 Fort Worth TX 	Overcast	30	69	NNW	10	30.3	21	30	22
Sat Jan 30 19:16:21 2010	 Phoenix AZ 	Mostly Cloudy	61	42	ENE	12	30	37	61	59
Sat Jan 30 19:16:23 2010	 Portland OR 	Light Rain	43	87	ESE	7	30	39	43	39
Sat Jan 30 19:16:24 2010	 Chicago IL 	Partly Cloudy	23	54	E	10	30.24	9	23	13
Sat Jan 30 19:16:25 2010	 San Antonio TX 	Clear	45	49	NW	5	30.21	27	45	43
Sat Jan 30 19:16:26 2010	 Indianapolis IN 	Mostly Cloudy	21	58	NE	12	30.12	9	21	10
Sat Jan 30 19:16:27 2010	 Boston MA 	Overcast	19	38	NW	9	30.12	-2	19	10
Sat Jan 30 19:16:28 2010	 Jacksonville FL 	Light Rain	66	88	S	13	29.77	63	66	66
Sat Jan 30 19:16:29 2010	 Columbus OH 	Mostly Cloudy	21	45	NE	15	30.12	3	21	9
Sat Jan 30 19:16:30 2010	 Dallas TX 	Overcast	30	69	N	15	30.27	21	30	20
Sat Jan 30 19:16:31 2010	 Houston TX 	Mostly Cloudy	39	65	NNW	13	30.18	28	39	32
Sat Jan 30 19:16:31 2010	 Seattle WA 	Overcast	46	87	SSE	5	30	43	46	45
Sat Jan 30 19:16:33 2010	 Milwaukee WI 	Light Snow	21	86	N/A		30.24	18	21	21
Sat Jan 30 19:16:34 2010	 Detroit MI 	Mostly Cloudy	18	62	NE	6	30.24	7	18	10
Sat Jan 30 19:16:35 2010	 Philadelphia PA 	Overcast	19	35	NNW	7	30.21	-4	19	11
Sat Jan 30 20:00:17 2010	 San Jose CA 	Partly Cloudy	48	100	N/A		30.06	48	48	48
Sat Jan 30 20:00:18 2010	 Charlotte NC 	Freezing Rain	25	80	NNE	16	29.91	19	25	13
Sat Jan 30 20:00:19 2010	 San Diego CA 	Partly Cloudy	61	63	N/A		30.03	48	61	61
Sat Jan 30 20:00:20 2010	 Denver CO 	Partly Cloudy	43	29	SSE	6	30.03	12	43	40
Sat Jan 30 20:00:21 2010	 Memphis TN 	Overcast	25	86	N	9	30.09	21	25	16
Sat Jan 30 20:00:22 2010	 Los Angeles CA 	Hazy	59	68	N/A		30	48	59	59
Sat Jan 30 20:00:22 2010	 El Paso TX 	Partly Cloudy	45	61	Variable	5	30.15	32	45	43
Sat Jan 30 20:00:24 2010	 New York City NY 	Partly Cloudy	18	41	Variable	6	30.18	-2	18	10
Sat Jan 30 20:00:24 2010	 Baltimore MD 	Fair	18	79	N/A		30.21	12	18	18
Sat Jan 30 20:00:25 2010	 Las Vegas NV 	Clear	48	62	SSE	7	30	36	48	46
Sat Jan 30 20:00:26 2010	 Washington DC 	Light Snow	19	73	NNE	13	30.15	12	19	8
Sat Jan 30 20:00:27 2010	 Austin TX 	Clear	37	60	N	9	30.24	25	37	31
Sat Jan 30 20:00:28 2010	 San Francisco CA 	Partly Cloudy	52	82	SE	7	30.09	46	52	50
Sat Jan 30 20:00:29 2010	 Oklahoma City OK 	Mostly Cloudy	27	74	N	6	30.24	19	27	21
Sat Jan 30 20:00:30 2010	 Nashville TN 	Overcast	25	74	N	12	29.97	18	25	15
Sat Jan 30 20:00:31 2010	 Fort Worth TX 	Overcast	30	69	NNW	10	30.3	21	30	22
Sat Jan 30 20:00:32 2010	 Phoenix AZ 	Mostly Cloudy	61	42	ENE	12	30	37	61	59
Sat Jan 30 20:00:33 2010	 Portland OR 	Light Rain	43	87	ESE	7	30	39	43	39
Sat Jan 30 20:00:34 2010	 Chicago IL 	Partly Cloudy	23	54	E	10	30.24	9	23	13
Sat Jan 30 20:00:35 2010	 San Antonio TX 	Clear	45	49	NW	5	30.21	27	45	43
Sat Jan 30 20:00:36 2010	 Indianapolis IN 	Mostly Cloudy	21	58	NE	12	30.12	9	21	10
Sat Jan 30 20:00:36 2010	 Boston MA 	Overcast	19	38	NW	9	30.12	-2	19	10
Sat Jan 30 20:00:37 2010	 Jacksonville FL 	Overcast	66	94	SSE	16	29.77	64	66	65
Sat Jan 30 20:00:39 2010	 Columbus OH 	Mostly Cloudy	21	45	NE	15	30.12	3	21	9
Sat Jan 30 20:00:40 2010	 Dallas TX 	Overcast	30	69	N	15	30.27	21	30	20
Sat Jan 30 20:00:41 2010	 Houston TX 	Mostly Cloudy	39	65	NNW	13	30.18	28	39	32
Sat Jan 30 20:00:41 2010	 Seattle WA 	Overcast	46	87	SSE	5	30	43	46	45
Sat Jan 30 20:00:43 2010	 Milwaukee WI 	Light Snow	21	86	N/A		30.24	18	21	21
Sat Jan 30 20:00:43 2010	 Detroit MI 	Mostly Cloudy	18	62	NE	6	30.24	7	18	10
Sat Jan 30 20:00:44 2010	 Philadelphia PA 	Overcast	19	35	NNW	7	30.21	-4	19	11
Sat Jan 30 20:43:34 2010	 San Jose CA 	Partly Cloudy	54	77	N/A		30.06	46	54	54
Sat Jan 30 20:43:35 2010	 Charlotte NC 	Overcast	25	80	NNE	15	29.88	19	25	13
Sat Jan 30 20:43:36 2010	 San Diego CA 	Partly Cloudy	61	63	N/A		30	48	61	61
Sat Jan 30 20:43:37 2010	 Denver CO 	Mostly Cloudy	46	25	N/A		29.97	12	46	46
Sat Jan 30 20:43:38 2010	 Memphis TN 	Overcast	25	86	N	12	30.09	21	25	15
Sat Jan 30 20:43:38 2010	 Los Angeles CA 	Partly Cloudy	61	63	Variable	3	30	48	61	61
Sat Jan 30 20:43:40 2010	 El Paso TX 	Partly Cloudy	46	53	N/A		30.12	30	46	46
Sat Jan 30 20:43:41 2010	 New York City NY 	Partly Cloudy	18	41	WNW	8	30.18	-2	18	8
Sat Jan 30 20:43:42 2010	 Baltimore MD 	Fair	18	79	N/A		30.15	12	18	18
Sat Jan 30 20:43:43 2010	 Las Vegas NV 	Clear	50	62	SE	6	30	37	50	48
Sat Jan 30 20:43:44 2010	 Washington DC 	Light Snow	19	73	NNE	14	30.15	12	19	7
Sat Jan 30 20:43:45 2010	 Austin TX 	Clear	41	57	NNW	10	30.21	27	41	35
Sat Jan 30 20:43:45 2010	 San Francisco CA 	Partly Cloudy	52	88	SSE	7	30.09	48	52	50
Sat Jan 30 20:43:47 2010	 Oklahoma City OK 	Overcast	27	86	Variable	5	30.24	23	27	22
Sat Jan 30 20:43:47 2010	 Nashville TN 	Overcast	25	74	N	12	29.97	18	25	15
Sat Jan 30 20:43:49 2010	 Fort Worth TX 	Overcast	30	69	N	9	30.3	21	30	23
Sat Jan 30 20:43:49 2010	 Phoenix AZ 	Mostly Cloudy	63	37	ENE	7	29.97	36	63	63
Sat Jan 30 20:43:50 2010	 Portland OR 	Light Rain	45	81	ESE	6	30.03	39	45	42
Sat Jan 30 20:43:51 2010	 Chicago IL 	Partly Cloudy	23	58	NE	8	30.21	10	23	15
Sat Jan 30 20:43:52 2010	 San Antonio TX 	Clear	46	50	N	6	30.18	28	46	44
Sat Jan 30 20:43:53 2010	 Indianapolis IN 	Mostly Cloudy	25	54	NE	9	30.09	10	25	16
Sat Jan 30 20:43:54 2010	 Boston MA 	Overcast	21	35	NW	6	30.12	-2	21	15
Sat Jan 30 20:43:55 2010	 Jacksonville FL 	Overcast	68	88	SW	16	29.74	64	68	68
Sat Jan 30 20:43:56 2010	 Columbus OH 	Mostly Cloudy	25	39	NE	14	30.09	3	25	14
Sat Jan 30 20:43:57 2010	 Dallas TX 	Overcast	30	75	NNW	13	30.24	23	30	21
Sat Jan 30 20:43:57 2010	 Houston TX 	Mostly Cloudy	41	61	NW	16	30.15	28	41	33
Sat Jan 30 20:43:59 2010	 Seattle WA 	Light Rain	46	87	SE	3	30	43	46	46
Sat Jan 30 20:43:59 2010	 Milwaukee WI 	Light Snow	23	80	N/A		30.21	18	23	23
Sat Jan 30 20:44:00 2010	 Detroit MI 	Mostly Cloudy	19	58	E	7	30.21	7	19	11
Sat Jan 30 20:44:01 2010	 Philadelphia PA 	Overcast	19	35	NNW	7	30.18	-4	19	11
Sat Jan 30 21:27:36 2010	 San Jose CA 	Partly Cloudy	55	72	N/A		30.06	46	55	55
Sat Jan 30 21:27:36 2010	 Charlotte NC 	Overcast	25	80	NE	13	29.88	19	25	14
Sat Jan 30 21:27:38 2010	 San Diego CA 	Partly Cloudy	61	68	WNW	13	29.97	50	61	59
Sat Jan 30 21:27:39 2010	 Denver CO 	Mostly Cloudy	50	24	SE	5	29.97	14	50	49
Sat Jan 30 21:27:40 2010	 Memphis TN 	Overcast	27	80	N	14	30.12	21	27	16
Sat Jan 30 21:27:40 2010	 Los Angeles CA 	Clear	63	59	W	3	29.97	48	63	63
Sat Jan 30 21:27:41 2010	 El Paso TX 	Partly Cloudy	50	47	NNE	6	30.09	30	50	48
Sat Jan 30 21:27:42 2010	 New York City NY 	Partly Cloudy	19	42	NNE	6	30.15	N/A	19	12
Sat Jan 30 21:27:43 2010	 Baltimore MD 	Fair	18	79	N/A		30.15	12	18	18
Sat Jan 30 21:27:44 2010	 Las Vegas NV 	Clear	54	54	SE	6	29.94	37	54	52
Sat Jan 30 21:27:45 2010	 Washington DC 	Light Snow	18	79	NNE	18	30.12	12	18	3
Sat Jan 30 21:27:46 2010	 Austin TX 	Clear	43	53	NNW	14	30.18	27	43	36
Sat Jan 30 21:27:47 2010	 San Francisco CA 	Partly Cloudy	54	82	S	7	30.09	48	54	52
Sat Jan 30 21:27:48 2010	 Oklahoma City OK 	Overcast	28	80	Variable	5	30.21	23	28	24
Sat Jan 30 21:27:49 2010	 Nashville TN 	Overcast	25	74	N	14	30	18	25	14
Sat Jan 30 21:27:50 2010	 Fort Worth TX 	Overcast	30	69	NNW	8	30.3	21	30	23
Sat Jan 30 21:27:51 2010	 Phoenix AZ 	Mostly Cloudy	64	34	ENE	7	29.94	36	64	64
Sat Jan 30 21:27:52 2010	 Portland OR 	Overcast	45	81	SE	5	30	39	45	43
Sat Jan 30 21:27:53 2010	 Chicago IL 	Partly Cloudy	23	58	E	10	30.21	10	23	13
Sat Jan 30 21:27:53 2010	 San Antonio TX 	Clear	50	47	NW	5	30.15	30	50	49
Sat Jan 30 21:27:54 2010	 Indianapolis IN 	Partly Cloudy	25	54	NE	10	30.09	10	25	15
Sat Jan 30 21:27:55 2010	 Boston MA 	Overcast	21	38	NNW	8	30.09	N/A	21	13
Sat Jan 30 21:27:56 2010	 Jacksonville FL 	Overcast	70	83	SSE	20	29.74	64	70	70
Sat Jan 30 21:27:57 2010	 Columbus OH 	Mostly Cloudy	25	42	NE	12	30.06	5	25	15
Sat Jan 30 21:27:58 2010	 Dallas TX 	Overcast	30	69	N	10	30.24	21	30	22
Sat Jan 30 21:27:59 2010	 Houston TX 	Mostly Cloudy	43	57	NNW	16	30.15	28	43	36
Sat Jan 30 21:28:00 2010	 Seattle WA 	Overcast	48	87	SE	3	30	45	48	47
Sat Jan 30 21:28:01 2010	 Milwaukee WI 	Mostly Cloudy	25	63	Variable	3	30.18	14	25	21
Sat Jan 30 21:28:03 2010	 Detroit MI 	Mostly Cloudy	19	58	SE	8	30.18	7	19	10
Sat Jan 30 21:28:04 2010	 Philadelphia PA 	Light Snow	18	49	Variable	6	30.15	1	18	10
Sat Jan 30 22:10:30 2010	 San Jose CA 	Partly Cloudy	57	67	NW	7	30.03	46	57	56
Sat Jan 30 22:10:30 2010	 Charlotte NC 	Overcast	25	80	NE	12	29.85	19	25	15
Sat Jan 30 22:10:31 2010	 San Diego CA 	Partly Cloudy	61	72	NW	15	Barometer:N/A	52	61	59
Sat Jan 30 22:10:32 2010	 Denver CO 	Mostly Cloudy	50	24	SE	6	29.94	14	50	48
Sat Jan 30 22:10:34 2010	 Memphis TN 	Overcast	27	80	N	12	30.12	21	27	17
Sat Jan 30 22:10:34 2010	 Los Angeles CA 	Clear	63	59	N/A		29.94	48	63	63
Sat Jan 30 22:10:35 2010	 El Paso TX 	Mostly Cloudy	52	44	Variable	7	30.06	30	52	50
Sat Jan 30 22:10:36 2010	 New York City NY 	Mostly Cloudy	19	42	N	8	30.15	N/A	19	10
Sat Jan 30 22:10:37 2010	 Baltimore MD 	Fair	18	79	N/A		30.09	12	18	18
Sat Jan 30 22:10:38 2010	 Las Vegas NV 	Clear	54	54	SE	8	29.91	37	54	51
Sat Jan 30 22:10:40 2010	 Washington DC 	Light Snow	18	79	NNE	20	30.09	12	18	2
Sat Jan 30 22:10:41 2010	 Austin TX 	Clear	45	53	Variable	7	30.18	28	45	41
Sat Jan 30 22:10:42 2010	 San Francisco CA 	Partly Cloudy	55	72	SSE	5	30.06	46	55	55
Sat Jan 30 22:10:43 2010	 Oklahoma City OK 	Mostly Cloudy	30	75	Variable	5	30.18	23	30	26
Sat Jan 30 22:10:44 2010	 Nashville TN 	Overcast	25	74	N	15	30.03	18	25	13
Sat Jan 30 22:10:45 2010	 Fort Worth TX 	Overcast	30	69	NNW	9	30.27	21	30	23
Sat Jan 30 22:10:46 2010	 Phoenix AZ 	Mostly Cloudy	64	34	Variable	5	29.91	36	64	64
Sat Jan 30 22:10:46 2010	 Portland OR 	Light Rain	45	81	E	3	30	39	45	44
Sat Jan 30 22:10:47 2010	 Chicago IL 	Partly Cloudy	21	63	E	6	30.21	10	21	15
Sat Jan 30 22:10:48 2010	 San Antonio TX 	Clear	54	41	N	8	30.15	30	54	51
Sat Jan 30 22:10:49 2010	 Indianapolis IN 	Partly Cloudy	27	50	N	7	30.09	10	27	20
Sat Jan 30 22:10:50 2010	 Boston MA 	Overcast	21	38	N	7	30.09	N/A	21	13
Sat Jan 30 22:10:51 2010	 Jacksonville FL 	Overcast	70	83	SW	17	29.74	64	70	70
Sat Jan 30 22:10:52 2010	 Columbus OH 	Mostly Cloudy	25	39	NNE	13	30.06	3	25	14
Sat Jan 30 22:10:53 2010	 Dallas TX 	Overcast	30	75	NNW	9	30.24	23	30	23
Sat Jan 30 22:10:54 2010	 Houston TX 	Mostly Cloudy	41	61	N	18	30.12	28	41	33
Sat Jan 30 22:10:55 2010	 Seattle WA 	Overcast	48	87	SE	5	29.97	45	48	47
Sat Jan 30 22:10:56 2010	 Milwaukee WI 	Overcast	23	74	S	7	30.18	16	23	16
Sat Jan 30 22:10:57 2010	 Detroit MI 	Partly Cloudy	18	62	SSE	3	30.21	7	18	13
Sat Jan 30 22:10:58 2010	 Philadelphia PA 	Light Snow	16	79	N	10	30.15	10	16	4
Sat Jan 30 22:55:15 2010	 San Jose CA 	Partly Cloudy	57	67	NW	7	30.03	46	57	56
Sat Jan 30 22:55:16 2010	 Charlotte NC 	Overcast	25	80	NE	12	29.85	19	25	15
Sat Jan 30 22:55:17 2010	 San Diego CA 	Partly Cloudy	61	72	NW	15	Barometer:N/A	52	61	59
Sat Jan 30 22:55:18 2010	 Denver CO 	Mostly Cloudy	50	24	SE	6	29.94	14	50	48
Sat Jan 30 22:55:19 2010	 Memphis TN 	Overcast	27	80	N	12	30.12	21	27	17
Sat Jan 30 22:55:20 2010	 Los Angeles CA 	Clear	63	59	N/A		29.94	48	63	63
Sat Jan 30 22:55:21 2010	 El Paso TX 	Mostly Cloudy	52	44	Variable	7	30.06	30	52	50
Sat Jan 30 22:55:23 2010	 New York City NY 	Mostly Cloudy	19	42	N	8	30.15	N/A	19	10
Sat Jan 30 22:55:24 2010	 Baltimore MD 	Fair	18	79	N/A		30.09	12	18	18
Sat Jan 30 22:55:25 2010	 Las Vegas NV 	Clear	54	54	SE	8	29.91	37	54	51
Sat Jan 30 22:55:26 2010	 Washington DC 	Light Snow	18	79	NNE	16	30.09	12	18	4
Sat Jan 30 22:55:27 2010	 Austin TX 	Clear	45	53	Variable	7	30.18	28	45	41
Sat Jan 30 22:55:28 2010	 San Francisco CA 	Partly Cloudy	55	72	SSE	5	30.06	46	55	55
Sat Jan 30 22:55:29 2010	 Oklahoma City OK 	Mostly Cloudy	30	75	Variable	5	30.18	23	30	26
Sat Jan 30 22:55:30 2010	 Nashville TN 	Overcast	25	74	N	15	30.03	18	25	13
Sat Jan 30 22:55:31 2010	 Fort Worth TX 	Overcast	30	69	NNW	9	30.27	21	30	23
Sat Jan 30 22:55:32 2010	 Phoenix AZ 	Mostly Cloudy	64	34	Variable	5	29.91	36	64	64
Sat Jan 30 22:55:33 2010	 Portland OR 	Light Rain	45	81	E	3	30	39	45	44
Sat Jan 30 22:55:34 2010	 Chicago IL 	Partly Cloudy	21	63	E	6	30.21	10	21	15
Sat Jan 30 22:55:35 2010	 San Antonio TX 	Clear	54	41	N	8	30.15	30	54	51
Sat Jan 30 22:55:36 2010	 Indianapolis IN 	Partly Cloudy	27	50	N	7	30.09	10	27	20
Sat Jan 30 22:55:37 2010	 Boston MA 	Overcast	21	38	N	7	30.09	N/A	21	13
Sat Jan 30 22:55:38 2010	 Jacksonville FL 	Light Rain	70	83	SW	15	29.74	64	70	70
Sat Jan 30 22:55:39 2010	 Columbus OH 	Mostly Cloudy	25	39	NNE	13	30.06	3	25	14
Sat Jan 30 22:55:40 2010	 Dallas TX 	Overcast	30	75	NNW	9	30.24	23	30	23
Sat Jan 30 22:55:41 2010	 Houston TX 	Mostly Cloudy	41	61	N	18	30.12	28	41	33
Sat Jan 30 22:55:42 2010	 Seattle WA 	Overcast	48	87	SE	5	29.97	45	48	47
Sat Jan 30 22:55:43 2010	 Milwaukee WI 	Overcast	23	74	S	7	30.18	16	23	16
Sat Jan 30 22:55:44 2010	 Detroit MI 	Partly Cloudy	18	62	SSE	3	30.21	7	18	13
Sat Jan 30 22:55:45 2010	 Philadelphia PA 	Light Snow	16	79	N	12	30.12	10	16	4
Sat Jan 30 23:40:59 2010	 San Jose CA 	Partly Cloudy	61	55	WNW	6	30.03	45	61	61
Sat Jan 30 23:41:00 2010	 Charlotte NC 	Overcast	25	80	NE	10	29.88	19	25	15
Sat Jan 30 23:41:01 2010	 San Diego CA 	Partly Cloudy	61	68	NW	12	29.97	50	61	59
Sat Jan 30 23:41:02 2010	 Denver CO 	Mostly Cloudy	52	20	E	9	29.91	12	52	49
Sat Jan 30 23:41:03 2010	 Memphis TN 	Overcast	28	80	N	9	30.15	23	28	20
Sat Jan 30 23:41:05 2010	 Los Angeles CA 	Clear	64	56	N/A		29.94	48	64	64
Sat Jan 30 23:41:06 2010	 El Paso TX 	Mostly Cloudy	52	44	NE	3	30.03	30	52	52
Sat Jan 30 23:41:08 2010	 New York City NY 	Mostly Cloudy	19	42	NE	14	30.12	N/A	19	7
Sat Jan 30 23:41:08 2010	 Baltimore MD 	Fair	18	79	N/A		30.09	12	18	18
Sat Jan 30 23:41:09 2010	 Las Vegas NV 	Clear	55	51	SSE	6	29.91	37	55	55
Sat Jan 30 23:41:10 2010	 Washington DC 	Light Snow	18	79	NNE	14	30.09	12	18	5
Sat Jan 30 23:41:11 2010	 Austin TX 	Clear	45	53	NNW	8	30.18	28	45	41
Sat Jan 30 23:41:12 2010	 San Francisco CA 	Partly Cloudy	55	72	SW	3	30.03	46	55	55
Sat Jan 30 23:41:13 2010	 Oklahoma City OK 	Mostly Cloudy	30	75	N/A		30.21	23	30	30
Sat Jan 30 23:41:14 2010	 Nashville TN 	Overcast	25	74	N	15	30.06	18	25	13
Sat Jan 30 23:41:16 2010	 Fort Worth TX 	Overcast	30	69	NNW	7	30.27	21	30	24
Sat Jan 30 23:41:16 2010	 Phoenix AZ 	Mostly Cloudy	66	32	E	12	29.88	36	66	66
Sat Jan 30 23:41:17 2010	 Portland OR 	Overcast	45	87	E	6	30	41	45	42
Sat Jan 30 23:41:18 2010	 Chicago IL 	Mostly Cloudy	21	68	E	6	30.18	12	21	15
Sat Jan 30 23:41:19 2010	 San Antonio TX 	Clear	55	44	N	8	30.12	34	55	54
Sat Jan 30 23:41:21 2010	 Indianapolis IN 	Partly Cloudy	25	54	NE	9	30.12	10	25	16
Sat Jan 30 23:41:22 2010	 Boston MA 	Overcast	21	38	NW	6	30.12	N/A	21	15
Sat Jan 30 23:41:23 2010	 Jacksonville FL 	Overcast	70	88	SW	12	29.74	66	70	70
Sat Jan 30 23:41:24 2010	 Columbus OH 	Mostly Cloudy	23	42	NE	9	30.06	3	23	14
Sat Jan 30 23:41:25 2010	 Dallas TX 	Overcast	30	80	N	8	30.24	25	30	23
Sat Jan 30 23:41:26 2010	 Houston TX 	Mostly Cloudy	39	61	NW	13	30.15	27	39	32
Sat Jan 30 23:41:27 2010	 Seattle WA 	Light Rain	48	87	SE	5	29.97	45	48	47
Sat Jan 30 23:41:28 2010	 Milwaukee WI 	Overcast	23	74	SW	6	30.18	16	23	17
Sat Jan 30 23:41:29 2010	 Detroit MI 	Clear	18	62	N/A		30.18	7	18	18
Sat Jan 30 23:41:30 2010	 Philadelphia PA 	Light Snow	16	79	N	12	30.09	10	16	4
Sun Jan 31 00:25:06 2010	 San Jose CA 	Partly Cloudy	59	59	WNW	8	30	45	59	58
Sun Jan 31 00:25:07 2010	 Charlotte NC 	Overcast	25	80	NE	12	29.88	19	25	15
Sun Jan 31 00:25:08 2010	 San Diego CA 	Partly Cloudy	61	68	NW	12	29.94	50	61	59
Sun Jan 31 00:25:09 2010	 Denver CO 	Mostly Cloudy	50	24	ESE	9	29.91	14	50	47
Sun Jan 31 00:25:10 2010	 Memphis TN 	Mostly Cloudy	28	74	N	10	30.15	21	28	20
Sun Jan 31 00:25:10 2010	 Los Angeles CA 	Clear	63	59	Variable	3	29.94	48	63	63
Sun Jan 31 00:25:11 2010	 El Paso TX 	Overcast	52	44	N/A		30.03	30	52	52
Sun Jan 31 00:25:12 2010	 New York City NY 	Overcast	19	42	NE	12	30.12	N/A	19	8
Sun Jan 31 00:25:13 2010	 Baltimore MD 	Fair	18	79	N/A		30.06	12	18	18
Sun Jan 31 00:25:14 2010	 Las Vegas NV 	Clear	55	51	E	6	29.91	37	55	55
Sun Jan 31 00:25:15 2010	 Washington DC 	Light Snow	18	73	NNE	15	30.06	10	18	4
Sun Jan 31 00:25:15 2010	 Austin TX 	Clear	45	57	N	7	30.18	30	45	41
Sun Jan 31 00:25:17 2010	 San Francisco CA 	Partly Cloudy	55	77	W	5	30.03	48	55	55
Sun Jan 31 00:25:18 2010	 Oklahoma City OK 	Fog And Mist	23	74	N/A		30.21	16	23	23
Sun Jan 31 00:25:19 2010	 Nashville TN 	Overcast	25	74	N	9	30.09	18	25	16
Sun Jan 31 00:25:20 2010	 Fort Worth TX 	Overcast	30	69	NNW	8	30.27	21	30	23
Sun Jan 31 00:25:21 2010	 Phoenix AZ 	Mostly Cloudy	66	32	E	10	29.88	36	66	66
Sun Jan 31 00:25:22 2010	 Portland OR 	Overcast	45	81	N/A		30	39	45	45
Sun Jan 31 00:25:23 2010	 Chicago IL 	Mostly Cloudy	21	68	N/A		30.21	12	21	21
Sun Jan 31 00:25:24 2010	 San Antonio TX 	Clear	54	47	ENE	6	30.12	34	54	52
Sun Jan 31 00:25:25 2010	 Indianapolis IN 	Partly Cloudy	23	58	NNE	9	30.12	10	23	14
Sun Jan 31 00:25:25 2010	 Boston MA 	Overcast	21	38	NW	6	30.12	N/A	21	15
Sun Jan 31 00:25:28 2010	 Jacksonville FL 	Mostly Cloudy	70	83	SW	14	29.77	64	70	70
Sun Jan 31 00:25:29 2010	 Columbus OH 	Mostly Cloudy	21	45	NNE	14	30.09	3	21	9
Sun Jan 31 00:25:29 2010	 Dallas TX 	Overcast	30	80	N	12	30.24	25	30	22
Sun Jan 31 00:25:30 2010	 Houston TX 	Mostly Cloudy	37	70	N	13	30.15	28	37	30
Sun Jan 31 00:25:31 2010	 Seattle WA 	Light Rain	48	87	SE	3	29.97	45	48	47
Sun Jan 31 00:25:32 2010	 Milwaukee WI 	Overcast	23	74	SSE	7	30.18	16	23	16
Sun Jan 31 00:25:33 2010	 Detroit MI 	Clear	18	62	SE	5	30.18	7	18	11
Sun Jan 31 00:25:34 2010	 Philadelphia PA 	Light Snow	16	79	N	14	30.09	10	16	2
Sun Jan 31 01:15:37 2010	 San Jose CA 	Partly Cloudy	57	63	NW	9	30	45	57	55
Sun Jan 31 01:15:38 2010	 Charlotte NC 	Overcast	25	80	NNE	10	29.91	19	25	15
Sun Jan 31 01:15:39 2010	 San Diego CA 	Partly Cloudy	61	68	NW	12	29.97	50	61	59
Sun Jan 31 01:15:39 2010	 Denver CO 	Mostly Cloudy	45	31	ESE	8	29.91	16	45	41
Sun Jan 31 01:15:40 2010	 Memphis TN 	Clear	27	80	N	7	30.18	21	27	20
Sun Jan 31 01:15:41 2010	 Los Angeles CA 	Clear	61	59	N/A		29.94	46	61	61
Sun Jan 31 01:15:42 2010	 El Paso TX 	Overcast	52	44	N/A		30.03	30	52	52
Sun Jan 31 01:15:43 2010	 New York City NY 	Overcast	19	42	N	12	30.09	N/A	19	8
Sun Jan 31 01:15:44 2010	 Baltimore MD 	Fair	19	73	N/A		30.06	12	19	19
Sun Jan 31 01:15:45 2010	 Las Vegas NV 	Clear	57	48	ENE	7	29.91	37	57	56
Sun Jan 31 01:15:45 2010	 Washington DC 	Light Snow	18	73	N	18	30.06	10	18	3
Sun Jan 31 01:15:46 2010	 Austin TX 	Clear	43	61	N	7	30.18	30	43	39
Sun Jan 31 01:15:47 2010	 San Francisco CA 	Partly Cloudy	57	72	W	6	30.03	48	57	57
Sun Jan 31 01:15:49 2010	 Oklahoma City OK 	Fog And Mist	21	86	N/A		30.21	18	21	21
Sun Jan 31 01:15:49 2010	 Nashville TN 	Overcast	25	74	N	13	30.12	18	25	14
Sun Jan 31 01:15:51 2010	 Fort Worth TX 	Overcast	30	69	N/A		30.3	21	30	30
Sun Jan 31 01:15:51 2010	 Phoenix AZ 	Partly Cloudy	66	32	SE	6	29.88	36	66	66
Sun Jan 31 01:15:53 2010	 Portland OR 	Overcast	46	82	N/A		30	41	46	46
Sun Jan 31 01:15:53 2010	 Chicago IL 	Mostly Cloudy	21	68	E	3	30.21	12	21	17
Sun Jan 31 01:15:54 2010	 San Antonio TX 	Clear	52	50	NE	9	30.15	34	52	49
Sun Jan 31 01:15:55 2010	 Indianapolis IN 	Partly Cloudy	19	68	NNE	8	30.12	10	19	10
Sun Jan 31 01:15:57 2010	 Boston MA 	Mostly Cloudy	21	38	N	8	30.12	N/A	21	13
Sun Jan 31 01:15:58 2010	 Jacksonville FL 	Mostly Cloudy	68	78	SSW	13	29.77	61	68	68
Sun Jan 31 01:15:58 2010	 Columbus OH 	Mostly Cloudy	19	53	NNE	10	30.09	5	19	9
Sun Jan 31 01:16:00 2010	 Dallas TX 	Overcast	30	80	N	9	30.24	25	30	23
Sun Jan 31 01:16:01 2010	 Houston TX 	Overcast	37	70	N	13	30.18	28	37	30
Sun Jan 31 01:16:02 2010	 Seattle WA 	Light Rain	48	87	N/A		29.97	45	48	48
Sun Jan 31 01:16:03 2010	 Milwaukee WI 	Overcast	21	80	SSE	6	30.18	16	21	15
Sun Jan 31 01:16:04 2010	 Detroit MI 	Clear	16	67	SSE	3	30.18	7	16	11
Sun Jan 31 01:16:05 2010	 Philadelphia PA 	Light Snow	18	73	N	14	30.06	10	18	5
Sun Jan 31 01:59:34 2010	 San Jose CA 	Partly Cloudy	57	63	NW	9	30	45	57	55
Sun Jan 31 01:59:35 2010	 Charlotte NC 	Light Snow	25	80	NNE	7	29.91	19	25	18
Sun Jan 31 01:59:36 2010	 San Diego CA 	Partly Cloudy	61	68	NW	12	29.97	50	61	59
Sun Jan 31 01:59:37 2010	 Denver CO 	Mostly Cloudy	45	31	ESE	8	29.91	16	45	41
Sun Jan 31 01:59:38 2010	 Memphis TN 	Clear	27	80	N	7	30.18	21	27	20
Sun Jan 31 01:59:39 2010	 Los Angeles CA 	Clear	61	59	N/A		29.94	46	61	61
Sun Jan 31 01:59:40 2010	 El Paso TX 	Overcast	52	44	N/A		30.03	30	52	52
Sun Jan 31 01:59:42 2010	 New York City NY 	Overcast	19	42	N	12	30.09	N/A	19	8
Sun Jan 31 01:59:42 2010	 Baltimore MD 	Fair	19	73	N/A		30.06	12	19	19
Sun Jan 31 01:59:43 2010	 Las Vegas NV 	Clear	57	48	ENE	7	29.91	37	57	56
Sun Jan 31 01:59:44 2010	 Washington DC 	Light Snow	18	73	N	13	30.06	10	18	5
Sun Jan 31 01:59:45 2010	 Austin TX 	Clear	43	61	N	7	30.18	30	43	39
Sun Jan 31 01:59:46 2010	 San Francisco CA 	Partly Cloudy	57	72	W	6	30.03	48	57	57
Sun Jan 31 01:59:47 2010	 Oklahoma City OK 	Fog And Mist	21	86	N/A		30.21	18	21	21
Sun Jan 31 01:59:48 2010	 Nashville TN 	Overcast	25	74	N	13	30.12	18	25	14
Sun Jan 31 01:59:49 2010	 Fort Worth TX 	Overcast	30	69	N/A		30.3	21	30	30
Sun Jan 31 01:59:50 2010	 Phoenix AZ 	Partly Cloudy	66	32	SE	6	29.88	36	66	66
Sun Jan 31 01:59:51 2010	 Portland OR 	Overcast	46	82	N/A		30	41	46	46
Sun Jan 31 01:59:52 2010	 Chicago IL 	Mostly Cloudy	21	68	E	3	30.21	12	21	17
Sun Jan 31 01:59:53 2010	 San Antonio TX 	Clear	52	50	NE	9	30.15	34	52	49
Sun Jan 31 01:59:54 2010	 Indianapolis IN 	Partly Cloudy	19	68	NNE	8	30.12	10	19	10
Sun Jan 31 01:59:55 2010	 Boston MA 	Mostly Cloudy	21	38	N	8	30.12	N/A	21	13
Sun Jan 31 01:59:56 2010	 Jacksonville FL 	Mostly Cloudy	68	78	SSW	13	29.77	61	68	68
Sun Jan 31 01:59:57 2010	 Columbus OH 	Mostly Cloudy	19	53	NNE	10	30.09	5	19	9
Sun Jan 31 01:59:58 2010	 Dallas TX 	Overcast	30	80	N	9	30.24	25	30	23
Sun Jan 31 01:59:59 2010	 Houston TX 	Overcast	37	70	N	13	30.18	28	37	30
Sun Jan 31 02:00:00 2010	 Seattle WA 	Light Rain	48	87	SSE	3	29.97	45	48	47
Sun Jan 31 02:00:01 2010	 Milwaukee WI 	Overcast	21	80	SSE	6	30.18	16	21	15
Sun Jan 31 02:00:03 2010	 Detroit MI 	Clear	16	67	SSE	3	30.18	7	16	11
Sun Jan 31 02:00:04 2010	 Philadelphia PA 	Light Snow	18	79	N	15	30.06	12	18	4
Sun Jan 31 02:43:16 2010	 San Jose CA 	Partly Cloudy	55	67	NW	10	30	45	55	53
Sun Jan 31 02:43:17 2010	 Charlotte NC 	Light Snow	25	74	N	12	29.94	18	25	15
Sun Jan 31 02:43:17 2010	 San Diego CA 	Partly Cloudy	57	72	NW	9	29.97	48	57	55
Sun Jan 31 02:43:18 2010	 Denver CO 	Mostly Cloudy	36	52	SE	12	29.91	19	36	28
Sun Jan 31 02:43:20 2010	 Memphis TN 	Clear	27	74	NNW	3	30.18	19	27	23
Sun Jan 31 02:43:20 2010	 Los Angeles CA 	Clear	57	72	SSW	5	29.94	48	57	57
Sun Jan 31 02:43:21 2010	 El Paso TX 	Overcast	50	54	N	6	30.03	34	50	48
Sun Jan 31 02:43:22 2010	 New York City NY 	Overcast	19	49	N	10	30.06	3	19	9
Sun Jan 31 02:43:23 2010	 Baltimore MD 	Fair	19	73	N/A		30.06	12	19	19
Sun Jan 31 02:43:24 2010	 Las Vegas NV 	Partly Cloudy	55	51	N	5	29.91	37	55	55
Sun Jan 31 02:43:25 2010	 Washington DC 	Light Snow	19	73	N	13	30.06	12	19	8
Sun Jan 31 02:43:25 2010	 Austin TX 	Clear	39	65	NNE	5	30.21	28	39	36
Sun Jan 31 02:43:26 2010	 San Francisco CA 	Partly Cloudy	55	72	W	5	30.03	46	55	55
Sun Jan 31 02:43:27 2010	 Oklahoma City OK 	Fog And Mist	21	74	N/A		30.21	14	21	21
Sun Jan 31 02:43:28 2010	 Nashville TN 	Overcast	27	69	N	8	30.15	18	27	19
Sun Jan 31 02:43:29 2010	 Fort Worth TX 	Overcast	30	75	N/A		30.3	23	30	30
Sun Jan 31 02:43:30 2010	 Phoenix AZ 	Partly Cloudy	64	37	E	6	29.88	37	64	64
Sun Jan 31 02:43:31 2010	 Portland OR 	Overcast	45	87	N/A		30	41	45	45
Sun Jan 31 02:43:31 2010	 Chicago IL 	Mostly Cloudy	21	68	SE	5	30.21	12	21	16
Sun Jan 31 02:43:32 2010	 San Antonio TX 	Clear	48	58	NE	12	30.15	34	48	44
Sun Jan 31 02:43:33 2010	 Indianapolis IN 	Partly Cloudy	18	73	NE	8	30.12	10	18	8
Sun Jan 31 02:43:34 2010	 Boston MA 	Mostly Cloudy	19	42	NNW	8	30.09	N/A	19	10
Sun Jan 31 02:43:35 2010	 Jacksonville FL 	Mostly Cloudy	66	78	SSW	10	29.8	59	66	66
Sun Jan 31 02:43:36 2010	 Columbus OH 	Partly Cloudy	19	53	N	6	30.09	5	19	12
Sun Jan 31 02:43:37 2010	 Dallas TX 	Overcast	30	80	N	8	30.27	25	30	23
Sun Jan 31 02:43:38 2010	 Houston TX 	Overcast	37	70	N	14	30.18	28	37	30
Sun Jan 31 02:43:39 2010	 Seattle WA 	Overcast	46	93	N/A		29.97	45	46	46
Sun Jan 31 02:43:40 2010	 Milwaukee WI 	Overcast	21	80	SW	7	30.18	16	21	13
Sun Jan 31 02:43:41 2010	 Detroit MI 	Clear	16	67	S	7	30.18	7	16	7
Sun Jan 31 02:43:42 2010	 Philadelphia PA 	Light Snow	18	73	N	14	30.03	10	18	5
Sun Jan 31 03:27:13 2010	 San Jose CA 	Partly Cloudy	54	77	NW	6	30	46	54	52
Sun Jan 31 03:27:14 2010	 Charlotte NC 	Overcast	25	74	NNE	12	29.94	18	25	15
Sun Jan 31 03:27:16 2010	 San Diego CA 	Partly Cloudy	57	72	N	5	29.97	48	57	57
Sun Jan 31 03:27:17 2010	 Denver CO 	Mostly Cloudy	36	52	SSE	12	29.91	19	36	28
Sun Jan 31 03:27:18 2010	 Memphis TN 	Clear	25	80	N	3	30.18	19	25	21
Sun Jan 31 03:27:19 2010	 Los Angeles CA 	Clear	57	72	W	3	29.94	48	57	57
Sun Jan 31 03:27:20 2010	 El Paso TX 	Mostly Cloudy	46	62	N	7	30.03	34	46	43
Sun Jan 31 03:27:21 2010	 New York City NY 	Overcast	19	45	N	9	30.06	1	19	10
Sun Jan 31 03:27:21 2010	 Baltimore MD 	Fair	19	73	N/A		30.03	12	19	19
Sun Jan 31 03:27:22 2010	 Las Vegas NV 	Clear	54	54	N/A		29.91	37	54	54
Sun Jan 31 03:27:23 2010	 Washington DC 	Light Snow	19	68	N	18	30.06	10	19	5
Sun Jan 31 03:27:24 2010	 Austin TX 	Clear	37	70	Variable	6	30.21	28	37	33
Sun Jan 31 03:27:25 2010	 San Francisco CA 	Partly Cloudy	52	88	NW	6	30.03	48	52	50
Sun Jan 31 03:27:26 2010	 Oklahoma City OK 	Fog And Mist	19	100	N/A		30.21	19	19	19
Sun Jan 31 03:27:27 2010	 Nashville TN 	Overcast	27	69	NNW	6	30.15	18	27	21
Sun Jan 31 03:27:28 2010	 Fort Worth TX 	Overcast	30	75	N/A		30.3	23	30	30
Sun Jan 31 03:27:29 2010	 Phoenix AZ 	Partly Cloudy	63	39	E	3	29.88	37	63	63
Sun Jan 31 03:27:30 2010	 Portland OR 	Overcast	45	87	SE	3	30	41	45	44
Sun Jan 31 03:27:31 2010	 Chicago IL 	Mostly Cloudy	21	68	SE	3	30.21	12	21	17
Sun Jan 31 03:27:32 2010	 San Antonio TX 	Clear	46	62	NE	7	30.18	34	46	43
Sun Jan 31 03:27:33 2010	 Indianapolis IN 	Partly Cloudy	18	68	N	5	30.15	9	18	11
Sun Jan 31 03:27:34 2010	 Boston MA 	Mostly Cloudy	19	42	NNW	8	30.06	N/A	19	10
Sun Jan 31 03:27:35 2010	 Jacksonville FL 	Mostly Cloudy	64	78	SSW	10	29.83	57	64	64
Sun Jan 31 03:27:36 2010	 Columbus OH 	Partly Cloudy	18	58	N	6	30.12	5	18	10
Sun Jan 31 03:27:37 2010	 Dallas TX 	Overcast	30	80	NW	9	30.27	25	30	23
Sun Jan 31 03:27:38 2010	 Houston TX 	Overcast	37	70	N	15	30.21	28	37	29
Sun Jan 31 03:27:39 2010	 Seattle WA 	Overcast	46	87	S	3	29.97	43	46	46
Sun Jan 31 03:27:41 2010	 Milwaukee WI 	Mostly Cloudy	21	80	SW	6	30.15	16	21	15
Sun Jan 31 03:27:41 2010	 Detroit MI 	Clear	16	67	S	5	30.18	7	16	10
Sun Jan 31 03:27:43 2010	 Philadelphia PA 	Light Snow	18	73	N	15	30.03	10	18	4
Sun Jan 31 04:09:57 2010	 San Jose CA 	Partly Cloudy	50	88	NW	8	30.03	46	50	47
Sun Jan 31 04:09:58 2010	 Charlotte NC 	Overcast	23	80	N	13	29.97	18	23	12
Sun Jan 31 04:09:59 2010	 San Diego CA 	Partly Cloudy	57	72	N/A		29.97	48	57	57
Sun Jan 31 04:10:01 2010	 Denver CO 	Mostly Cloudy	32	64	W	8	29.91	21	32	26
Sun Jan 31 04:10:02 2010	 Memphis TN 	Clear	25	74	N	5	30.21	18	25	20
Sun Jan 31 04:10:03 2010	 Los Angeles CA 	Clear	55	77	N/A		29.94	48	55	55
Sun Jan 31 04:10:04 2010	 El Paso TX 	Mostly Cloudy	45	66	NNE	3	30.03	34	45	44
Sun Jan 31 04:10:05 2010	 New York City NY 	Overcast	19	45	Variable	7	30.03	1	19	11
Sun Jan 31 04:10:06 2010	 Baltimore MD 	Fair	19	63	N/A		30.03	9	19	19
Sun Jan 31 04:10:07 2010	 Las Vegas NV 	Mostly Cloudy	50	67	NW	5	29.91	39	50	49
Sun Jan 31 04:10:08 2010	 Washington DC 	Light Snow	19	68	N	17	30.06	10	19	6
Sun Jan 31 04:10:09 2010	 Austin TX 	Clear	36	75	Variable	3	30.24	28	36	33
Sun Jan 31 04:10:10 2010	 San Francisco CA 	Partly Cloudy	52	88	NW	5	30.03	48	52	51
Sun Jan 31 04:10:11 2010	 Oklahoma City OK 	Fog And Mist	19	100	S	5	30.21	19	19	14
Sun Jan 31 04:10:12 2010	 Nashville TN 	Partly Cloudy	25	74	NNW	6	30.15	18	25	19
Sun Jan 31 04:10:12 2010	 Fort Worth TX 	Overcast	30	75	N/A		30.3	23	30	30
Sun Jan 31 04:10:14 2010	 Phoenix AZ 	Partly Cloudy	61	52	ENE	3	29.88	43	61	61
Sun Jan 31 04:10:14 2010	 Portland OR 	Light Rain	45	87	N/A		30	41	45	45
Sun Jan 31 04:10:15 2010	 Chicago IL 	Mostly Cloudy	21	68	SSE	3	30.18	12	21	17
Sun Jan 31 04:10:16 2010	 San Antonio TX 	Clear	43	66	ENE	7	30.21	32	43	39
Sun Jan 31 04:10:17 2010	 Indianapolis IN 	Partly Cloudy	18	73	NNE	9	30.15	10	18	7
Sun Jan 31 04:10:18 2010	 Boston MA 	Mostly Cloudy	18	45	NNW	9	30.03	N/A	18	7
Sun Jan 31 04:10:19 2010	 Jacksonville FL 	Overcast	55	88	N	22	29.88	52	55	51
Sun Jan 31 04:10:20 2010	 Columbus OH 	Partly Cloudy	18	68	N	6	30.12	9	18	10
Sun Jan 31 04:10:21 2010	 Dallas TX 	Overcast	30	80	N	9	30.27	25	30	23
Sun Jan 31 04:10:22 2010	 Houston TX 	Overcast	37	70	N	13	30.21	28	37	30
Sun Jan 31 04:10:23 2010	 Seattle WA 	Overcast	46	93	N/A		29.97	45	46	46
Sun Jan 31 04:10:24 2010	 Milwaukee WI 	Overcast	23	68	W	6	30.15	14	23	17
Sun Jan 31 04:10:26 2010	 Detroit MI 	Clear	16	67	N/A		30.18	7	16	16
Sun Jan 31 04:10:27 2010	 Philadelphia PA 	Overcast	19	49	N	14	30.03	3	19	7
Sun Jan 31 04:54:59 2010	 San Jose CA 	Partly Cloudy	50	88	NW	8	30.03	46	50	47
Sun Jan 31 04:55:00 2010	 Charlotte NC 	Overcast	23	80	N	13	29.97	18	23	12
Sun Jan 31 04:55:01 2010	 San Diego CA 	Partly Cloudy	57	72	N/A		29.97	48	57	57
Sun Jan 31 04:55:02 2010	 Denver CO 	Mostly Cloudy	32	64	W	8	29.91	21	32	26
Sun Jan 31 04:55:03 2010	 Memphis TN 	Clear	25	74	N	5	30.21	18	25	20
Sun Jan 31 04:55:04 2010	 Los Angeles CA 	Clear	55	77	N/A		29.94	48	55	55
Sun Jan 31 04:55:05 2010	 El Paso TX 	Mostly Cloudy	45	66	NNE	3	30.03	34	45	44
Sun Jan 31 04:55:06 2010	 New York City NY 	Overcast	19	45	Variable	7	30.03	1	19	11
Sun Jan 31 04:55:07 2010	 Baltimore MD 	Fair	19	63	N/A		30.03	9	19	19
Sun Jan 31 04:55:08 2010	 Las Vegas NV 	Mostly Cloudy	50	67	NW	5	29.91	39	50	49
Sun Jan 31 04:55:10 2010	 Washington DC 	Light Snow	18	73	N	13	30.06	10	18	5
Sun Jan 31 04:55:11 2010	 Austin TX 	Clear	36	75	Variable	3	30.24	28	36	33
Sun Jan 31 04:55:12 2010	 San Francisco CA 	Partly Cloudy	52	88	NW	5	30.03	48	52	51
Sun Jan 31 04:55:12 2010	 Oklahoma City OK 	Fog And Mist	19	100	S	5	30.21	19	19	14
Sun Jan 31 04:55:13 2010	 Nashville TN 	Partly Cloudy	25	74	NNW	6	30.15	18	25	19
Sun Jan 31 04:55:14 2010	 Fort Worth TX 	Overcast	30	75	N/A		30.3	23	30	30
Sun Jan 31 04:55:15 2010	 Phoenix AZ 	Partly Cloudy	61	52	ENE	3	29.88	43	61	61
Sun Jan 31 04:55:16 2010	 Portland OR 	Light Rain	45	87	N/A		30	41	45	45
Sun Jan 31 04:55:17 2010	 Chicago IL 	Mostly Cloudy	21	68	SSE	3	30.18	12	21	17
Sun Jan 31 04:55:18 2010	 San Antonio TX 	Clear	43	66	ENE	7	30.21	32	43	39
Sun Jan 31 04:55:19 2010	 Indianapolis IN 	Partly Cloudy	18	73	NNE	9	30.15	10	18	7
Sun Jan 31 04:55:20 2010	 Boston MA 	Mostly Cloudy	18	45	NNW	9	30.03	N/A	18	7
Sun Jan 31 04:55:21 2010	 Jacksonville FL 	Overcast	54	82	NNW	22	29.91	48	54	48
Sun Jan 31 04:55:22 2010	 Columbus OH 	Partly Cloudy	18	68	N	6	30.12	9	18	10
Sun Jan 31 04:55:23 2010	 Dallas TX 	Overcast	30	80	N	9	30.27	25	30	23
Sun Jan 31 04:55:24 2010	 Houston TX 	Overcast	37	70	N	13	30.21	28	37	30
Sun Jan 31 04:55:25 2010	 Seattle WA 	Overcast	46	93	N/A		29.97	45	46	46
Sun Jan 31 04:55:26 2010	 Milwaukee WI 	Overcast	23	68	W	6	30.15	14	23	17
Sun Jan 31 04:55:27 2010	 Detroit MI 	Clear	16	67	N/A		30.18	7	16	16
Sun Jan 31 04:55:28 2010	 Philadelphia PA 	Overcast	19	49	N	14	30.03	3	19	7
Sun Jan 31 05:38:16 2010	 San Jose CA 	Partly Cloudy	50	88	NW	6	30.03	46	50	48
Sun Jan 31 05:38:17 2010	 Charlotte NC 	Overcast	25	69	NE	9	29.97	16	25	16
Sun Jan 31 05:41:17 2010										
Sun Jan 31 05:41:18 2010	 Denver CO 	Mostly Cloudy	32	64	SSW	8	29.91	21	32	26
Sun Jan 31 05:41:19 2010	 Memphis TN 	Clear	25	74	N/A		30.24	18	25	25
Sun Jan 31 05:41:20 2010	 Los Angeles CA 	Clear	55	77	N/A		29.94	48	55	55
Sun Jan 31 05:41:21 2010	 El Paso TX 	Partly Cloudy	43	66	NE	7	30.03	32	43	39
Sun Jan 31 05:41:22 2010	 New York City NY 	Overcast	19	45	NNW	12	30	1	19	8
Sun Jan 31 05:41:23 2010	 Baltimore MD 	Fair	21	54	N/A		30.03	7	21	21
Sun Jan 31 05:41:24 2010	 Las Vegas NV 	Clear	48	71	NNW	5	29.91	39	48	47
Sun Jan 31 05:41:24 2010	 Washington DC 	Light Snow	18	73	NNW	16	30.06	10	18	4
Sun Jan 31 05:41:25 2010	 Austin TX 	Clear	34	75	Variable	5	30.27	27	34	30
Sun Jan 31 05:41:26 2010	 San Francisco CA 	Partly Cloudy	52	88	NW	5	30.03	48	52	51
Sun Jan 31 05:41:28 2010	 Oklahoma City OK 	Fog And Mist	19	79	N/A		30.21	14	19	19
Sun Jan 31 05:41:29 2010	 Nashville TN 	Clear	23	74	NNW	6	30.18	16	23	17
Sun Jan 31 05:41:30 2010	 Fort Worth TX 	Overcast	30	75	N/A		30.3	23	30	30
Sun Jan 31 05:41:31 2010	 Phoenix AZ 	Partly Cloudy	57	72	N/A		29.88	48	57	57
Sun Jan 31 05:41:32 2010	 Portland OR 	Light Rain	45	87	N/A		30	41	45	45
Sun Jan 31 05:41:33 2010	 Chicago IL 	Mostly Cloudy	21	68	SW	3	30.18	12	21	17
Sun Jan 31 05:41:34 2010	 San Antonio TX 	Clear	39	75	ENE	7	30.21	32	39	35
Sun Jan 31 05:41:35 2010	 Indianapolis IN 	Partly Cloudy	18	73	ENE	6	30.15	10	18	10
Sun Jan 31 05:41:36 2010	 Boston MA 	Overcast	18	41	NNW	13	30.03	-2	18	5
Sun Jan 31 05:41:37 2010	 Jacksonville FL 	Overcast	52	77	NNW	17	29.94	45	52	47
Sun Jan 31 05:41:38 2010	 Columbus OH 	Clear	16	73	N	6	30.15	9	16	8
Sun Jan 31 05:41:38 2010	 Dallas TX 	Overcast	30	80	NE	9	30.27	25	30	23
Sun Jan 31 05:41:39 2010	 Houston TX 	Overcast	36	75	N	13	30.24	28	36	28
Sun Jan 31 05:41:40 2010	 Seattle WA 	Light Rain	46	93	SE	3	29.97	45	46	46
Sun Jan 31 05:41:41 2010	 Milwaukee WI 	Overcast	21	68	W	6	30.15	12	21	15
Sun Jan 31 05:41:42 2010	 Detroit MI 	Clear	14	73	N/A		30.18	7	14	14
Sun Jan 31 05:41:43 2010	 Philadelphia PA 	Overcast	19	49	N	12	30	3	19	8
Sun Jan 31 06:26:23 2010	 San Jose CA 	Partly Cloudy	48	94	NW	3	30.03	46	48	47
Sun Jan 31 06:26:24 2010	 Charlotte NC 	Partly Cloudy	23	74	NNE	8	30	16	23	15
Sun Jan 31 06:26:25 2010	 San Diego CA 	Partly Cloudy	55	77	N/A		29.97	48	55	55
Sun Jan 31 06:26:26 2010	 Denver CO 	Mostly Cloudy	32	60	SSW	7	29.94	19	32	26
Sun Jan 31 06:26:26 2010	 Memphis TN 	Clear	25	74	N/A		30.27	18	25	25
Sun Jan 31 06:26:27 2010	 Los Angeles CA 	Clear	54	82	N/A		29.94	48	54	54
Sun Jan 31 06:26:28 2010	 El Paso TX 	Mostly Cloudy	41	76	NNW	6	30.06	34	41	38
Sun Jan 31 06:26:29 2010	 New York City NY 	Overcast	18	49	N	8	30	1	18	8
Sun Jan 31 06:26:30 2010	 Baltimore MD 	Fair	21	49	N/A		30.03	5	21	21
Sun Jan 31 06:26:31 2010	 Las Vegas NV 	Clear	46	76	N	3	29.94	39	46	46
Sun Jan 31 06:26:32 2010	 Washington DC 	Light Snow	18	73	NNW	12	30.06	10	18	6
Sun Jan 31 06:26:33 2010	 Austin TX 	Clear	32	80	NE	3	30.24	27	32	29
Sun Jan 31 06:26:34 2010	 San Francisco CA 	Partly Cloudy	50	88	NW	3	30.06	46	50	50
Sun Jan 31 06:26:35 2010	 Oklahoma City OK 	Fog	19	93	S	3	30.24	18	19	15
Sun Jan 31 06:26:36 2010	 Nashville TN 	Clear	21	80	NNW	5	30.18	16	21	16
Sun Jan 31 06:26:37 2010	 Fort Worth TX 	Overcast	30	75	N/A		30.33	23	30	30
Sun Jan 31 06:26:39 2010	 Phoenix AZ 	Partly Cloudy	57	59	N/A		29.88	43	57	57
Sun Jan 31 06:26:40 2010	 Portland OR 	Light Rain	45	87	N/A		30	41	45	45
Sun Jan 31 06:26:40 2010	 Chicago IL 	Overcast	19	73	SW	3	30.18	12	19	15
Sun Jan 31 06:26:41 2010	 San Antonio TX 	Clear	37	75	NE	7	30.24	30	37	33
Sun Jan 31 06:26:42 2010	 Indianapolis IN 	Partly Cloudy	18	73	NE	3	30.18	10	18	13
Sun Jan 31 06:26:43 2010	 Boston MA 	Overcast	18	45	NNW	8	30	N/A	18	8
Sun Jan 31 06:26:44 2010	 Jacksonville FL 	Overcast	52	77	NNW	15	29.97	45	52	47
Sun Jan 31 06:26:45 2010	 Columbus OH 	Partly Cloudy	14	73	N	3	30.15	7	14	9
Sun Jan 31 06:26:46 2010	 Dallas TX 	Overcast	30	80	NE	7	30.27	25	30	24
Sun Jan 31 06:26:47 2010	 Houston TX 	Overcast	37	70	N	13	30.24	28	37	30
Sun Jan 31 06:26:48 2010	 Seattle WA 	Overcast	46	93	SE	3	29.97	45	46	46
Sun Jan 31 06:26:49 2010	 Milwaukee WI 	Overcast	19	73	SSW	5	30.15	12	19	14
Sun Jan 31 06:26:50 2010	 Detroit MI 	Clear	16	67	SSW	3	30.15	7	16	11
Sun Jan 31 06:26:51 2010	 Philadelphia PA 	Overcast	19	49	N	13	30	3	19	8
Sun Jan 31 07:09:19 2010	 San Jose CA 	Mostly Cloudy	48	94	N/A		30.03	46	48	48
Sun Jan 31 07:09:20 2010	 Charlotte NC 	Partly Cloudy	21	80	NE	5	30	16	21	16
Sun Jan 31 07:09:21 2010	 San Diego CA 	Partly Cloudy	54	82	N/A		29.97	48	54	54
Sun Jan 31 07:09:22 2010	 Denver CO 	Mostly Cloudy	32	60	SSW	6	29.94	19	32	27
Sun Jan 31 07:09:23 2010	 Memphis TN 	Clear	25	74	N/A		30.27	18	25	25
Sun Jan 31 07:09:24 2010	 Los Angeles CA 	Clear	54	82	N/A		29.94	48	54	54
Sun Jan 31 07:09:25 2010	 El Paso TX 	Mostly Cloudy	43	71	N	5	30.03	34	43	40
Sun Jan 31 07:09:26 2010	 New York City NY 	Mostly Cloudy	18	45	N	8	30	N/A	18	8
Sun Jan 31 07:09:27 2010	 Baltimore MD 	Fair	21	45	N/A		30.03	3	21	21
Sun Jan 31 07:09:28 2010	 Las Vegas NV 	Clear	45	76	Variable	7	29.94	37	45	41
Sun Jan 31 07:09:29 2010	 Washington DC 	Overcast	19	58	NW	9	30.06	7	19	10
Sun Jan 31 07:09:30 2010	 Austin TX 	Clear	32	80	NE	5	30.27	27	32	28
Sun Jan 31 07:09:31 2010	 San Francisco CA 	Partly Cloudy	48	94	NNW	6	30.06	46	48	46
Sun Jan 31 07:09:32 2010	 Oklahoma City OK 	Fog	18	100	S	3	30.24	18	18	13
Sun Jan 31 07:09:33 2010	 Nashville TN 	Clear	19	86	N/A		30.18	16	19	19
Sun Jan 31 07:09:33 2010	 Fort Worth TX 	Overcast	30	80	N/A		30.33	25	30	30
Sun Jan 31 07:09:34 2010	 Phoenix AZ 	Clear	55	59	E	5	29.91	41	55	55
Sun Jan 31 07:09:35 2010	 Portland OR 	Overcast	43	93	N/A		30.03	41	43	43
Sun Jan 31 07:09:36 2010	 Chicago IL 	Mostly Cloudy	19	73	SW	5	30.18	12	19	14
Sun Jan 31 07:09:37 2010	 San Antonio TX 	Clear	36	81	ENE	7	30.24	30	36	31
Sun Jan 31 07:09:38 2010	 Indianapolis IN 	Partly Cloudy	16	73	N/A		30.15	9	16	16
Sun Jan 31 07:09:38 2010	 Boston MA 	Overcast	16	48	NNW	12	29.97	N/A	16	4
Sun Jan 31 07:09:39 2010	 Jacksonville FL 	Overcast	48	76	NNW	18	29.97	41	48	42
Sun Jan 31 07:09:40 2010	 Columbus OH 	Overcast	14	79	N/A		30.15	9	14	14
Sun Jan 31 07:09:41 2010	 Dallas TX 	Overcast	30	80	NE	3	30.3	25	30	27
Sun Jan 31 07:09:42 2010	 Houston TX 	Overcast	37	70	N	12	30.24	28	37	31
Sun Jan 31 07:09:43 2010	 Seattle WA 	Overcast	46	93	Variable	3	29.97	45	46	46
Sun Jan 31 07:09:44 2010	 Milwaukee WI 	Mostly Cloudy	19	68	SSW	6	30.15	10	19	12
Sun Jan 31 07:09:45 2010	 Detroit MI 	Clear	14	79	SSW	6	30.15	9	14	6
Sun Jan 31 07:09:46 2010	 Philadelphia PA 	Overcast	19	49	N	10	30	3	19	9
Sun Jan 31 07:52:58 2010	 San Jose CA 	Mostly Cloudy	48	94	N/A		30.03	46	48	48
Sun Jan 31 07:52:59 2010	 Charlotte NC 	Partly Cloudy	21	80	NE	5	30	16	21	16
Sun Jan 31 07:53:00 2010	 San Diego CA 	Partly Cloudy	54	82	N/A		29.97	48	54	54
Sun Jan 31 07:53:01 2010	 Denver CO 	Mostly Cloudy	32	60	SSW	6	29.94	19	32	27
Sun Jan 31 07:53:03 2010	 Memphis TN 	Clear	25	74	N/A		30.27	18	25	25
Sun Jan 31 07:53:04 2010	 Los Angeles CA 	Clear	54	82	N/A		29.94	48	54	54
Sun Jan 31 07:53:05 2010	 El Paso TX 	Mostly Cloudy	43	71	N	5	30.03	34	43	40
Sun Jan 31 07:53:06 2010	 New York City NY 	Mostly Cloudy	18	45	N	8	30	N/A	18	8
Sun Jan 31 07:53:07 2010	 Baltimore MD 	Fair	21	45	N/A		30.03	3	21	21
Sun Jan 31 07:53:08 2010	 Las Vegas NV 	Clear	45	76	Variable	7	29.94	37	45	41
Sun Jan 31 07:53:09 2010	 Washington DC 	Overcast	19	58	NW	9	30.06	7	19	10
Sun Jan 31 07:53:10 2010	 Austin TX 	Clear	32	80	NE	5	30.27	27	32	28
Sun Jan 31 07:53:10 2010	 San Francisco CA 	Partly Cloudy	48	94	NNW	6	30.06	46	48	46
Sun Jan 31 07:53:11 2010	 Oklahoma City OK 	Fog	18	100	S	3	30.24	18	18	13
Sun Jan 31 07:53:12 2010	 Nashville TN 	Clear	19	86	N/A		30.18	16	19	19
Sun Jan 31 07:53:13 2010	 Fort Worth TX 	Overcast	30	80	N/A		30.33	25	30	30
Sun Jan 31 07:53:14 2010	 Phoenix AZ 	Clear	55	59	E	5	29.91	41	55	55
Sun Jan 31 07:53:15 2010	 Portland OR 	Overcast	43	93	N/A		30.03	41	43	43
Sun Jan 31 07:53:16 2010	 Chicago IL 	Mostly Cloudy	19	73	SW	5	30.18	12	19	14
Sun Jan 31 07:53:17 2010	 San Antonio TX 	Clear	36	81	ENE	7	30.24	30	36	31
Sun Jan 31 07:53:18 2010	 Indianapolis IN 	Partly Cloudy	16	73	N/A		30.15	9	16	16
Sun Jan 31 07:53:19 2010	 Boston MA 	Overcast	16	48	NNW	12	29.97	N/A	16	4
Sun Jan 31 07:53:20 2010	 Jacksonville FL 	Overcast	48	71	NNW	16	29.97	39	48	42
Sun Jan 31 07:53:21 2010	 Columbus OH 	Overcast	14	79	N/A		30.15	9	14	14
Sun Jan 31 07:53:22 2010	 Dallas TX 	Overcast	30	80	NE	3	30.3	25	30	27
Sun Jan 31 07:53:23 2010	 Houston TX 	Overcast	37	70	N	12	30.24	28	37	31
Sun Jan 31 07:56:23 2010										
Sun Jan 31 07:56:24 2010	 Milwaukee WI 	Mostly Cloudy	19	68	SSW	6	30.15	10	19	12
Sun Jan 31 07:56:25 2010	 Detroit MI 	Clear	14	79	SSW	6	30.15	9	14	6
Sun Jan 31 07:56:26 2010	 Philadelphia PA 	Overcast	19	49	N	10	30	3	19	9
Sun Jan 31 08:40:44 2010	 San Jose CA 	Overcast	50	88	N/A		30.06	46	50	50
Sun Jan 31 08:40:45 2010	 Charlotte NC 	Partly Cloudy	21	80	N	3	30.03	16	21	17
Sun Jan 31 08:40:46 2010	 San Diego CA 	Hazy	54	82	N/A		29.97	48	54	54
Sun Jan 31 08:40:47 2010	 Denver CO 	Mostly Cloudy	30	64	SSW	6	29.94	19	30	25
Sun Jan 31 08:40:48 2010	 Memphis TN 	Clear	21	80	N	7	30.27	16	21	13
Sun Jan 31 08:40:49 2010	 Los Angeles CA 	Clear	54	82	N/A		29.94	48	54	54
Sun Jan 31 08:40:50 2010	 El Paso TX 	Overcast	43	71	NE	5	30.03	34	43	40
Sun Jan 31 08:40:52 2010	 New York City NY 	Clear	18	45	N	8	30	N/A	18	8
Sun Jan 31 08:40:53 2010	 Baltimore MD 	Fair	21	45	N/A		30.03	3	21	21
Sun Jan 31 08:40:54 2010	 Las Vegas NV 	Clear	46	71	W	3	29.94	37	46	46
Sun Jan 31 08:40:55 2010	 Washington DC 	Overcast	19	53	NNW	15	30.06	5	19	6
Sun Jan 31 08:40:55 2010	 Austin TX 	Mostly Cloudy	30	86	Variable	6	30.24	27	30	25
Sun Jan 31 08:40:56 2010	 San Francisco CA 	Partly Cloudy	48	87	N/A		30.06	45	48	48
Sun Jan 31 08:40:57 2010	 Oklahoma City OK 	Fog	18	100	N/A		30.24	18	18	18
Sun Jan 31 08:40:58 2010	 Nashville TN 	Clear	16	93	N/A		30.21	14	16	16
Sun Jan 31 08:41:00 2010	 Fort Worth TX 	Overcast	28	80	N/A		30.33	23	28	28
Sun Jan 31 08:41:01 2010	 Phoenix AZ 	Clear	54	67	ESE	5	29.88	43	54	53
Sun Jan 31 08:41:02 2010	 Portland OR 	Overcast	43	93	E	3	30.03	41	43	41
Sun Jan 31 08:41:03 2010	 Chicago IL 	Mostly Cloudy	19	73	SW	5	30.18	12	19	14
Sun Jan 31 08:41:04 2010	 San Antonio TX 	Clear	36	75	ENE	7	30.24	28	36	31
Sun Jan 31 08:41:05 2010	 Indianapolis IN 	Partly Cloudy	16	79	SE	3	30.15	10	16	11
Sun Jan 31 08:41:06 2010	 Boston MA 	Overcast	16	48	NNW	12	29.97	N/A	16	4
Sun Jan 31 08:41:07 2010	 Jacksonville FL 	Mostly Cloudy	48	71	NW	12	30	39	48	44
Sun Jan 31 08:41:08 2010	 Columbus OH 	Mostly Cloudy	14	73	NNW	3	30.15	7	14	9
Sun Jan 31 08:41:08 2010	 Dallas TX 	Overcast	30	80	NE	6	30.27	25	30	25
Sun Jan 31 08:41:09 2010	 Houston TX 	Overcast	36	75	NE	8	30.24	28	36	30
Sun Jan 31 08:41:10 2010	 Seattle WA 	Overcast	46	93	N/A		29.97	45	46	46
Sun Jan 31 08:41:11 2010	 Milwaukee WI 	Partly Cloudy	18	73	SSW	5	30.15	10	18	11
Sun Jan 31 08:41:12 2010	 Detroit MI 	Clear	14	79	SSW	6	30.15	9	14	6
Sun Jan 31 08:41:13 2010	 Philadelphia PA 	Overcast	19	45	N	13	30	1	19	8
Sun Jan 31 09:23:58 2010	 San Jose CA 	Overcast	50	88	N/A		30.03	46	50	50
Sun Jan 31 09:23:59 2010	 Charlotte NC 	Clear	19	86	N	5	30.03	16	19	14
Sun Jan 31 09:24:00 2010	 San Diego CA 	Partly Cloudy	54	82	N/A		29.97	48	54	54
Sun Jan 31 09:24:01 2010	 Denver CO 	Mostly Cloudy	30	64	SW	6	29.91	19	30	25
Sun Jan 31 09:24:02 2010	 Memphis TN 	Clear	21	80	N/A		30.27	16	21	21
Sun Jan 31 09:24:03 2010	 Los Angeles CA 	Clear	54	82	N/A		29.94	48	54	54
Sun Jan 31 09:24:04 2010	 El Paso TX 	Overcast	41	76	NNE	7	30.03	34	41	37
Sun Jan 31 09:24:05 2010	 New York City NY 	Clear	18	45	NE	8	30.03	N/A	18	8
Sun Jan 31 09:24:06 2010	 Baltimore MD 	Fair	19	49	N/A		30.06	3	19	19
Sun Jan 31 09:24:07 2010	 Las Vegas NV 	Clear	45	71	N/A		29.94	36	45	45
Sun Jan 31 09:24:08 2010	 Washington DC 	Mostly Cloudy	19	49	NNW	14	30.06	3	19	7
Sun Jan 31 09:24:09 2010	 Austin TX 	Overcast	32	87	Variable	5	30.24	28	32	28
Sun Jan 31 09:24:10 2010	 San Francisco CA 	Partly Cloudy	46	93	N/A		30.06	45	46	46
Sun Jan 31 09:24:11 2010	 Oklahoma City OK 	Fog	19	93	S	5	30.24	18	19	14
Sun Jan 31 09:24:12 2010	 Nashville TN 	Clear	19	86	NW	6	30.21	16	19	12
Sun Jan 31 09:24:13 2010	 Fort Worth TX 	Overcast	28	80	N/A		30.33	23	28	28
Sun Jan 31 09:24:15 2010	 Phoenix AZ 	Clear	52	72	ESE	3	29.88	43	52	52
Sun Jan 31 09:24:16 2010	 Portland OR 	Light Rain	43	100	N/A		30	43	43	43
Sun Jan 31 09:24:17 2010	 Chicago IL 	Mostly Cloudy	18	79	SSW	6	30.18	12	18	10
Sun Jan 31 09:24:18 2010	 San Antonio TX 	Clear	34	81	ENE	7	30.24	28	34	28
Sun Jan 31 09:24:19 2010	 Indianapolis IN 	Partly Cloudy	16	79	SE	5	30.18	10	16	10
Sun Jan 31 09:24:20 2010	 Boston MA 	Overcast	16	45	NNW	13	29.97	-2	16	3
Sun Jan 31 09:24:20 2010	 Jacksonville FL 	Overcast	46	76	NNW	12	30	39	46	42
Sun Jan 31 09:24:21 2010	 Columbus OH 	Mostly Cloudy	14	79	N	3	30.15	9	14	9
Sun Jan 31 09:24:22 2010	 Dallas TX 	Overcast	30	86	E	6	30.27	27	30	25
Sun Jan 31 09:24:23 2010	 Houston TX 	Overcast	36	75	NE	10	30.24	28	36	29
Sun Jan 31 09:24:24 2010	 Seattle WA 	Overcast	46	93	SSE	3	29.97	45	46	46
Sun Jan 31 09:24:25 2010	 Milwaukee WI 	Mostly Cloudy	18	68	SSW	6	30.15	9	18	10
Sun Jan 31 09:24:26 2010	 Detroit MI 	Clear	14	79	SSW	6	30.15	9	14	6
Sun Jan 31 09:24:27 2010	 Philadelphia PA 	Overcast	19	45	N	10	30.03	1	19	9
Sun Jan 31 10:07:04 2010	 San Jose CA 	Overcast	50	88	N/A		30.03	46	50	50
Sun Jan 31 10:07:04 2010	 Charlotte NC 	Clear	19	86	N	5	30.03	16	19	14
Sun Jan 31 10:07:05 2010	 San Diego CA 	Fog And Mist	52	88	N/A		29.97	48	52	52
Sun Jan 31 10:07:06 2010	 Denver CO 	Mostly Cloudy	30	64	SW	6	29.91	19	30	25
Sun Jan 31 10:07:07 2010	 Memphis TN 	Clear	21	80	N/A		30.27	16	21	21
Sun Jan 31 10:07:09 2010	 Los Angeles CA 	Clear	54	82	N/A		29.94	48	54	54
Sun Jan 31 10:07:10 2010	 El Paso TX 	Overcast	41	76	NNE	7	30.03	34	41	37
Sun Jan 31 10:07:11 2010	 New York City NY 	Clear	18	45	NE	8	30.03	N/A	18	8
Sun Jan 31 10:07:12 2010	 Baltimore MD 	Fair	19	49	N/A		30.06	3	19	19
Sun Jan 31 10:07:13 2010	 Las Vegas NV 	Clear	45	71	N/A		29.94	36	45	45
Sun Jan 31 10:07:14 2010	 Washington DC 	Mostly Cloudy	19	49	NNW	14	30.06	3	19	7
Sun Jan 31 10:07:15 2010	 Austin TX 	Overcast	32	87	Variable	5	30.24	28	32	28
Sun Jan 31 10:07:16 2010	 San Francisco CA 	Partly Cloudy	46	93	N/A		30.06	45	46	46
Sun Jan 31 10:07:17 2010	 Oklahoma City OK 	Fog	19	93	S	5	30.24	18	19	14
Sun Jan 31 10:07:18 2010	 Nashville TN 	Clear	19	86	NW	6	30.21	16	19	12
Sun Jan 31 10:07:19 2010	 Fort Worth TX 	Overcast	28	80	N/A		30.33	23	28	28
Sun Jan 31 10:07:20 2010	 Phoenix AZ 	Clear	52	72	ESE	3	29.88	43	52	52
Sun Jan 31 10:07:21 2010	 Portland OR 	Light Rain	43	100	N/A		30	43	43	43
Sun Jan 31 10:07:22 2010	 Chicago IL 	Overcast	19	73	W	5	30.18	12	19	14
Sun Jan 31 10:07:23 2010	 San Antonio TX 	Clear	34	81	ENE	7	30.24	28	34	28
Sun Jan 31 10:07:24 2010	 Indianapolis IN 	Partly Cloudy	16	79	SE	5	30.18	10	16	10
Sun Jan 31 10:07:25 2010	 Boston MA 	Overcast	16	45	NNW	13	29.97	-2	16	3
Sun Jan 31 10:07:26 2010	 Jacksonville FL 	Overcast	46	76	NNW	12	30	39	46	42
Sun Jan 31 10:07:27 2010	 Columbus OH 	Mostly Cloudy	14	79	N	3	30.15	9	14	9
Sun Jan 31 10:07:28 2010	 Dallas TX 	Overcast	30	86	E	6	30.27	27	30	25
Sun Jan 31 10:07:29 2010	 Houston TX 	Overcast	36	75	NE	10	30.24	28	36	29
Sun Jan 31 10:07:30 2010	 Seattle WA 	Overcast	46	93	SSE	3	29.97	45	46	46
Sun Jan 31 10:07:31 2010	 Milwaukee WI 	Mostly Cloudy	18	68	SSW	6	30.15	9	18	10
Sun Jan 31 10:07:32 2010	 Detroit MI 	Clear	14	79	SSW	6	30.15	9	14	6
Sun Jan 31 10:07:34 2010	 Philadelphia PA 	Overcast	19	45	N	10	30.03	1	19	9
Sun Jan 31 10:50:58 2010	 San Jose CA 	Overcast	50	88	N/A		30.03	46	50	50
Sun Jan 31 10:50:59 2010	 Charlotte NC 	Clear	19	86	N	3	30.06	16	19	15
Sun Jan 31 10:51:01 2010	 San Diego CA 	Hazy	52	82	N/A		29.97	46	52	52
Sun Jan 31 10:51:02 2010	 Denver CO 	Mostly Cloudy	30	64	W	8	29.88	19	30	23
Sun Jan 31 10:51:03 2010	 Memphis TN 	Clear	19	86	N/A		30.3	16	19	19
Sun Jan 31 10:51:04 2010	 Los Angeles CA 	Clear	54	82	N/A		29.94	48	54	54
Sun Jan 31 10:51:04 2010	 El Paso TX 	Overcast	39	81	N	7	30.03	34	39	35
Sun Jan 31 10:51:06 2010	 New York City NY 	Clear	18	45	Variable	7	30.03	N/A	18	9
Sun Jan 31 10:51:06 2010	 Baltimore MD 	Fair	19	49	N/A		30.09	3	19	19
Sun Jan 31 10:51:07 2010	 Las Vegas NV 	Clear	43	76	NW	6	29.94	36	43	40
Sun Jan 31 10:51:09 2010	 Washington DC 	Partly Cloudy	19	49	NNW	13	30.09	3	19	8
Sun Jan 31 10:51:09 2010	 Austin TX 	Overcast	30	93	Variable	3	30.24	28	30	27
Sun Jan 31 10:51:10 2010	 San Francisco CA 	Partly Cloudy	45	93	N/A		30.03	43	45	45
Sun Jan 31 10:51:11 2010	 Oklahoma City OK 	Fog	21	93	S	5	30.24	19	21	16
Sun Jan 31 10:51:12 2010	 Nashville TN 	Clear	18	79	W	5	30.24	12	18	11
Sun Jan 31 10:51:13 2010	 Fort Worth TX 	Overcast	28	86	N/A		30.33	25	28	28
Sun Jan 31 10:51:14 2010	 Phoenix AZ 	Clear	52	67	E	3	29.88	41	52	52
Sun Jan 31 10:51:16 2010	 Portland OR 	Overcast	43	100	E	3	30	43	43	41
Sun Jan 31 10:51:17 2010	 Chicago IL 	Overcast	19	73	W	7	30.18	12	19	11
Sun Jan 31 10:51:17 2010	 San Antonio TX 	Clear	32	87	ENE	7	30.24	28	32	26
Sun Jan 31 10:51:18 2010	 Indianapolis IN 	Partly Cloudy	12	85	N/A		30.18	9	12	12
Sun Jan 31 10:51:19 2010	 Boston MA 	Overcast	16	45	NW	13	29.97	-2	16	3
Sun Jan 31 10:51:20 2010	 Jacksonville FL 	Overcast	46	71	N	14	30.03	37	46	41
Sun Jan 31 10:51:21 2010	 Columbus OH 	Clear	12	85	N/A		30.15	9	12	12
Sun Jan 31 10:51:22 2010	 Dallas TX 	Overcast	30	86	N/A		30.27	27	30	30
Sun Jan 31 10:51:23 2010	 Houston TX 	Overcast	36	75	NE	7	30.24	28	36	31
Sun Jan 31 10:51:24 2010	 Seattle WA 	Light Rain	46	93	Variable	3	29.97	45	46	46
Sun Jan 31 10:51:25 2010	 Milwaukee WI 	Partly Cloudy	16	73	SSW	5	30.12	9	16	10
Sun Jan 31 10:51:26 2010	 Detroit MI 	Clear	12	79	SSW	8	30.15	7	12	2
Sun Jan 31 10:51:27 2010	 Philadelphia PA 	Mostly Cloudy	18	53	NNW	13	30.06	3	18	5
Sun Jan 31 11:34:18 2010	 San Jose CA 	Overcast	50	88	S	3	30.03	46	50	50
Sun Jan 31 11:34:19 2010	 Charlotte NC 	Clear	16	93	N/A		30.09	14	16	16
Sun Jan 31 11:34:20 2010	 San Diego CA 	Mostly Cloudy	52	82	N/A		29.97	46	52	52
Sun Jan 31 11:34:21 2010	 Denver CO 	Mostly Cloudy	30	64	SSW	7	29.91	19	30	24
Sun Jan 31 11:34:22 2010	 Memphis TN 	Clear	21	80	N/A		30.3	16	21	21
Sun Jan 31 11:34:22 2010	 Los Angeles CA 	Fog And Mist	52	82	N/A		29.94	46	52	52
Sun Jan 31 11:34:23 2010	 El Paso TX 	Mostly Cloudy	39	81	NNE	6	30.03	34	39	35
Sun Jan 31 11:34:24 2010	 New York City NY 	Clear	16	48	Variable	7	30.06	N/A	16	7
Sun Jan 31 11:34:25 2010	 Baltimore MD 	Fair	18	49	N/A		30.12	1	18	18
Sun Jan 31 11:34:26 2010	 Las Vegas NV 	Clear	46	66	NNW	9	29.94	36	46	42
Sun Jan 31 11:34:27 2010	 Washington DC 	Partly Cloudy	18	53	NNW	10	30.12	3	18	7
Sun Jan 31 11:34:28 2010	 Austin TX 	Overcast	30	86	Variable	3	30.27	27	30	27
Sun Jan 31 11:34:29 2010	 San Francisco CA 	Partly Cloudy	43	100	ENE	3	30.03	43	43	41
Sun Jan 31 11:34:30 2010	 Oklahoma City OK 	Fog	21	93	SSE	5	30.21	19	21	16
Sun Jan 31 11:34:31 2010	 Nashville TN 	Clear	16	86	N/A		30.24	12	16	16
Sun Jan 31 11:34:32 2010	 Fort Worth TX 	Overcast	28	86	N/A		30.33	25	28	28
Sun Jan 31 11:34:33 2010	 Phoenix AZ 	Clear	50	76	N/A		29.88	43	50	50
Sun Jan 31 11:34:34 2010	 Portland OR 	Light Rain	43	100	E	3	30	43	43	41
Sun Jan 31 11:34:35 2010	 Chicago IL 	Mostly Cloudy	19	73	SSW	8	30.18	12	19	10
Sun Jan 31 11:34:36 2010	 San Antonio TX 	Clear	32	87	ENE	6	30.24	28	32	27
Sun Jan 31 11:34:38 2010	 Indianapolis IN 	Partly Cloudy	9	92	WNW	5	30.21	7	9	1
Sun Jan 31 11:34:39 2010	 Boston MA 	Mostly Cloudy	14	41	NNW	13	30	-6	14	1
Sun Jan 31 11:34:40 2010	 Jacksonville FL 	Overcast	45	71	N	16	30.06	36	45	38
Sun Jan 31 11:34:40 2010	 Columbus OH 	Clear	12	85	N/A		30.18	9	12	12
Sun Jan 31 11:34:41 2010	 Dallas TX 	Overcast	30	86	E	3	30.3	27	30	27
Sun Jan 31 11:34:42 2010	 Houston TX 	Overcast	36	75	NE	9	30.24	28	36	29
Sun Jan 31 11:34:43 2010	 Seattle WA 	Light Rain	46	93	S	3	29.97	45	46	46
Sun Jan 31 11:34:44 2010	 Milwaukee WI 	Partly Cloudy	16	67	SSW	5	30.12	7	16	10
Sun Jan 31 11:34:45 2010	 Detroit MI 	Clear	12	79	SSW	6	30.15	7	12	4
Sun Jan 31 11:34:46 2010	 Philadelphia PA 	Partly Cloudy	16	53	NNW	13	30.06	1	16	3
Sun Jan 31 12:17:57 2010	 San Jose CA 	Overcast	50	88	N/A		30.03	46	50	50
Sun Jan 31 12:17:58 2010	 Charlotte NC 	Clear	16	93	N/A		30.12	14	16	16
Sun Jan 31 12:17:59 2010	 San Diego CA 	Hazy	54	82	N/A		29.94	48	54	54
Sun Jan 31 12:18:00 2010	 Denver CO 	Mostly Cloudy	27	74	SSW	7	29.88	19	27	20
Sun Jan 31 12:18:01 2010	 Memphis TN 	Clear	21	80	N/A		30.27	16	21	21
Sun Jan 31 12:18:02 2010	 Los Angeles CA 	Clear	52	82	N/A		29.94	46	52	52
Sun Jan 31 12:18:03 2010	 El Paso TX 	Overcast	39	81	N	5	30	34	39	36
Sun Jan 31 12:18:04 2010	 New York City NY 	Clear	16	48	NNW	8	30.06	N/A	16	6
Sun Jan 31 12:18:05 2010	 Baltimore MD 	Fair	18	49	N/A		30.12	1	18	18
Sun Jan 31 12:18:06 2010	 Las Vegas NV 	Clear	46	62	NNW	12	29.94	34	46	42
Sun Jan 31 12:18:09 2010	 Washington DC 	Mostly Cloudy	18	49	NNW	10	30.15	1	18	7
Sun Jan 31 12:18:10 2010	 Austin TX 	Overcast	30	86	N/A		30.27	27	30	30
Sun Jan 31 12:18:11 2010	 San Francisco CA 	Partly Cloudy	43	100	N/A		30.03	43	43	43
Sun Jan 31 12:18:13 2010	 Oklahoma City OK 	Fog	21	100	N/A		30.21	21	21	21
Sun Jan 31 12:18:15 2010	 Nashville TN 	Fog And Mist	14	92	N/A		30.27	12	14	14
Sun Jan 31 12:18:16 2010	 Fort Worth TX 	Overcast	28	86	N/A		30.33	25	28	28
Sun Jan 31 12:18:18 2010	 Phoenix AZ 	Clear	52	62	N/A		29.88	39	52	52
Sun Jan 31 12:18:18 2010	 Portland OR 	Fog And Mist	43	100	N/A		30	43	43	43
Sun Jan 31 12:18:19 2010	 Chicago IL 	Mostly Cloudy	18	79	SSW	5	30.18	12	18	11
Sun Jan 31 12:18:20 2010	 San Antonio TX 	Fog And Mist	32	87	NE	12	30.24	28	32	24
Sun Jan 31 12:18:21 2010	 Indianapolis IN 	Partly Cloudy	10	85	WNW	3	30.21	7	10	5
Sun Jan 31 12:18:22 2010	 Boston MA 	Mostly Cloudy	14	34	NNW	14	30	-9	14	N/A
Sun Jan 31 12:18:23 2010	 Jacksonville FL 	Overcast	45	71	N	16	30.09	36	45	38
Sun Jan 31 12:18:24 2010	 Columbus OH 	Clear	10	85	N/A		30.18	7	10	10
Sun Jan 31 12:18:25 2010	 Dallas TX 	Overcast	30	86	N/A		30.3	27	30	30
Sun Jan 31 12:18:26 2010	 Houston TX 	Overcast	34	81	N	12	30.24	28	34	26
Sun Jan 31 12:18:27 2010	 Seattle WA 	Light Rain	46	93	SE	3	29.97	45	46	46
Sun Jan 31 12:18:28 2010	 Milwaukee WI 	Partly Cloudy	16	67	SSW	7	30.15	7	16	7
Sun Jan 31 12:18:29 2010	 Detroit MI 	Clear	10	85	SW	6	30.15	7	10	2
Sun Jan 31 12:18:30 2010	 Philadelphia PA 	Partly Cloudy	16	53	NNW	8	30.09	1	16	6
Sun Jan 31 13:01:11 2010	 San Jose CA 	Overcast	50	88	N/A		30.03	46	50	50
Sun Jan 31 13:01:12 2010	 Charlotte NC 	Clear	16	93	N/A		30.12	14	16	16
Sun Jan 31 13:01:13 2010	 San Diego CA 	Hazy	54	82	N/A		29.94	48	54	54
Sun Jan 31 13:01:14 2010	 Denver CO 	Mostly Cloudy	27	74	SSW	7	29.88	19	27	20
Sun Jan 31 13:01:15 2010	 Memphis TN 	Clear	21	80	N/A		30.27	16	21	21
Sun Jan 31 13:01:16 2010	 Los Angeles CA 	Clear	52	82	N/A		29.94	46	52	52
Sun Jan 31 13:01:17 2010	 El Paso TX 	Overcast	39	81	N	5	30	34	39	36
Sun Jan 31 13:01:18 2010	 New York City NY 	Clear	16	48	NNW	8	30.06	N/A	16	6
Sun Jan 31 13:01:19 2010	 Baltimore MD 	Fair	18	49	N/A		30.12	1	18	18
Sun Jan 31 13:01:20 2010	 Las Vegas NV 	Clear	46	62	NNW	12	29.94	34	46	42
Sun Jan 31 13:01:21 2010	 Washington DC 	Mostly Cloudy	18	49	NNW	10	30.15	1	18	7
Sun Jan 31 13:01:22 2010	 Austin TX 	Overcast	30	86	N/A		30.27	27	30	30
Sun Jan 31 13:01:23 2010	 San Francisco CA 	Mostly Cloudy	43	100	ENE	5	30.03	43	43	40
Sun Jan 31 13:01:23 2010	 Oklahoma City OK 	Fog	21	100	N/A		30.21	21	21	21
Sun Jan 31 13:01:24 2010	 Nashville TN 	Fog And Mist	14	92	N/A		30.27	12	14	14
Sun Jan 31 13:01:25 2010	 Fort Worth TX 	Overcast	28	86	N/A		30.33	25	28	28
Sun Jan 31 13:01:26 2010	 Phoenix AZ 	Clear	52	62	N/A		29.88	39	52	52
Sun Jan 31 13:01:27 2010	 Portland OR 	Fog And Mist	43	100	N/A		30	43	43	43
Sun Jan 31 13:01:28 2010	 Chicago IL 	Mostly Cloudy	18	79	SSW	5	30.18	12	18	11
Sun Jan 31 13:01:29 2010	 San Antonio TX 	Fog And Mist	32	87	NE	12	30.24	28	32	24
Sun Jan 31 13:01:30 2010	 Indianapolis IN 	Partly Cloudy	10	85	WNW	3	30.21	7	10	5
Sun Jan 31 13:01:31 2010	 Boston MA 	Mostly Cloudy	14	34	NNW	14	30	-9	14	N/A
Sun Jan 31 13:01:32 2010	 Jacksonville FL 	Overcast	45	71	N	16	30.09	36	45	38
Sun Jan 31 13:01:33 2010	 Columbus OH 	Clear	10	85	N/A		30.18	7	10	10
Sun Jan 31 13:01:34 2010	 Dallas TX 	Overcast	30	86	N/A		30.3	27	30	30
Sun Jan 31 13:01:34 2010	 Houston TX 	Overcast	34	81	N	12	30.24	28	34	26
Sun Jan 31 13:01:35 2010	 Seattle WA 	Light Rain	46	93	SE	3	29.97	45	46	46
Sun Jan 31 13:01:36 2010	 Milwaukee WI 	Partly Cloudy	16	67	SSW	7	30.15	7	16	7
Sun Jan 31 13:01:37 2010	 Detroit MI 	Clear	10	85	SW	6	30.15	7	10	2
Sun Jan 31 13:01:38 2010	 Philadelphia PA 	Partly Cloudy	16	53	NNW	8	30.09	1	16	6
Sun Jan 31 13:45:07 2010	 San Jose CA 	Overcast	50	82	E	3	30.03	45	50	50
Sun Jan 31 13:45:07 2010	 Charlotte NC 	Clear	16	86	N/A		30.12	12	16	16
Sun Jan 31 13:45:09 2010	 San Diego CA 	Hazy	54	77	N/A		29.94	46	54	54
Sun Jan 31 13:45:10 2010	 Denver CO 	Mostly Cloudy	27	74	SSW	3	29.85	19	27	23
Sun Jan 31 13:45:11 2010	 Memphis TN 	Clear	19	86	N/A		30.3	16	19	19
Sun Jan 31 13:45:12 2010	 Los Angeles CA 	Hazy	50	82	N/A		29.94	45	50	50
Sun Jan 31 13:45:12 2010	 El Paso TX 	Overcast	39	81	N	6	30	34	39	35
Sun Jan 31 13:45:14 2010	 New York City NY 	Clear	14	52	Variable	6	30.09	N/A	14	6
Sun Jan 31 13:45:14 2010	 Baltimore MD 	Fair	18	49	N/A		30.15	1	18	18
Sun Jan 31 13:45:15 2010	 Las Vegas NV 	Clear	46	62	NNW	10	29.94	34	46	42
Sun Jan 31 13:45:16 2010	 Washington DC 	Mostly Cloudy	16	53	NNW	13	30.18	1	16	3
Sun Jan 31 13:45:17 2010	 Austin TX 	Fog And Mist	30	86	Variable	5	30.27	27	30	26
Sun Jan 31 13:45:18 2010	 San Francisco CA 	Mostly Cloudy	45	93	N/A		30.03	43	45	45
Sun Jan 31 13:45:19 2010	 Oklahoma City OK 	Fog	23	93	S	5	30.21	21	23	18
Sun Jan 31 13:45:20 2010	 Nashville TN 	Fog And Mist	16	86	N/A		30.3	12	16	16
Sun Jan 31 13:45:21 2010	 Fort Worth TX 	Overcast	30	80	N/A		30.33	25	30	30
Sun Jan 31 13:45:22 2010	 Phoenix AZ 	Partly Cloudy	50	76	N/A		29.88	43	50	50
Sun Jan 31 13:45:23 2010	 Portland OR 	Fog And Mist	43	100	N/A		30	43	43	43
Sun Jan 31 13:45:24 2010	 Chicago IL 	Partly Cloudy	18	79	SSW	7	30.18	12	18	9
Sun Jan 31 13:45:25 2010	 San Antonio TX 	Fog And Mist	32	87	ENE	9	30.24	28	32	25
Sun Jan 31 13:45:26 2010	 Indianapolis IN 	Partly Cloudy	10	85	N/A		30.21	7	10	10
Sun Jan 31 13:45:27 2010	 Boston MA 	Partly Cloudy	12	40	NNW	12	30.03	-8	12	-1
Sun Jan 31 13:45:28 2010	 Jacksonville FL 	Overcast	43	71	N	17	30.12	34	43	35
Sun Jan 31 13:45:30 2010	 Columbus OH 	Clear	10	85	N/A		30.21	7	10	10
Sun Jan 31 13:45:31 2010	 Dallas TX 	Overcast	30	86	E	6	30.3	27	30	25
Sun Jan 31 13:45:32 2010	 Houston TX 	Overcast	36	75	N	9	30.27	28	36	29
Sun Jan 31 13:45:33 2010	 Seattle WA 	Light Rain	46	93	SE	5	29.97	45	46	45
Sun Jan 31 13:45:34 2010	 Milwaukee WI 	Mostly Cloudy	14	73	W	7	30.15	7	14	5
Sun Jan 31 13:45:35 2010	 Detroit MI 	Overcast	12	85	SW	8	30.15	9	12	2
Sun Jan 31 13:45:36 2010	 Philadelphia PA 	Partly Cloudy	14	57	NNW	12	30.12	1	14	2
Sun Jan 31 14:27:59 2010	 San Jose CA 	Overcast	50	82	N/A		30	45	50	50
Sun Jan 31 14:27:59 2010	 Charlotte NC 	Clear	18	86	N/A		30.18	14	18	18
Sun Jan 31 14:28:00 2010	 San Diego CA 	Hazy	52	82	N/A		29.94	46	52	52
Sun Jan 31 14:28:01 2010	 Denver CO 	Mostly Cloudy	27	74	SSW	5	29.85	19	27	22
Sun Jan 31 14:28:02 2010	 Memphis TN 	Clear	19	86	N/A		30.3	16	19	19
Sun Jan 31 14:28:03 2010	 Los Angeles CA 	Clear	48	87	N/A		29.94	45	48	48
Sun Jan 31 14:28:04 2010	 El Paso TX 	Overcast	39	81	NNE	6	30	34	39	35
Sun Jan 31 14:28:05 2010	 New York City NY 	Clear	14	52	Variable	3	30.12	N/A	14	9
Sun Jan 31 14:28:06 2010	 Baltimore MD 	Fair	18	49	N/A		30.18	1	18	18
Sun Jan 31 14:28:07 2010	 Las Vegas NV 	Clear	45	66	NNW	3	29.94	34	45	44
Sun Jan 31 14:28:08 2010	 Washington DC 	Mostly Cloudy	18	49	NW	12	30.21	1	18	6
Sun Jan 31 14:28:09 2010	 Austin TX 	Overcast	30	86	Variable	5	30.3	27	30	26
Sun Jan 31 14:28:10 2010	 San Francisco CA 	Mostly Cloudy	43	100	NE	5	30.03	43	43	40
Sun Jan 31 14:28:11 2010	 Oklahoma City OK 	Fog	21	93	S	6	30.21	19	21	15
Sun Jan 31 14:28:12 2010	 Nashville TN 	Fog And Mist	12	85	S	3	30.3	9	12	7
Sun Jan 31 14:28:13 2010	 Fort Worth TX 	Overcast	28	86	N/A		30.33	25	28	28
Sun Jan 31 14:28:14 2010	 Phoenix AZ 	Partly Cloudy	48	76	N/A		29.88	41	48	48
Sun Jan 31 14:28:15 2010	 Portland OR 	Overcast	45	93	N/A		30	43	45	45
Sun Jan 31 14:28:16 2010	 Chicago IL 	Clear	16	79	SSW	7	30.21	10	16	7
Sun Jan 31 14:28:17 2010	 San Antonio TX 	Fog And Mist	34	81	NE	10	30.27	28	34	27
Sun Jan 31 14:28:18 2010	 Indianapolis IN 	Partly Cloudy	9	85	SSW	3	30.24	5	9	3
Sun Jan 31 14:28:19 2010	 Boston MA 	Partly Cloudy	12	40	NW	10	30.03	-8	12	N/A
Sun Jan 31 14:28:19 2010	 Jacksonville FL 	Mostly Cloudy	41	76	N	17	30.15	34	41	33
Sun Jan 31 14:28:20 2010	 Columbus OH 	Partly Cloudy	10	85	N/A		30.24	7	10	10
Sun Jan 31 14:28:21 2010	 Dallas TX 	Overcast	30	86	SE	6	30.3	27	30	25
Sun Jan 31 14:28:22 2010	 Houston TX 	Overcast	36	75	N	8	30.27	28	36	30
Sun Jan 31 14:28:23 2010	 Seattle WA 	Light Rain	46	93	SE	3	29.97	45	46	46
Sun Jan 31 14:28:24 2010	 Milwaukee WI 	Mostly Cloudy	14	67	SSW	7	30.15	5	14	5
Sun Jan 31 14:28:25 2010	 Detroit MI 	Overcast	14	79	SW	7	30.15	9	14	5
Sun Jan 31 14:28:26 2010	 Philadelphia PA 	Partly Cloudy	16	48	NNW	9	30.15	N/A	16	5
Sun Jan 31 15:11:38 2010	 San Jose CA 	Overcast	48	87	N/A		30	45	48	48
Sun Jan 31 15:11:39 2010	 Charlotte NC 	Clear	21	93	SSE	3	30.21	19	21	17
Sun Jan 31 15:11:40 2010	 San Diego CA 	Hazy	52	82	N/A		29.94	46	52	52
Sun Jan 31 15:11:41 2010	 Denver CO 	Mostly Cloudy	25	80	SW	6	29.85	19	25	19
Sun Jan 31 15:11:42 2010	 Memphis TN 	Clear	21	86	N/A		30.33	18	21	21
Sun Jan 31 15:11:43 2010	 Los Angeles CA 	Hazy	48	82	N/A		29.94	43	48	48
Sun Jan 31 15:11:44 2010	 El Paso TX 	Overcast	39	81	NNE	6	30	34	39	35
Sun Jan 31 15:11:45 2010	 New York City NY 	Clear	16	48	N/A		30.12	N/A	16	16
Sun Jan 31 15:11:48 2010	 Baltimore MD 	Fair	19	38	N/A		30.21	-2	19	19
Sun Jan 31 15:11:49 2010	 Las Vegas NV 	Clear	43	71	NW	3	29.97	34	43	41
Sun Jan 31 15:11:50 2010	 Washington DC 	Partly Cloudy	19	45	NNW	14	30.21	1	19	7
Sun Jan 31 15:11:51 2010	 Austin TX 	Fog And Mist	30	93	NNE	6	30.3	28	30	25
Sun Jan 31 15:11:52 2010	 San Francisco CA 	Mostly Cloudy	45	93	ENE	5	30.03	43	45	43
Sun Jan 31 15:11:53 2010	 Oklahoma City OK 	Fog	21	93	S	6	30.21	19	21	15
Sun Jan 31 15:11:54 2010	 Nashville TN 	Clear	14	92	N/A		30.33	12	14	14
Sun Jan 31 15:11:55 2010	 Fort Worth TX 	Overcast	30	80	E	5	30.36	25	30	26
Sun Jan 31 15:11:55 2010	 Phoenix AZ 	Mostly Cloudy	48	71	E	5	29.91	39	48	47
Sun Jan 31 15:11:56 2010	 Portland OR 	Fog And Mist	43	100	N/A		30	43	43	43
Sun Jan 31 15:11:57 2010	 Chicago IL 	Partly Cloudy	16	79	SW	6	30.21	10	16	8
Sun Jan 31 15:11:58 2010	 San Antonio TX 	Fog And Mist	32	87	NE	8	30.24	28	32	26
Sun Jan 31 15:11:59 2010	 Indianapolis IN 	Clear	12	92	N/A		30.24	10	12	12
Sun Jan 31 15:12:00 2010	 Boston MA 	Partly Cloudy	16	34	NW	13	30.03	-8	16	3
Sun Jan 31 15:12:01 2010	 Jacksonville FL 	Mostly Cloudy	43	71	N	16	30.18	34	43	36
Sun Jan 31 15:12:01 2010	 Columbus OH 	Partly Cloudy	12	85	SSW	3	30.24	9	12	7
Sun Jan 31 15:12:03 2010	 Dallas TX 	Overcast	30	86	E	3	30.33	27	30	27
Sun Jan 31 15:12:03 2010	 Houston TX 	Overcast	36	75	N	9	30.3	28	36	29
Sun Jan 31 15:12:04 2010	 Seattle WA 	Light Rain	46	93	SE	5	29.97	45	46	45
Sun Jan 31 15:12:05 2010	 Milwaukee WI 	Mostly Cloudy	16	57	W	7	30.15	3	16	7
Sun Jan 31 15:12:06 2010	 Detroit MI 	Overcast	16	73	SW	9	30.15	9	16	5
Sun Jan 31 15:12:07 2010	 Philadelphia PA 	Partly Cloudy	16	48	NNW	14	30.15	N/A	16	2
Sun Jan 31 15:55:18 2010	 San Jose CA 	Overcast	48	87	N/A		30	45	48	48
Sun Jan 31 15:55:19 2010	 Charlotte NC 	Clear	21	93	SSE	3	30.21	19	21	17
Sun Jan 31 15:55:20 2010	 San Diego CA 	Hazy	52	82	N/A		29.94	46	52	52
Sun Jan 31 15:55:21 2010	 Denver CO 	Mostly Cloudy	25	80	SW	6	29.85	19	25	19
Sun Jan 31 15:55:22 2010	 Memphis TN 	Clear	21	86	N/A		30.33	18	21	21
Sun Jan 31 15:55:23 2010	 Los Angeles CA 	Hazy	48	82	N/A		29.94	43	48	48
Sun Jan 31 15:55:24 2010	 El Paso TX 	Overcast	39	81	NNE	6	30	34	39	35
Sun Jan 31 15:55:25 2010	 New York City NY 	Clear	16	48	N/A		30.12	N/A	16	16
Sun Jan 31 15:55:26 2010	 Baltimore MD 	Fair	19	38	N/A		30.21	-2	19	19
Sun Jan 31 15:55:27 2010	 Las Vegas NV 	Clear	43	71	NW	3	29.97	34	43	41
Sun Jan 31 15:55:28 2010	 Washington DC 	Partly Cloudy	19	45	NNW	14	30.21	1	19	7
Sun Jan 31 15:55:29 2010	 Austin TX 	Fog And Mist	30	93	NNE	6	30.3	28	30	25
Sun Jan 31 15:55:30 2010	 San Francisco CA 	Mostly Cloudy	45	93	ENE	3	30.03	43	45	44
Sun Jan 31 15:55:31 2010	 Oklahoma City OK 	Fog	21	93	S	6	30.21	19	21	15
Sun Jan 31 15:55:32 2010	 Nashville TN 	Clear	14	92	N/A		30.33	12	14	14
Sun Jan 31 15:55:33 2010	 Fort Worth TX 	Overcast	30	80	E	5	30.36	25	30	26
Sun Jan 31 15:55:34 2010	 Phoenix AZ 	Mostly Cloudy	48	71	E	5	29.91	39	48	47
Sun Jan 31 15:55:35 2010	 Portland OR 	Fog And Mist	43	100	N/A		30	43	43	43
Sun Jan 31 15:55:36 2010	 Chicago IL 	Partly Cloudy	16	79	SW	6	30.21	10	16	8
Sun Jan 31 15:55:36 2010	 San Antonio TX 	Fog And Mist	32	87	NE	8	30.24	28	32	26
Sun Jan 31 15:55:38 2010	 Indianapolis IN 	Clear	12	92	N/A		30.24	10	12	12
Sun Jan 31 15:55:38 2010	 Boston MA 	Partly Cloudy	16	34	NW	13	30.03	-8	16	3
Sun Jan 31 15:55:39 2010	 Jacksonville FL 	Mostly Cloudy	43	71	N	16	30.18	34	43	36
Sun Jan 31 15:55:40 2010	 Columbus OH 	Partly Cloudy	12	85	SSW	3	30.24	9	12	7
Sun Jan 31 15:55:41 2010	 Dallas TX 	Overcast	30	86	E	3	30.33	27	30	27
Sun Jan 31 15:55:42 2010	 Houston TX 	Overcast	36	75	N	9	30.3	28	36	29
Sun Jan 31 15:55:43 2010	 Seattle WA 	Light Rain	46	93	SE	5	29.97	45	46	45
Sun Jan 31 15:55:44 2010	 Milwaukee WI 	Mostly Cloudy	16	57	W	7	30.15	3	16	7
Sun Jan 31 15:55:45 2010	 Detroit MI 	Overcast	16	73	SW	9	30.15	9	16	5
Sun Jan 31 15:55:46 2010	 Philadelphia PA 	Partly Cloudy	16	48	NNW	14	30.15	N/A	16	2
Sun Jan 31 16:44:57 2010	 San Jose CA 	Overcast	50	82	ENE	3	30.03	45	50	50
Sun Jan 31 16:44:58 2010	 Charlotte NC 	Partly Cloudy	27	80	N/A		30.24	21	27	27
Sun Jan 31 16:44:59 2010	 San Diego CA 	Fog And Mist	50	88	N/A		29.97	46	50	50
Sun Jan 31 16:45:00 2010	 Denver CO 	Mostly Cloudy	25	80	SW	3	29.83	19	25	21
Sun Jan 31 16:45:01 2010	 Memphis TN 	Clear	25	86	N/A		30.36	21	25	25
Sun Jan 31 16:45:02 2010	 Los Angeles CA 	Fog And Mist	46	87	N/A		29.94	43	46	46
Sun Jan 31 16:45:03 2010	 El Paso TX 	Overcast	39	81	NNE	6	30	34	39	35
Sun Jan 31 16:45:04 2010	 New York City NY 	Clear	18	45	WNW	9	30.12	N/A	18	7
Sun Jan 31 16:45:05 2010	 Baltimore MD 	Fair	21	32	N/A		30.21	-4	21	21
Sun Jan 31 16:45:06 2010	 Las Vegas NV 	Partly Cloudy	43	71	W	3	29.97	34	43	41
Sun Jan 31 16:45:07 2010	 Washington DC 	Clear	21	42	NW	8	30.24	1	21	13
Sun Jan 31 16:45:08 2010	 Austin TX 	Fog And Mist	30	86	N	7	30.3	27	30	24
Sun Jan 31 16:45:09 2010	 San Francisco CA 	Mostly Cloudy	43	100	N/A		30.03	43	43	43
Sun Jan 31 16:45:10 2010	 Oklahoma City OK 	Fog	23	100	S	6	30.24	23	23	17
Sun Jan 31 16:45:11 2010	 Nashville TN 	Clear	18	100	N/A		30.33	18	18	18
Sun Jan 31 16:45:12 2010	 Fort Worth TX 	Overcast	30	80	ESE	5	30.36	25	30	26
Sun Jan 31 16:45:13 2010	 Phoenix AZ 	Mostly Cloudy	48	82	N/A		29.91	43	48	48
Sun Jan 31 16:45:14 2010	 Portland OR 	Fog And Mist	45	93	N/A		30.03	43	45	45
Sun Jan 31 16:45:15 2010	 Chicago IL 	Partly Cloudy	18	73	SSW	10	30.21	10	18	7
Sun Jan 31 16:45:16 2010	 San Antonio TX 	Fog And Mist	34	87	NE	8	30.27	30	34	28
Sun Jan 31 16:45:17 2010	 Indianapolis IN 	Clear	16	86	N/A		30.24	12	16	16
Sun Jan 31 16:45:18 2010	 Boston MA 	Mostly Cloudy	18	38	NW	12	30.03	-4	18	6
Sun Jan 31 16:45:19 2010	 Jacksonville FL 	Mostly Cloudy	43	66	NNE	14	30.21	32	43	36
Sun Jan 31 16:45:19 2010	 Columbus OH 	Partly Cloudy	16	79	N/A		30.24	10	16	16
Sun Jan 31 16:45:20 2010	 Dallas TX 	Overcast	30	86	SE	8	30.33	27	30	23
Sun Jan 31 16:45:21 2010	 Houston TX 	Overcast	36	75	NE	10	30.3	28	36	29
Sun Jan 31 16:45:22 2010	 Seattle WA 	Overcast	46	93	N/A		29.97	45	46	46
Sun Jan 31 16:45:23 2010	 Milwaukee WI 	Partly Cloudy	16	62	W	9	30.15	5	16	5
Sun Jan 31 16:45:25 2010	 Detroit MI 	Overcast	18	68	SSW	12	30.15	9	18	6
Sun Jan 31 16:45:26 2010	 Philadelphia PA 	Partly Cloudy	19	42	NNW	9	30.18	N/A	19	10
Sun Jan 31 17:28:55 2010	 San Jose CA 	Mostly Cloudy	48	82	N/A		30.03	43	48	48
Sun Jan 31 17:28:56 2010	 Charlotte NC 	Partly Cloudy	30	69	NW	3	30.27	21	30	27
Sun Jan 31 17:28:57 2010	 San Diego CA 	Fog And Mist	52	82	N/A		29.97	46	52	52
Sun Jan 31 17:28:58 2010	 Denver CO 	Mostly Cloudy	28	69	WNW	5	29.83	19	28	24
Sun Jan 31 17:28:59 2010	 Memphis TN 	Clear	28	80	NE	3	30.36	23	28	25
Sun Jan 31 17:29:00 2010	 Los Angeles CA 	Hazy	48	87	N/A		29.97	45	48	48
Sun Jan 31 17:29:01 2010	 El Paso TX 	Overcast	41	76	N	6	30.03	34	41	38
Sun Jan 31 17:29:02 2010	 New York City NY 	Clear	19	42	Variable	6	30.15	N/A	19	12
Sun Jan 31 17:29:03 2010	 Baltimore MD 	Fair	25	30	N/A		30.21	-2	25	25
Sun Jan 31 17:29:04 2010	 Las Vegas NV 	Clear	46	62	N	5	30	34	46	45
Sun Jan 31 17:29:05 2010	 Washington DC 	Clear	25	33	NW	13	30.24	N/A	25	14
Sun Jan 31 17:29:06 2010	 Austin TX 	Overcast	30	93	NE	5	30.3	28	30	26
Sun Jan 31 17:29:07 2010	 San Francisco CA 	Mostly Cloudy	45	93	NE	3	30.03	43	45	44
Sun Jan 31 17:29:08 2010	 Oklahoma City OK 	Fog	25	93	SSE	6	30.27	23	25	19
Sun Jan 31 17:29:09 2010	 Nashville TN 	Clear	25	74	N/A		30.33	18	25	25
Sun Jan 31 17:29:11 2010	 Fort Worth TX 	Overcast	30	86	E	6	30.36	27	30	25
Sun Jan 31 17:29:12 2010	 Phoenix AZ 	Mostly Cloudy	52	67	N/A		29.94	41	52	52
Sun Jan 31 17:29:13 2010	 Portland OR 	Fog And Mist	45	93	N/A		30.03	43	45	45
Sun Jan 31 17:29:13 2010	 Chicago IL 	Partly Cloudy	19	63	SSW	12	30.21	9	19	8
Sun Jan 31 17:29:14 2010	 San Antonio TX 	Fog And Mist	34	81	ENE	7	30.3	28	34	28
Sun Jan 31 17:29:15 2010	 Indianapolis IN 	Clear	19	79	SW	6	30.24	14	19	12
Sun Jan 31 17:29:16 2010	 Boston MA 	Partly Cloudy	21	35	NW	9	30.03	-2	21	12
Sun Jan 31 17:29:17 2010	 Jacksonville FL 	Mostly Cloudy	43	71	NNE	12	30.24	34	43	37
Sun Jan 31 17:29:18 2010	 Columbus OH 	Partly Cloudy	21	63	SW	8	30.24	10	21	13
Sun Jan 31 17:29:19 2010	 Dallas TX 	Fog And Mist	32	80	SE	3	30.33	27	32	29
Sun Jan 31 17:29:20 2010	 Houston TX 	Overcast	37	75	NE	10	30.3	30	37	31
Sun Jan 31 17:29:21 2010	 Seattle WA 	Overcast	46	87	N/A		30	43	46	46
Sun Jan 31 17:29:22 2010	 Milwaukee WI 	Partly Cloudy	18	53	W	9	30.15	3	18	7
Sun Jan 31 17:29:23 2010	 Detroit MI 	Overcast	19	68	SSW	14	30.15	10	19	7
Sun Jan 31 17:29:24 2010	 Philadelphia PA 	Clear	21	35	NNW	9	30.18	-2	21	12
Sun Jan 31 18:13:16 2010	 San Jose CA 	Mostly Cloudy	48	87	N/A		30.03	45	48	48
Sun Jan 31 18:13:17 2010	 Charlotte NC 	Partly Cloudy	32	60	N/A		30.27	19	32	32
Sun Jan 31 18:13:17 2010	 San Diego CA 	Hazy	54	77	N/A		29.97	46	54	54
Sun Jan 31 18:13:19 2010	 Denver CO 	Mostly Cloudy	30	64	NNW	9	29.83	19	30	23
Sun Jan 31 18:13:20 2010	 Memphis TN 	Partly Cloudy	30	80	ENE	3	30.36	25	30	27
Sun Jan 31 18:13:20 2010	 Los Angeles CA 	Hazy	52	77	N/A		29.97	45	52	52
Sun Jan 31 18:13:22 2010	 El Paso TX 	Overcast	45	71	NNW	3	30.03	36	45	44
Sun Jan 31 18:13:23 2010	 New York City NY 	Clear	21	38	Variable	6	30.12	N/A	21	15
Sun Jan 31 18:13:23 2010	 Baltimore MD 	Fair	27	31	N/A		30.21	N/A	27	27
Sun Jan 31 18:13:25 2010	 Las Vegas NV 	Clear	50	54	N	5	30	34	50	49
Sun Jan 31 18:13:25 2010	 Washington DC 	Clear	25	36	NNW	13	30.24	1	25	14
Sun Jan 31 18:13:26 2010	 Austin TX 	Overcast	32	87	Variable	3	30.3	28	32	29
Sun Jan 31 18:13:27 2010	 San Francisco CA 	Mostly Cloudy	48	94	ENE	5	30.06	46	48	47
Sun Jan 31 18:13:28 2010	 Oklahoma City OK 	Fog	25	100	S	6	30.27	25	25	19
Sun Jan 31 18:13:29 2010	 Nashville TN 	Clear	28	69	N/A		30.33	19	28	28
Sun Jan 31 18:13:30 2010	 Fort Worth TX 	Overcast	32	80	SSE	5	30.36	27	32	28
Sun Jan 31 18:13:31 2010	 Phoenix AZ 	Mostly Cloudy	55	59	E	3	29.94	41	55	55
Sun Jan 31 18:13:32 2010	 Portland OR 	Fog And Mist	45	100	N/A		30.03	45	45	45
Sun Jan 31 18:13:33 2010	 Chicago IL 	Partly Cloudy	25	46	W	12	30.21	7	25	15
Sun Jan 31 18:13:34 2010	 San Antonio TX 	Fog And Mist	34	87	ENE	8	30.3	30	34	28
Sun Jan 31 18:13:35 2010	 Indianapolis IN 	Clear	23	68	SW	7	30.27	14	23	16
Sun Jan 31 18:13:36 2010	 Boston MA 	Partly Cloudy	25	33	NW	13	30	N/A	25	14
Sun Jan 31 18:13:37 2010	 Jacksonville FL 	Mostly Cloudy	45	66	NE	13	30.24	34	45	39
Sun Jan 31 18:13:38 2010	 Columbus OH 	Partly Cloudy	23	58	SW	10	30.24	10	23	13
Sun Jan 31 18:13:38 2010	 Dallas TX 	Fog And Mist	32	80	S	6	30.33	27	32	27
Sun Jan 31 18:13:39 2010	 Houston TX 	Overcast	37	75	NE	8	30.3	30	37	32
Sun Jan 31 18:13:40 2010	 Seattle WA 	Overcast	46	87	N/A		30	43	46	46
Sun Jan 31 18:13:42 2010	 Milwaukee WI 	Partly Cloudy	19	53	NW	13	30.15	5	19	8
Sun Jan 31 18:13:42 2010	 Detroit MI 	Overcast	21	68	SW	15	30.12	12	21	9
Sun Jan 31 18:13:43 2010	 Philadelphia PA 	Clear	25	33	NNW	9	30.18	N/A	25	16
Sun Jan 31 18:57:22 2010	 San Jose CA 	Mostly Cloudy	48	87	N/A		30.03	45	48	48
Sun Jan 31 18:57:23 2010	 Charlotte NC 	Partly Cloudy	32	60	N/A		30.27	19	32	32
Sun Jan 31 18:57:24 2010	 San Diego CA 	Hazy	54	77	N/A		29.97	46	54	54
Sun Jan 31 18:57:25 2010	 Denver CO 	Mostly Cloudy	30	64	NNW	9	29.83	19	30	23
Sun Jan 31 18:57:25 2010	 Memphis TN 	Partly Cloudy	30	80	ENE	3	30.36	25	30	27
Sun Jan 31 18:57:27 2010	 Los Angeles CA 	Hazy	52	77	N/A		29.97	45	52	52
Sun Jan 31 18:57:27 2010	 El Paso TX 	Overcast	45	71	NNW	3	30.03	36	45	44
Sun Jan 31 18:57:28 2010	 New York City NY 	Clear	21	38	Variable	6	30.12	N/A	21	15
Sun Jan 31 18:57:30 2010	 Baltimore MD 	Fair	27	31	N/A		30.21	N/A	27	27
Sun Jan 31 18:57:31 2010	 Las Vegas NV 	Clear	50	54	N	5	30	34	50	49
Sun Jan 31 18:57:32 2010	 Washington DC 	Clear	25	36	NNW	13	30.24	1	25	14
Sun Jan 31 18:57:32 2010	 Austin TX 	Overcast	32	87	Variable	3	30.3	28	32	29
Sun Jan 31 18:57:33 2010	 San Francisco CA 	Mostly Cloudy	48	94	ENE	5	30.06	46	48	47
Sun Jan 31 18:57:34 2010	 Oklahoma City OK 	Fog	25	100	S	6	30.27	25	25	19
Sun Jan 31 18:57:35 2010	 Nashville TN 	Clear	28	69	N/A		30.33	19	28	28
Sun Jan 31 18:57:36 2010	 Fort Worth TX 	Overcast	32	80	SE	6	30.33	27	32	27
Sun Jan 31 18:57:37 2010	 Phoenix AZ 	Mostly Cloudy	55	59	E	3	29.94	41	55	55
Sun Jan 31 18:57:37 2010	 Portland OR 	Fog And Mist	46	93	E	3	30.03	45	46	46
Sun Jan 31 18:57:38 2010	 Chicago IL 	Partly Cloudy	25	46	W	12	30.21	7	25	15
Sun Jan 31 18:57:39 2010	 San Antonio TX 	Fog And Mist	34	87	ENE	8	30.3	30	34	28
Sun Jan 31 18:57:40 2010	 Indianapolis IN 	Clear	23	68	SW	7	30.27	14	23	16
Sun Jan 31 18:57:41 2010	 Boston MA 	Partly Cloudy	25	33	NW	13	30	N/A	25	14
Sun Jan 31 18:57:42 2010	 Jacksonville FL 	Mostly Cloudy	45	66	NE	13	30.24	34	45	39
Sun Jan 31 18:57:43 2010	 Columbus OH 	Partly Cloudy	23	58	SW	10	30.24	10	23	13
Sun Jan 31 18:57:44 2010	 Dallas TX 	Fog And Mist	32	80	S	6	30.33	27	32	27
Sun Jan 31 18:57:45 2010	 Houston TX 	Overcast	37	75	NE	8	30.3	30	37	32
Sun Jan 31 18:57:48 2010	 Seattle WA 	Overcast	46	87	N/A		30	43	46	46
Sun Jan 31 18:57:49 2010	 Milwaukee WI 	Partly Cloudy	19	53	NW	13	30.15	5	19	8
Sun Jan 31 18:57:49 2010	 Detroit MI 	Overcast	21	68	SW	15	30.12	12	21	9
Sun Jan 31 18:57:51 2010	 Philadelphia PA 	Clear	25	33	NNW	9	30.18	N/A	25	16
Sun Jan 31 19:42:56 2010	 San Jose CA 	Mostly Cloudy	52	77	N/A		30.06	45	52	52
Sun Jan 31 19:42:57 2010	 Charlotte NC 	Clear	36	48	ENE	7	30.21	18	36	31
Sun Jan 31 19:42:57 2010	 San Diego CA 	Hazy	57	72	NW	7	30	48	57	56
Sun Jan 31 19:42:59 2010	 Denver CO 	Mostly Cloudy	32	60	NW	6	29.83	19	32	27
Sun Jan 31 19:43:00 2010	 Memphis TN 	Partly Cloudy	32	75	E	6	30.33	25	32	27
Sun Jan 31 19:43:01 2010	 Los Angeles CA 	Hazy	57	63	N/A		30	45	57	57
Sun Jan 31 19:43:01 2010	 El Paso TX 	Mostly Cloudy	48	58	N/A		30	34	48	48
Sun Jan 31 19:43:02 2010	 New York City NY 	Clear	25	36	Variable	5	30.09	1	25	20
Sun Jan 31 19:43:03 2010	 Baltimore MD 	Fair	28	29	N/A		30.18	N/A	28	28
Sun Jan 31 19:43:05 2010	 Las Vegas NV 	Clear	52	54	N	6	30	36	52	50
Sun Jan 31 19:43:06 2010	 Washington DC 	Clear	28	34	NW	8	30.21	3	28	21
Sun Jan 31 19:43:07 2010	 Austin TX 	Overcast	32	87	N/A		30.3	28	32	32
Sun Jan 31 19:43:08 2010	 San Francisco CA 	Partly Cloudy	52	82	N/A		30.06	46	52	52
Sun Jan 31 19:43:09 2010	 Oklahoma City OK 	Fog	27	93	S	6	30.24	25	27	21
Sun Jan 31 19:43:09 2010	 Nashville TN 	Clear	32	51	N/A		30.33	16	32	32
Sun Jan 31 19:43:10 2010	 Fort Worth TX 	Overcast	34	75	SE	5	30.33	27	34	30
Sun Jan 31 19:43:11 2010	 Phoenix AZ 	Mostly Cloudy	61	45	E	6	29.94	39	61	61
Sun Jan 31 19:43:12 2010	 Portland OR 	Fog And Mist	46	93	SE	3	30.03	45	46	46
Sun Jan 31 19:43:13 2010	 Chicago IL 	Partly Cloudy	27	43	W	12	30.21	7	27	17
Sun Jan 31 19:43:15 2010	 San Antonio TX 	Fog And Mist	34	87	ENE	8	30.3	30	34	28
Sun Jan 31 19:43:15 2010	 Indianapolis IN 	Clear	25	63	SW	8	30.24	14	25	17
Sun Jan 31 19:43:16 2010	 Boston MA 	Partly Cloudy	27	33	NW	13	29.97	1	27	17
Sun Jan 31 19:43:17 2010	 Jacksonville FL 	Mostly Cloudy	45	66	NE	18	30.21	34	45	37
Sun Jan 31 19:43:18 2010	 Columbus OH 	Partly Cloudy	27	50	SSW	14	30.21	10	27	16
Sun Jan 31 19:43:19 2010	 Dallas TX 	Fog And Mist	34	81	N/A		30.3	28	34	34
Sun Jan 31 19:43:21 2010	 Houston TX 	Overcast	39	70	NE	5	30.27	30	39	36
Sun Jan 31 19:43:22 2010	 Seattle WA 	Overcast	48	87	S	3	30	45	48	47
Sun Jan 31 19:43:24 2010	 Milwaukee WI 	Partly Cloudy	23	46	W	12	30.15	5	23	13
Sun Jan 31 19:43:25 2010	 Detroit MI 	Overcast	21	68	SSW	15	30.09	12	21	9
Sun Jan 31 19:43:27 2010	 Philadelphia PA 	Partly Cloudy	25	33	W	7	30.15	N/A	25	18
Sun Jan 31 20:25:59 2010	 San Jose CA 	Partly Cloudy	54	77	N/A		30.06	46	54	54
Sun Jan 31 20:26:00 2010	 Charlotte NC 	Partly Cloudy	36	48	N/A		30.21	18	36	36
Sun Jan 31 20:26:01 2010	 San Diego CA 	Partly Cloudy	59	68	NW	8	30	48	59	58
Sun Jan 31 20:26:02 2010	 Denver CO 	Mostly Cloudy	36	52	NNW	9	29.83	19	36	29
Sun Jan 31 20:26:03 2010	 Memphis TN 	Partly Cloudy	34	70	N/A		30.33	25	34	34
Sun Jan 31 20:26:04 2010	 Los Angeles CA 	Clear	63	52	N/A		29.97	45	63	63
Sun Jan 31 20:26:05 2010	 El Paso TX 	Mostly Cloudy	52	50	N/A		29.97	34	52	52
Sun Jan 31 20:26:06 2010	 New York City NY 	Fair	27	33	W	7	30.09	1	27	20
Sun Jan 31 20:26:07 2010	 Baltimore MD 	Fair	30	29	N/A		30.18	1	30	30
Sun Jan 31 20:26:08 2010	 Las Vegas NV 	Clear	54	51	S	6	30	36	54	52
Sun Jan 31 20:26:09 2010	 Washington DC 	Clear	30	31	Variable	6	30.18	3	30	25
Sun Jan 31 20:26:10 2010	 Austin TX 	Overcast	34	81	N/A		30.27	28	34	34
Sun Jan 31 20:26:11 2010	 San Francisco CA 	Mostly Cloudy	52	82	N/A		30.06	46	52	52
Sun Jan 31 20:26:12 2010	 Oklahoma City OK 	Fog And Mist	27	93	SSE	6	30.21	25	27	21
Sun Jan 31 20:26:13 2010	 Nashville TN 	Clear	34	51	N/A		30.3	18	34	34
Sun Jan 31 20:26:14 2010	 Fort Worth TX 	Overcast	34	75	SE	6	30.3	27	34	29
Sun Jan 31 20:26:15 2010	 Phoenix AZ 	Mostly Cloudy	63	42	NNE	5	29.94	39	63	63
Sun Jan 31 20:26:16 2010	 Portland OR 	Overcast	48	87	N/A		30.03	45	48	48
Sun Jan 31 20:26:16 2010	 Chicago IL 	Partly Cloudy	28	40	W	14	30.18	7	28	18
Sun Jan 31 20:26:17 2010	 San Antonio TX 	Hazy	36	81	E	3	30.24	30	36	33
Sun Jan 31 20:26:18 2010	 Indianapolis IN 	Clear	27	59	SSW	9	30.24	14	27	18
Sun Jan 31 20:26:19 2010	 Boston MA 	Partly Cloudy	27	33	NW	9	29.97	1	27	18
Sun Jan 31 20:26:20 2010	 Jacksonville FL 	Mostly Cloudy	45	66	NNE	16	30.21	34	45	38
Sun Jan 31 20:26:21 2010	 Columbus OH 	Partly Cloudy	28	47	SSW	10	30.18	10	28	20
Sun Jan 31 20:26:22 2010	 Dallas TX 	Fog And Mist	34	81	SSE	7	30.27	28	34	28
Sun Jan 31 20:26:23 2010	 Houston TX 	Overcast	39	70	N/A		30.27	30	39	39
Sun Jan 31 20:26:25 2010	 Seattle WA 	Mostly Cloudy	48	87	SSE	3	30	45	48	47
Sun Jan 31 20:26:26 2010	 Milwaukee WI 	Partly Cloudy	25	42	W	12	30.12	5	25	15
Sun Jan 31 20:26:27 2010	 Detroit MI 	Overcast	23	63	SSW	15	30.09	12	23	11
Sun Jan 31 20:26:28 2010	 Philadelphia PA 	Clear	28	31	N/A		30.15	1	28	28
Sun Jan 31 21:10:05 2010	 San Jose CA 	Partly Cloudy	57	63	N/A		30.03	45	57	57
Sun Jan 31 21:10:05 2010	 Charlotte NC 	Partly Cloudy	37	38	N/A		30.21	14	37	37
Sun Jan 31 21:10:08 2010	 San Diego CA 	Partly Cloudy	61	63	WNW	10	29.97	48	61	60
Sun Jan 31 21:10:10 2010	 Denver CO 	Mostly Cloudy	39	45	N	8	29.8	19	39	34
Sun Jan 31 21:10:11 2010	 Memphis TN 	Partly Cloudy	36	70	N/A		30.3	27	36	36
Sun Jan 31 21:10:12 2010	 Los Angeles CA 	Clear	64	46	N/A		29.94	43	64	64
Sun Jan 31 21:10:12 2010	 El Paso TX 	Mostly Cloudy	54	47	Variable	3	29.94	34	54	54
Sun Jan 31 21:10:14 2010	 New York City NY 	Clear	28	31	Variable	7	30.09	1	28	22
Sun Jan 31 21:10:14 2010	 Baltimore MD 	Fair	30	31	N/A		30.18	3	30	30
Sun Jan 31 21:10:16 2010	 Las Vegas NV 	Clear	54	51	N/A		29.97	36	54	54
Sun Jan 31 21:10:16 2010	 Washington DC 	Clear	30	31	N/A		30.18	3	30	30
Sun Jan 31 21:10:17 2010	 Austin TX 	Overcast	34	81	N/A		30.24	28	34	34
Sun Jan 31 21:10:18 2010	 San Francisco CA 	Mostly Cloudy	52	82	SSW	7	30.03	46	52	50
Sun Jan 31 21:10:19 2010	 Oklahoma City OK 	Fog And Mist	27	93	SSE	6	30.18	25	27	21
Sun Jan 31 21:10:20 2010	 Nashville TN 	Clear	36	48	N/A		30.3	18	36	36
Sun Jan 31 21:10:21 2010	 Fort Worth TX 	Overcast	34	75	E	5	30.27	27	34	30
Sun Jan 31 21:10:22 2010	 Phoenix AZ 	Partly Cloudy	64	40	N/A		29.88	39	64	64
Sun Jan 31 21:10:23 2010	 Portland OR 	Mostly Cloudy	48	87	ENE	5	30.03	45	48	47
Sun Jan 31 21:10:24 2010	 Chicago IL 	Partly Cloudy	28	37	SSW	16	30.18	5	28	17
Sun Jan 31 21:10:25 2010	 San Antonio TX 	Hazy	36	81	ENE	3	30.21	30	36	33
Sun Jan 31 21:10:26 2010	 Indianapolis IN 	Clear	28	59	SSW	9	30.21	16	28	20
Sun Jan 31 21:10:27 2010	 Boston MA 	Partly Cloudy	28	31	NW	13	29.97	1	28	19
Sun Jan 31 21:10:28 2010	 Jacksonville FL 	Mostly Cloudy	45	66	NE	16	30.21	34	45	38
Sun Jan 31 21:10:29 2010	 Columbus OH 	Partly Cloudy	30	43	SSW	13	30.18	10	30	21
Sun Jan 31 21:10:29 2010	 Dallas TX 	Fog And Mist	36	75	ENE	7	30.24	28	36	31
Sun Jan 31 21:10:31 2010	 Houston TX 	Overcast	39	70	N/A		30.24	30	39	39
Sun Jan 31 21:10:32 2010	 Seattle WA 	Overcast	48	87	S	6	30	45	48	46
Sun Jan 31 21:10:33 2010	 Milwaukee WI 	Overcast	25	39	WNW	15	30.15	3	25	13
Sun Jan 31 21:10:34 2010	 Detroit MI 	Overcast	25	63	SSW	13	30.06	14	25	14
Sun Jan 31 21:10:35 2010	 Philadelphia PA 	Clear	30	31	SSW	10	30.12	3	30	22
Sun Jan 31 21:53:31 2010	 San Jose CA 	Partly Cloudy	57	63	N/A		30.03	45	57	57
Sun Jan 31 21:53:32 2010	 Charlotte NC 	Partly Cloudy	37	38	N/A		30.21	14	37	37
Sun Jan 31 21:53:33 2010	 San Diego CA 	Partly Cloudy	61	63	WNW	10	29.97	48	61	60
Sun Jan 31 21:53:34 2010	 Denver CO 	Mostly Cloudy	39	45	N	8	29.8	19	39	34
Sun Jan 31 21:53:35 2010	 Memphis TN 	Partly Cloudy	36	70	N/A		30.3	27	36	36
Sun Jan 31 21:53:36 2010	 Los Angeles CA 	Clear	64	46	N/A		29.94	43	64	64
Sun Jan 31 21:53:37 2010	 El Paso TX 	Mostly Cloudy	54	47	Variable	3	29.94	34	54	54
Sun Jan 31 21:53:38 2010	 New York City NY 	Clear	28	31	Variable	7	30.09	1	28	22
Sun Jan 31 21:53:39 2010	 Baltimore MD 	Fair	30	31	N/A		30.18	3	30	30
Sun Jan 31 21:53:40 2010	 Las Vegas NV 	Clear	54	51	N/A		29.97	36	54	54
Sun Jan 31 21:53:41 2010	 Washington DC 	Clear	30	31	N/A		30.18	3	30	30
Sun Jan 31 21:53:41 2010	 Austin TX 	Overcast	34	81	ESE	3	30.24	28	34	31
Sun Jan 31 21:53:43 2010	 San Francisco CA 	Mostly Cloudy	52	82	SSW	7	30.03	46	52	50
Sun Jan 31 21:53:44 2010	 Oklahoma City OK 	Fog And Mist	27	93	SSE	6	30.18	25	27	21
Sun Jan 31 21:53:44 2010	 Nashville TN 	Clear	36	48	N/A		30.3	18	36	36
Sun Jan 31 21:53:45 2010	 Fort Worth TX 	Overcast	34	75	E	5	30.27	27	34	30
Sun Jan 31 21:53:46 2010	 Phoenix AZ 	Partly Cloudy	64	40	N/A		29.88	39	64	64
Sun Jan 31 21:53:47 2010	 Portland OR 	Mostly Cloudy	48	87	ENE	5	30.03	45	48	47
Sun Jan 31 21:53:48 2010	 Chicago IL 	Partly Cloudy	28	37	SSW	16	30.18	5	28	17
Sun Jan 31 21:53:49 2010	 San Antonio TX 	Hazy	36	81	ENE	3	30.21	30	36	33
Sun Jan 31 21:53:50 2010	 Indianapolis IN 	Clear	28	59	SSW	9	30.21	16	28	20
Sun Jan 31 21:53:51 2010	 Boston MA 	Partly Cloudy	28	31	NW	13	29.97	1	28	19
Sun Jan 31 21:53:52 2010	 Jacksonville FL 	Mostly Cloudy	45	66	NE	16	30.21	34	45	38
Sun Jan 31 21:53:53 2010	 Columbus OH 	Partly Cloudy	30	43	SSW	13	30.18	10	30	21
Sun Jan 31 21:53:53 2010	 Dallas TX 	Fog And Mist	36	75	ENE	7	30.24	28	36	31
Sun Jan 31 21:53:54 2010	 Houston TX 	Overcast	39	70	N/A		30.24	30	39	39
Sun Jan 31 21:53:56 2010	 Seattle WA 	Overcast	48	87	S	6	30	45	48	46
Sun Jan 31 21:53:57 2010	 Milwaukee WI 	Overcast	25	39	WNW	15	30.15	3	25	13
Sun Jan 31 21:53:58 2010	 Detroit MI 	Overcast	25	63	SSW	13	30.06	14	25	14
Sun Jan 31 21:53:59 2010	 Philadelphia PA 	Clear	30	31	SSW	10	30.12	3	30	22
Sun Jan 31 22:38:14 2010	 San Jose CA 	Mostly Cloudy	57	67	NW	3	30	46	57	57
Sun Jan 31 22:38:15 2010	 Charlotte NC 	Partly Cloudy	39	33	N/A		30.21	12	39	39
Sun Jan 31 22:38:16 2010	 San Diego CA 	Partly Cloudy	61	63	WNW	13	29.94	48	61	59
Sun Jan 31 22:38:17 2010	 Denver CO 	Mostly Cloudy	39	48	NNW	8	29.8	21	39	34
Sun Jan 31 22:38:17 2010	 Memphis TN 	Partly Cloudy	37	65	NNE	5	30.3	27	37	34
Sun Jan 31 22:38:18 2010	 Los Angeles CA 	Hazy	64	49	N/A		29.91	45	64	64
Sun Jan 31 22:38:19 2010	 El Paso TX 	Mostly Cloudy	55	41	SSW	3	29.91	32	55	55
Sun Jan 31 22:38:21 2010	 New York City NY 	Clear	30	29	W	7	30.09	1	30	24
Sun Jan 31 22:38:21 2010	 Baltimore MD 	Fair	30	34	N/A		30.18	5	30	30
Sun Jan 31 22:38:22 2010	 Las Vegas NV 	Clear	55	44	N/A		29.94	34	55	55
Sun Jan 31 22:38:24 2010	 Washington DC 	Clear	34	29	NW	8	30.18	5	34	28
Sun Jan 31 22:38:25 2010	 Austin TX 	Hazy	34	81	Variable	3	30.21	28	34	31
Sun Jan 31 22:38:26 2010	 San Francisco CA 	Mostly Cloudy	52	82	W	6	30	46	52	50
Sun Jan 31 22:38:27 2010	 Oklahoma City OK 	Fog And Mist	27	93	Variable	5	30.18	25	27	22
Sun Jan 31 22:38:28 2010	 Nashville TN 	Clear	37	45	N/A		30.3	18	37	37
Sun Jan 31 22:38:29 2010	 Fort Worth TX 	Overcast	34	75	E	5	30.27	27	34	30
Sun Jan 31 22:38:30 2010	 Phoenix AZ 	Partly Cloudy	66	37	N/A		29.88	39	66	66
Sun Jan 31 22:38:31 2010	 Portland OR 	Overcast	52	77	S	3	30	45	52	52
Sun Jan 31 22:38:31 2010	 Chicago IL 	Mostly Cloudy	28	43	W	16	30.21	9	28	17
Sun Jan 31 22:38:32 2010	 San Antonio TX 	Overcast	37	75	ENE	7	30.18	30	37	33
Sun Jan 31 22:38:34 2010	 Indianapolis IN 	Clear	28	55	SSW	13	30.24	14	28	19
Sun Jan 31 22:38:34 2010	 Boston MA 	Partly Cloudy	28	31	NW	12	29.97	1	28	19
Sun Jan 31 22:38:35 2010	 Jacksonville FL 	Mostly Cloudy	45	66	NE	12	30.21	34	45	39
Sun Jan 31 22:38:37 2010	 Columbus OH 	Clear	30	43	W	14	30.18	10	30	21
Sun Jan 31 22:38:37 2010	 Dallas TX 	Fog And Mist	37	70	E	7	30.21	28	37	33
Sun Jan 31 22:38:38 2010	 Houston TX 	Overcast	39	70	N/A		30.24	30	39	39
Sun Jan 31 22:38:40 2010	 Seattle WA 	Overcast	48	82	SSE	6	29.97	43	48	46
Sun Jan 31 22:38:41 2010	 Milwaukee WI 	Partly Cloudy	25	42	NW	14	30.18	5	25	14
Sun Jan 31 22:38:42 2010	 Detroit MI 	Overcast	27	59	SSW	13	30.06	14	27	17
Sun Jan 31 22:38:43 2010	 Philadelphia PA 	Clear	30	37	SSW	14	30.12	7	30	21
Sun Jan 31 23:21:12 2010	 San Jose CA 	Mostly Cloudy	61	59	NW	5	29.97	46	61	61
Sun Jan 31 23:21:12 2010	 Charlotte NC 	Partly Cloudy	37	48	S	3	30.21	19	37	35
Sun Jan 31 23:21:14 2010	 San Diego CA 	Partly Cloudy	61	63	W	10	29.94	48	61	60
Sun Jan 31 23:21:15 2010	 Denver CO 	Mostly Cloudy	39	48	N	10	29.8	21	39	33
Sun Jan 31 23:21:16 2010	 Memphis TN 	Partly Cloudy	37	65	Variable	3	30.3	27	37	35
Sun Jan 31 23:21:16 2010	 Los Angeles CA 	Clear	66	52	W	5	29.91	48	66	66
Sun Jan 31 23:21:18 2010	 El Paso TX 	Mostly Cloudy	57	41	N/A		29.91	34	57	57
Sun Jan 31 23:21:19 2010	 New York City NY 	Clear	28	31	SSW	8	30.09	1	28	21
Sun Jan 31 23:21:20 2010	 Baltimore MD 	Fair	30	34	N/A		30.15	5	30	30
Sun Jan 31 23:21:20 2010	 Las Vegas NV 	Clear	57	39	N/A		29.94	32	57	57
Sun Jan 31 23:21:22 2010	 Washington DC 	Clear	34	27	W	5	30.18	3	34	30
Sun Jan 31 23:21:22 2010	 Austin TX 	Hazy	36	81	E	3	30.21	30	36	33
Sun Jan 31 23:21:23 2010	 San Francisco CA 	Mostly Cloudy	54	77	NW	6	30	46	54	52
Sun Jan 31 23:21:24 2010	 Oklahoma City OK 	Fog And Mist	28	86	Variable	5	30.18	25	28	24
Sun Jan 31 23:21:25 2010	 Nashville TN 	Partly Cloudy	36	48	N/A		30.3	18	36	36
Sun Jan 31 23:21:26 2010	 Fort Worth TX 	Overcast	36	70	ESE	3	30.27	27	36	33
Sun Jan 31 23:21:27 2010	 Phoenix AZ 	Partly Cloudy	66	37	N/A		29.85	39	66	66
Sun Jan 31 23:21:28 2010	 Portland OR 	Mostly Cloudy	52	77	E	6	29.97	45	52	50
Sun Jan 31 23:21:29 2010	 Chicago IL 	Mostly Cloudy	28	51	W	15	30.21	12	28	18
Sun Jan 31 23:21:30 2010	 San Antonio TX 	Hazy	37	75	NE	9	30.18	30	37	31
Sun Jan 31 23:21:31 2010	 Indianapolis IN 	Partly Cloudy	28	51	SSW	10	30.24	12	28	20
Sun Jan 31 23:21:32 2010	 Boston MA 	Partly Cloudy	28	31	WNW	10	30	1	28	20
Sun Jan 31 23:21:33 2010	 Jacksonville FL 	Mostly Cloudy	45	71	NE	15	30.24	36	45	38
Sun Jan 31 23:21:34 2010	 Columbus OH 	Clear	30	40	W	16	30.18	9	30	20
Sun Jan 31 23:21:35 2010	 Dallas TX 	Overcast	37	70	N/A		30.21	28	37	37
Sun Jan 31 23:21:36 2010	 Houston TX 	Overcast	43	66	N/A		30.21	32	43	43
Sun Jan 31 23:21:37 2010	 Seattle WA 	Overcast	50	76	SW	5	29.97	43	50	49
Sun Jan 31 23:21:38 2010	 Milwaukee WI 	Mostly Cloudy	25	42	NW	13	30.21	5	25	14
Sun Jan 31 23:21:39 2010	 Detroit MI 	Partly Cloudy	27	54	SSW	16	30.06	12	27	15
Sun Jan 31 23:21:40 2010	 Philadelphia PA 	Clear	28	37	SSW	12	30.15	5	28	19
Thu Feb  4 00:06:50 2010	 San Jose CA 	Partly Cloudy	63	52	NW	5	29.8	45	63	63
Thu Feb  4 00:06:52 2010	 Charlotte NC 	Clear	52	47	Variable	3	30.15	32	52	52
Thu Feb  4 00:06:52 2010	 San Diego CA 	Partly Cloudy	63	64	NW	7	29.77	50	63	63
Thu Feb  4 00:06:54 2010	 Denver CO 	Overcast	46	27	SE	16	29.83	14	46	40
Thu Feb  4 00:06:55 2010	 Memphis TN 	Overcast	46	50	ENE	10	30.21	28	46	42
Thu Feb  4 00:06:56 2010	 Los Angeles CA 	Clear	68	40	N/A		29.71	43	68	68
Thu Feb  4 00:06:57 2010	 El Paso TX 	Light Rain	43	93	NNE	14	29.68	41	43	36
Thu Feb  4 00:06:59 2010	 New York City NY 	Overcast	36	60	WNW	7	30.03	23	36	31
Thu Feb  4 00:07:00 2010	 Baltimore MD 	Fair	41	57	N/A		30.12	27	41	41
Thu Feb  4 00:07:01 2010	 Las Vegas NV 	Clear	61	34	SE	6	29.71	32	61	61
Thu Feb  4 00:07:02 2010	 Washington DC 	Overcast	41	61	NW	8	30.15	28	41	36
Thu Feb  4 00:07:03 2010	 Austin TX 	Light Rain	46	93	E	8	29.91	45	46	43
Thu Feb  4 00:07:04 2010	 San Francisco CA 	Partly Cloudy	57	72	SSW	6	29.83	48	57	57
Thu Feb  4 00:07:05 2010	 Oklahoma City OK 	Hazy	37	81	E	10	30.09	32	37	31
Thu Feb  4 00:07:07 2010	 Nashville TN 	Partly Cloudy	45	49	NNE	7	30.24	27	45	41
Thu Feb  4 00:07:08 2010	 Fort Worth TX 	Light Rain	45	81	E	6	30.12	39	45	42
Thu Feb  4 00:07:09 2010	 Phoenix AZ 	Mostly Cloudy	70	31	SSE	8	29.59	37	70	70
Thu Feb  4 00:07:10 2010	 Portland OR 	Light Rain	46	87	SE	13	29.71	43	46	41
Thu Feb  4 00:07:11 2010	 Chicago IL 	Mostly Cloudy	30	69	E	7	30.3	21	30	24
Thu Feb  4 00:07:12 2010	 San Antonio TX 	Light Rain	52	88	NE	10	29.88	48	52	49
Thu Feb  4 00:07:13 2010	 Indianapolis IN 	Overcast	28	74	N	3	30.3	21	28	25
Thu Feb  4 00:07:14 2010	 Boston MA 	Overcast	32	60	NNW	8	29.97	19	32	26
Thu Feb  4 00:07:15 2010	 Jacksonville FL 	Mostly Cloudy	54	67	ENE	6	30.15	43	54	52
Thu Feb  4 00:07:16 2010	 Columbus OH 	Overcast	34	60	W	8	30.24	21	34	28
Thu Feb  4 00:07:17 2010	 Dallas TX 	Light Rain	45	81	ENE	5	30.06	39	45	43
Thu Feb  4 00:07:18 2010	 Houston TX 	Overcast	52	77	E	20	29.94	45	52	46
Thu Feb  4 00:07:19 2010	 Seattle WA 	Light Rain	46	93	N/A		29.71	45	46	46
Thu Feb  4 00:07:20 2010	 Milwaukee WI 	Partly Cloudy	28	64	ENE	6	30.3	18	28	23
Thu Feb  4 00:07:20 2010	 Detroit MI 	Overcast	32	69	NW	7	30.24	23	32	26
Thu Feb  4 00:07:22 2010	 Philadelphia PA 	Mostly Cloudy	37	65	WNW	13	30.09	27	37	30
Thu Feb  4 00:51:15 2010	 San Jose CA 	Mostly Cloudy	63	52	Variable	5	29.77	45	63	63
Thu Feb  4 00:51:16 2010	 Charlotte NC 	Partly Cloudy	46	57	N/A		30.15	32	46	46
Thu Feb  4 00:51:17 2010	 San Diego CA 	Partly Cloudy	61	72	SSE	9	29.77	52	61	60
Thu Feb  4 00:51:18 2010	 Denver CO 	Overcast	45	29	SE	14	29.83	14	45	38
Thu Feb  4 00:51:19 2010	 Memphis TN 	Overcast	45	53	N	9	30.24	28	45	40
Thu Feb  4 00:51:20 2010	 Los Angeles CA 	Clear	68	46	Variable	3	29.71	46	68	68
Thu Feb  4 00:51:21 2010	 El Paso TX 	Overcast	45	87	N	14	29.68	41	45	38
Thu Feb  4 00:51:23 2010	 New York City NY 	Overcast	36	56	WNW	8	30.06	21	36	30
Thu Feb  4 00:51:23 2010	 Baltimore MD 	Fair	41	57	N/A		30.15	27	41	41
Thu Feb  4 00:51:25 2010	 Las Vegas NV 	Clear	61	34	SSE	7	29.71	32	61	60
Thu Feb  4 00:51:25 2010	 Washington DC 	Mostly Cloudy	39	65	NW	8	30.18	28	39	34
Thu Feb  4 00:51:26 2010	 Austin TX 	Light Rain	46	93	Variable	6	29.91	45	46	44
Thu Feb  4 00:51:28 2010	 San Francisco CA 	Mostly Cloudy	57	72	W	7	29.8	48	57	56
Thu Feb  4 00:51:28 2010	 Oklahoma City OK 	Hazy	37	81	E	8	30.09	32	37	32
Thu Feb  4 00:51:30 2010	 Nashville TN 	Partly Cloudy	43	53	NE	8	30.24	27	43	38
Thu Feb  4 00:51:30 2010	 Fort Worth TX 	Light Rain	45	81	ENE	7	30.12	39	45	41
Thu Feb  4 00:51:31 2010	 Phoenix AZ 	Mostly Cloudy	70	33	SSE	8	29.62	39	70	70
Thu Feb  4 00:51:32 2010	 Portland OR 	Mostly Cloudy	46	87	ESE	15	29.71	43	46	40
Thu Feb  4 00:51:33 2010	 Chicago IL 	Overcast	28	74	E	6	30.33	21	28	23
Thu Feb  4 00:51:34 2010	 San Antonio TX 	Light Rain	52	88	ENE	9	29.88	48	52	49
Thu Feb  4 00:51:35 2010	 Indianapolis IN 	Partly Cloudy	28	74	N/A		30.3	21	28	28
Thu Feb  4 00:51:36 2010	 Boston MA 	Overcast	32	60	NNW	7	30	19	32	26
Thu Feb  4 00:51:37 2010	 Jacksonville FL 	Mostly Cloudy	54	72	NE	7	30.18	45	54	52
Thu Feb  4 00:51:38 2010	 Columbus OH 	Overcast	34	65	W	7	30.27	23	34	28
Thu Feb  4 00:51:39 2010	 Dallas TX 	Light Rain	45	81	E	7	30.09	39	45	41
Thu Feb  4 00:51:40 2010	 Houston TX 	Light Rain	52	82	E	14	29.97	46	52	48
Thu Feb  4 00:51:41 2010	 Seattle WA 	Light Rain	48	87	NE	5	29.71	45	48	47
Thu Feb  4 00:51:42 2010	 Milwaukee WI 	Partly Cloudy	27	64	N/A		30.33	16	27	27
Thu Feb  4 00:51:43 2010	 Detroit MI 	Overcast	32	69	NW	6	30.27	23	32	27
Thu Feb  4 00:51:44 2010	 Philadelphia PA 	Mostly Cloudy	37	70	WNW	6	30.12	28	37	33
Thu Feb  4 01:34:06 2010	 San Jose CA 	Mostly Cloudy	57	67	NW	12	29.8	46	57	55
Thu Feb  4 01:34:07 2010	 Charlotte NC 	Partly Cloudy	46	57	ENE	5	30.18	32	46	45
Thu Feb  4 01:34:09 2010	 San Diego CA 	Partly Cloudy	61	72	SW	9	29.77	52	61	60
Thu Feb  4 01:34:10 2010	 Denver CO 	Overcast	43	34	SSE	9	29.85	16	43	38
Thu Feb  4 01:34:11 2010	 Memphis TN 	Overcast	43	57	NE	10	30.27	28	43	37
Thu Feb  4 01:34:12 2010	 Los Angeles CA 	Clear	66	46	N/A		29.74	45	66	66
Thu Feb  4 01:34:13 2010	 El Paso TX 	Mostly Cloudy	45	87	NNW	9	29.71	41	45	40
Thu Feb  4 01:34:14 2010	 New York City NY 	Clear	36	56	WNW	8	30.09	21	36	30
Thu Feb  4 01:34:15 2010	 Baltimore MD 	Fair	39	56	N/A		30.18	25	39	39
Thu Feb  4 01:34:20 2010	 Las Vegas NV 	Clear	61	31	N/A		29.71	30	61	61
Thu Feb  4 01:34:21 2010	 Washington DC 	Mostly Cloudy	39	61	WNW	7	30.21	27	39	35
Thu Feb  4 01:34:22 2010	 Austin TX 	Overcast	46	93	Variable	7	29.91	45	46	43
Thu Feb  4 01:34:24 2010	 San Francisco CA 	Mostly Cloudy	57	77	NW	12	29.83	50	57	55
Thu Feb  4 01:34:25 2010	 Oklahoma City OK 	Hazy	37	81	ENE	7	30.09	32	37	33
Thu Feb  4 01:34:26 2010	 Nashville TN 	Partly Cloudy	37	65	NNE	7	30.27	27	37	33
Thu Feb  4 01:34:28 2010	 Fort Worth TX 	Light Rain	45	81	ENE	9	30.09	39	45	40
Thu Feb  4 01:34:29 2010	 Phoenix AZ 	Mostly Cloudy	70	33	S	7	29.62	39	70	70
Thu Feb  4 01:34:30 2010	 Portland OR 	Overcast	46	87	ESE	17	29.71	43	46	40
Thu Feb  4 01:34:31 2010	 Chicago IL 	Overcast	28	74	E	3	30.36	21	28	25
Thu Feb  4 01:34:32 2010	 San Antonio TX 	Light Rain	52	88	E	17	29.8	48	52	47
Thu Feb  4 01:34:33 2010	 Indianapolis IN 	Partly Cloudy	27	74	N/A		30.33	19	27	27
Thu Feb  4 01:34:34 2010	 Boston MA 	Overcast	32	55	NW	8	30	18	32	26
Thu Feb  4 01:34:35 2010	 Jacksonville FL 	Mostly Cloudy	52	77	NE	6	30.18	45	52	50
Thu Feb  4 01:34:36 2010	 Columbus OH 	Overcast	32	75	W	6	30.3	25	32	27
Thu Feb  4 01:34:37 2010	 Dallas TX 	Fog And Mist	45	81	E	8	30.09	39	45	41
Thu Feb  4 01:34:38 2010	 Houston TX 	Light Rain	52	82	ENE	15	29.94	46	52	47
Thu Feb  4 01:34:39 2010	 Seattle WA 	Mostly Cloudy	50	76	N/A		29.71	43	50	50
Thu Feb  4 01:34:40 2010	 Milwaukee WI 	Partly Cloudy	25	69	N/A		30.33	16	25	25
Thu Feb  4 01:34:41 2010	 Detroit MI 	Partly Cloudy	30	69	NNW	5	30.3	21	30	26
Thu Feb  4 01:34:42 2010	 Philadelphia PA 	Overcast	39	61	W	10	30.15	27	39	33
Thu Feb  4 02:21:21 2010	 San Jose CA 	Mostly Cloudy	57	72	NW	13	29.83	48	57	55
Thu Feb  4 02:21:22 2010	 Charlotte NC 	Clear	45	61	N/A		30.21	32	45	45
Thu Feb  4 02:21:23 2010	 San Diego CA 	Partly Cloudy	61	72	SW	8	29.8	52	61	60
Thu Feb  4 02:21:23 2010	 Denver CO 	Overcast	39	39	SE	14	29.85	16	39	32
Thu Feb  4 02:21:25 2010	 Memphis TN 	Overcast	43	57	NE	13	30.27	28	43	37
Thu Feb  4 02:21:25 2010	 Los Angeles CA 	Clear	63	56	N/A		29.74	46	63	63
Thu Feb  4 02:21:27 2010	 El Paso TX 	Light Rain	45	87	N	10	29.74	41	45	40
Thu Feb  4 02:21:28 2010	 New York City NY 	Clear	34	60	Variable	5	30.12	21	34	30
Thu Feb  4 02:21:28 2010	 Baltimore MD 	Fair	39	61	N/A		30.18	27	39	39
Thu Feb  4 02:21:30 2010	 Las Vegas NV 	Clear	59	39	SSE	6	29.71	34	59	59
Thu Feb  4 02:21:30 2010	 Washington DC 	Overcast	39	61	SSW	6	30.24	27	39	35
Thu Feb  4 02:21:31 2010	 Austin TX 	Fog And Mist	46	93	ENE	10	29.88	45	46	42
Thu Feb  4 02:21:32 2010	 San Francisco CA 	Overcast	55	82	NW	6	29.83	50	55	55
Thu Feb  4 02:21:33 2010	 Oklahoma City OK 	Fog And Mist	36	87	E	8	30.12	32	36	30
Thu Feb  4 02:21:35 2010	 Nashville TN 	Partly Cloudy	37	65	NNE	6	30.3	27	37	33
Thu Feb  4 02:21:35 2010	 Fort Worth TX 	Fog And Mist	43	87	E	8	30.09	39	43	38
Thu Feb  4 02:21:36 2010	 Phoenix AZ 	Mostly Cloudy	68	35	S	6	29.65	39	68	68
Thu Feb  4 02:21:37 2010	 Portland OR 	Light Rain	45	87	ESE	18	29.71	41	45	37
Thu Feb  4 02:21:38 2010	 Chicago IL 	Overcast	30	69	SE	5	30.36	21	30	26
Thu Feb  4 02:21:40 2010	 San Antonio TX 	Overcast	52	88	ENE	10	29.85	48	52	49
Thu Feb  4 02:21:41 2010	 Indianapolis IN 	Clear	27	74	NNW	3	30.36	19	27	23
Thu Feb  4 02:21:42 2010	 Boston MA 	Overcast	32	55	NW	8	30	18	32	26
Thu Feb  4 02:21:43 2010	 Jacksonville FL 	Partly Cloudy	52	77	NNE	7	30.18	45	52	50
Thu Feb  4 02:21:44 2010	 Columbus OH 	Overcast	34	70	NW	5	30.33	25	34	30
Thu Feb  4 02:21:44 2010	 Dallas TX 	Light Rain	45	76	E	10	30.06	37	45	40
Thu Feb  4 02:21:45 2010	 Houston TX 	Light Rain	52	82	E	20	29.97	46	52	46
Thu Feb  4 02:21:46 2010	 Seattle WA 	Mostly Cloudy	50	76	ENE	3	29.71	43	50	50
Thu Feb  4 02:21:47 2010	 Milwaukee WI 	Partly Cloudy	25	74	S	3	30.36	18	25	21
Thu Feb  4 02:21:48 2010	 Detroit MI 	Overcast	30	69	NW	6	30.33	21	30	25
Thu Feb  4 02:21:50 2010	 Philadelphia PA 	Mostly Cloudy	37	65	NW	7	30.15	27	37	33
Thu Feb  4 03:05:09 2010	 San Jose CA 	Mostly Cloudy	57	72	NW	13	29.83	48	57	55
Thu Feb  4 03:05:10 2010	 Charlotte NC 	Clear	45	61	N/A		30.21	32	45	45
Thu Feb  4 03:05:11 2010	 San Diego CA 	Partly Cloudy	61	72	SW	8	29.8	52	61	60
Thu Feb  4 03:05:12 2010	 Denver CO 	Overcast	39	39	SE	14	29.85	16	39	32
Thu Feb  4 03:05:13 2010	 Memphis TN 	Overcast	43	57	NE	13	30.27	28	43	37
Thu Feb  4 03:05:14 2010	 Los Angeles CA 	Clear	63	56	N/A		29.74	46	63	63
Thu Feb  4 03:05:15 2010	 El Paso TX 	Overcast	45	87	N	12	29.74	41	45	39
Thu Feb  4 03:05:17 2010	 New York City NY 	Clear	34	60	Variable	5	30.12	21	34	30
Thu Feb  4 03:05:18 2010	 Baltimore MD 	Fair	39	61	N/A		30.18	27	39	39
Thu Feb  4 03:05:19 2010	 Las Vegas NV 	Clear	59	39	SSE	6	29.71	34	59	59
Thu Feb  4 03:05:20 2010	 Washington DC 	Overcast	39	61	SSW	6	30.24	27	39	35
Thu Feb  4 03:05:22 2010	 Austin TX 	Fog And Mist	46	93	ENE	10	29.88	45	46	42
Thu Feb  4 03:05:24 2010	 San Francisco CA 	Overcast	55	82	NW	6	29.83	50	55	55
Thu Feb  4 03:05:25 2010	 Oklahoma City OK 	Fog And Mist	36	87	E	8	30.12	32	36	30
Thu Feb  4 03:05:26 2010	 Nashville TN 	Partly Cloudy	37	65	NNE	6	30.3	27	37	33
Thu Feb  4 03:05:28 2010	 Fort Worth TX 	Fog And Mist	43	87	E	8	30.09	39	43	38
Thu Feb  4 03:05:28 2010	 Phoenix AZ 	Mostly Cloudy	68	35	S	6	29.65	39	68	68
Thu Feb  4 03:05:30 2010	 Portland OR 	Light Rain	45	87	ESE	18	29.71	41	45	37
Thu Feb  4 03:05:31 2010	 Chicago IL 	Overcast	30	69	SE	5	30.36	21	30	26
Thu Feb  4 03:05:32 2010	 San Antonio TX 	Overcast	52	88	ENE	10	29.85	48	52	49
Thu Feb  4 03:05:33 2010	 Indianapolis IN 	Clear	27	74	NNW	3	30.36	19	27	23
Thu Feb  4 03:05:34 2010	 Boston MA 	Overcast	32	55	NW	8	30	18	32	26
Thu Feb  4 03:05:35 2010	 Jacksonville FL 	Partly Cloudy	52	77	NNE	7	30.18	45	52	50
Thu Feb  4 03:05:36 2010	 Columbus OH 	Overcast	32	69	NNW	7	30.36	23	32	26
Thu Feb  4 03:05:37 2010	 Dallas TX 	Light Rain	45	76	E	10	30.06	37	45	40
Thu Feb  4 03:05:38 2010	 Houston TX 	Light Rain	52	82	E	20	29.97	46	52	46
Thu Feb  4 03:05:39 2010	 Seattle WA 	Mostly Cloudy	50	76	ENE	3	29.71	43	50	50
Thu Feb  4 03:05:40 2010	 Milwaukee WI 	Partly Cloudy	25	74	S	3	30.36	18	25	21
Thu Feb  4 03:05:41 2010	 Detroit MI 	Overcast	30	69	NW	6	30.33	21	30	25
Thu Feb  4 03:05:42 2010	 Philadelphia PA 	Mostly Cloudy	37	65	NW	7	30.15	27	37	33
Thu Feb  4 03:49:44 2010	 San Jose CA 	Overcast	55	82	NW	9	29.83	50	55	53
Thu Feb  4 03:49:45 2010	 Charlotte NC 	Clear	45	57	E	5	30.24	30	45	43
Thu Feb  4 03:49:46 2010	 San Diego CA 	Partly Cloudy	59	77	SW	6	29.8	52	59	59
Thu Feb  4 03:49:47 2010	 Denver CO 	Overcast	39	39	SSE	12	29.85	16	39	33
Thu Feb  4 03:49:48 2010	 Memphis TN 	Overcast	39	70	NNE	5	30.27	30	39	36
Thu Feb  4 03:49:49 2010	 Los Angeles CA 	Clear	63	56	N/A		29.77	46	63	63
Thu Feb  4 03:49:50 2010	 El Paso TX 	Overcast	45	93	N	8	29.74	43	45	41
Thu Feb  4 03:49:52 2010	 New York City NY 	Clear	34	56	Variable	7	30.15	19	34	28
Thu Feb  4 03:49:52 2010	 Baltimore MD 	Fair	37	65	N/A		30.21	27	37	37
Thu Feb  4 03:49:53 2010	 Las Vegas NV 	Clear	57	41	E	3	29.74	34	57	57
Thu Feb  4 03:49:54 2010	 Washington DC 	Partly Cloudy	37	65	NNW	6	30.24	27	37	33
Thu Feb  4 03:49:55 2010	 Austin TX 	Fog And Mist	48	94	Variable	5	29.94	46	48	47
Thu Feb  4 03:49:56 2010	 San Francisco CA 	Overcast	54	88	W	3	29.85	50	54	54
Thu Feb  4 03:49:57 2010	 Oklahoma City OK 	Light Rain	36	87	E	9	30.12	32	36	29
Thu Feb  4 03:49:58 2010	 Nashville TN 	Clear	37	65	N	6	30.33	27	37	33
Thu Feb  4 03:49:59 2010	 Fort Worth TX 	Light Rain	43	81	ENE	6	30.12	37	43	40
Thu Feb  4 03:50:00 2010	 Phoenix AZ 	Overcast	66	43	NE	8	29.68	43	66	66
Thu Feb  4 03:50:01 2010	 Portland OR 	Mostly Cloudy	45	81	SE	14	29.74	39	45	38
Thu Feb  4 03:50:02 2010	 Chicago IL 	Overcast	28	74	SE	5	30.36	21	28	24
Thu Feb  4 03:50:03 2010	 San Antonio TX 	Light Rain	52	94	ENE	15	29.85	50	52	47
Thu Feb  4 03:50:04 2010	 Indianapolis IN 	Hazy	25	80	N	5	30.36	19	25	20
Thu Feb  4 03:50:05 2010	 Boston MA 	Overcast	32	60	NW	8	30.03	19	32	26
Thu Feb  4 03:50:06 2010	 Jacksonville FL 	Partly Cloudy	52	77	N	8	30.21	45	52	49
Thu Feb  4 03:50:07 2010	 Columbus OH 	Overcast	32	75	NNW	7	30.36	25	32	26
Thu Feb  4 03:50:08 2010	 Dallas TX 	Light Rain	45	76	E	12	30.09	37	45	39
Thu Feb  4 03:50:09 2010	 Houston TX 	Rain	52	82	ENE	14	29.97	46	52	48
Thu Feb  4 03:50:10 2010	 Seattle WA 	Overcast	48	87	W	6	29.71	45	48	46
Thu Feb  4 03:50:13 2010	 Milwaukee WI 	Partly Cloudy	25	69	S	5	30.36	16	25	20
Thu Feb  4 03:50:14 2010	 Detroit MI 	Clear	28	74	WNW	3	30.33	21	28	25
Thu Feb  4 03:50:15 2010	 Philadelphia PA 	Mostly Cloudy	37	60	WNW	8	30.18	25	37	32
Thu Feb  4 04:32:53 2010	 San Jose CA 	Overcast	55	77	NW	6	29.83	48	55	55
Thu Feb  4 04:32:55 2010	 Charlotte NC 	Clear	41	70	NNE	5	30.27	32	41	38
Thu Feb  4 04:32:55 2010	 San Diego CA 	Mostly Cloudy	57	82	SW	6	29.85	52	57	57
Thu Feb  4 04:32:57 2010	 Denver CO 	Overcast	39	42	SSE	12	29.83	18	39	33
Thu Feb  4 04:32:58 2010	 Memphis TN 	Overcast	39	65	NE	12	30.24	28	39	33
Thu Feb  4 04:32:58 2010	 Los Angeles CA 	Clear	61	77	N/A		29.8	54	61	61
Thu Feb  4 04:33:00 2010	 El Paso TX 	Light Rain	45	93	N	3	29.77	43	45	44
Thu Feb  4 04:33:01 2010	 New York City NY 	Clear	34	56	Variable	6	30.15	19	34	29
Thu Feb  4 04:33:02 2010	 Baltimore MD 	Fair	37	65	N/A		30.24	27	37	37
Thu Feb  4 04:33:03 2010	 Las Vegas NV 	Clear	54	51	WNW	5	29.74	36	54	53
Thu Feb  4 04:33:03 2010	 Washington DC 	Mostly Cloudy	37	65	NW	7	30.27	27	37	33
Thu Feb  4 04:33:04 2010	 Austin TX 	Fog And Mist	48	94	Variable	3	29.94	46	48	47
Thu Feb  4 04:33:05 2010	 San Francisco CA 	Overcast	55	82	W	5	29.85	50	55	55
Thu Feb  4 04:33:06 2010	 Oklahoma City OK 	Light Rain	36	93	ENE	7	30.12	34	36	31
Thu Feb  4 04:33:07 2010	 Nashville TN 	Clear	34	75	NE	7	30.3	27	34	28
Thu Feb  4 04:33:08 2010	 Fort Worth TX 	Overcast	43	81	E	10	30.09	37	43	37
Thu Feb  4 04:33:09 2010	 Phoenix AZ 	Overcast	63	59	N/A		29.68	48	63	63
Thu Feb  4 04:33:10 2010	 Portland OR 	Mostly Cloudy	45	87	SE	12	29.74	41	45	39
Thu Feb  4 04:33:11 2010	 Chicago IL 	Overcast	30	69	S	5	30.39	21	30	26
Thu Feb  4 04:33:12 2010	 San Antonio TX 	Light Rain	52	94	ENE	14	29.85	50	52	48
Thu Feb  4 04:33:13 2010	 Indianapolis IN 	Hazy	27	80	N	6	30.36	21	27	21
Thu Feb  4 04:33:15 2010	 Boston MA 	Partly Cloudy	30	59	NW	10	30.03	18	30	22
Thu Feb  4 04:33:16 2010	 Jacksonville FL 	Mostly Cloudy	50	82	N	13	30.21	45	50	46
Thu Feb  4 04:33:17 2010	 Columbus OH 	Overcast	32	75	NW	5	30.36	25	32	28
Thu Feb  4 04:33:18 2010	 Dallas TX 	Overcast	45	76	E	14	30.06	37	45	38
Thu Feb  4 04:33:20 2010	 Houston TX 	Rain	50	88	E	18	29.94	46	50	44
Thu Feb  4 04:33:21 2010	 Seattle WA 	Light Rain	46	93	SE	3	29.74	45	46	46
Thu Feb  4 04:33:22 2010	 Milwaukee WI 	Partly Cloudy	25	74	N/A		30.39	18	25	25
Thu Feb  4 04:33:23 2010	 Detroit MI 	Partly Cloudy	28	74	N/A		30.36	21	28	28
Thu Feb  4 04:33:24 2010	 Philadelphia PA 	Partly Cloudy	36	60	W	8	30.21	23	36	30
Thu Feb  4 05:15:51 2010	 San Jose CA 	Overcast	55	77	NW	6	29.83	48	55	55
Thu Feb  4 05:15:52 2010	 Charlotte NC 	Clear	39	65	NE	9	30.27	28	39	33
Thu Feb  4 05:15:53 2010	 San Diego CA 	Mostly Cloudy	57	82	N/A		29.88	52	57	57
Thu Feb  4 05:15:54 2010	 Denver CO 	Overcast	37	48	S	7	29.83	19	37	33
Thu Feb  4 05:16:00 2010	 Memphis TN 	Overcast	39	65	NE	12	30.24	28	39	33
Thu Feb  4 05:16:01 2010	 Los Angeles CA 	Clear	59	77	N/A		29.83	52	59	59
Thu Feb  4 05:16:02 2010	 El Paso TX 	Overcast	45	87	N/A		29.8	41	45	45
Thu Feb  4 05:16:08 2010	 New York City NY 	Clear	32	60	WNW	12	30.18	19	32	24
Thu Feb  4 05:16:09 2010	 Baltimore MD 	Fair	36	70	N/A		30.24	27	36	36
Thu Feb  4 05:16:10 2010	 Las Vegas NV 	Clear	50	58	NW	7	29.77	36	50	48
Thu Feb  4 05:16:11 2010	 Washington DC 	Overcast	37	65	W	6	30.27	27	37	33
Thu Feb  4 05:16:12 2010	 Austin TX 	Light Rain	46	100	Variable	3	29.94	46	46	46
Thu Feb  4 05:16:14 2010	 San Francisco CA 	Overcast	54	88	N/A		29.85	50	54	54
Thu Feb  4 05:16:15 2010	 Oklahoma City OK 	Fog And Mist	36	93	NE	10	30.09	34	36	29
Thu Feb  4 05:16:17 2010	 Nashville TN 	Partly Cloudy	34	75	NE	6	30.3	27	34	29
Thu Feb  4 05:16:19 2010	 Fort Worth TX 	Light Rain	43	81	E	12	30.09	37	43	37
Thu Feb  4 05:16:20 2010	 Phoenix AZ 	Mostly Cloudy	61	72	SE	8	29.68	52	61	60
Thu Feb  4 05:16:21 2010	 Portland OR 	Overcast	45	87	SE	12	29.74	41	45	39
Thu Feb  4 05:16:21 2010	 Chicago IL 	Overcast	30	64	N/A		30.39	19	30	30
Thu Feb  4 05:16:22 2010	 San Antonio TX 	Light Rain	52	94	NE	10	29.88	50	52	49
Thu Feb  4 05:16:23 2010	 Indianapolis IN 	Hazy	27	80	NE	7	30.36	21	27	20
Thu Feb  4 05:16:24 2010	 Boston MA 	Clear	30	59	NW	13	30.03	18	30	21
Thu Feb  4 05:16:25 2010	 Jacksonville FL 	Mostly Cloudy	50	82	N	12	30.21	45	50	46
Thu Feb  4 05:16:26 2010	 Columbus OH 	Hazy	30	80	N/A		30.36	25	30	30
Thu Feb  4 05:16:27 2010	 Dallas TX 	Light Rain	45	76	E	16	30.09	37	45	38
Thu Feb  4 05:16:28 2010	 Houston TX 	Rain	50	88	E	14	29.97	46	50	45
Thu Feb  4 05:16:29 2010	 Seattle WA 	Overcast	46	93	E	3	29.74	45	46	46
Thu Feb  4 05:16:30 2010	 Milwaukee WI 	Partly Cloudy	21	86	SW	3	30.39	18	21	17
Thu Feb  4 05:16:31 2010	 Detroit MI 	Overcast	28	74	NW	3	30.36	21	28	25
Thu Feb  4 05:16:32 2010	 Philadelphia PA 	Partly Cloudy	34	60	W	7	30.21	21	34	28
Thu Feb  4 05:59:18 2010	 San Jose CA 	Overcast	55	77	NW	6	29.83	48	55	55
Thu Feb  4 05:59:19 2010	 Charlotte NC 	Clear	39	65	NE	9	30.27	28	39	33
Thu Feb  4 05:59:21 2010	 San Diego CA 	Mostly Cloudy	57	82	N/A		29.88	52	57	57
Thu Feb  4 05:59:22 2010	 Denver CO 	Overcast	37	48	S	7	29.83	19	37	33
Thu Feb  4 05:59:23 2010	 Memphis TN 	Overcast	39	65	NE	12	30.24	28	39	33
Thu Feb  4 05:59:24 2010	 Los Angeles CA 	Clear	59	77	N/A		29.83	52	59	59
Thu Feb  4 05:59:25 2010	 El Paso TX 	Light Rain	45	87	N/A		29.8	41	45	45
Thu Feb  4 05:59:26 2010	 New York City NY 	Clear	32	60	WNW	12	30.18	19	32	24
Thu Feb  4 05:59:27 2010	 Baltimore MD 	Fair	36	70	N/A		30.24	27	36	36
Thu Feb  4 05:59:28 2010	 Las Vegas NV 	Clear	50	58	NW	7	29.77	36	50	48
Thu Feb  4 05:59:29 2010	 Washington DC 	Overcast	37	65	W	6	30.27	27	37	33
Thu Feb  4 05:59:30 2010	 Austin TX 	Rain	46	100	Variable	3	29.94	46	46	46
Thu Feb  4 05:59:31 2010	 San Francisco CA 	Overcast	54	88	N/A		29.85	50	54	54
Thu Feb  4 05:59:32 2010	 Oklahoma City OK 	Fog And Mist	36	93	NE	12	30.09	34	36	28
Thu Feb  4 05:59:33 2010	 Nashville TN 	Partly Cloudy	34	75	NE	6	30.3	27	34	29
Thu Feb  4 05:59:34 2010	 Fort Worth TX 	Overcast	43	81	E	12	30.06	37	43	37
Thu Feb  4 05:59:35 2010	 Phoenix AZ 	Mostly Cloudy	61	72	SE	8	29.68	52	61	60
Thu Feb  4 05:59:36 2010	 Portland OR 	Overcast	45	87	SE	12	29.74	41	45	39
Thu Feb  4 05:59:37 2010	 Chicago IL 	Overcast	30	64	N/A		30.39	19	30	30
Thu Feb  4 05:59:37 2010	 San Antonio TX 	Light Rain	52	94	NE	8	29.88	50	52	49
Thu Feb  4 05:59:39 2010	 Indianapolis IN 	Hazy	27	80	NE	7	30.36	21	27	20
Thu Feb  4 05:59:39 2010	 Boston MA 	Clear	30	59	NW	13	30.03	18	30	21
Thu Feb  4 05:59:41 2010	 Jacksonville FL 	Mostly Cloudy	50	82	N	12	30.21	45	50	46
Thu Feb  4 05:59:42 2010	 Columbus OH 	Hazy	30	80	N/A		30.36	25	30	30
Thu Feb  4 05:59:43 2010	 Dallas TX 	Light Rain	45	76	E	16	30.09	37	45	38
Thu Feb  4 05:59:44 2010	 Houston TX 	Rain	50	88	E	14	29.97	46	50	45
Thu Feb  4 05:59:45 2010	 Seattle WA 	Overcast	46	93	E	3	29.74	45	46	46
Thu Feb  4 05:59:45 2010	 Milwaukee WI 	Partly Cloudy	21	86	SW	3	30.39	18	21	17
Thu Feb  4 05:59:46 2010	 Detroit MI 	Overcast	28	74	NW	3	30.36	21	28	25
Thu Feb  4 05:59:47 2010	 Philadelphia PA 	Partly Cloudy	34	60	W	7	30.21	21	34	28
Thu Feb  4 06:42:20 2010	 San Jose CA 	Overcast	54	82	NW	3	29.83	48	54	54
Thu Feb  4 06:42:21 2010	 Charlotte NC 	Partly Cloudy	36	70	NE	9	30.27	27	36	29
Thu Feb  4 06:42:22 2010	 San Diego CA 	Partly Cloudy	57	82	SE	3	29.91	52	57	57
Thu Feb  4 06:42:22 2010	 Denver CO 	Overcast	37	48	S	10	29.8	19	37	31
Thu Feb  4 06:42:23 2010	 Memphis TN 	Overcast	39	65	ENE	10	30.24	28	39	33
Thu Feb  4 06:42:24 2010	 Los Angeles CA 	Clear	57	82	N/A		29.83	52	57	57
Thu Feb  4 06:42:25 2010	 El Paso TX 	Overcast	45	87	N/A		29.8	41	45	45
Thu Feb  4 06:42:27 2010	 New York City NY 	Clear	30	64	W	7	30.18	19	30	24
Thu Feb  4 06:42:28 2010	 Baltimore MD 	Fair	36	65	N/A		30.24	25	36	36
Thu Feb  4 06:42:29 2010	 Las Vegas NV 	Clear	50	58	NW	3	29.77	36	50	50
Thu Feb  4 06:42:30 2010	 Washington DC 	Partly Cloudy	37	60	NW	7	30.27	25	37	33
Thu Feb  4 06:42:31 2010	 Austin TX 	Light Rain	46	100	Variable	5	29.94	46	46	45
Thu Feb  4 06:42:32 2010	 San Francisco CA 	Mostly Cloudy	54	82	N/A		29.83	48	54	54
Thu Feb  4 06:42:33 2010	 Oklahoma City OK 	Fog And Mist	36	93	NE	9	30.09	34	36	29
Thu Feb  4 06:42:34 2010	 Nashville TN 	Mostly Cloudy	34	75	NE	7	30.27	27	34	28
Thu Feb  4 06:42:35 2010	 Fort Worth TX 	Light Rain	43	81	E	13	30.06	37	43	37
Thu Feb  4 06:42:36 2010	 Phoenix AZ 	Mostly Cloudy	61	63	SSE	10	29.71	48	61	60
Thu Feb  4 06:42:36 2010	 Portland OR 	Overcast	45	87	ESE	17	29.77	41	45	38
Thu Feb  4 06:42:38 2010	 Chicago IL 	Mostly Cloudy	28	69	N/A		30.39	19	28	28
Thu Feb  4 06:42:38 2010	 San Antonio TX 	Light Rain	52	94	NE	12	29.88	50	52	48
Thu Feb  4 06:42:40 2010	 Indianapolis IN 	Partly Cloudy	27	80	ENE	6	30.36	21	27	21
Thu Feb  4 06:42:40 2010	 Boston MA 	Clear	28	64	NW	10	30.03	18	28	20
Thu Feb  4 06:42:41 2010	 Jacksonville FL 	Partly Cloudy	48	87	NE	8	30.21	45	48	45
Thu Feb  4 06:42:42 2010	 Columbus OH 	Hazy	28	86	N/A		30.36	25	28	28
Thu Feb  4 06:42:43 2010	 Dallas TX 	Overcast	43	81	E	16	30.03	37	43	36
Thu Feb  4 06:42:45 2010	 Houston TX 	Rain	50	88	ENE	13	29.97	46	50	46
Thu Feb  4 06:42:46 2010	 Seattle WA 	Overcast	46	93	N/A		29.74	45	46	46
Thu Feb  4 06:42:46 2010	 Milwaukee WI 	Fog And Mist	18	86	N/A		30.36	14	18	18
Thu Feb  4 06:42:47 2010	 Detroit MI 	Clear	27	74	WNW	3	30.39	19	27	23
Thu Feb  4 06:42:48 2010	 Philadelphia PA 	Overcast	34	60	SSW	8	30.21	21	34	28
Thu Feb  4 07:25:49 2010	 San Jose CA 	Partly Cloudy	54	82	N/A		29.83	48	54	54
Thu Feb  4 07:25:50 2010	 Charlotte NC 	Partly Cloudy	36	70	NE	10	30.27	27	36	29
Thu Feb  4 07:25:51 2010	 San Diego CA 	Mostly Cloudy	57	82	E	3	29.91	52	57	57
Thu Feb  4 07:25:52 2010	 Denver CO 	Showers	37	48	SSE	8	29.8	19	37	32
Thu Feb  4 07:25:54 2010	 Memphis TN 	Overcast	39	65	NE	8	30.24	28	39	34
Thu Feb  4 07:25:55 2010	 Los Angeles CA 	Clear	57	82	E	5	29.85	52	57	57
Thu Feb  4 07:25:56 2010	 El Paso TX 	Overcast	45	87	SW	5	29.8	41	45	43
Thu Feb  4 07:25:57 2010	 New York City NY 	Clear	30	64	W	8	30.18	19	30	23
Thu Feb  4 07:25:58 2010	 Baltimore MD 	Fair	36	56	N/A		30.27	21	36	36
Thu Feb  4 07:25:59 2010	 Las Vegas NV 	Clear	52	41	N	9	29.77	28	52	49
Thu Feb  4 07:26:00 2010	 Washington DC 	Partly Cloudy	36	56	NW	9	30.3	21	36	29
Thu Feb  4 07:26:01 2010	 Austin TX 	Light Rain	46	100	Variable	5	29.91	46	46	45
Thu Feb  4 07:26:03 2010	 San Francisco CA 	Partly Cloudy	54	82	N/A		29.85	48	54	54
Thu Feb  4 07:26:03 2010	 Oklahoma City OK 	Light Rain	36	93	NE	6	30.09	34	36	31
Thu Feb  4 07:26:05 2010	 Nashville TN 	Overcast	34	75	NE	6	30.27	27	34	29
Thu Feb  4 07:26:06 2010	 Fort Worth TX 	Overcast	43	81	E	13	30.03	37	43	37
Thu Feb  4 07:26:06 2010	 Phoenix AZ 	Partly Cloudy	57	67	SE	9	29.74	46	57	55
Thu Feb  4 07:26:07 2010	 Portland OR 	Overcast	45	87	SE	12	29.77	41	45	39
Thu Feb  4 07:26:08 2010	 Chicago IL 	Hazy	27	74	SSE	5	30.36	19	27	22
Thu Feb  4 07:26:09 2010	 San Antonio TX 	Light Rain	50	94	NE	10	29.85	48	50	46
Thu Feb  4 07:26:10 2010	 Indianapolis IN 	Mostly Cloudy	25	86	NE	3	30.33	21	25	21
Thu Feb  4 07:26:11 2010	 Boston MA 	Clear	28	64	NW	12	30.06	18	28	19
Thu Feb  4 07:26:12 2010	 Jacksonville FL 	Partly Cloudy	48	87	NNE	9	30.18	45	48	44
Thu Feb  4 07:26:13 2010	 Columbus OH 	Fog And Mist	27	86	N/A		30.36	23	27	27
Thu Feb  4 07:26:14 2010	 Dallas TX 	Overcast	43	87	E	13	30	39	43	37
Thu Feb  4 07:26:15 2010	 Houston TX 	Heavy Rain	48	94	ENE	15	29.97	46	48	43
Thu Feb  4 07:26:16 2010	 Seattle WA 	Light Rain	46	93	SE	5	29.74	45	46	45
Thu Feb  4 07:26:17 2010	 Milwaukee WI 	Hazy	19	86	N/A		30.36	16	19	19
Thu Feb  4 07:26:17 2010	 Detroit MI 	Mostly Cloudy	27	74	NW	3	30.39	19	27	23
Thu Feb  4 07:26:18 2010	 Philadelphia PA 	Overcast	36	56	NW	6	30.24	21	36	31
Thu Feb  4 08:08:32 2010	 San Jose CA 	Partly Cloudy	52	88	N/A		29.83	48	52	52
Thu Feb  4 08:08:33 2010	 Charlotte NC 	Mostly Cloudy	36	70	NE	7	30.27	27	36	31
Thu Feb  4 08:08:34 2010	 San Diego CA 	Partly Cloudy	57	77	ESE	7	29.91	50	57	56
Thu Feb  4 08:08:35 2010	 Denver CO 	Showers	36	81	S	9	29.77	30	36	29
Thu Feb  4 08:08:36 2010	 Memphis TN 	Overcast	39	65	ENE	9	30.21	28	39	33
Thu Feb  4 08:08:37 2010	 Los Angeles CA 	Overcast	57	82	E	5	29.85	52	57	57
Thu Feb  4 08:08:38 2010	 El Paso TX 	Overcast	43	93	S	8	29.8	41	43	38
Thu Feb  4 08:08:40 2010	 New York City NY 	Clear	30	64	SSW	9	30.18	19	30	23
Thu Feb  4 08:08:41 2010	 Baltimore MD 	Fair	36	52	N/A		30.27	19	36	36
Thu Feb  4 08:08:42 2010	 Las Vegas NV 	Clear	50	43	NW	10	29.77	28	50	46
Thu Feb  4 08:08:43 2010	 Washington DC 	Partly Cloudy	36	52	NW	10	30.3	19	36	29
Thu Feb  4 08:08:43 2010	 Austin TX 	Light Rain	46	100	Variable	3	29.91	46	46	46
Thu Feb  4 08:08:44 2010	 San Francisco CA 	Mostly Cloudy	52	88	N/A		29.85	48	52	52
Thu Feb  4 08:08:46 2010	 Oklahoma City OK 	Fog And Mist	36	87	ENE	10	30.06	32	36	29
Thu Feb  4 08:08:47 2010	 Nashville TN 	Overcast	34	75	NE	3	30.27	27	34	31
Thu Feb  4 08:08:48 2010	 Fort Worth TX 	Overcast	43	81	E	10	30.03	37	43	37
Thu Feb  4 08:08:48 2010	 Phoenix AZ 	Clear	55	72	SE	10	29.74	46	55	53
Thu Feb  4 08:08:49 2010	 Portland OR 	Overcast	45	87	ESE	13	29.77	41	45	39
Thu Feb  4 08:08:50 2010	 Chicago IL 	Hazy	27	74	SSE	3	30.33	19	27	23
Thu Feb  4 08:08:51 2010	 San Antonio TX 	Light Rain	50	94	NE	12	29.83	48	50	46
Thu Feb  4 08:08:52 2010	 Indianapolis IN 	Mostly Cloudy	25	80	NE	5	30.33	19	25	20
Thu Feb  4 08:08:53 2010	 Boston MA 	Clear	27	64	NW	12	30.06	16	27	17
Thu Feb  4 08:08:54 2010	 Jacksonville FL 	Mostly Cloudy	48	94	NE	7	30.18	46	48	46
Thu Feb  4 08:08:55 2010	 Columbus OH 	Fog And Mist	27	80	N/A		30.36	21	27	27
Thu Feb  4 08:08:56 2010	 Dallas TX 	Fog And Mist	43	87	E	15	30	39	43	36
Thu Feb  4 08:08:57 2010	 Houston TX 	Light Rain	48	94	E	12	29.94	46	48	44
Thu Feb  4 08:08:58 2010	 Seattle WA 	Mostly Cloudy	46	87	N/A		29.74	43	46	46
Thu Feb  4 08:08:59 2010	 Milwaukee WI 	Fog And Mist	18	79	N/A		30.33	12	18	18
Thu Feb  4 08:09:00 2010	 Detroit MI 	Clear	25	74	NNW	3	30.36	18	25	21
Thu Feb  4 08:09:01 2010	 Philadelphia PA 	Partly Cloudy	34	51	NW	13	30.24	18	34	26
Thu Feb  4 08:52:14 2010	 San Jose CA 	Partly Cloudy	52	88	N/A		29.83	48	52	52
Thu Feb  4 08:52:15 2010	 Charlotte NC 	Mostly Cloudy	36	70	NE	7	30.27	27	36	31
Thu Feb  4 08:52:16 2010	 San Diego CA 	Partly Cloudy	57	77	ESE	7	29.91	50	57	56
Thu Feb  4 08:52:17 2010	 Denver CO 	Showers	36	81	S	9	29.77	30	36	29
Thu Feb  4 08:52:18 2010	 Memphis TN 	Overcast	39	65	ENE	9	30.21	28	39	33
Thu Feb  4 08:52:19 2010	 Los Angeles CA 	Overcast	57	82	E	6	29.85	52	57	57
Thu Feb  4 08:52:21 2010	 El Paso TX 	Light Rain	43	87	SSE	9	29.8	39	43	38
Thu Feb  4 08:52:22 2010	 New York City NY 	Clear	30	64	SSW	9	30.18	19	30	23
Thu Feb  4 08:52:24 2010	 Baltimore MD 	Fair	36	52	N/A		30.27	19	36	36
Thu Feb  4 08:52:25 2010	 Las Vegas NV 	Clear	50	43	NW	10	29.77	28	50	46
Thu Feb  4 08:52:26 2010	 Washington DC 	Partly Cloudy	36	52	NW	10	30.3	19	36	29
Thu Feb  4 08:52:26 2010	 Austin TX 	Light Rain	46	93	NE	5	29.91	45	46	45
Thu Feb  4 08:52:27 2010	 San Francisco CA 	Mostly Cloudy	52	88	N/A		29.85	48	52	52
Thu Feb  4 08:52:28 2010	 Oklahoma City OK 	Fog And Mist	36	87	ENE	10	30.06	32	36	29
Thu Feb  4 08:52:29 2010	 Nashville TN 	Overcast	34	75	NE	3	30.27	27	34	31
Thu Feb  4 08:52:31 2010	 Fort Worth TX 	Light Rain	43	81	E	10	30.03	37	43	37
Thu Feb  4 08:52:32 2010	 Phoenix AZ 	Clear	55	72	SE	10	29.74	46	55	53
Thu Feb  4 08:52:32 2010	 Portland OR 	Light Rain	45	87	SE	12	29.77	41	45	39
Thu Feb  4 08:52:33 2010	 Chicago IL 	Hazy	27	74	SSE	3	30.33	19	27	23
Thu Feb  4 08:52:34 2010	 San Antonio TX 	Light Rain	50	94	NE	12	29.83	48	50	46
Thu Feb  4 08:52:35 2010	 Indianapolis IN 	Mostly Cloudy	25	80	NE	5	30.33	19	25	20
Thu Feb  4 08:52:36 2010	 Boston MA 	Clear	27	64	NW	12	30.06	16	27	17
Thu Feb  4 08:52:38 2010	 Jacksonville FL 	Mostly Cloudy	48	94	NE	7	30.18	46	48	46
Thu Feb  4 08:52:38 2010	 Columbus OH 	Fog And Mist	25	86	NE	3	30.36	21	25	21
Thu Feb  4 08:52:39 2010	 Dallas TX 	Fog And Mist	43	87	E	15	30	39	43	36
Thu Feb  4 08:52:40 2010	 Houston TX 	Light Rain	48	94	E	12	29.94	46	48	44
Thu Feb  4 08:52:41 2010	 Seattle WA 	Mostly Cloudy	46	87	N/A		29.74	43	46	46
Thu Feb  4 08:52:42 2010	 Milwaukee WI 	Fog And Mist	18	79	N/A		30.33	12	18	18
Thu Feb  4 08:52:43 2010	 Detroit MI 	Clear	25	74	NNW	3	30.36	18	25	21
Thu Feb  4 08:52:45 2010	 Philadelphia PA 	Partly Cloudy	34	51	NW	13	30.24	18	34	26
Thu Feb  4 09:36:01 2010	 San Jose CA 	Partly Cloudy	50	94	N/A		29.83	48	50	50
Thu Feb  4 09:36:02 2010	 Charlotte NC 	Mostly Cloudy	36	65	NE	8	30.3	25	36	30
Thu Feb  4 09:36:03 2010	 San Diego CA 	Partly Cloudy	55	77	ESE	7	29.91	48	55	54
Thu Feb  4 09:36:04 2010	 Denver CO 	Showers	32	93	S	6	29.74	30	32	27
Thu Feb  4 09:36:05 2010	 Memphis TN 	Overcast	39	65	ENE	7	30.21	28	39	35
Thu Feb  4 09:36:06 2010	 Los Angeles CA 	Overcast	57	82	E	3	29.85	52	57	57
Thu Feb  4 09:36:07 2010	 El Paso TX 	Light Rain	43	87	S	5	29.8	39	43	40
Thu Feb  4 09:36:09 2010	 New York City NY 	Clear	30	59	W	9	30.21	18	30	23
Thu Feb  4 09:36:10 2010	 Baltimore MD 	Fair	34	51	N/A		30.3	18	34	34
Thu Feb  4 09:36:11 2010	 Las Vegas NV 	Clear	50	43	NNW	6	29.77	28	50	48
Thu Feb  4 09:36:11 2010	 Washington DC 	Partly Cloudy	34	56	NNW	8	30.33	19	34	28
Thu Feb  4 09:36:12 2010	 Austin TX 	Light Rain	46	93	N/A		29.88	45	46	46
Thu Feb  4 09:36:13 2010	 San Francisco CA 	Overcast	48	94	N/A		29.85	46	48	48
Thu Feb  4 09:36:14 2010	 Oklahoma City OK 	Overcast	36	87	NE	6	30.06	32	36	31
Thu Feb  4 09:36:15 2010	 Nashville TN 	Clear	34	75	NE	7	30.24	27	34	28
Thu Feb  4 09:36:16 2010	 Fort Worth TX 	Light Rain	43	87	E	8	30.03	39	43	38
Thu Feb  4 09:36:17 2010	 Phoenix AZ 	Partly Cloudy	55	77	E	7	29.77	48	55	54
Thu Feb  4 09:36:18 2010	 Portland OR 	Overcast	45	87	ESE	14	29.77	41	45	38
Thu Feb  4 09:36:19 2010	 Chicago IL 	Hazy	27	74	S	6	30.36	19	27	21
Thu Feb  4 09:36:20 2010	 San Antonio TX 	Light Rain	50	94	NE	10	29.83	48	50	46
Thu Feb  4 09:36:21 2010	 Indianapolis IN 	Overcast	25	86	ENE	5	30.36	21	25	20
Thu Feb  4 09:36:22 2010	 Boston MA 	Clear	27	64	WNW	9	30.06	16	27	18
Thu Feb  4 09:36:23 2010	 Jacksonville FL 	Overcast	50	88	NNE	6	30.15	46	50	48
Thu Feb  4 09:36:24 2010	 Columbus OH 	Fog And Mist	25	86	N/A		30.36	21	25	25
Thu Feb  4 09:36:25 2010	 Dallas TX 	Light Rain	43	87	E	15	29.97	39	43	36
Thu Feb  4 09:36:26 2010	 Houston TX 	Rain	48	94	E	12	29.91	46	48	44
Thu Feb  4 09:36:27 2010	 Seattle WA 	Overcast	45	81	N/A		29.74	39	45	45
Thu Feb  4 09:36:27 2010	 Milwaukee WI 	Hazy	16	79	N/A		30.33	10	16	16
Thu Feb  4 09:36:28 2010	 Detroit MI 	Clear	21	86	N/A		30.36	18	21	21
Thu Feb  4 09:36:30 2010	 Philadelphia PA 	Partly Cloudy	34	48	NW	14	30.27	16	34	25
Thu Feb  4 10:19:23 2010	 San Jose CA 	Partly Cloudy	52	88	S	3	29.83	48	52	52
Thu Feb  4 10:19:24 2010	 Charlotte NC 	Overcast	34	70	NE	5	30.3	25	34	30
Thu Feb  4 10:19:25 2010	 San Diego CA 	Partly Cloudy	54	82	ESE	6	29.91	48	54	52
Thu Feb  4 10:19:26 2010	 Denver CO 	Overcast	32	93	S	6	29.74	30	32	27
Thu Feb  4 10:19:27 2010	 Memphis TN 	Overcast	39	65	ENE	8	30.21	28	39	34
Thu Feb  4 10:19:28 2010	 Los Angeles CA 	Overcast	57	82	E	3	29.85	52	57	57
Thu Feb  4 10:19:29 2010	 El Paso TX 	Light Rain	43	93	S	3	29.8	41	43	41
Thu Feb  4 10:19:31 2010	 New York City NY 	Partly Cloudy	30	59	WNW	10	30.21	18	30	22
Thu Feb  4 10:19:32 2010	 Baltimore MD 	Fair	34	51	N/A		30.3	18	34	34
Thu Feb  4 10:19:33 2010	 Las Vegas NV 	Clear	48	46	NW	13	29.8	28	48	43
Thu Feb  4 10:19:34 2010	 Washington DC 	Clear	34	56	NNW	10	30.33	19	34	27
Thu Feb  4 10:19:35 2010	 Austin TX 	Light Rain	46	93	Variable	3	29.88	45	46	46
Thu Feb  4 10:19:36 2010	 San Francisco CA 	Mostly Cloudy	48	94	N/A		29.85	46	48	48
Thu Feb  4 10:19:37 2010	 Oklahoma City OK 	Light Rain	36	87	NE	9	30.06	32	36	29
Thu Feb  4 10:19:38 2010	 Nashville TN 	Clear	34	75	NE	5	30.27	27	34	30
Thu Feb  4 10:19:39 2010	 Fort Worth TX 	Light Rain	43	87	ESE	8	30	39	43	38
Thu Feb  4 10:19:40 2010	 Phoenix AZ 	Partly Cloudy	54	82	E	3	29.77	48	54	54
Thu Feb  4 10:19:41 2010	 Portland OR 	Overcast	43	93	SE	14	29.74	41	43	36
Thu Feb  4 10:19:42 2010	 Chicago IL 	Hazy	27	74	S	6	30.39	19	27	21
Thu Feb  4 10:19:43 2010	 San Antonio TX 	Overcast	50	94	NE	12	29.83	48	50	46
Thu Feb  4 10:19:44 2010	 Indianapolis IN 	Overcast	27	80	ENE	5	30.36	21	27	22
Thu Feb  4 10:19:45 2010	 Boston MA 	Clear	27	64	NW	9	30.09	16	27	18
Thu Feb  4 10:19:46 2010	 Jacksonville FL 	Overcast	52	88	NNE	8	30.18	48	52	49
Thu Feb  4 10:19:47 2010	 Columbus OH 	Fog And Mist	23	86	N/A		30.39	19	23	23
Thu Feb  4 10:19:48 2010	 Dallas TX 	Light Rain	43	87	E	14	29.97	39	43	36
Thu Feb  4 10:19:49 2010	 Houston TX 	Rain	48	94	E	17	29.88	46	48	42
Thu Feb  4 10:19:50 2010	 Seattle WA 	Light Rain	45	87	N/A		29.74	41	45	45
Thu Feb  4 10:19:51 2010	 Milwaukee WI 	Hazy	18	79	N/A		30.36	12	18	18
Thu Feb  4 10:19:52 2010	 Detroit MI 	Clear	21	86	N/A		30.39	18	21	21
Thu Feb  4 10:19:53 2010	 Philadelphia PA 	Clear	34	48	NW	8	30.27	16	34	28
Thu Feb  4 11:02:39 2010	 San Jose CA 	Partly Cloudy	52	88	S	3	29.83	48	52	52
Thu Feb  4 11:02:40 2010	 Charlotte NC 	Overcast	34	70	NE	5	30.3	25	34	30
Thu Feb  4 11:02:41 2010	 San Diego CA 	Partly Cloudy	54	82	ESE	6	29.91	48	54	52
Thu Feb  4 11:02:42 2010	 Denver CO 	Overcast	32	93	S	6	29.74	30	32	27
Thu Feb  4 11:02:43 2010	 Memphis TN 	Overcast	39	65	ENE	8	30.21	28	39	34
Thu Feb  4 11:02:45 2010	 Los Angeles CA 	Overcast	57	82	E	3	29.85	52	57	57
Thu Feb  4 11:02:46 2010	 El Paso TX 	Light Rain	43	93	S	3	29.8	41	43	41
Thu Feb  4 11:02:47 2010	 New York City NY 	Partly Cloudy	30	59	WNW	10	30.21	18	30	22
Thu Feb  4 11:02:49 2010	 Baltimore MD 	Fair	34	51	N/A		30.3	18	34	34
Thu Feb  4 11:02:49 2010	 Las Vegas NV 	Clear	48	46	NW	13	29.8	28	48	43
Thu Feb  4 11:02:50 2010	 Washington DC 	Clear	34	56	NNW	10	30.33	19	34	27
Thu Feb  4 11:02:51 2010	 Austin TX 	Light Rain	46	93	Variable	3	29.88	45	46	46
Thu Feb  4 11:05:52 2010										
Thu Feb  4 11:05:53 2010	 Oklahoma City OK 	Light Rain	36	87	NE	9	30.06	32	36	29
Thu Feb  4 11:05:54 2010	 Nashville TN 	Clear	34	75	NE	5	30.27	27	34	30
Thu Feb  4 11:05:55 2010	 Fort Worth TX 	Light Rain	43	87	ESE	8	30	39	43	38
Thu Feb  4 11:05:56 2010	 Phoenix AZ 	Partly Cloudy	54	82	E	3	29.77	48	54	54
Thu Feb  4 11:05:57 2010	 Portland OR 	Overcast	43	93	SE	14	29.74	41	43	36
Thu Feb  4 11:05:58 2010	 Chicago IL 	Hazy	27	74	S	6	30.39	19	27	21
Thu Feb  4 11:05:59 2010	 San Antonio TX 	Overcast	50	94	NE	12	29.83	48	50	46
Thu Feb  4 11:06:00 2010	 Indianapolis IN 	Overcast	27	80	ENE	5	30.36	21	27	22
Thu Feb  4 11:06:01 2010	 Boston MA 	Clear	27	64	NW	9	30.09	16	27	18
Thu Feb  4 11:06:02 2010	 Jacksonville FL 	Overcast	52	88	NNE	8	30.18	48	52	49
Thu Feb  4 11:06:03 2010	 Columbus OH 	Fog And Mist	23	86	N/A		30.39	19	23	23
Thu Feb  4 11:06:04 2010	 Dallas TX 	Light Rain	43	87	E	14	29.97	39	43	36
Thu Feb  4 11:06:06 2010	 Houston TX 	Rain	48	94	E	17	29.88	46	48	42
Thu Feb  4 11:06:06 2010	 Seattle WA 	Light Rain	45	87	N/A		29.74	41	45	45
Thu Feb  4 11:06:08 2010	 Milwaukee WI 	Hazy	18	79	N/A		30.36	12	18	18
Thu Feb  4 11:06:09 2010	 Detroit MI 	Clear	21	86	N/A		30.39	18	21	21
Thu Feb  4 11:06:10 2010	 Philadelphia PA 	Clear	34	48	NW	8	30.27	16	34	28
Thu Feb  4 11:49:15 2010	 San Jose CA 	Clear	50	88	SE	3	29.83	46	50	50
Thu Feb  4 11:49:16 2010	 Charlotte NC 	Overcast	34	70	NE	5	30.3	25	34	30
Thu Feb  4 11:49:17 2010	 San Diego CA 	Mostly Cloudy	54	82	ESE	3	29.91	48	54	54
Thu Feb  4 11:49:18 2010	 Denver CO 	Overcast	32	93	S	6	29.71	30	32	27
Thu Feb  4 11:49:21 2010	 Memphis TN 	Overcast	39	65	ENE	8	30.21	28	39	34
Thu Feb  4 11:49:22 2010	 Los Angeles CA 	Overcast	57	82	N/A		29.88	52	57	57
Thu Feb  4 11:49:23 2010	 El Paso TX 	Overcast	45	81	SSW	7	29.8	39	45	41
Thu Feb  4 11:49:24 2010	 New York City NY 	Clear	30	55	NW	16	30.21	16	30	20
Thu Feb  4 11:49:25 2010	 Baltimore MD 	Fair	34	51	N/A		30.33	18	34	34
Thu Feb  4 11:49:26 2010	 Las Vegas NV 	Clear	46	50	NW	9	29.8	28	46	42
Thu Feb  4 11:49:27 2010	 Washington DC 	Clear	32	55	NNW	10	30.36	18	32	24
Thu Feb  4 11:49:28 2010	 Austin TX 	Light Rain	46	93	NNE	5	29.85	45	46	45
Thu Feb  4 11:49:29 2010	 San Francisco CA 	Mostly Cloudy	52	88	E	7	29.83	48	52	50
Thu Feb  4 11:49:30 2010	 Oklahoma City OK 	Fog And Mist	36	87	ENE	10	30.03	32	36	29
Thu Feb  4 11:49:31 2010	 Nashville TN 	Overcast	34	75	NE	6	30.24	27	34	29
Thu Feb  4 11:49:32 2010	 Fort Worth TX 	Rain	43	81	E	7	30	37	43	39
Thu Feb  4 11:49:33 2010	 Phoenix AZ 	Partly Cloudy	54	77	ESE	7	29.77	46	54	52
Thu Feb  4 11:49:33 2010	 Portland OR 	Overcast	43	87	SE	13	29.74	39	43	37
Thu Feb  4 11:49:34 2010	 Chicago IL 	Hazy	27	74	N/A		30.36	19	27	27
Thu Feb  4 11:49:35 2010	 San Antonio TX 	Fog And Mist	50	94	NE	10	29.83	48	50	46
Thu Feb  4 11:49:36 2010	 Indianapolis IN 	Overcast	25	86	NE	6	30.33	21	25	19
Thu Feb  4 11:49:37 2010	 Boston MA 	Clear	25	69	WNW	9	30.09	16	25	16
Thu Feb  4 11:49:38 2010	 Jacksonville FL 	Overcast	54	82	NE	16	30.15	48	54	49
Thu Feb  4 11:49:39 2010	 Columbus OH 	Fog And Mist	21	93	NE	3	30.39	19	21	17
Thu Feb  4 11:49:40 2010	 Dallas TX 	Drizzle	43	87	ESE	12	29.94	39	43	37
Thu Feb  4 11:49:41 2010	 Houston TX 	Light Rain	50	94	E	18	29.83	48	50	44
Thu Feb  4 11:49:42 2010	 Seattle WA 	Overcast	45	87	N/A		29.74	41	45	45
Thu Feb  4 11:49:43 2010	 Milwaukee WI 	Fog And Mist	21	86	SSE	6	30.39	18	21	15
Thu Feb  4 11:49:44 2010	 Detroit MI 	Mostly Cloudy	19	93	N/A		30.39	18	19	19
Thu Feb  4 11:49:44 2010	 Philadelphia PA 	Partly Cloudy	32	51	WNW	8	30.3	16	32	26
Thu Feb  4 12:32:19 2010	 San Jose CA 	Clear	52	82	SE	6	29.83	46	52	50
Thu Feb  4 12:32:20 2010	 Charlotte NC 	Overcast	34	70	NE	5	30.33	25	34	34
Thu Feb  4 12:32:21 2010	 San Diego CA 	Partly Cloudy	54	82	ESE	6	29.91	48	54	52
Thu Feb  4 12:32:23 2010	 Denver CO 	Overcast	32	93	S	6	29.71	30	32	28
Thu Feb  4 12:32:23 2010	 Memphis TN 	Overcast	39	65	ENE	8	30.21	28	39	32
Thu Feb  4 12:32:24 2010	 Los Angeles CA 	Overcast	57	77	E	5	29.88	50	57	57
Thu Feb  4 12:32:25 2010	 El Paso TX 	Overcast	39	93	N/A		29.83	37	39	39
Thu Feb  4 12:32:27 2010	 New York City NY 	Partly Cloudy	30	59	WNW	10	30.21	18	30	18
Thu Feb  4 12:32:28 2010	 Baltimore MD 	Fair	32	55	N	0	30.36	18	32	32
Thu Feb  4 12:32:29 2010	 Las Vegas NV 	Clear	45	53	NW	9	29.8	28	45	37
Thu Feb  4 12:32:29 2010	 Washington DC 	Clear	32	55	N	9	30.39	18	32	21
Thu Feb  4 12:32:30 2010	 Austin TX 	Light Rain	46	93	N	5	29.88	45	46	45
Thu Feb  4 12:32:31 2010	 San Francisco CA 	Mostly Cloudy	48	94	N	0	29.85	46	48	48
Thu Feb  4 12:32:32 2010	 Oklahoma City OK 	Light Rain	36	87	NE	9	30.06	32	36	27
Thu Feb  4 12:32:33 2010	 Nashville TN 	Clear	34	75	NE	5	30.27	27	34	34
Thu Feb  4 12:32:34 2010	 Fort Worth TX 	Light Rain	41	93	ESE	10	29.97	39	41	35
Thu Feb  4 12:32:36 2010	 Phoenix AZ 	Partly Cloudy	54	82	E	3	29.77	48	54	54
Thu Feb  4 12:32:36 2010	 Portland OR 	Overcast	43	87	SE	13	29.74	39	43	30
Thu Feb  4 12:32:37 2010	 Chicago IL 	Hazy	27	74	S	6	30.39	19	27	23
Thu Feb  4 12:32:38 2010	 San Antonio TX 	Fog And Mist	50	94	NE	9	29.83	48	50	43
Thu Feb  4 12:32:39 2010	 Indianapolis IN 	Overcast	27	80	ENE	5	30.36	21	27	27
Thu Feb  4 12:32:40 2010	 Boston MA 	Clear	27	64	NW	9	30.09	16	27	16
Thu Feb  4 12:32:41 2010	 Jacksonville FL 	Overcast	52	88	NNE	8	30.18	48	52	46
Thu Feb  4 12:32:42 2010	 Columbus OH 	Fog And Mist	19	93	N/A		30.39	18	19	19
Thu Feb  4 12:32:43 2010	 Dallas TX 	Light Rain	43	87	E	14	29.97	39	43	28
Thu Feb  4 12:32:44 2010	 Houston TX 	Rain	48	94	E	17	29.88	46	48	34
Thu Feb  4 12:32:45 2010	 Seattle WA 	Mostly Cloudy	43	87	N	0	29.74	39	43	43
Thu Feb  4 12:32:46 2010	 Milwaukee WI 	Overcast	14	92	N/A		30.36	12	14	14
Thu Feb  4 12:32:47 2010	 Detroit MI 	Mostly Cloudy	19	86	N/A		30.39	16	19	19
Thu Feb  4 12:32:48 2010	 Philadelphia PA 	Partly Cloudy	30	55	WNW	9	30.33	16	30	19
Thu Feb  4 13:15:46 2010	 San Jose CA 	Clear	50	88	SE	3	29.83	46	50	50
Thu Feb  4 13:15:47 2010	 Charlotte NC 	Overcast	34	70	NE	8	30.36	25	34	28
Thu Feb  4 13:15:48 2010	 San Diego CA 	Hazy	54	77	ESE	8	29.91	46	54	51
Thu Feb  4 13:15:49 2010	 Denver CO 	Mostly Cloudy	32	87	SSE	6	29.68	28	32	27
Thu Feb  4 13:15:50 2010	 Memphis TN 	Light Rain	37	70	NE	8	30.18	28	37	32
Thu Feb  4 13:15:51 2010	 Los Angeles CA 	Overcast	57	77	ESE	3	29.88	50	57	57
Thu Feb  4 13:15:52 2010	 El Paso TX 	Overcast	45	81	Variable	5	29.8	39	45	43
Thu Feb  4 13:15:55 2010	 New York City NY 	Clear	28	51	Variable	7	30.3	12	28	22
Thu Feb  4 13:15:56 2010	 Baltimore MD 	Fair	32	55	N/A		30.39	18	32	32
Thu Feb  4 13:15:57 2010	 Las Vegas NV 	Clear	46	46	NNW	7	29.83	27	46	43
Thu Feb  4 13:15:58 2010	 Washington DC 	Partly Cloudy	32	55	NNW	12	30.39	18	32	24
Thu Feb  4 13:16:00 2010	 Austin TX 	Fog And Mist	46	93	NE	5	29.88	45	46	45
Thu Feb  4 13:16:02 2010	 San Francisco CA 	Overcast	52	88	E	6	29.83	48	52	50
Thu Feb  4 13:16:03 2010	 Oklahoma City OK 	Drizzle	36	87	E	10	30	32	36	29
Thu Feb  4 13:16:04 2010	 Nashville TN 	Overcast	34	75	ENE	7	30.24	27	34	28
Thu Feb  4 13:16:06 2010	 Fort Worth TX 	Overcast	43	81	ENE	6	30	37	43	40
Thu Feb  4 13:16:07 2010	 Phoenix AZ 	Clear	52	82	E	6	29.83	46	52	50
Thu Feb  4 13:16:08 2010	 Portland OR 	Overcast	45	81	SE	10	29.74	39	45	40
Thu Feb  4 13:16:09 2010	 Chicago IL 	Hazy	27	74	S	5	30.39	19	27	22
Thu Feb  4 13:16:10 2010	 San Antonio TX 	Overcast	50	94	NE	9	29.83	48	50	47
Thu Feb  4 13:16:11 2010	 Indianapolis IN 	Fog And Mist	27	80	ENE	3	30.36	21	27	23
Thu Feb  4 13:16:12 2010	 Boston MA 	Clear	25	69	NW	10	30.15	16	25	15
Thu Feb  4 13:16:14 2010	 Jacksonville FL 	Mostly Cloudy	55	77	NE	10	30.18	48	55	53
Thu Feb  4 13:16:15 2010	 Columbus OH 	Fog And Mist	21	93	N/A		30.39	19	21	21
Thu Feb  4 13:16:16 2010	 Dallas TX 	Light Rain	43	87	N/A		29.97	39	43	43
Thu Feb  4 13:16:17 2010	 Houston TX 	Overcast	54	82	ENE	10	29.88	48	54	51
Thu Feb  4 13:16:18 2010	 Seattle WA 	Mostly Cloudy	39	93	N/A		29.74	37	39	39
Thu Feb  4 13:16:19 2010	 Milwaukee WI 	Hazy	21	86	S	6	30.39	18	21	15
Thu Feb  4 13:16:21 2010	 Detroit MI 	Fog And Mist	19	86	N/A		30.42	16	19	19
Thu Feb  4 13:16:22 2010	 Philadelphia PA 	Clear	30	55	W	9	30.36	16	30	23
Thu Feb  4 13:59:50 2010	 San Jose CA 	Clear	50	88	SE	3	29.83	46	50	50
Thu Feb  4 13:59:51 2010	 Charlotte NC 	Overcast	34	70	NE	8	30.36	25	34	28
Thu Feb  4 13:59:52 2010	 San Diego CA 	Hazy	54	77	ESE	8	29.91	46	54	51
Thu Feb  4 13:59:53 2010	 Denver CO 	Mostly Cloudy	32	87	SSE	6	29.68	28	32	27
Thu Feb  4 13:59:54 2010	 Memphis TN 	Light Rain	37	70	NE	8	30.18	28	37	32
Thu Feb  4 13:59:54 2010	 Los Angeles CA 	Overcast	57	77	ESE	3	29.88	50	57	57
Thu Feb  4 13:59:56 2010	 El Paso TX 	Overcast	45	81	SSE	5	29.83	39	45	43
Thu Feb  4 13:59:56 2010	 New York City NY 	Clear	28	51	Variable	7	30.3	12	28	22
Thu Feb  4 13:59:57 2010	 Baltimore MD 	Fair	32	55	N/A		30.39	18	32	32
Thu Feb  4 13:59:58 2010	 Las Vegas NV 	Clear	46	46	NNW	7	29.83	27	46	43
Thu Feb  4 13:59:59 2010	 Washington DC 	Partly Cloudy	32	55	NNW	12	30.39	18	32	24
Thu Feb  4 14:00:00 2010	 Austin TX 	Fog And Mist	46	93	NE	5	29.88	45	46	45
Thu Feb  4 14:00:01 2010	 San Francisco CA 	Overcast	52	88	E	6	29.83	48	52	50
Thu Feb  4 14:00:02 2010	 Oklahoma City OK 	Drizzle	36	87	E	10	30	32	36	29
Thu Feb  4 14:00:03 2010	 Nashville TN 	Overcast	34	75	ENE	7	30.24	27	34	28
Thu Feb  4 14:00:06 2010	 Fort Worth TX 	Overcast	43	81	ENE	6	30	37	43	40
Thu Feb  4 14:00:07 2010	 Phoenix AZ 	Clear	52	82	E	6	29.83	46	52	50
Thu Feb  4 14:00:08 2010	 Portland OR 	Overcast	45	81	SE	10	29.74	39	45	40
Thu Feb  4 14:00:09 2010	 Chicago IL 	Hazy	27	74	S	5	30.39	19	27	22
Thu Feb  4 14:00:10 2010	 San Antonio TX 	Overcast	50	94	NE	9	29.83	48	50	47
Thu Feb  4 14:00:15 2010	 Indianapolis IN 	Fog And Mist	27	80	ENE	3	30.36	21	27	23
Thu Feb  4 14:00:15 2010	 Boston MA 	Clear	25	69	NW	10	30.15	16	25	15
Thu Feb  4 14:00:17 2010	 Jacksonville FL 	Mostly Cloudy	55	77	NE	10	30.18	48	55	53
Thu Feb  4 14:00:19 2010	 Columbus OH 	Fog And Mist	23	86	N/A		30.39	19	23	23
Thu Feb  4 14:00:20 2010	 Dallas TX 	Light Rain	43	87	NE	3	29.97	39	43	41
Thu Feb  4 14:00:20 2010	 Houston TX 	Overcast	54	82	ENE	10	29.88	48	54	51
Thu Feb  4 14:00:21 2010	 Seattle WA 	Mostly Cloudy	39	93	N/A		29.74	37	39	39
Thu Feb  4 14:00:24 2010	 Milwaukee WI 	Hazy	21	86	S	6	30.39	18	21	15
Thu Feb  4 14:00:25 2010	 Detroit MI 	Fog And Mist	19	86	N/A		30.42	16	19	19
Thu Feb  4 14:00:26 2010	 Philadelphia PA 	Clear	30	55	W	9	30.36	16	30	23
Thu Feb  4 14:52:37 2010	 San Jose CA 	Clear	52	88	SE	7	29.83	48	52	50
Thu Feb  4 14:52:38 2010	 Charlotte NC 	Overcast	36	65	NE	9	30.36	25	36	29
Thu Feb  4 14:52:39 2010	 San Diego CA 	Hazy	54	77	ESE	6	29.91	46	54	52
Thu Feb  4 14:52:40 2010	 Denver CO 	Mostly Cloudy	32	87	SW	5	29.68	28	32	28
Thu Feb  4 14:52:41 2010	 Memphis TN 	Light Rain	37	75	NE	7	30.21	30	37	33
Thu Feb  4 14:52:42 2010	 Los Angeles CA 	Overcast	57	72	E	5	29.88	48	57	57
Thu Feb  4 14:52:44 2010	 El Paso TX 	Overcast	45	81	N/A		29.83	39	45	45
Thu Feb  4 14:52:47 2010	 New York City NY 	Clear	28	47	WNW	9	30.33	10	28	20
Thu Feb  4 14:52:47 2010	 Baltimore MD 	Fair	32	51	N/A		30.39	16	32	32
Thu Feb  4 14:52:48 2010	 Las Vegas NV 	Clear	45	49	N	8	29.83	27	45	41
Thu Feb  4 14:52:49 2010	 Washington DC 	Partly Cloudy	32	55	NNW	8	30.42	18	32	26
Thu Feb  4 14:52:50 2010	 Austin TX 	Light Rain	46	93	NE	3	29.88	45	46	46
Thu Feb  4 14:52:51 2010	 San Francisco CA 	Overcast	52	88	SE	7	29.83	48	52	50
Thu Feb  4 14:52:52 2010	 Oklahoma City OK 	Drizzle	36	87	E	9	30	32	36	29
Thu Feb  4 14:52:53 2010	 Nashville TN 	Overcast	34	75	ENE	8	30.24	27	34	28
Thu Feb  4 14:52:54 2010	 Fort Worth TX 	Overcast	43	81	E	3	30	37	43	41
Thu Feb  4 14:52:56 2010	 Phoenix AZ 	Clear	50	82	E	5	29.83	45	50	49
Thu Feb  4 14:52:57 2010	 Portland OR 	Overcast	45	81	ESE	10	29.74	39	45	40
Thu Feb  4 14:52:58 2010	 Chicago IL 	Hazy	27	74	Variable	5	30.39	19	27	22
Thu Feb  4 14:52:58 2010	 San Antonio TX 	Overcast	52	88	NE	10	29.83	48	52	49
Thu Feb  4 14:53:00 2010	 Indianapolis IN 	Fog And Mist	27	80	E	8	30.36	21	27	19
Thu Feb  4 14:53:00 2010	 Boston MA 	Clear	27	50	NNW	13	30.18	10	27	17
Thu Feb  4 14:53:02 2010	 Jacksonville FL 	Mostly Cloudy	55	82	NE	10	30.21	50	55	53
Thu Feb  4 14:53:03 2010	 Columbus OH 	Fog And Mist	23	86	N/A		30.42	19	23	23
Thu Feb  4 14:53:04 2010	 Dallas TX 	Rain	43	87	ENE	7	29.97	39	43	39
Thu Feb  4 14:53:05 2010	 Houston TX 	Light Rain	52	82	E	16	29.85	46	52	47
Thu Feb  4 14:53:05 2010	 Seattle WA 	Mostly Cloudy	43	87	N/A		29.74	39	43	43
Thu Feb  4 14:53:06 2010	 Milwaukee WI 	Hazy	23	80	N/A		30.36	18	23	23
Thu Feb  4 14:53:07 2010	 Detroit MI 	Fog And Mist	19	86	N/A		30.42	16	19	19
Thu Feb  4 14:53:08 2010	 Philadelphia PA 	Partly Cloudy	30	51	NW	8	30.39	14	30	23
Thu Feb  4 15:37:53 2010	 San Jose CA 	Mostly Cloudy	52	88	E	10	29.77	48	52	49
Thu Feb  4 15:37:54 2010	 Charlotte NC 	Overcast	36	65	NE	10	30.39	25	36	29
Thu Feb  4 15:37:55 2010	 San Diego CA 	Hazy	54	77	ESE	3	29.94	46	54	54
Thu Feb  4 15:37:56 2010	 Denver CO 	Light Snow	32	93	NW	6	29.71	30	32	27
Thu Feb  4 15:37:57 2010	 Memphis TN 	Light Rain	37	75	ENE	12	30.18	30	37	31
Thu Feb  4 15:37:58 2010	 Los Angeles CA 	Clear	57	72	E	3	29.91	48	57	57
Thu Feb  4 15:37:59 2010	 El Paso TX 	Overcast	43	87	SSE	3	29.85	39	43	41
Thu Feb  4 15:38:01 2010	 New York City NY 	Clear	28	43	NW	14	30.36	9	28	18
Thu Feb  4 15:38:02 2010	 Baltimore MD 	Fair	34	48	N/A		30.42	16	34	34
Thu Feb  4 15:38:03 2010	 Las Vegas NV 	Clear	45	49	N/A		29.85	27	45	45
Thu Feb  4 15:38:03 2010	 Washington DC 	Partly Cloudy	34	51	NNW	12	30.45	18	34	26
Thu Feb  4 15:38:04 2010	 Austin TX 	Light Rain	46	93	NNE	5	29.88	45	46	45
Thu Feb  4 15:38:05 2010	 San Francisco CA 	Overcast	52	82	ESE	9	29.77	46	52	49
Thu Feb  4 15:38:06 2010	 Oklahoma City OK 	Drizzle	36	87	E	8	30	32	36	30
Thu Feb  4 15:38:07 2010	 Nashville TN 	Overcast	36	70	ENE	6	30.24	27	36	31
Thu Feb  4 15:38:08 2010	 Fort Worth TX 	Overcast	43	81	ENE	7	30	37	43	39
Thu Feb  4 15:38:10 2010	 Phoenix AZ 	Partly Cloudy	50	88	E	8	29.83	46	50	47
Thu Feb  4 15:38:11 2010	 Portland OR 	Overcast	43	87	E	8	29.71	39	43	38
Thu Feb  4 15:38:12 2010	 Chicago IL 	Hazy	27	80	SE	7	30.39	21	27	20
Thu Feb  4 15:38:13 2010	 San Antonio TX 	Fog And Mist	50	94	NE	10	29.83	48	50	46
Thu Feb  4 15:38:15 2010	 Indianapolis IN 	Fog And Mist	28	80	E	7	30.36	23	28	22
Thu Feb  4 15:38:16 2010	 Boston MA 	Clear	27	43	NW	17	30.21	7	27	15
Thu Feb  4 15:38:17 2010	 Jacksonville FL 	Mostly Cloudy	57	77	NE	14	30.21	50	57	54
Thu Feb  4 15:38:18 2010	 Columbus OH 	Fog And Mist	27	86	N/A		30.42	23	27	27
Thu Feb  4 15:38:19 2010	 Dallas TX 	Light Rain	43	87	Variable	7	29.97	39	43	39
Thu Feb  4 15:38:20 2010	 Houston TX 	Overcast	52	82	NE	13	29.88	46	52	48
Thu Feb  4 15:38:21 2010	 Seattle WA 	Mostly Cloudy	41	87	N/A		29.74	37	41	41
Thu Feb  4 15:38:22 2010	 Milwaukee WI 	Hazy	25	74	N/A		30.36	18	25	25
Thu Feb  4 15:38:23 2010	 Detroit MI 	Fog And Mist	21	93	N/A		30.42	19	21	21
Thu Feb  4 15:38:24 2010	 Philadelphia PA 	Partly Cloudy	32	44	NNW	13	30.39	12	32	23
Thu Jan 28 15:32:49 2010	 San Jose CA 	Fog And Mist	46	93	N/A		30.06	45	46	46
Thu Jan 28 15:32:49 2010	 Charlotte NC 	Partly Cloudy	37	70	N/A		30.24	28	37	37
Thu Jan 28 15:32:50 2010	 San Diego CA 	Clear	50	82	N/A		30	45	50	50
Thu Jan 28 15:32:51 2010	 Denver CO 	Mostly Cloudy	27	80	S	2	30.18	21	27	25
Thu Jan 28 15:32:52 2010	 Memphis TN 	Overcast	45	66	N	13	30.33	34	45	39
Thu Jan 28 15:32:53 2010	 Los Angeles CA 	Clear	52	67	E	3	29.97	41	52	52
Thu Jan 28 15:32:54 2010	 El Paso TX 	Overcast	45	93	N	3	29.88	43	45	44
Thu Jan 28 15:32:55 2010	 New York City NY 	Snow	30	93	SW	9	30.06	28	30	23
Thu Jan 28 15:32:56 2010	 Baltimore MD 	Fair	37	60	N/A		30.06	25	37	37
Thu Jan 28 15:32:57 2010	 Las Vegas NV 	Clear	46	57	N	17	30.03	32	46	40
Thu Jan 28 15:32:58 2010	 Washington DC 	Overcast	39	56	SW	12	30.09	25	39	33
Thu Jan 28 15:32:59 2010	 Austin TX 	Overcast	61	88	SE	9	30.06	57	61	60
Thu Jan 28 15:33:00 2010	 San Francisco CA 	Partly Cloudy	45	93	N/A		30.09	43	45	45
Thu Jan 28 15:33:01 2010	 Oklahoma City OK 	Freezing Rain	30	69	NE	21	30.3	21	30	18
Thu Jan 28 15:33:02 2010	 Nashville TN 	Mostly Cloudy	43	61	NNW	12	30.33	30	43	37
Thu Jan 28 15:33:03 2010	 Fort Worth TX 	Overcast	57	82	SE	6	30.15	52	57	57
Thu Jan 28 15:33:04 2010	 Phoenix AZ 	Fog And Mist	52	94	SSE	7	29.88	50	52	50
Thu Jan 28 15:33:04 2010	 Portland OR 	Overcast	46	66	ESE	12	30.09	36	46	42
Thu Jan 28 15:33:05 2010	 Chicago IL 	Partly Cloudy	9	61	NW	13	30.36	-2	9	-6
Thu Jan 28 15:33:06 2010	 San Antonio TX 	Light Rain	64	94	SE	16	30	63	64	63
Thu Jan 28 15:33:08 2010	 Indianapolis IN 	Partly Cloudy	14	73	WNW	18	30.33	7	14	-2
Thu Jan 28 15:33:09 2010	 Boston MA 	Partly Cloudy	32	60	SSW	13	30.03	19	32	23
Thu Jan 28 15:33:10 2010	 Jacksonville FL 	Partly Cloudy	46	82	N	3	30.36	41	46	46
Thu Jan 28 15:33:12 2010	 Columbus OH 	Partly Cloudy	25	63	W	21	30.18	14	25	11
Thu Jan 28 15:33:12 2010	 Dallas TX 	Light Rain	55	88	SE	15	30.15	52	55	52
Thu Jan 28 15:33:13 2010	 Houston TX 	Overcast	61	83	ESE	12	30.15	55	61	59
Thu Jan 28 15:33:14 2010	 Seattle WA 	Overcast	43	87	N/A		30.06	39	43	43
Thu Jan 28 15:33:16 2010	 Milwaukee WI 	Partly Cloudy	7	56	NW	18	30.33	-6	7	-11
Thu Jan 28 15:33:16 2010	 Detroit MI 	Light Snow	16	67	NW	16	30.12	7	16	1
Thu Jan 28 15:33:18 2010	 Philadelphia PA 	Overcast	36	65	S	8	30.06	25	36	30
Thu Jan 28 15:54:03 2010	 San Jose CA 	Fog And Mist	46	93	N/A		30.06	45	46	46
Thu Jan 28 15:54:03 2010	 Charlotte NC 	Partly Cloudy	37	70	N/A		30.24	28	37	37
Thu Jan 28 15:54:05 2010	 San Diego CA 	Clear	50	82	N/A		30	45	50	50
Thu Jan 28 15:54:06 2010	 Denver CO 	Mostly Cloudy	27	80	S	2	30.18	21	27	25
Thu Jan 28 15:54:08 2010	 Memphis TN 	Overcast	45	66	N	13	30.33	34	45	39
Thu Jan 28 15:54:09 2010	 Los Angeles CA 	Clear	52	67	E	3	29.97	41	52	52
Thu Jan 28 15:54:10 2010	 El Paso TX 	Overcast	45	93	N	3	29.88	43	45	44
Thu Jan 28 15:54:12 2010	 New York City NY 	Snow	30	93	SW	9	30.06	28	30	23
Thu Jan 28 15:54:13 2010	 Baltimore MD 	Fair	37	60	N/A		30.06	25	37	37
Thu Jan 28 15:54:13 2010	 Las Vegas NV 	Clear	46	57	N	17	30.03	32	46	40
Thu Jan 28 15:54:14 2010	 Washington DC 	Overcast	39	56	SW	12	30.09	25	39	33
Thu Jan 28 15:54:15 2010	 Austin TX 	Overcast	61	88	SE	9	30.06	57	61	60
Thu Jan 28 15:54:16 2010	 San Francisco CA 	Partly Cloudy	45	93	N/A		30.09	43	45	45
Thu Jan 28 15:54:18 2010	 Oklahoma City OK 	Freezing Rain	30	69	NE	21	30.3	21	30	18
Thu Jan 28 15:54:19 2010	 Nashville TN 	Mostly Cloudy	39	75	N	14	30.36	32	39	32
Thu Jan 28 15:54:20 2010	 Fort Worth TX 	Overcast	57	82	SE	8	30.15	52	57	56
Thu Jan 28 15:54:21 2010	 Phoenix AZ 	Fog And Mist	52	94	SSE	7	29.88	50	52	50
Thu Jan 28 15:54:22 2010	 Portland OR 	Overcast	46	66	ESE	12	30.09	36	46	42
Thu Jan 28 15:54:23 2010	 Chicago IL 	Partly Cloudy	9	61	NW	13	30.36	-2	9	-6
Thu Jan 28 15:54:24 2010	 San Antonio TX 	Light Rain	64	94	SE	16	30	63	64	63
Thu Jan 28 15:54:25 2010	 Indianapolis IN 	Partly Cloudy	14	73	WNW	18	30.33	7	14	-2
Thu Jan 28 15:54:25 2010	 Boston MA 	Partly Cloudy	32	60	SSW	13	30.03	19	32	23
Thu Jan 28 15:54:27 2010	 Jacksonville FL 	Partly Cloudy	46	82	N	3	30.36	41	46	46
Thu Jan 28 15:54:28 2010	 Columbus OH 	Partly Cloudy	25	63	W	21	30.18	14	25	11
Thu Jan 28 15:54:29 2010	 Dallas TX 	Light Rain	55	88	SE	15	30.15	52	55	52
Thu Jan 28 15:54:30 2010	 Houston TX 	Overcast	61	83	ESE	12	30.15	55	61	59
Thu Jan 28 15:54:31 2010	 Seattle WA 	Overcast	43	87	N/A		30.06	39	43	43
Thu Jan 28 15:54:32 2010	 Milwaukee WI 	Partly Cloudy	7	56	NW	18	30.33	-6	7	-11
Thu Jan 28 15:54:32 2010	 Detroit MI 	Snow	12	85	NW	14	30.15	9	12	-2
Thu Jan 28 15:54:33 2010	 Philadelphia PA 	Overcast	36	65	S	8	30.06	25	36	30
Thu Jan 28 16:42:15 2010	 San Jose CA 	Fog And Mist	45	100	S	3	30.09	45	45	44
Thu Jan 28 16:42:16 2010	 Charlotte NC 	Mostly Cloudy	39	70	N/A		30.24	30	39	39
Thu Jan 28 16:42:17 2010	 San Diego CA 	Partly Cloudy	52	77	N/A		30	45	52	52
Thu Jan 28 16:42:18 2010	 Denver CO 	Mostly Cloudy	25	86	SW	2	30.18	21	25	23
Thu Jan 28 16:42:19 2010	 Memphis TN 	Overcast	43	71	N	10	30.39	34	43	37
Thu Jan 28 16:42:20 2010	 Los Angeles CA 	Clear	52	72	N/A		30	43	52	52
Thu Jan 28 16:42:24 2010	 El Paso TX 	Overcast	45	93	N	5	29.91	43	45	43
Thu Jan 28 16:42:26 2010	 New York City NY 	Light Snow	34	93	N/A		30.03	32	34	34
Thu Jan 28 16:42:26 2010	 Baltimore MD 	Fair	39	56	N/A		30.03	25	39	39
Thu Jan 28 16:42:27 2010	 Las Vegas NV 	Clear	46	53	N	15	30.06	30	46	40
Thu Jan 28 16:42:28 2010	 Washington DC 	Overcast	39	56	SW	13	30.06	25	39	32
Thu Jan 28 16:42:29 2010	 Austin TX 	Overcast	63	88	SE	9	30.06	59	63	62
Thu Jan 28 16:42:30 2010	 San Francisco CA 	Partly Cloudy	45	93	SSE	5	30.09	43	45	43
Thu Jan 28 16:42:31 2010	 Oklahoma City OK 	Freezing Rain	30	64	NE	22	30.33	19	30	18
Thu Jan 28 16:42:32 2010	 Nashville TN 	Mostly Cloudy	39	70	NNW	17	30.36	30	39	31
Thu Jan 28 16:42:33 2010	 Fort Worth TX 	Overcast	57	82	SE	8	30.15	52	57	56
Thu Jan 28 16:42:34 2010	 Phoenix AZ 	Overcast	52	88	SSE	3	29.91	48	52	52
Thu Jan 28 16:42:34 2010	 Portland OR 	Overcast	46	66	E	15	30.06	36	46	40
Thu Jan 28 16:42:36 2010	 Chicago IL 	Partly Cloudy	9	61	NW	10	30.39	-2	9	-4
Thu Jan 28 16:42:36 2010	 San Antonio TX 	Light Rain	64	94	SE	21	30	63	64	63
Thu Jan 28 16:42:38 2010	 Indianapolis IN 	Partly Cloudy	14	73	WNW	18	30.36	7	14	-2
Thu Jan 28 16:42:39 2010	 Boston MA 	Partly Cloudy	34	56	SW	9	30	19	34	27
Thu Jan 28 16:42:40 2010	 Jacksonville FL 	Partly Cloudy	52	72	NE	3	30.36	43	52	52
Thu Jan 28 16:42:41 2010	 Columbus OH 	Partly Cloudy	23	68	NW	18	30.24	14	23	10
Thu Jan 28 16:42:42 2010	 Dallas TX 	Overcast	55	88	ESE	12	30.15	52	55	53
Thu Jan 28 16:42:43 2010	 Houston TX 	Overcast	61	83	E	13	30.15	55	61	59
Thu Jan 28 16:42:44 2010	 Seattle WA 	Overcast	43	87	N/A		30.06	39	43	43
Thu Jan 28 16:42:45 2010	 Milwaukee WI 	Partly Cloudy	7	56	NNW	18	30.36	-6	7	-11
Thu Jan 28 16:42:46 2010	 Detroit MI 	Mostly Cloudy	14	57	NW	18	30.18	1	14	-2
Thu Jan 28 16:42:47 2010	 Philadelphia PA 	Overcast	37	65	SSW	9	30.06	27	37	31
Thu Jan 28 17:07:01 2010	 San Jose CA 	Fog And Mist	45	100	S	3	30.09	45	45	44
Thu Jan 28 17:07:02 2010	 Charlotte NC 	Mostly Cloudy	39	70	N/A		30.24	30	39	39
Thu Jan 28 17:07:03 2010	 San Diego CA 	Partly Cloudy	52	77	N/A		30	45	52	52
Thu Jan 28 17:07:03 2010	 Denver CO 	Mostly Cloudy	25	86	SW	2	30.18	21	25	23
Thu Jan 28 17:07:04 2010	 Memphis TN 	Overcast	43	71	N	10	30.39	34	43	37
Thu Jan 28 17:07:05 2010	 Los Angeles CA 	Clear	52	72	N/A		30	43	52	52
Thu Jan 28 17:07:08 2010	 El Paso TX 	Light Rain	46	87	NNW	6	29.94	43	46	44
Thu Jan 28 17:07:09 2010	 New York City NY 	Overcast	36	87	N/A		30	32	36	36
Thu Jan 28 17:07:10 2010	 Baltimore MD 	Fair	39	56	N/A		30.03	25	39	39
Thu Jan 28 17:07:11 2010	 Las Vegas NV 	Clear	46	53	N	15	30.06	30	46	40
Thu Jan 28 17:07:12 2010	 Washington DC 	Overcast	39	56	SW	13	30.06	25	39	32
Thu Jan 28 17:07:13 2010	 Austin TX 	Overcast	63	88	SE	9	30.06	59	63	62
Thu Jan 28 17:07:14 2010	 San Francisco CA 	Partly Cloudy	45	93	SSE	5	30.09	43	45	43
Thu Jan 28 17:07:15 2010	 Oklahoma City OK 	Freezing Rain	30	64	NE	22	30.33	19	30	18
Thu Jan 28 17:07:18 2010	 Nashville TN 	Mostly Cloudy	39	70	NNW	17	30.36	30	39	31
Thu Jan 28 17:07:19 2010	 Fort Worth TX 	Overcast	57	82	SE	8	30.15	52	57	56
Thu Jan 28 17:07:19 2010	 Phoenix AZ 	Overcast	52	88	SSE	3	29.91	48	52	52
Thu Jan 28 17:07:21 2010	 Portland OR 	Overcast	46	66	E	15	30.06	36	46	40
Thu Jan 28 17:07:21 2010	 Chicago IL 	Partly Cloudy	9	61	NW	10	30.39	-2	9	-4
Thu Jan 28 17:07:22 2010	 San Antonio TX 	Light Rain	64	94	SE	21	30	63	64	63
Thu Jan 28 17:07:23 2010	 Indianapolis IN 	Partly Cloudy	14	73	WNW	18	30.36	7	14	-2
Thu Jan 28 17:07:24 2010	 Boston MA 	Partly Cloudy	34	56	SW	9	30	19	34	27
Thu Jan 28 17:07:25 2010	 Jacksonville FL 	Partly Cloudy	52	72	NE	3	30.36	43	52	52
Thu Jan 28 17:07:26 2010	 Columbus OH 	Partly Cloudy	23	68	NW	18	30.24	14	23	10
Thu Jan 28 17:07:27 2010	 Dallas TX 	Overcast	55	88	ESE	12	30.15	52	55	53
Thu Jan 28 17:07:28 2010	 Houston TX 	Overcast	61	83	E	13	30.15	55	61	59
Thu Jan 28 17:07:30 2010	 Seattle WA 	Overcast	43	87	N/A		30.06	39	43	43
Thu Jan 28 17:07:32 2010	 Milwaukee WI 	Partly Cloudy	7	56	NNW	18	30.36	-6	7	-11
Thu Jan 28 17:07:32 2010	 Detroit MI 	Mostly Cloudy	14	57	NW	18	30.18	1	14	-2
Thu Jan 28 17:07:33 2010	 Philadelphia PA 	Overcast	37	65	SSW	9	30.06	27	37	31
Thu Jan 28 17:23:21 2010	 San Jose CA 	Fog And Mist	45	93	SE	5	30.09	43	45	43
Thu Jan 28 17:23:22 2010	 Charlotte NC 	Mostly Cloudy	46	50	N/A		30.21	28	46	46
Thu Jan 28 17:23:23 2010	 San Diego CA 	Clear	54	77	N/A		30.03	46	54	54
Thu Jan 28 17:23:24 2010	 Denver CO 	Mostly Cloudy	28	86	NW	5	30.18	25	28	24
Thu Jan 28 17:23:25 2010	 Memphis TN 	Overcast	41	70	NE	15	30.42	32	41	34
Thu Jan 28 17:23:26 2010	 Los Angeles CA 	Clear	54	67	N/A		30	43	54	54
Thu Jan 28 17:23:27 2010	 El Paso TX 	Light Rain	45	93	NNW	12	29.94	43	45	39
Thu Jan 28 17:23:28 2010	 New York City NY 	Overcast	34	87	SSW	10	30	30	34	27
Thu Jan 28 17:23:29 2010	 Baltimore MD 	Fair	41	53	N/A		30.03	25	41	41
Thu Jan 28 17:23:30 2010	 Las Vegas NV 	Clear	46	53	N	15	30.06	30	46	40
Thu Jan 28 17:23:32 2010	 Washington DC 	Overcast	45	46	SW	14	30.03	25	45	38
Thu Jan 28 17:23:32 2010	 Austin TX 	Overcast	63	88	SE	9	30.06	59	63	62
Thu Jan 28 17:23:34 2010	 San Francisco CA 	Fog	46	93	SE	9	30.09	45	46	42
Thu Jan 28 17:23:34 2010	 Oklahoma City OK 	Freezing Rain	28	69	NE	20	30.33	19	28	16
Thu Jan 28 17:23:36 2010	 Nashville TN 	Overcast	37	75	NNW	12	30.39	30	37	31
Thu Jan 28 17:23:37 2010	 Fort Worth TX 	Overcast	57	82	SE	10	30.15	52	57	55
Thu Jan 28 17:23:38 2010	 Phoenix AZ 	Overcast	54	88	N/A		29.91	50	54	54
Thu Jan 28 17:23:39 2010	 Portland OR 	Overcast	46	66	SE	9	30.09	36	46	42
Thu Jan 28 17:23:39 2010	 Chicago IL 	Partly Cloudy	10	56	NW	16	30.42	-2	10	-5
Thu Jan 28 17:23:41 2010	 San Antonio TX 	Light Rain	64	94	SE	17	30.03	63	64	63
Thu Jan 28 17:23:41 2010	 Indianapolis IN 	Partly Cloudy	16	67	NW	16	30.39	7	16	1
Thu Jan 28 17:23:42 2010	 Boston MA 	Mostly Cloudy	36	48	SW	14	29.97	18	36	27
Thu Jan 28 17:23:44 2010	 Jacksonville FL 	Partly Cloudy	55	51	N/A		30.36	37	55	55
Thu Jan 28 17:23:44 2010	 Columbus OH 	Mostly Cloudy	79	28	WNW	14	30.27	43	79	79
Thu Jan 28 17:23:45 2010	 Dallas TX 	Overcast	55	88	E	12	30.12	52	55	53
Thu Jan 28 17:23:46 2010	 Houston TX 	Overcast	61	88	ESE	10	30.15	57	61	60
Thu Jan 28 17:23:48 2010	 Seattle WA 	Overcast	45	81	N/A		30.06	39	45	45
Thu Jan 28 17:23:49 2010	 Milwaukee WI 	Partly Cloudy	9	47	NNW	18	30.36	-8	9	-9
Thu Jan 28 17:23:50 2010	 Detroit MI 	Mostly Cloudy	14	52	NW	14	30.21	N/A	14	N/A
Thu Jan 28 17:23:51 2010	 Philadelphia PA 	Mostly Cloudy	39	61	SW	8	30	27	39	34
Tue Feb  2 00:19:43 2010	 San Jose CA 	Overcast	63	52	S	6	29.88	45	63	63
Tue Feb  2 00:19:44 2010	 Charlotte NC 	Partly Cloudy	43	49	SSE	3	30.27	25	43	41
Tue Feb  2 00:19:45 2010	 San Diego CA 	Mostly Cloudy	61	72	Variable	3	29.88	52	61	61
Tue Feb  2 00:19:46 2010	 Denver CO 	Partly Cloudy	43	26	N	9	29.88	10	43	38
Tue Feb  2 00:19:47 2010	 Memphis TN 	Overcast	45	57	S	3	30.12	30	45	44
Tue Feb  2 00:19:48 2010	 Los Angeles CA 	Clear	66	60	Variable	5	29.88	52	66	66
Tue Feb  2 00:19:49 2010	 El Paso TX 	Mostly Cloudy	61	31	W	8	29.91	30	61	60
Tue Feb  2 00:19:50 2010	 New York City NY 	Clear	34	38	Variable	3	30.24	10	34	31
Tue Feb  2 00:19:51 2010	 Baltimore MD 	Fair	34	41	N/A		30.3	12	34	34
Tue Feb  2 00:19:52 2010	 Las Vegas NV 	Clear	57	31	E	7	29.94	27	57	56
Tue Feb  2 00:19:53 2010	 Washington DC 	Mostly Cloudy	37	35	W	5	30.3	12	37	34
Tue Feb  2 00:19:54 2010	 Austin TX 	Fog And Mist	45	93	N/A		30.06	43	45	45
Tue Feb  2 00:19:55 2010	 San Francisco CA 	Overcast	55	72	NW	7	29.91	46	55	54
Tue Feb  2 00:19:57 2010	 Oklahoma City OK 	Fog And Mist	32	87	SSW	5	30	28	32	28
Tue Feb  2 00:19:58 2010	 Nashville TN 	Overcast	39	65	SE	5	30.18	28	39	36
Tue Feb  2 00:19:59 2010	 Fort Worth TX 	Overcast	45	71	SW	9	30.06	36	45	40
Tue Feb  2 00:20:00 2010	 Phoenix AZ 	Overcast	66	32	SSW	5	29.88	36	66	66
Tue Feb  2 00:23:00 2010										
Tue Feb  2 00:23:01 2010	 Chicago IL 	Hazy	30	59	SE	8	30.18	18	30	23
Tue Feb  2 00:23:02 2010	 San Antonio TX 	Fog And Mist	46	87	NE	5	30.03	43	46	45
Tue Feb  2 00:23:03 2010	 Indianapolis IN 	Mostly Cloudy	36	44	SE	7	30.18	16	36	31
Tue Feb  2 00:23:04 2010	 Boston MA 	Partly Cloudy	30	29	W	18	30.15	1	30	19
Tue Feb  2 00:23:05 2010	 Jacksonville FL 	Overcast	57	82	NE	10	30.15	52	57	55
Tue Feb  2 00:23:06 2010	 Columbus OH 	Mostly Cloudy	32	51	SSE	3	30.24	16	32	29
Tue Feb  2 00:23:07 2010	 Dallas TX 	Overcast	46	71	SSE	10	30.03	37	46	42
Tue Feb  2 00:23:08 2010	 Houston TX 	Fog And Mist	50	88	ENE	6	30.06	46	50	48
Tue Feb  2 00:23:09 2010	 Seattle WA 	Overcast	50	67	N/A		29.83	39	50	50
Tue Feb  2 00:23:10 2010	 Milwaukee WI 	Overcast	27	59	SE	6	30.21	14	27	21
Tue Feb  2 00:23:11 2010	 Detroit MI 	Overcast	27	54	SW	8	30.27	12	27	19
Tue Feb  2 00:23:13 2010	 Philadelphia PA 	Mostly Cloudy	34	41	SSW	10	30.27	12	34	27
Tue Feb  2 01:07:52 2010	 San Jose CA 	Overcast	63	52	S	6	29.88	45	63	63
Tue Feb  2 01:07:53 2010	 Charlotte NC 	Partly Cloudy	43	49	SSE	3	30.27	25	43	41
Tue Feb  2 01:07:55 2010	 San Diego CA 	Mostly Cloudy	61	72	Variable	3	29.88	52	61	61
Tue Feb  2 01:07:56 2010	 Denver CO 	Partly Cloudy	43	26	N	9	29.88	10	43	38
Tue Feb  2 01:07:57 2010	 Memphis TN 	Overcast	45	57	S	3	30.12	30	45	44
Tue Feb  2 01:07:58 2010	 Los Angeles CA 	Clear	66	60	Variable	5	29.88	52	66	66
Tue Feb  2 01:07:59 2010	 El Paso TX 	Mostly Cloudy	61	31	W	8	29.91	30	61	60
Tue Feb  2 01:08:01 2010	 New York City NY 	Clear	34	38	Variable	3	30.24	10	34	31
Tue Feb  2 01:08:03 2010	 Baltimore MD 	Fair	34	48	N/A		30.3	16	34	34
Tue Feb  2 01:08:05 2010	 Las Vegas NV 	Clear	55	36	SE	6	29.94	28	55	55
Tue Feb  2 01:08:05 2010	 Washington DC 	Partly Cloudy	36	48	N	5	30.3	18	36	32
Tue Feb  2 01:08:06 2010	 Austin TX 	Fog And Mist	45	93	SE	3	30.03	43	45	44
Tue Feb  2 01:08:07 2010	 San Francisco CA 	Overcast	55	67	NW	7	29.91	45	55	54
Tue Feb  2 01:08:09 2010	 Oklahoma City OK 	Fog And Mist	32	87	SW	5	30	28	32	28
Tue Feb  2 01:08:11 2010	 Nashville TN 	Overcast	37	70	N/A		30.18	28	37	37
Tue Feb  2 01:08:12 2010	 Fort Worth TX 	Overcast	45	71	S	8	30.06	36	45	41
Tue Feb  2 01:08:13 2010	 Phoenix AZ 	Overcast	66	32	N/A		29.88	36	66	66
Tue Feb  2 01:08:14 2010	 Portland OR 	Light Rain	45	87	SE	12	29.85	41	45	39
Tue Feb  2 01:08:15 2010	 Chicago IL 	Hazy	28	64	E	7	30.18	18	28	22
Tue Feb  2 01:08:16 2010	 San Antonio TX 	Fog And Mist	46	93	ENE	6	30.03	45	46	44
Tue Feb  2 01:08:17 2010	 Indianapolis IN 	Mostly Cloudy	34	56	ESE	5	30.18	19	34	30
Tue Feb  2 01:08:18 2010	 Boston MA 	Partly Cloudy	30	31	W	15	30.15	3	30	20
Tue Feb  2 01:08:19 2010	 Jacksonville FL 	Overcast	57	82	NNE	10	30.12	52	57	55
Tue Feb  2 01:08:20 2010	 Columbus OH 	Mostly Cloudy	30	55	N/A		30.24	16	30	30
Tue Feb  2 01:08:21 2010	 Dallas TX 	Overcast	46	71	S	8	30.03	37	46	43
Tue Feb  2 01:08:22 2010	 Houston TX 	Fog And Mist	50	88	E	7	30.06	46	50	48
Tue Feb  2 01:08:23 2010	 Seattle WA 	Light Rain	48	71	N/A		29.83	39	48	48
Tue Feb  2 01:08:24 2010	 Milwaukee WI 	Overcast	25	69	SE	5	30.21	16	25	20
Tue Feb  2 01:08:25 2010	 Detroit MI 	Overcast	25	69	SW	7	30.27	16	25	18
Tue Feb  2 01:08:26 2010	 Philadelphia PA 	Mostly Cloudy	32	51	SSW	10	30.27	16	32	24
Tue Feb  2 01:51:38 2010	 San Jose CA 	Overcast	59	63	NW	8	29.88	46	59	58
Tue Feb  2 01:51:39 2010	 Charlotte NC 	Partly Cloudy	43	46	SE	6	30.27	23	43	40
Tue Feb  2 01:51:40 2010	 San Diego CA 	Mostly Cloudy	63	64	NW	9	29.91	50	63	62
Tue Feb  2 01:51:41 2010	 Denver CO 	Partly Cloudy	39	33	NW	9	29.91	12	39	33
Tue Feb  2 01:51:42 2010	 Memphis TN 	Overcast	45	57	SE	3	30.12	30	45	44
Tue Feb  2 01:51:43 2010	 Los Angeles CA 	Clear	64	64	Variable	3	29.88	52	64	64
Tue Feb  2 01:51:44 2010	 El Paso TX 	Mostly Cloudy	61	31	WNW	10	29.91	30	61	60
Tue Feb  2 01:51:46 2010	 New York City NY 	Mostly Cloudy	34	38	Variable	5	30.24	10	34	30
Tue Feb  2 01:51:47 2010	 Baltimore MD 	Fair	34	48	N/A		30.3	16	34	34
Tue Feb  2 01:51:48 2010	 Las Vegas NV 	Clear	55	36	SE	6	29.94	28	55	55
Tue Feb  2 01:51:49 2010	 Washington DC 	Partly Cloudy	36	48	N	5	30.3	18	36	32
Tue Feb  2 01:51:50 2010	 Austin TX 	Fog And Mist	45	93	SE	3	30.06	43	45	44
Tue Feb  2 01:51:51 2010	 San Francisco CA 	Overcast	55	67	NW	7	29.91	45	55	54
Tue Feb  2 01:51:52 2010	 Oklahoma City OK 	Fog And Mist	32	87	SW	5	30	28	32	28
Tue Feb  2 01:51:53 2010	 Nashville TN 	Overcast	37	70	N/A		30.18	28	37	37
Tue Feb  2 01:51:54 2010	 Fort Worth TX 	Overcast	45	71	S	8	30.06	36	45	41
Tue Feb  2 01:51:55 2010	 Phoenix AZ 	Overcast	66	32	N/A		29.88	36	66	66
Tue Feb  2 01:51:56 2010	 Portland OR 	Light Rain	45	87	SE	12	29.85	41	45	39
Tue Feb  2 01:51:56 2010	 Chicago IL 	Hazy	28	64	E	7	30.18	18	28	22
Tue Feb  2 01:51:58 2010	 San Antonio TX 	Fog And Mist	45	100	ENE	6	30.03	45	45	42
Tue Feb  2 01:51:59 2010	 Indianapolis IN 	Mostly Cloudy	34	56	ESE	5	30.18	19	34	30
Tue Feb  2 01:52:00 2010	 Boston MA 	Partly Cloudy	30	31	W	15	30.15	3	30	20
Tue Feb  2 01:52:01 2010	 Jacksonville FL 	Overcast	57	82	NNE	10	30.12	52	57	55
Tue Feb  2 01:52:02 2010	 Columbus OH 	Mostly Cloudy	30	55	N/A		30.24	16	30	30
Tue Feb  2 01:52:03 2010	 Dallas TX 	Overcast	46	71	S	8	30.03	37	46	43
Tue Feb  2 01:52:04 2010	 Houston TX 	Fog And Mist	50	88	E	7	30.06	46	50	48
Tue Feb  2 01:52:05 2010	 Seattle WA 	Light Rain	48	71	N/A		29.83	39	48	48
Tue Feb  2 01:52:06 2010	 Milwaukee WI 	Overcast	25	69	SE	5	30.21	16	25	20
Tue Feb  2 01:52:07 2010	 Detroit MI 	Overcast	25	69	SW	7	30.27	16	25	18
Tue Feb  2 01:52:08 2010	 Philadelphia PA 	Mostly Cloudy	32	51	SSW	10	30.27	16	32	24
Tue Feb  2 02:35:40 2010	 San Jose CA 	Overcast	55	67	NW	9	29.91	45	55	53
Tue Feb  2 02:35:41 2010	 Charlotte NC 	Partly Cloudy	39	52	SSE	3	30.27	23	39	37
Tue Feb  2 02:35:43 2010	 San Diego CA 	Mostly Cloudy	61	72	W	6	29.91	52	61	61
Tue Feb  2 02:35:44 2010	 Denver CO 	Partly Cloudy	34	38	NW	7	29.91	10	34	28
Tue Feb  2 02:35:44 2010	 Memphis TN 	Overcast	43	66	N/A		30.15	32	43	43
Tue Feb  2 02:35:45 2010	 Los Angeles CA 	Clear	63	68	N/A		29.88	52	63	63
Tue Feb  2 02:35:46 2010	 El Paso TX 	Overcast	57	39	WNW	10	29.94	32	57	55
Tue Feb  2 02:35:47 2010	 New York City NY 	Clear	32	40	Variable	6	30.24	10	32	27
Tue Feb  2 02:35:48 2010	 Baltimore MD 	Fair	34	48	N/A		30.3	16	34	34
Tue Feb  2 02:35:49 2010	 Las Vegas NV 	Clear	55	36	SE	3	29.94	28	55	55
Tue Feb  2 02:35:50 2010	 Washington DC 	Mostly Cloudy	34	56	SSE	3	30.3	19	34	31
Tue Feb  2 02:35:51 2010	 Austin TX 	Fog And Mist	45	87	N/A		30.06	41	45	45
Tue Feb  2 02:35:52 2010	 San Francisco CA 	Mostly Cloudy	55	72	NW	8	29.91	46	55	54
Tue Feb  2 02:35:53 2010	 Oklahoma City OK 	Freezing Drizzle	32	93	N/A		30.03	30	32	32
Tue Feb  2 02:35:54 2010	 Nashville TN 	Overcast	37	75	N/A		30.15	30	37	37
Tue Feb  2 02:35:55 2010	 Fort Worth TX 	Overcast	45	71	SSE	7	30.09	36	45	41
Tue Feb  2 02:35:56 2010	 Phoenix AZ 	Overcast	64	37	S	5	29.88	37	64	64
Tue Feb  2 02:35:57 2010	 Portland OR 	Light Rain	43	93	ESE	12	29.85	41	43	37
Tue Feb  2 02:35:58 2010	 Chicago IL 	Overcast	28	69	E	7	30.18	19	28	22
Tue Feb  2 02:35:59 2010	 San Antonio TX 	Fog And Mist	45	93	ENE	6	30.03	43	45	42
Tue Feb  2 02:36:00 2010	 Indianapolis IN 	Overcast	34	56	E	3	30.15	19	34	31
Tue Feb  2 02:36:01 2010	 Boston MA 	Partly Cloudy	28	34	NW	12	30.18	3	28	19
Tue Feb  2 02:36:02 2010	 Jacksonville FL 	Overcast	57	88	NE	5	30.15	54	57	57
Tue Feb  2 02:36:03 2010	 Columbus OH 	Mostly Cloudy	27	64	E	3	30.21	16	27	23
Tue Feb  2 02:36:04 2010	 Dallas TX 	Overcast	45	76	S	6	30.06	37	45	42
Tue Feb  2 02:36:05 2010	 Houston TX 	Fog And Mist	50	88	ENE	8	30.06	46	50	47
Tue Feb  2 02:36:06 2010	 Seattle WA 	Light Rain	48	82	N/A		29.83	43	48	48
Tue Feb  2 02:36:07 2010	 Milwaukee WI 	Mostly Cloudy	25	74	ESE	5	30.18	18	25	20
Tue Feb  2 02:36:08 2010	 Detroit MI 	Overcast	25	69	SW	3	30.24	16	25	21
Tue Feb  2 02:36:09 2010	 Philadelphia PA 	Mostly Cloudy	30	55	SSW	8	30.27	16	30	23
Tue Feb  2 03:18:48 2010	 San Jose CA 	Overcast	54	72	WNW	9	29.91	45	54	51
Tue Feb  2 03:18:49 2010	 Charlotte NC 	Partly Cloudy	41	49	ENE	5	30.24	23	41	38
Tue Feb  2 03:18:50 2010	 San Diego CA 	Mostly Cloudy	57	82	WNW	6	29.91	52	57	57
Tue Feb  2 03:18:51 2010	 Denver CO 	Partly Cloudy	36	38	NW	13	29.94	12	36	28
Tue Feb  2 03:18:53 2010	 Memphis TN 	Overcast	39	75	N/A		30.12	32	39	39
Tue Feb  2 03:18:53 2010	 Los Angeles CA 	Clear	61	68	W	3	29.88	50	61	61
Tue Feb  2 03:18:55 2010	 El Paso TX 	Overcast	57	39	NW	5	29.94	32	57	57
Tue Feb  2 03:18:58 2010	 New York City NY 	Clear	32	40	SSW	8	30.24	10	32	26
Tue Feb  2 03:18:59 2010	 Baltimore MD 	Fair	34	51	N/A		30.3	18	34	34
Tue Feb  2 03:19:00 2010	 Las Vegas NV 	Clear	54	41	E	3	29.94	30	54	54
Tue Feb  2 03:19:01 2010	 Washington DC 	Mostly Cloudy	34	56	N/A		30.3	19	34	34
Tue Feb  2 03:19:02 2010	 Austin TX 	Fog And Mist	45	87	N/A		30.06	41	45	45
Tue Feb  2 03:19:03 2010	 San Francisco CA 	Mostly Cloudy	54	77	NW	3	29.91	46	54	54
Tue Feb  2 03:19:04 2010	 Oklahoma City OK 	Freezing Drizzle	32	87	SW	3	30.03	28	32	29
Tue Feb  2 03:19:05 2010	 Nashville TN 	Overcast	36	81	N/A		30.15	30	36	36
Tue Feb  2 03:19:06 2010	 Fort Worth TX 	Overcast	45	76	SSE	6	30.09	37	45	42
Tue Feb  2 03:19:07 2010	 Phoenix AZ 	Mostly Cloudy	63	42	SW	3	29.91	39	63	63
Tue Feb  2 03:19:08 2010	 Portland OR 	Light Rain	43	93	ESE	10	29.88	41	43	37
Tue Feb  2 03:19:10 2010	 Chicago IL 	Overcast	28	74	E	5	30.18	21	28	24
Tue Feb  2 03:19:11 2010	 San Antonio TX 	Fog And Mist	46	93	N/A		30.06	45	46	46
Tue Feb  2 03:19:13 2010	 Indianapolis IN 	Overcast	34	56	E	3	30.15	19	34	31
Tue Feb  2 03:19:14 2010	 Boston MA 	Partly Cloudy	27	43	NW	15	30.18	7	27	16
Tue Feb  2 03:19:15 2010	 Jacksonville FL 	Overcast	57	88	NE	7	30.12	54	57	56
Tue Feb  2 03:19:16 2010	 Columbus OH 	Mostly Cloudy	27	69	E	5	30.21	18	27	22
Tue Feb  2 03:19:17 2010	 Dallas TX 	Overcast	45	81	SSE	7	30.06	39	45	41
Tue Feb  2 03:19:18 2010	 Houston TX 	Fog And Mist	50	88	NE	6	30.06	46	50	48
Tue Feb  2 03:19:19 2010	 Seattle WA 	Light Rain	48	82	N/A		29.85	43	48	48
Tue Feb  2 03:19:20 2010	 Milwaukee WI 	Overcast	25	74	N/A		30.18	18	25	25
Tue Feb  2 03:19:21 2010	 Detroit MI 	Mostly Cloudy	23	74	SW	3	30.24	16	23	19
Tue Feb  2 03:19:22 2010	 Philadelphia PA 	Mostly Cloudy	30	59	SSW	8	30.3	18	30	23
Tue Feb  2 04:02:50 2010	 San Jose CA 	Overcast	54	72	WNW	9	29.91	45	54	51
Tue Feb  2 04:02:51 2010	 Charlotte NC 	Partly Cloudy	41	49	ENE	5	30.24	23	41	38
Tue Feb  2 04:02:52 2010	 San Diego CA 	Mostly Cloudy	57	82	WNW	6	29.91	52	57	57
Tue Feb  2 04:02:53 2010	 Denver CO 	Partly Cloudy	36	38	NW	13	29.94	12	36	28
Tue Feb  2 04:02:54 2010	 Memphis TN 	Overcast	39	75	N/A		30.12	32	39	39
Tue Feb  2 04:02:55 2010	 Los Angeles CA 	Clear	61	68	W	3	29.88	50	61	61
Tue Feb  2 04:02:56 2010	 El Paso TX 	Overcast	57	39	NW	5	29.94	32	57	57
Tue Feb  2 04:02:57 2010	 New York City NY 	Clear	32	40	SSW	8	30.24	10	32	26
Tue Feb  2 04:02:59 2010	 Baltimore MD 	Fair	34	51	N/A		30.3	18	34	34
Tue Feb  2 04:03:00 2010	 Las Vegas NV 	Clear	54	41	E	3	29.94	30	54	54
Tue Feb  2 04:03:01 2010	 Washington DC 	Mostly Cloudy	34	56	N/A		30.3	19	34	34
Tue Feb  2 04:03:02 2010	 Austin TX 	Fog And Mist	45	87	N/A		30.06	41	45	45
Tue Feb  2 04:03:03 2010	 San Francisco CA 	Mostly Cloudy	54	77	NW	3	29.91	46	54	54
Tue Feb  2 04:03:04 2010	 Oklahoma City OK 	Freezing Drizzle	32	87	N/A		30.06	28	32	32
Tue Feb  2 04:03:05 2010	 Nashville TN 	Overcast	36	81	N/A		30.15	30	36	36
Tue Feb  2 04:03:06 2010	 Fort Worth TX 	Overcast	45	76	SSE	6	30.09	37	45	42
Tue Feb  2 04:03:07 2010	 Phoenix AZ 	Mostly Cloudy	63	42	SW	3	29.91	39	63	63
Tue Feb  2 04:03:08 2010	 Portland OR 	Light Rain	43	93	ESE	10	29.88	41	43	37
Tue Feb  2 04:03:09 2010	 Chicago IL 	Overcast	28	74	E	5	30.18	21	28	24
Tue Feb  2 04:03:10 2010	 San Antonio TX 	Fog And Mist	45	100	NE	5	30.03	45	45	43
Tue Feb  2 04:03:11 2010	 Indianapolis IN 	Overcast	34	56	E	3	30.15	19	34	31
Tue Feb  2 04:03:12 2010	 Boston MA 	Partly Cloudy	27	43	NW	15	30.18	7	27	16
Tue Feb  2 04:03:13 2010	 Jacksonville FL 	Overcast	57	88	NE	7	30.12	54	57	56
Tue Feb  2 04:03:14 2010	 Columbus OH 	Mostly Cloudy	27	69	E	5	30.21	18	27	22
Tue Feb  2 04:03:15 2010	 Dallas TX 	Overcast	45	81	SSE	7	30.06	39	45	41
Tue Feb  2 04:03:15 2010	 Houston TX 	Fog And Mist	50	88	NE	6	30.06	46	50	48
Tue Feb  2 04:03:17 2010	 Seattle WA 	Light Rain	48	82	N/A		29.85	43	48	48
Tue Feb  2 04:03:18 2010	 Milwaukee WI 	Overcast	25	74	N/A		30.18	18	25	25
Tue Feb  2 04:03:19 2010	 Detroit MI 	Mostly Cloudy	23	74	SW	3	30.24	16	23	19
Tue Feb  2 04:03:20 2010	 Philadelphia PA 	Mostly Cloudy	30	59	SSW	8	30.3	18	30	23
Tue Feb  2 04:46:21 2010	 San Jose CA 	Overcast	54	77	WNW	5	29.91	46	54	53
Tue Feb  2 04:46:22 2010	 Charlotte NC 	Partly Cloudy	36	65	SE	3	30.24	25	36	33
Tue Feb  2 04:46:23 2010	 San Diego CA 	Mostly Cloudy	57	82	NW	5	29.91	52	57	57
Tue Feb  2 04:46:24 2010	 Denver CO 	Partly Cloudy	32	44	NNW	15	29.94	12	32	22
Tue Feb  2 04:46:25 2010	 Memphis TN 	Overcast	39	75	N/A		30.12	32	39	39
Tue Feb  2 04:46:26 2010	 Los Angeles CA 	Clear	59	77	W	3	29.91	52	59	59
Tue Feb  2 04:46:27 2010	 El Paso TX 	Overcast	54	47	N	6	29.97	34	54	52
Tue Feb  2 04:46:30 2010	 New York City NY 	Clear	30	47	Variable	6	30.24	12	30	25
Tue Feb  2 04:46:31 2010	 Baltimore MD 	Fair	32	51	N/A		30.3	16	32	32
Tue Feb  2 04:46:32 2010	 Las Vegas NV 	Clear	54	38	N/A		29.94	28	54	54
Tue Feb  2 04:46:33 2010	 Washington DC 	Mostly Cloudy	32	60	S	3	30.3	19	32	29
Tue Feb  2 04:46:34 2010	 Austin TX 	Fog And Mist	45	93	N/A		30.06	43	45	45
Tue Feb  2 04:46:35 2010	 San Francisco CA 	Mostly Cloudy	54	82	NNW	5	29.94	48	54	53
Tue Feb  2 04:46:36 2010	 Oklahoma City OK 	Freezing Drizzle	32	87	N/A		30.06	28	32	32
Tue Feb  2 04:46:37 2010	 Nashville TN 	Overcast	36	81	N/A		30.15	30	36	36
Tue Feb  2 04:46:38 2010	 Fort Worth TX 	Overcast	45	76	SSE	8	30.09	37	45	41
Tue Feb  2 04:46:38 2010	 Phoenix AZ 	Mostly Cloudy	63	42	N/A		29.91	39	63	63
Tue Feb  2 04:46:39 2010	 Portland OR 	Light Rain	43	93	SE	9	29.85	41	43	38
Tue Feb  2 04:46:40 2010	 Chicago IL 	Mostly Cloudy	30	64	SSE	6	30.18	19	30	25
Tue Feb  2 04:46:41 2010	 San Antonio TX 	Fog And Mist	46	93	NE	3	30.06	45	46	46
Tue Feb  2 04:46:42 2010	 Indianapolis IN 	Overcast	34	56	E	5	30.15	19	34	30
Tue Feb  2 04:46:43 2010	 Boston MA 	Partly Cloudy	27	43	WNW	9	30.18	7	27	18
Tue Feb  2 04:46:44 2010	 Jacksonville FL 	Light Rain	55	94	NE	7	30.09	54	55	54
Tue Feb  2 04:46:45 2010	 Columbus OH 	Overcast	27	69	ENE	3	30.18	18	27	23
Tue Feb  2 04:46:46 2010	 Dallas TX 	Overcast	45	81	N/A		30.06	39	45	45
Tue Feb  2 04:46:47 2010	 Houston TX 	Fog And Mist	48	94	ENE	7	30.06	46	48	46
Tue Feb  2 04:46:48 2010	 Seattle WA 	Overcast	46	87	S	6	29.85	43	46	44
Tue Feb  2 04:46:49 2010	 Milwaukee WI 	Overcast	27	80	N/A		30.15	21	27	27
Tue Feb  2 04:46:50 2010	 Detroit MI 	Overcast	23	74	SW	3	30.24	16	23	19
Tue Feb  2 04:46:51 2010	 Philadelphia PA 	Mostly Cloudy	28	64	SSW	8	30.3	18	28	21
Tue Feb  2 05:29:49 2010	 San Jose CA 	Partly Cloudy	52	82	W	5	29.91	46	52	51
Tue Feb  2 05:29:50 2010	 Charlotte NC 	Mostly Cloudy	37	60	SE	5	30.21	25	37	34
Tue Feb  2 05:29:51 2010	 San Diego CA 	Mostly Cloudy	57	82	N/A		29.91	52	57	57
Tue Feb  2 05:29:52 2010	 Denver CO 	Partly Cloudy	32	44	NW	8	29.97	12	32	26
Tue Feb  2 05:29:53 2010	 Memphis TN 	Overcast	41	76	SE	5	30.12	34	41	38
Tue Feb  2 05:29:54 2010	 Los Angeles CA 	Clear	57	82	N/A		29.88	52	57	57
Tue Feb  2 05:29:55 2010	 El Paso TX 	Mostly Cloudy	54	47	NNW	3	29.97	34	54	54
Tue Feb  2 05:29:58 2010	 New York City NY 	Clear	30	47	Variable	6	30.24	12	30	25
Tue Feb  2 05:29:58 2010	 Baltimore MD 	Fair	30	59	N/A		30.3	18	30	30
Tue Feb  2 05:30:00 2010	 Las Vegas NV 	Clear	52	47	S	5	29.97	32	52	51
Tue Feb  2 05:30:01 2010	 Washington DC 	Mostly Cloudy	30	69	N/A		30.3	21	30	30
Tue Feb  2 05:30:02 2010	 Austin TX 	Fog And Mist	45	93	Variable	3	30.06	43	45	44
Tue Feb  2 05:30:03 2010	 San Francisco CA 	Mostly Cloudy	54	77	N/A		29.94	46	54	54
Tue Feb  2 05:30:04 2010	 Oklahoma City OK 	Freezing Drizzle	32	93	N/A		30.06	30	32	32
Tue Feb  2 05:30:05 2010	 Nashville TN 	Overcast	36	81	N/A		30.15	30	36	36
Tue Feb  2 05:30:06 2010	 Fort Worth TX 	Overcast	45	76	N/A		30.12	37	45	45
Tue Feb  2 05:30:07 2010	 Phoenix AZ 	Mostly Cloudy	63	37	N	6	29.88	36	63	63
Tue Feb  2 05:30:08 2010	 Portland OR 	Overcast	43	93	ESE	10	29.88	41	43	37
Tue Feb  2 05:30:09 2010	 Chicago IL 	Overcast	30	64	SE	8	30.15	19	30	23
Tue Feb  2 05:30:10 2010	 San Antonio TX 	Fog And Mist	46	93	NE	5	30.06	45	46	45
Tue Feb  2 05:30:11 2010	 Indianapolis IN 	Overcast	34	56	E	6	30.12	19	34	29
Tue Feb  2 05:30:12 2010	 Boston MA 	Partly Cloudy	27	43	W	14	30.18	7	27	16
Tue Feb  2 05:30:14 2010	 Jacksonville FL 	Light Rain	55	94	NNE	7	30.09	54	55	54
Tue Feb  2 05:30:15 2010	 Columbus OH 	Overcast	27	69	E	5	30.18	18	27	22
Tue Feb  2 05:30:16 2010	 Dallas TX 	Hazy	45	81	N/A		30.09	39	45	45
Tue Feb  2 05:30:17 2010	 Houston TX 	Fog And Mist	48	94	E	5	30.06	46	48	47
Tue Feb  2 05:30:18 2010	 Seattle WA 	Overcast	46	87	N/A		29.83	43	46	46
Tue Feb  2 05:30:19 2010	 Milwaukee WI 	Light Snow	27	93	N/A		30.15	25	27	27
Tue Feb  2 05:30:20 2010	 Detroit MI 	Overcast	23	74	N/A		30.21	16	23	23
Tue Feb  2 05:30:21 2010	 Philadelphia PA 	Partly Cloudy	27	69	SSW	8	30.3	18	27	19
Tue Feb  2 06:12:50 2010	 San Jose CA 	Partly Cloudy	54	77	SW	3	29.91	46	54	54
Tue Feb  2 06:12:51 2010	 Charlotte NC 	Overcast	37	60	N/A		30.21	25	37	37
Tue Feb  2 06:12:52 2010	 San Diego CA 	Hazy	57	82	N/A		29.91	52	57	57
Tue Feb  2 06:12:53 2010	 Denver CO 	Clear	27	54	S	9	29.97	12	27	18
Tue Feb  2 06:12:54 2010	 Memphis TN 	Overcast	41	76	S	6	30.12	34	41	38
Tue Feb  2 06:12:55 2010	 Los Angeles CA 	Hazy	57	82	N/A		29.88	52	57	57
Tue Feb  2 06:12:56 2010	 El Paso TX 	Overcast	46	66	NE	5	29.97	36	46	45
Tue Feb  2 06:12:58 2010	 New York City NY 	Clear	30	47	Variable	7	30.27	12	30	24
Tue Feb  2 06:12:59 2010	 Baltimore MD 	Fair	30	59	N/A		30.27	18	30	30
Tue Feb  2 06:13:00 2010	 Las Vegas NV 	Partly Cloudy	52	44	SSW	3	29.94	30	52	52
Tue Feb  2 06:13:01 2010	 Washington DC 	Mostly Cloudy	30	69	N/A		30.3	21	30	30
Tue Feb  2 06:13:02 2010	 Austin TX 	Fog And Mist	45	93	N/A		30.06	43	45	45
Tue Feb  2 06:13:03 2010	 San Francisco CA 	Mostly Cloudy	52	82	NE	6	29.91	46	52	50
Tue Feb  2 06:13:04 2010	 Oklahoma City OK 	Fog And Mist	32	87	N/A		30.06	28	32	32
Tue Feb  2 06:13:05 2010	 Nashville TN 	Light Rain	36	81	N/A		30.15	30	36	36
Tue Feb  2 06:13:06 2010	 Fort Worth TX 	Overcast	43	76	S	7	30.12	36	43	39
Tue Feb  2 06:13:07 2010	 Phoenix AZ 	Mostly Cloudy	57	59	N/A		29.88	43	57	57
Tue Feb  2 06:13:07 2010	 Portland OR 	Light Rain	43	93	ESE	10	29.88	41	43	37
Tue Feb  2 06:13:08 2010	 Chicago IL 	Overcast	30	64	SE	6	30.12	19	30	25
Tue Feb  2 06:13:09 2010	 San Antonio TX 	Fog And Mist	46	93	N/A		30.06	45	46	46
Tue Feb  2 06:13:10 2010	 Indianapolis IN 	Overcast	34	56	E	6	30.12	19	34	29
Tue Feb  2 06:13:11 2010	 Boston MA 	Overcast	27	46	W	15	30.18	9	27	16
Tue Feb  2 06:13:12 2010	 Jacksonville FL 	Rain	57	94	N	5	30.06	55	57	57
Tue Feb  2 06:13:13 2010	 Columbus OH 	Overcast	28	64	E	6	30.18	18	28	23
Tue Feb  2 06:13:14 2010	 Dallas TX 	Hazy	45	81	N/A		30.09	39	45	45
Tue Feb  2 06:13:15 2010	 Houston TX 	Fog And Mist	48	94	E	5	30.06	46	48	47
Tue Feb  2 06:13:16 2010	 Seattle WA 	Overcast	46	87	N/A		29.85	43	46	46
Tue Feb  2 06:13:17 2010	 Milwaukee WI 	Light Snow	27	86	S	3	30.15	23	27	23
Tue Feb  2 06:13:18 2010	 Detroit MI 	Overcast	21	80	N/A		30.21	16	21	21
Tue Feb  2 06:13:19 2010	 Philadelphia PA 	Partly Cloudy	28	64	SSW	6	30.3	18	28	23
Tue Feb  2 07:00:18 2010	 San Jose CA 	Partly Cloudy	54	77	SW	3	29.91	46	54	54
Tue Feb  2 07:00:19 2010	 Charlotte NC 	Overcast	37	60	N/A		30.21	25	37	37
Tue Feb  2 07:00:20 2010	 San Diego CA 	Hazy	57	82	N/A		29.91	52	57	57
Tue Feb  2 07:00:21 2010	 Denver CO 	Clear	27	54	S	9	29.97	12	27	18
Tue Feb  2 07:00:22 2010	 Memphis TN 	Overcast	41	76	S	6	30.12	34	41	38
Tue Feb  2 07:00:23 2010	 Los Angeles CA 	Hazy	57	82	N/A		29.88	52	57	57
Tue Feb  2 07:00:24 2010	 El Paso TX 	Overcast	46	66	NE	5	29.97	36	46	45
Tue Feb  2 07:00:25 2010	 New York City NY 	Clear	30	47	Variable	7	30.27	12	30	24
Tue Feb  2 07:00:26 2010	 Baltimore MD 	Fair	30	59	N/A		30.27	18	30	30
Tue Feb  2 07:00:27 2010	 Las Vegas NV 	Partly Cloudy	52	44	SSW	3	29.94	30	52	52
Tue Feb  2 07:00:28 2010	 Washington DC 	Mostly Cloudy	30	69	N/A		30.3	21	30	30
Tue Feb  2 07:00:29 2010	 Austin TX 	Fog And Mist	45	93	N/A		30.06	43	45	45
Tue Feb  2 07:00:30 2010	 San Francisco CA 	Mostly Cloudy	52	82	NE	6	29.91	46	52	50
Tue Feb  2 07:00:31 2010	 Oklahoma City OK 	Fog And Mist	32	87	SSW	3	30.09	28	32	29
Tue Feb  2 07:00:32 2010	 Nashville TN 	Light Rain	36	81	N/A		30.15	30	36	36
Tue Feb  2 07:00:33 2010	 Fort Worth TX 	Overcast	43	76	S	7	30.12	36	43	39
Tue Feb  2 07:00:34 2010	 Phoenix AZ 	Mostly Cloudy	57	59	N/A		29.88	43	57	57
Tue Feb  2 07:00:35 2010	 Portland OR 	Overcast	43	93	ESE	13	29.88	41	43	37
Tue Feb  2 07:00:36 2010	 Chicago IL 	Overcast	30	64	SE	6	30.12	19	30	25
Tue Feb  2 07:00:38 2010	 San Antonio TX 	Fog And Mist	46	93	NE	3	30.06	45	46	46
Tue Feb  2 07:00:39 2010	 Indianapolis IN 	Overcast	34	56	E	6	30.12	19	34	29
Tue Feb  2 07:00:40 2010	 Boston MA 	Overcast	27	46	W	15	30.18	9	27	16
Tue Feb  2 07:00:41 2010	 Jacksonville FL 	Light Rain	57	94	ENE	9	30.03	55	57	55
Tue Feb  2 07:00:42 2010	 Columbus OH 	Overcast	28	64	E	6	30.18	18	28	23
Tue Feb  2 07:00:43 2010	 Dallas TX 	Hazy	45	81	N/A		30.09	39	45	45
Tue Feb  2 07:00:44 2010	 Houston TX 	Fog And Mist	48	94	E	5	30.06	46	48	47
Tue Feb  2 07:00:45 2010	 Seattle WA 	Overcast	46	87	N/A		29.85	43	46	46
Tue Feb  2 07:00:46 2010	 Milwaukee WI 	Light Snow	27	86	S	3	30.15	23	27	23
Tue Feb  2 07:00:47 2010	 Detroit MI 	Overcast	21	80	N/A		30.21	16	21	21
Tue Feb  2 07:00:48 2010	 Philadelphia PA 	Partly Cloudy	28	64	SSW	6	30.3	18	28	23
Tue Feb  2 07:43:21 2010	 San Jose CA 	Partly Cloudy	52	77	N/A		29.91	45	52	52
Tue Feb  2 07:43:22 2010	 Charlotte NC 	Overcast	36	70	ENE	3	30.21	27	36	33
Tue Feb  2 07:43:23 2010	 San Diego CA 	Partly Cloudy	57	77	N/A		29.91	50	57	57
Tue Feb  2 07:43:24 2010	 Denver CO 	Partly Cloudy	23	63	S	8	29.97	12	23	15
Tue Feb  2 07:43:25 2010	 Memphis TN 	Overcast	41	76	SE	6	30.09	34	41	38
Tue Feb  2 07:43:26 2010	 Los Angeles CA 	Hazy	57	82	N/A		29.88	52	57	57
Tue Feb  2 07:43:27 2010	 El Paso TX 	Overcast	46	66	N/A		29.97	36	46	46
Tue Feb  2 07:43:28 2010	 New York City NY 	Clear	30	47	Variable	3	30.27	12	30	27
Tue Feb  2 07:43:29 2010	 Baltimore MD 	Fair	30	64	N/A		30.27	19	30	30
Tue Feb  2 07:43:31 2010	 Las Vegas NV 	Clear	52	41	N/A		29.94	28	52	52
Tue Feb  2 07:43:31 2010	 Washington DC 	Mostly Cloudy	28	69	ENE	5	30.27	19	28	24
Tue Feb  2 07:43:32 2010	 Austin TX 	Fog And Mist	45	93	N/A		30.09	43	45	45
Tue Feb  2 07:43:33 2010	 San Francisco CA 	Mostly Cloudy	52	82	NE	7	29.94	46	52	50
Tue Feb  2 07:43:34 2010	 Oklahoma City OK 	Fog And Mist	32	87	SSW	3	30.09	28	32	29
Tue Feb  2 07:43:35 2010	 Nashville TN 	Light Rain	34	100	N/A		30.12	34	34	34
Tue Feb  2 07:43:36 2010	 Fort Worth TX 	Overcast	43	76	N/A		30.15	36	43	43
Tue Feb  2 07:43:37 2010	 Phoenix AZ 	Mostly Cloudy	57	51	N/A		29.91	39	57	57
Tue Feb  2 07:43:39 2010	 Portland OR 	Overcast	43	93	ESE	10	29.88	41	43	37
Tue Feb  2 07:43:39 2010	 Chicago IL 	Light Snow	28	74	SSE	6	30.12	21	28	23
Tue Feb  2 07:43:41 2010	 San Antonio TX 	Fog And Mist	46	93	NNE	3	30.06	45	46	46
Tue Feb  2 07:43:42 2010	 Indianapolis IN 	Overcast	32	64	SE	6	30.12	21	32	27
Tue Feb  2 07:43:43 2010	 Boston MA 	Overcast	27	46	WNW	13	30.21	9	27	17
Tue Feb  2 07:43:44 2010	 Jacksonville FL 	Light Rain	57	100	NE	7	30	57	57	56
Tue Feb  2 07:43:45 2010	 Columbus OH 	Mostly Cloudy	28	64	SE	3	30.18	18	28	25
Tue Feb  2 07:43:46 2010	 Dallas TX 	Fog And Mist	43	81	NNW	6	30.09	37	43	40
Tue Feb  2 07:43:47 2010	 Houston TX 	Fog And Mist	48	94	E	5	30.06	46	48	47
Tue Feb  2 07:43:48 2010	 Seattle WA 	Light Rain	46	87	N/A		29.85	43	46	46
Tue Feb  2 07:43:49 2010	 Milwaukee WI 	Light Snow	27	86	N/A		30.15	23	27	27
Tue Feb  2 07:43:50 2010	 Detroit MI 	Partly Cloudy	19	86	N/A		30.21	16	19	19
Tue Feb  2 07:43:51 2010	 Philadelphia PA 	Partly Cloudy	27	69	SSW	5	30.27	18	27	22
Tue Feb  2 08:26:29 2010	 San Jose CA 	Mostly Cloudy	52	77	N/A		29.91	45	52	52
Tue Feb  2 08:26:30 2010	 Charlotte NC 	Overcast	36	70	NNW	3	30.21	27	36	33
Tue Feb  2 08:26:31 2010	 San Diego CA 	Hazy	55	82	N/A		29.91	50	55	55
Tue Feb  2 08:26:32 2010	 Denver CO 	Partly Cloudy	25	63	S	12	29.97	14	25	15
Tue Feb  2 08:26:33 2010	 Memphis TN 	Overcast	41	81	N/A		30.09	36	41	41
Tue Feb  2 08:26:34 2010	 Los Angeles CA 	Hazy	57	82	N/A		29.88	52	57	57
Tue Feb  2 08:26:35 2010	 El Paso TX 	Mostly Cloudy	45	66	E	5	29.97	34	45	43
Tue Feb  2 08:26:37 2010	 New York City NY 	Clear	30	47	SSW	3	30.27	12	30	27
Tue Feb  2 08:26:38 2010	 Baltimore MD 	Fair	28	69	N/A		30.27	19	28	28
Tue Feb  2 08:26:39 2010	 Las Vegas NV 	Clear	48	50	N/A		29.94	30	48	48
Tue Feb  2 08:26:40 2010	 Washington DC 	Mostly Cloudy	28	69	ENE	5	30.27	19	28	24
Tue Feb  2 08:26:42 2010	 Austin TX 	Fog And Mist	45	93	N/A		30.09	43	45	45
Tue Feb  2 08:26:43 2010	 San Francisco CA 	Mostly Cloudy	50	82	E	5	29.94	45	50	49
Tue Feb  2 08:26:45 2010	 Oklahoma City OK 	Fog And Mist	32	93	N/A		30.09	30	32	32
Tue Feb  2 08:26:46 2010	 Nashville TN 	Light Rain	34	100	N/A		30.12	34	34	34
Tue Feb  2 08:26:47 2010	 Fort Worth TX 	Overcast	41	81	N/A		30.15	36	41	41
Tue Feb  2 08:26:48 2010	 Phoenix AZ 	Overcast	55	63	N/A		29.91	43	55	55
Tue Feb  2 08:26:49 2010	 Portland OR 	Overcast	43	93	ESE	10	29.88	41	43	37
Tue Feb  2 08:26:50 2010	 Chicago IL 	Light Snow	28	86	N/A		30.12	25	28	28
Tue Feb  2 08:26:50 2010	 San Antonio TX 	Fog And Mist	46	93	NNE	3	30.06	45	46	46
Tue Feb  2 08:26:51 2010	 Indianapolis IN 	Overcast	34	60	SSE	7	30.09	21	34	28
Tue Feb  2 08:26:52 2010	 Boston MA 	Mostly Cloudy	27	46	W	12	30.21	9	27	17
Tue Feb  2 08:26:53 2010	 Jacksonville FL 	Light Rain	57	100	N	6	30	57	57	57
Tue Feb  2 08:26:54 2010	 Columbus OH 	Overcast	28	64	SE	5	30.15	18	28	24
Tue Feb  2 08:26:55 2010	 Dallas TX 	Hazy	43	81	N	8	30.12	37	43	38
Tue Feb  2 08:26:56 2010	 Houston TX 	Fog And Mist	48	94	E	7	30.06	46	48	46
Tue Feb  2 08:26:57 2010	 Seattle WA 	Light Rain	46	87	SSE	5	29.88	43	46	45
Tue Feb  2 08:26:58 2010	 Milwaukee WI 	Light Snow	27	93	N/A		30.12	25	27	27
Tue Feb  2 08:26:59 2010	 Detroit MI 	Partly Cloudy	19	86	N/A		30.21	16	19	19
Tue Feb  2 08:27:01 2010	 Philadelphia PA 	Partly Cloudy	25	74	N/A		30.3	18	25	25
Tue Feb  2 09:09:50 2010	 San Jose CA 	Mostly Cloudy	50	82	SE	3	29.91	45	50	50
Tue Feb  2 09:09:51 2010	 Charlotte NC 	Overcast	36	70	N	5	30.18	27	36	32
Tue Feb  2 09:09:52 2010	 San Diego CA 	Hazy	55	82	N/A		29.91	50	55	55
Tue Feb  2 09:09:53 2010	 Denver CO 	Partly Cloudy	25	59	SE	13	29.97	12	25	14
Tue Feb  2 09:09:54 2010	 Memphis TN 	Overcast	39	81	N/A		30.12	34	39	39
Tue Feb  2 09:09:55 2010	 Los Angeles CA 	Fog And Mist	55	88	N/A		29.88	52	55	55
Tue Feb  2 09:09:56 2010	 El Paso TX 	Mostly Cloudy	45	66	NE	3	29.97	34	45	44
Tue Feb  2 09:09:58 2010	 New York City NY 	Clear	30	47	W	6	30.27	12	30	25
Tue Feb  2 09:09:59 2010	 Baltimore MD 	Fair	28	74	N/A		30.24	21	28	28
Tue Feb  2 09:10:00 2010	 Las Vegas NV 	Clear	48	50	N/A		29.94	30	48	48
Tue Feb  2 09:10:01 2010	 Washington DC 	Mostly Cloudy	28	64	ENE	5	30.27	18	28	24
Tue Feb  2 09:10:02 2010	 Austin TX 	Fog And Mist	45	100	N/A		30.09	45	45	45
Tue Feb  2 09:10:03 2010	 San Francisco CA 	Partly Cloudy	50	82	E	5	29.91	45	50	49
Tue Feb  2 09:10:06 2010	 Oklahoma City OK 	Fog And Mist	32	93	N/A		30.09	30	32	32
Tue Feb  2 09:10:07 2010	 Nashville TN 	Light Rain	36	93	N/A		30.12	34	36	36
Tue Feb  2 09:10:08 2010	 Fort Worth TX 	Overcast	41	81	N/A		30.15	36	41	41
Tue Feb  2 09:10:09 2010	 Phoenix AZ 	Overcast	55	63	E	3	29.88	43	55	55
Tue Feb  2 09:10:10 2010	 Portland OR 	Overcast	43	93	N/A		29.91	41	43	43
Tue Feb  2 09:10:11 2010	 Chicago IL 	Light Snow	27	93	SE	5	30.12	25	27	22
Tue Feb  2 09:10:12 2010	 San Antonio TX 	Fog And Mist	48	87	NNE	3	30.06	45	48	47
Tue Feb  2 09:10:13 2010	 Indianapolis IN 	Overcast	34	56	SE	5	30.09	19	34	30
Tue Feb  2 09:10:14 2010	 Boston MA 	Partly Cloudy	27	46	W	12	30.21	9	27	17
Tue Feb  2 09:10:15 2010	 Jacksonville FL 	Light Rain	61	100	E	5	29.97	61	61	61
Tue Feb  2 09:10:17 2010	 Columbus OH 	Overcast	30	59	ESE	5	30.15	18	30	26
Tue Feb  2 09:10:17 2010	 Dallas TX 	Hazy	41	81	NNE	6	30.12	36	41	38
Tue Feb  2 09:10:18 2010	 Houston TX 	Fog And Mist	48	87	E	6	30.06	45	48	46
Tue Feb  2 09:10:19 2010	 Seattle WA 	Light Rain	46	87	ESE	5	29.85	43	46	45
Tue Feb  2 09:10:20 2010	 Milwaukee WI 	Light Snow	27	93	N/A		30.12	25	27	27
Tue Feb  2 09:10:21 2010	 Detroit MI 	Overcast	19	86	ENE	3	30.21	16	19	15
Tue Feb  2 09:10:23 2010	 Philadelphia PA 	Partly Cloudy	25	74	NNE	3	30.27	18	25	21
Tue Feb  2 09:53:28 2010	 San Jose CA 	Mostly Cloudy	50	82	SE	3	29.91	45	50	50
Tue Feb  2 09:53:29 2010	 Charlotte NC 	Overcast	36	70	N	5	30.18	27	36	32
Tue Feb  2 09:53:30 2010	 San Diego CA 	Hazy	55	82	N/A		29.91	50	55	55
Tue Feb  2 09:53:32 2010	 Denver CO 	Partly Cloudy	25	59	SE	13	29.97	12	25	14
Tue Feb  2 09:53:32 2010	 Memphis TN 	Overcast	39	81	N/A		30.12	34	39	39
Tue Feb  2 09:53:34 2010	 Los Angeles CA 	Fog And Mist	55	88	N/A		29.88	52	55	55
Tue Feb  2 09:53:35 2010	 El Paso TX 	Mostly Cloudy	45	66	NE	3	29.97	34	45	44
Tue Feb  2 09:53:36 2010	 New York City NY 	Clear	30	47	W	6	30.27	12	30	25
Tue Feb  2 09:53:37 2010	 Baltimore MD 	Fair	28	74	N/A		30.24	21	28	28
Tue Feb  2 09:53:38 2010	 Las Vegas NV 	Clear	48	50	N/A		29.94	30	48	48
Tue Feb  2 09:53:39 2010	 Washington DC 	Mostly Cloudy	28	64	ENE	5	30.27	18	28	24
Tue Feb  2 09:53:40 2010	 Austin TX 	Fog And Mist	45	93	NE	3	30.09	43	45	44
Tue Feb  2 09:53:42 2010	 San Francisco CA 	Partly Cloudy	50	82	E	5	29.91	45	50	49
Tue Feb  2 09:53:43 2010	 Oklahoma City OK 	Fog And Mist	32	93	N/A		30.09	30	32	32
Tue Feb  2 09:53:44 2010	 Nashville TN 	Light Rain	36	93	SSE	3	30.12	34	36	33
Tue Feb  2 09:53:45 2010	 Fort Worth TX 	Overcast	41	81	N/A		30.15	36	41	41
Tue Feb  2 09:53:46 2010	 Phoenix AZ 	Overcast	55	63	E	3	29.88	43	55	55
Tue Feb  2 09:53:47 2010	 Portland OR 	Overcast	43	93	N/A		29.91	41	43	43
Tue Feb  2 09:53:48 2010	 Chicago IL 	Light Snow	27	93	SE	6	30.12	25	27	21
Tue Feb  2 09:53:48 2010	 San Antonio TX 	Fog And Mist	48	87	NE	6	30.06	45	48	46
Tue Feb  2 09:53:49 2010	 Indianapolis IN 	Light Snow	34	60	SE	6	30.09	21	34	29
Tue Feb  2 09:53:50 2010	 Boston MA 	Partly Cloudy	27	46	W	12	30.21	9	27	17
Tue Feb  2 09:53:51 2010	 Jacksonville FL 	Light Rain	61	100	ENE	7	29.97	61	61	60
Tue Feb  2 09:53:52 2010	 Columbus OH 	Overcast	30	59	ESE	5	30.15	18	30	26
Tue Feb  2 09:53:53 2010	 Dallas TX 	Hazy	41	81	NNE	6	30.12	36	41	38
Tue Feb  2 09:53:54 2010	 Houston TX 	Fog And Mist	48	87	E	6	30.06	45	48	46
Tue Feb  2 09:53:55 2010	 Seattle WA 	Light Rain	46	87	SSE	6	29.85	43	46	44
Tue Feb  2 09:53:56 2010	 Milwaukee WI 	Light Snow	27	93	ENE	3	30.09	25	27	23
Tue Feb  2 09:53:57 2010	 Detroit MI 	Overcast	19	86	ENE	3	30.21	16	19	15
Tue Feb  2 09:53:59 2010	 Philadelphia PA 	Partly Cloudy	25	74	NNE	3	30.27	18	25	21
Tue Feb  2 10:37:04 2010	 San Jose CA 	Mostly Cloudy	50	82	N/A		29.91	45	50	50
Tue Feb  2 10:37:05 2010	 Charlotte NC 	Overcast	36	75	N	6	30.15	28	36	31
Tue Feb  2 10:37:06 2010	 San Diego CA 	Hazy	55	82	N/A		29.91	50	55	55
Tue Feb  2 10:37:07 2010	 Denver CO 	Partly Cloudy	23	63	S	10	29.97	12	23	13
Tue Feb  2 10:37:08 2010	 Memphis TN 	Mostly Cloudy	39	81	N/A		30.09	34	39	39
Tue Feb  2 10:37:09 2010	 Los Angeles CA 	Fog And Mist	55	88	N/A		29.88	52	55	55
Tue Feb  2 10:37:10 2010	 El Paso TX 	Mostly Cloudy	45	66	N/A		29.97	34	45	45
Tue Feb  2 10:37:12 2010	 New York City NY 	Clear	28	47	W	3	30.27	10	28	25
Tue Feb  2 10:37:14 2010	 Baltimore MD 	Fair	28	69	N/A		30.27	19	28	28
Tue Feb  2 10:37:15 2010	 Las Vegas NV 	Clear	46	62	N/A		29.94	34	46	46
Tue Feb  2 10:37:16 2010	 Washington DC 	Mostly Cloudy	27	74	ENE	3	30.27	19	27	23
Tue Feb  2 10:37:17 2010	 Austin TX 	Fog And Mist	45	93	Variable	3	30.09	43	45	44
Tue Feb  2 10:37:18 2010	 San Francisco CA 	Partly Cloudy	48	87	E	7	29.91	45	48	46
Tue Feb  2 10:37:19 2010	 Oklahoma City OK 	Fog And Mist	32	93	NW	6	30.09	30	32	27
Tue Feb  2 10:37:20 2010	 Nashville TN 	Drizzle	36	93	N/A		30.12	34	36	36
Tue Feb  2 10:37:21 2010	 Fort Worth TX 	Overcast	41	81	N/A		30.18	36	41	41
Tue Feb  2 10:37:22 2010	 Phoenix AZ 	Overcast	54	67	N/A		29.88	43	54	54
Tue Feb  2 10:37:23 2010	 Portland OR 	Mostly Cloudy	43	87	ESE	7	29.91	39	43	39
Tue Feb  2 10:37:24 2010	 Chicago IL 	Light Snow	27	93	SE	5	30.12	25	27	22
Tue Feb  2 10:37:25 2010	 San Antonio TX 	Fog And Mist	48	94	NNE	3	30.06	46	48	47
Tue Feb  2 10:37:26 2010	 Indianapolis IN 	Light Snow	32	69	ESE	6	30.06	23	32	27
Tue Feb  2 10:37:27 2010	 Boston MA 	Partly Cloudy	25	50	W	8	30.24	9	25	17
Tue Feb  2 10:37:28 2010	 Jacksonville FL 	Rain	61	100	ENE	3	29.94	61	61	61
Tue Feb  2 10:37:29 2010	 Columbus OH 	Overcast	30	59	SE	5	30.15	18	30	26
Tue Feb  2 10:37:30 2010	 Dallas TX 	Hazy	43	81	NNE	3	30.12	37	43	41
Tue Feb  2 10:37:31 2010	 Houston TX 	Overcast	48	87	E	9	30.06	45	48	44
Tue Feb  2 10:37:32 2010	 Seattle WA 	Light Rain	45	93	SSE	5	29.88	43	45	43
Tue Feb  2 10:37:33 2010	 Milwaukee WI 	Light Snow	27	93	N/A		30.09	25	27	27
Tue Feb  2 10:37:34 2010	 Detroit MI 	Overcast	21	80	ENE	3	30.18	16	21	17
Tue Feb  2 10:37:35 2010	 Philadelphia PA 	Partly Cloudy	25	69	SSW	5	30.27	16	25	20
Tue Feb  2 11:21:07 2010	 San Jose CA 	Mostly Cloudy	50	82	N/A		29.88	45	50	50
Tue Feb  2 11:21:09 2010	 Charlotte NC 	Mostly Cloudy	37	60	NE	7	30.15	25	37	33
Tue Feb  2 11:21:10 2010	 San Diego CA 	Hazy	55	82	N/A		29.91	50	55	55
Tue Feb  2 11:21:11 2010	 Denver CO 	Partly Cloudy	23	58	S	12	29.97	10	23	13
Tue Feb  2 11:21:12 2010	 Memphis TN 	Mostly Cloudy	37	87	N/A		30.09	34	37	37
Tue Feb  2 11:21:13 2010	 Los Angeles CA 	Fog And Mist	54	88	N/A		29.88	50	54	54
Tue Feb  2 11:21:14 2010	 El Paso TX 	Mostly Cloudy	43	71	N	8	30	34	43	38
Tue Feb  2 11:21:16 2010	 New York City NY 	Clear	28	51	Variable	3	30.27	12	28	25
Tue Feb  2 11:21:17 2010	 Baltimore MD 	Fair	28	69	N/A		30.27	19	28	28
Tue Feb  2 11:21:18 2010	 Las Vegas NV 	Clear	45	66	N	3	29.94	34	45	44
Tue Feb  2 11:21:19 2010	 Washington DC 	Mostly Cloudy	27	74	NE	7	30.27	19	27	20
Tue Feb  2 11:21:20 2010	 Austin TX 	Fog And Mist	45	93	NE	3	30.09	43	45	44
Tue Feb  2 11:21:22 2010	 San Francisco CA 	Overcast	48	87	E	7	29.91	45	48	46
Tue Feb  2 11:21:23 2010	 Oklahoma City OK 	Fog And Mist	34	87	N/A		30.12	30	34	34
Tue Feb  2 11:21:24 2010	 Nashville TN 	Drizzle	36	93	N/A		30.09	34	36	36
Tue Feb  2 11:21:25 2010	 Fort Worth TX 	Overcast	41	81	N/A		30.18	36	41	41
Tue Feb  2 11:21:26 2010	 Phoenix AZ 	Overcast	52	72	ESE	5	29.88	43	52	51
Tue Feb  2 11:21:27 2010	 Portland OR 	Overcast	43	87	ESE	7	29.91	39	43	39
Tue Feb  2 11:21:28 2010	 Chicago IL 	Light Snow	27	93	SE	7	30.09	25	27	20
Tue Feb  2 11:21:29 2010	 San Antonio TX 	Fog And Mist	48	94	NE	7	30.06	46	48	46
Tue Feb  2 11:21:30 2010	 Indianapolis IN 	Light Snow	32	69	E	6	30.06	23	32	27
Tue Feb  2 11:21:31 2010	 Boston MA 	Partly Cloudy	25	50	W	8	30.24	9	25	17
Tue Feb  2 11:21:32 2010	 Jacksonville FL 	Light Rain	61	100	N/A		29.94	61	61	61
Tue Feb  2 11:21:33 2010	 Columbus OH 	Light Snow	30	64	NNE	3	30.12	19	30	27
Tue Feb  2 11:21:34 2010	 Dallas TX 	Hazy	43	81	N	5	30.12	37	43	40
Tue Feb  2 11:21:35 2010	 Houston TX 	Fog And Mist	48	87	NE	7	30.06	45	48	46
Tue Feb  2 11:21:36 2010	 Seattle WA 	Light Rain	45	93	SE	6	29.88	43	45	42
Tue Feb  2 11:21:37 2010	 Milwaukee WI 	Light Snow	27	93	ENE	3	30.06	25	27	23
Tue Feb  2 11:21:39 2010	 Detroit MI 	Overcast	21	86	N/A		30.18	18	21	21
Tue Feb  2 11:21:40 2010	 Philadelphia PA 	Partly Cloudy	25	69	SSW	5	30.27	16	25	20
Tue Feb  2 12:04:43 2010	 San Jose CA 	Mostly Cloudy	50	82	N/A		29.88	45	50	50
Tue Feb  2 12:04:44 2010	 Charlotte NC 	Mostly Cloudy	37	60	NE	7	30.15	25	37	33
Tue Feb  2 12:04:45 2010	 San Diego CA 	Hazy	55	82	N/A		29.91	50	55	55
Tue Feb  2 12:04:46 2010	 Denver CO 	Partly Cloudy	23	58	S	12	29.97	10	23	13
Tue Feb  2 12:04:47 2010	 Memphis TN 	Mostly Cloudy	37	87	N/A		30.09	34	37	37
Tue Feb  2 12:04:48 2010	 Los Angeles CA 	Fog And Mist	54	88	N/A		29.88	50	54	54
Tue Feb  2 12:04:49 2010	 El Paso TX 	Mostly Cloudy	43	71	N	8	30	34	43	38
Tue Feb  2 12:04:50 2010	 New York City NY 	Clear	28	51	Variable	3	30.27	12	28	25
Tue Feb  2 12:04:51 2010	 Baltimore MD 	Fair	28	69	N/A		30.27	19	28	28
Tue Feb  2 12:04:53 2010	 Las Vegas NV 	Clear	45	66	N	3	29.94	34	45	44
Tue Feb  2 12:04:54 2010	 Washington DC 	Mostly Cloudy	27	74	NE	7	30.27	19	27	20
Tue Feb  2 12:04:55 2010	 Austin TX 	Fog And Mist	45	93	N/A		30.09	43	45	45
Tue Feb  2 12:04:57 2010	 San Francisco CA 	Overcast	48	87	E	7	29.91	45	48	46
Tue Feb  2 12:04:57 2010	 Oklahoma City OK 	Fog And Mist	34	87	N/A		30.12	30	34	34
Tue Feb  2 12:04:58 2010	 Nashville TN 	Drizzle	36	93	N/A		30.09	34	36	36
Tue Feb  2 12:05:00 2010	 Fort Worth TX 	Overcast	41	81	N/A		30.18	36	41	41
Tue Feb  2 12:05:00 2010	 Phoenix AZ 	Overcast	52	72	ESE	5	29.88	43	52	51
Tue Feb  2 12:05:01 2010	 Portland OR 	Overcast	43	87	ESE	7	29.91	39	43	39
Tue Feb  2 12:05:03 2010	 Chicago IL 	Light Snow	27	93	ESE	7	30.06	25	27	20
Tue Feb  2 12:05:03 2010	 San Antonio TX 	Fog And Mist	48	94	NE	7	30.06	46	48	46
Tue Feb  2 12:05:05 2010	 Indianapolis IN 	Overcast	30	80	N/A		30.06	25	30	30
Tue Feb  2 12:05:05 2010	 Boston MA 	Clear	25	54	W	9	30.24	10	25	16
Tue Feb  2 12:05:07 2010	 Jacksonville FL 	Rain	61	100	N/A		29.94	61	61	61
Tue Feb  2 12:05:08 2010	 Columbus OH 	Light Snow	28	80	N/A		30.12	23	28	28
Tue Feb  2 12:05:09 2010	 Dallas TX 	Hazy	43	81	N	5	30.12	37	43	40
Tue Feb  2 12:05:10 2010	 Houston TX 	Fog And Mist	48	94	NE	7	30.06	46	48	46
Tue Feb  2 12:05:11 2010	 Seattle WA 	Light Rain	45	93	SE	6	29.88	43	45	42
Tue Feb  2 12:05:12 2010	 Milwaukee WI 	Light Snow	27	93	E	3	30.06	25	27	23
Tue Feb  2 12:05:13 2010	 Detroit MI 	Overcast	21	86	N/A		30.18	18	21	21
Tue Feb  2 12:05:14 2010	 Philadelphia PA 	Partly Cloudy	27	69	SW	5	30.3	18	27	22
Tue Feb  2 12:49:03 2010	 San Jose CA 	Partly Cloudy	48	82	E	3	29.88	43	48	47
Tue Feb  2 12:49:04 2010	 Charlotte NC 	Overcast	37	60	ENE	7	30.12	25	37	33
Tue Feb  2 12:49:05 2010	 San Diego CA 	Overcast	57	72	N/A		29.88	48	57	57
Tue Feb  2 12:49:06 2010	 Denver CO 	Partly Cloudy	23	54	S	10	29.97	9	23	13
Tue Feb  2 12:49:07 2010	 Memphis TN 	Partly Cloudy	36	87	W	5	30.12	32	36	32
Tue Feb  2 12:49:08 2010	 Los Angeles CA 	Fog And Mist	54	88	N/A		29.88	50	54	54
Tue Feb  2 12:49:09 2010	 El Paso TX 	Mostly Cloudy	43	71	N	9	30	34	43	38
Tue Feb  2 12:49:12 2010	 New York City NY 	Clear	28	43	NNW	9	30.27	9	28	20
Tue Feb  2 12:49:12 2010	 Baltimore MD 	Fair	28	69	N/A		30.24	19	28	28
Tue Feb  2 12:49:13 2010	 Las Vegas NV 	Clear	45	66	NNW	3	29.91	34	45	44
Tue Feb  2 12:49:14 2010	 Washington DC 	Overcast	28	69	NE	6	30.24	19	28	23
Tue Feb  2 12:49:16 2010	 Austin TX 	Fog And Mist	45	93	NNE	3	30.09	43	45	44
Tue Feb  2 12:49:17 2010	 San Francisco CA 	Overcast	50	82	E	9	29.88	45	50	47
Tue Feb  2 12:49:18 2010	 Oklahoma City OK 	Fog And Mist	34	87	NW	5	30.15	30	34	30
Tue Feb  2 12:49:19 2010	 Nashville TN 	Fog	34	100	N/A		30.09	34	34	34
Tue Feb  2 12:49:20 2010	 Fort Worth TX 	Hazy	41	81	N/A		30.18	36	41	41
Tue Feb  2 12:49:21 2010	 Phoenix AZ 	Mostly Cloudy	54	67	N/A		29.88	43	54	54
Tue Feb  2 12:49:22 2010	 Portland OR 	Overcast	41	93	ESE	3	29.91	39	41	39
Tue Feb  2 12:49:23 2010	 Chicago IL 	Light Snow	27	93	ESE	7	30.06	25	27	20
Tue Feb  2 12:49:24 2010	 San Antonio TX 	Fog And Mist	48	94	NE	6	30.06	46	48	46
Tue Feb  2 12:49:24 2010	 Indianapolis IN 	Overcast	32	75	ENE	3	30.03	25	32	29
Tue Feb  2 12:49:25 2010	 Boston MA 	Partly Cloudy	25	54	NW	9	30.24	10	25	16
Tue Feb  2 12:49:26 2010	 Jacksonville FL 	Light Rain	61	100	W	10	29.94	61	61	60
Tue Feb  2 12:49:27 2010	 Columbus OH 	Light Snow	27	93	NE	6	30.12	25	27	21
Tue Feb  2 12:49:28 2010	 Dallas TX 	Overcast	43	81	N	3	30.15	37	43	41
Tue Feb  2 12:49:29 2010	 Houston TX 	Rain	48	94	NE	10	30.09	46	48	44
Tue Feb  2 12:49:30 2010	 Seattle WA 	Overcast	45	93	SSE	7	29.88	43	45	41
Tue Feb  2 12:49:31 2010	 Milwaukee WI 	Light Snow	27	93	N/A		30.06	25	27	27
Tue Feb  2 12:49:32 2010	 Detroit MI 	Overcast	23	80	SE	3	30.18	18	23	19
Tue Feb  2 12:49:33 2010	 Philadelphia PA 	Partly Cloudy	25	74	N/A		30.3	18	25	25
Tue Feb  2 13:32:17 2010	 San Jose CA 	Partly Cloudy	48	87	N/A		29.88	45	48	48
Tue Feb  2 13:32:18 2010	 Charlotte NC 	Light Rain	37	65	NE	6	30.09	27	37	33
Tue Feb  2 13:32:18 2010	 San Diego CA 	Hazy	55	77	N	5	29.88	48	55	55
Tue Feb  2 13:32:19 2010	 Denver CO 	Partly Cloudy	25	59	S	12	29.97	12	25	15
Tue Feb  2 13:32:20 2010	 Memphis TN 	Mostly Cloudy	36	93	N/A		30.12	34	36	36
Tue Feb  2 13:32:21 2010	 Los Angeles CA 	Fog And Mist	55	88	N/A		29.88	52	55	55
Tue Feb  2 13:32:22 2010	 El Paso TX 	Mostly Cloudy	41	76	N	8	30	34	41	36
Tue Feb  2 13:32:27 2010	 New York City NY 	Clear	28	43	N/A		30.3	9	28	28
Tue Feb  2 13:32:28 2010	 Baltimore MD 	Fair	28	74	N/A		30.24	21	28	28
Tue Feb  2 13:32:29 2010	 Las Vegas NV 	Clear	45	66	NW	5	29.91	34	45	43
Tue Feb  2 13:32:30 2010	 Washington DC 	Overcast	28	74	N/A		30.24	21	28	28
Tue Feb  2 13:32:31 2010	 Austin TX 	Fog And Mist	45	93	N/A		30.12	43	45	45
Tue Feb  2 13:32:32 2010	 San Francisco CA 	Clear	48	82	E	7	29.88	43	48	46
Tue Feb  2 13:32:33 2010	 Oklahoma City OK 	Overcast	34	81	NNW	8	30.15	28	34	28
Tue Feb  2 13:32:34 2010	 Nashville TN 	Fog And Mist	34	100	S	3	30.09	34	34	31
Tue Feb  2 13:32:36 2010	 Fort Worth TX 	Overcast	41	81	SE	3	30.21	36	41	39
Tue Feb  2 13:32:36 2010	 Phoenix AZ 	Mostly Cloudy	52	67	N/A		29.88	41	52	52
Tue Feb  2 13:32:38 2010	 Portland OR 	Overcast	41	93	E	5	29.91	39	41	38
Tue Feb  2 13:32:39 2010	 Chicago IL 	Light Snow	28	93	ESE	7	30.06	27	28	22
Tue Feb  2 13:32:40 2010	 San Antonio TX 	Fog And Mist	48	94	NE	7	30.06	46	48	46
Tue Feb  2 13:32:41 2010	 Indianapolis IN 	Overcast	32	75	E	7	30.03	25	32	26
Tue Feb  2 13:32:41 2010	 Boston MA 	Partly Cloudy	25	54	NW	7	30.24	10	25	18
Tue Feb  2 13:32:42 2010	 Jacksonville FL 	Overcast	59	94	WNW	3	29.97	57	59	59
Tue Feb  2 13:32:43 2010	 Columbus OH 	Fog And Mist	28	86	ENE	3	30.12	25	28	25
Tue Feb  2 13:32:44 2010	 Dallas TX 	Overcast	43	81	NNW	3	30.15	37	43	41
Tue Feb  2 13:32:45 2010	 Houston TX 	Fog And Mist	48	94	NE	8	30.09	46	48	45
Tue Feb  2 13:32:46 2010	 Seattle WA 	Overcast	45	93	SE	7	29.88	43	45	41
Tue Feb  2 13:32:47 2010	 Milwaukee WI 	Light Snow	28	93	N/A		30.03	27	28	28
Tue Feb  2 13:32:48 2010	 Detroit MI 	Overcast	25	74	E	3	30.15	18	25	21
Tue Feb  2 13:32:49 2010	 Philadelphia PA 	Mostly Cloudy	27	74	N/A		30.27	19	27	27
Tue Feb  2 14:15:57 2010	 San Jose CA 	Mostly Cloudy	46	87	N/A		29.85	43	46	46
Tue Feb  2 14:15:58 2010	 Charlotte NC 	Rain	36	81	N	5	30.09	30	36	32
Tue Feb  2 14:15:59 2010	 San Diego CA 	Hazy	54	82	N	3	29.88	48	54	54
Tue Feb  2 14:16:00 2010	 Denver CO 	Partly Cloudy	25	59	S	14	29.97	12	25	14
Tue Feb  2 14:16:01 2010	 Memphis TN 	Overcast	37	87	N/A		30.12	34	37	37
Tue Feb  2 14:16:02 2010	 Los Angeles CA 	Hazy	55	88	N/A		29.85	52	55	55
Tue Feb  2 14:16:03 2010	 El Paso TX 	Mostly Cloudy	41	66	N	10	30	30	41	35
Tue Feb  2 14:16:04 2010	 New York City NY 	Clear	28	43	N/A		30.3	9	28	28
Tue Feb  2 14:16:05 2010	 Baltimore MD 	Fair	30	69	N/A		30.27	21	30	30
Tue Feb  2 14:16:06 2010	 Las Vegas NV 	Partly Cloudy	45	66	N	3	29.91	34	45	44
Tue Feb  2 14:16:07 2010	 Washington DC 	Overcast	30	69	N/A		30.24	21	30	30
Tue Feb  2 14:16:08 2010	 Austin TX 	Fog And Mist	45	100	N/A		30.12	45	45	45
Tue Feb  2 14:16:09 2010	 San Francisco CA 	Partly Cloudy	48	82	E	8	29.88	43	48	45
Tue Feb  2 14:16:10 2010	 Oklahoma City OK 	Overcast	34	81	NNW	7	30.15	28	34	28
Tue Feb  2 14:16:11 2010	 Nashville TN 	Drizzle	36	100	N/A		30.09	36	36	36
Tue Feb  2 14:16:13 2010	 Fort Worth TX 	Overcast	41	81	Variable	3	30.21	36	41	39
Tue Feb  2 14:16:14 2010	 Phoenix AZ 	Partly Cloudy	52	77	SE	3	29.88	45	52	52
Tue Feb  2 14:16:15 2010	 Portland OR 	Mostly Cloudy	39	93	ESE	6	29.88	37	39	35
Tue Feb  2 14:16:16 2010	 Chicago IL 	Light Snow	28	93	SE	6	30.03	27	28	23
Tue Feb  2 14:16:17 2010	 San Antonio TX 	Fog And Mist	48	94	NE	6	30.09	46	48	46
Tue Feb  2 14:16:18 2010	 Indianapolis IN 	Mostly Cloudy	30	80	E	3	30.03	25	30	27
Tue Feb  2 14:16:18 2010	 Boston MA 	Partly Cloudy	25	54	WNW	7	30.27	10	25	18
Tue Feb  2 14:16:20 2010	 Jacksonville FL 	Overcast	57	100	NW	7	29.97	57	57	56
Tue Feb  2 14:16:20 2010	 Columbus OH 	Overcast	28	86	N/A		30.09	25	28	28
Tue Feb  2 14:16:21 2010	 Dallas TX 	Overcast	43	76	N	8	30.18	36	43	38
Tue Feb  2 14:16:22 2010	 Houston TX 	Fog And Mist	48	87	NE	10	30.09	45	48	44
Tue Feb  2 14:16:23 2010	 Seattle WA 	Mostly Cloudy	43	87	SE	6	29.85	39	43	40
Tue Feb  2 14:16:24 2010	 Milwaukee WI 	Light Snow	28	93	N/A		30.03	27	28	28
Tue Feb  2 14:16:25 2010	 Detroit MI 	Overcast	25	74	ESE	5	30.15	18	25	20
Tue Feb  2 14:16:26 2010	 Philadelphia PA 	Overcast	27	74	ENE	5	30.27	19	27	22
Tue Feb  2 15:00:12 2010	 San Jose CA 	Mostly Cloudy	46	87	N/A		29.85	43	46	46
Tue Feb  2 15:00:13 2010	 Charlotte NC 	Rain	36	81	N	5	30.09	30	36	32
Tue Feb  2 15:00:14 2010	 San Diego CA 	Hazy	54	82	N	3	29.88	48	54	54
Tue Feb  2 15:00:15 2010	 Denver CO 	Partly Cloudy	25	59	S	14	29.97	12	25	14
Tue Feb  2 15:00:16 2010	 Memphis TN 	Overcast	37	87	N/A		30.12	34	37	37
Tue Feb  2 15:00:17 2010	 Los Angeles CA 	Hazy	55	88	N/A		29.85	52	55	55
Tue Feb  2 15:00:18 2010	 El Paso TX 	Mostly Cloudy	41	66	N	10	30	30	41	35
Tue Feb  2 15:00:20 2010	 New York City NY 	Clear	28	43	N/A		30.3	9	28	28
Tue Feb  2 15:00:21 2010	 Baltimore MD 	Fair	30	69	N/A		30.27	21	30	30
Tue Feb  2 15:00:23 2010	 Las Vegas NV 	Partly Cloudy	45	66	N	3	29.91	34	45	44
Tue Feb  2 15:00:24 2010	 Washington DC 	Overcast	30	69	N/A		30.24	21	30	30
Tue Feb  2 15:00:25 2010	 Austin TX 	Fog And Mist	46	93	N/A		30.15	45	46	46
Tue Feb  2 15:00:26 2010	 San Francisco CA 	Partly Cloudy	48	82	E	8	29.88	43	48	45
Tue Feb  2 15:00:27 2010	 Oklahoma City OK 	Overcast	34	81	NNW	7	30.15	28	34	28
Tue Feb  2 15:00:28 2010	 Nashville TN 	Drizzle	36	100	N/A		30.09	36	36	36
Tue Feb  2 15:00:29 2010	 Fort Worth TX 	Overcast	41	81	Variable	3	30.21	36	41	39
Tue Feb  2 15:00:30 2010	 Phoenix AZ 	Partly Cloudy	52	77	SE	3	29.88	45	52	52
Tue Feb  2 15:00:31 2010	 Portland OR 	Mostly Cloudy	39	93	ESE	6	29.88	37	39	35
Tue Feb  2 15:00:32 2010	 Chicago IL 	Light Snow	28	93	SE	7	30.03	27	28	22
Tue Feb  2 15:00:33 2010	 San Antonio TX 	Fog And Mist	48	94	NE	9	30.09	46	48	44
Tue Feb  2 15:00:34 2010	 Indianapolis IN 	Mostly Cloudy	30	80	E	3	30.03	25	30	27
Tue Feb  2 15:00:35 2010	 Boston MA 	Partly Cloudy	25	54	WNW	7	30.27	10	25	18
Tue Feb  2 15:00:37 2010	 Jacksonville FL 	Overcast	57	100	N/A		29.97	57	57	57
Tue Feb  2 15:00:38 2010	 Columbus OH 	Overcast	28	86	N/A		30.09	25	28	28
Tue Feb  2 15:00:39 2010	 Dallas TX 	Overcast	43	76	N	8	30.18	36	43	38
Tue Feb  2 15:00:40 2010	 Houston TX 	Fog And Mist	48	87	NNE	9	30.12	45	48	44
Tue Feb  2 15:00:41 2010	 Seattle WA 	Mostly Cloudy	43	87	SE	6	29.85	39	43	40
Tue Feb  2 15:00:43 2010	 Milwaukee WI 	Light Snow	28	93	N/A		30.03	27	28	28
Tue Feb  2 15:00:44 2010	 Detroit MI 	Overcast	25	74	ESE	5	30.15	18	25	20
Tue Feb  2 15:00:45 2010	 Philadelphia PA 	Overcast	27	74	ENE	5	30.27	19	27	22
Tue Feb  2 15:46:41 2010	 San Jose CA 	Mostly Cloudy	46	87	N/A		29.85	43	46	46
Tue Feb  2 15:46:42 2010	 Charlotte NC 	Rain	34	87	N	14	30.12	30	34	25
Tue Feb  2 15:46:43 2010	 San Diego CA 	Hazy	54	82	N/A		29.88	48	54	54
Tue Feb  2 15:46:44 2010	 Denver CO 	Partly Cloudy	25	59	S	13	29.97	12	25	14
Tue Feb  2 15:46:45 2010	 Memphis TN 	Mostly Cloudy	39	81	N/A		30.12	34	39	39
Tue Feb  2 15:46:46 2010	 Los Angeles CA 	Hazy	55	82	N/A		29.85	50	55	55
Tue Feb  2 15:46:48 2010	 El Paso TX 	Mostly Cloudy	41	66	N	10	30.03	30	41	35
Tue Feb  2 15:46:50 2010	 New York City NY 	Mostly Cloudy	28	47	Variable	3	30.3	10	28	25
Tue Feb  2 15:46:51 2010	 Baltimore MD 	Fair	30	69	N/A		30.24	21	30	30
Tue Feb  2 15:46:52 2010	 Las Vegas NV 	Overcast	45	66	NW	3	29.91	34	45	44
Tue Feb  2 15:46:53 2010	 Washington DC 	Overcast	30	80	ENE	6	30.24	25	30	25
Tue Feb  2 15:46:54 2010	 Austin TX 	Fog And Mist	46	93	N/A		30.15	45	46	46
Tue Feb  2 15:46:56 2010	 San Francisco CA 	Partly Cloudy	46	82	N/A		29.88	41	46	46
Tue Feb  2 15:46:57 2010	 Oklahoma City OK 	Overcast	34	81	NNW	8	30.18	28	34	28
Tue Feb  2 15:46:58 2010	 Nashville TN 	Drizzle	36	100	N/A		30.09	36	36	36
Tue Feb  2 15:46:59 2010	 Fort Worth TX 	Overcast	43	76	Variable	6	30.24	36	43	40
Tue Feb  2 15:47:00 2010	 Phoenix AZ 	Mostly Cloudy	54	58	N/A		29.88	39	54	54
Tue Feb  2 15:47:01 2010	 Portland OR 	Mostly Cloudy	39	100	N/A		29.88	39	39	39
Tue Feb  2 15:47:02 2010	 Chicago IL 	Light Snow	28	86	SE	8	30.03	25	28	21
Tue Feb  2 15:47:04 2010	 San Antonio TX 	Fog And Mist	48	94	NE	7	30.09	46	48	46
Tue Feb  2 15:47:05 2010	 Indianapolis IN 	Mostly Cloudy	32	75	E	6	30.06	25	32	27
Tue Feb  2 15:47:06 2010	 Boston MA 	Partly Cloudy	27	50	NW	7	30.27	10	27	20
Tue Feb  2 15:47:08 2010	 Jacksonville FL 	Light Rain	59	94	S	5	29.97	57	59	59
Tue Feb  2 15:47:09 2010	 Columbus OH 	Overcast	30	75	E	7	30.09	23	30	24
Tue Feb  2 15:47:10 2010	 Dallas TX 	Overcast	43	76	N	9	30.21	36	43	38
Tue Feb  2 15:47:11 2010	 Houston TX 	Hazy	50	82	NE	8	30.12	45	50	47
Tue Feb  2 15:47:12 2010	 Seattle WA 	Mostly Cloudy	43	93	SE	6	29.88	41	43	40
Tue Feb  2 15:47:13 2010	 Milwaukee WI 	Snow	30	86	S	6	30.03	27	30	25
Tue Feb  2 15:47:14 2010	 Detroit MI 	Fog And Mist	25	80	SE	7	30.15	19	25	18
Tue Feb  2 15:47:15 2010	 Philadelphia PA 	Overcast	30	55	ENE	8	30.3	16	30	23
Tue Feb  2 16:32:07 2010	 San Jose CA 	Mostly Cloudy	46	87	N/A		29.88	43	46	46
Tue Feb  2 16:32:07 2010	 Charlotte NC 	Rain	34	93	N	10	30.12	32	34	27
Tue Feb  2 16:32:11 2010	 San Diego CA 	Hazy	54	82	NE	3	29.85	48	54	54
Tue Feb  2 16:32:12 2010	 Denver CO 	Partly Cloudy	27	54	S	14	29.97	12	27	16
Tue Feb  2 16:32:13 2010	 Memphis TN 	Overcast	39	81	W	5	30.15	34	39	36
Tue Feb  2 16:32:14 2010	 Los Angeles CA 	Hazy	55	82	N/A		29.85	50	55	55
Tue Feb  2 16:32:16 2010	 El Paso TX 	Partly Cloudy	45	53	N	10	30.03	28	45	40
Tue Feb  2 16:32:20 2010	 New York City NY 	Clear	28	47	N/A		30.3	10	28	28
Tue Feb  2 16:32:21 2010	 Baltimore MD 	Fair	34	65	N/A		30.24	23	34	34
Tue Feb  2 16:32:30 2010	 Las Vegas NV 	Partly Cloudy	43	71	NW	3	29.94	34	43	41
Tue Feb  2 16:32:30 2010	 Washington DC 	Overcast	34	70	NE	5	30.21	25	34	30
Tue Feb  2 16:32:31 2010	 Austin TX 	Fog And Mist	46	93	NE	6	30.15	45	46	44
Tue Feb  2 16:35:31 2010										
Tue Feb  2 16:35:32 2010	 Oklahoma City OK 	Overcast	34	81	NNW	6	30.18	28	34	29
Tue Feb  2 16:35:33 2010	 Nashville TN 	Drizzle	37	93	NNW	3	30.12	36	37	35
Tue Feb  2 16:35:34 2010	 Fort Worth TX 	Overcast	45	66	N	5	30.27	34	45	43
Tue Feb  2 16:35:35 2010	 Phoenix AZ 	Mostly Cloudy	54	58	ESE	6	29.88	39	54	52
Tue Feb  2 16:36:01 2010	 Portland OR 	Mostly Cloudy	39	100	N/A		29.88	39	39	39
Tue Feb  2 16:36:04 2010	 Chicago IL 	Light Snow	28	86	SE	8	30.03	25	28	21
Tue Feb  2 16:36:06 2010	 San Antonio TX 	Fog And Mist	48	94	NE	12	30.12	46	48	44
Tue Feb  2 16:36:07 2010	 Indianapolis IN 	Mostly Cloudy	34	65	SE	6	30.03	23	34	29
Tue Feb  2 16:36:15 2010	 Boston MA 	Partly Cloudy	28	43	NNW	13	30.27	9	28	19
Tue Feb  2 16:36:17 2010	 Jacksonville FL 	Rain	59	94	W	3	29.97	57	59	59
Tue Feb  2 16:36:18 2010	 Columbus OH 	Overcast	32	64	SE	3	30.09	21	32	29
Tue Feb  2 16:36:19 2010	 Dallas TX 	Overcast	43	71	N	9	30.21	34	43	38
Tue Feb  2 16:36:30 2010	 Houston TX 	Fog And Mist	50	88	NE	12	30.15	46	50	46
Tue Feb  2 16:36:39 2010	 Seattle WA 	Mostly Cloudy	43	87	SE	5	29.88	39	43	40
Tue Feb  2 16:36:40 2010	 Milwaukee WI 	Light Snow	28	93	S	5	30.03	27	28	24
Tue Feb  2 16:39:40 2010										
Tue Feb  2 16:39:48 2010	 Philadelphia PA 	Overcast	30	51	ENE	8	30.3	14	30	23
Tue Feb  2 17:26:09 2010	 San Jose CA 	Mostly Cloudy	48	87	N/A		29.88	45	48	48
Tue Feb  2 17:26:10 2010	 Charlotte NC 	Rain	36	93	N	12	30.09	34	36	28
Tue Feb  2 17:26:10 2010	 San Diego CA 	Hazy	54	82	N/A		29.85	48	54	54
Tue Feb  2 17:26:18 2010	 Denver CO 	Partly Cloudy	32	40	SSE	16	29.97	10	32	22
Tue Feb  2 17:26:19 2010	 Memphis TN 	Overcast	41	76	W	3	30.15	34	41	39
Tue Feb  2 17:26:29 2010	 Los Angeles CA 	Hazy	55	82	NNE	3	29.85	50	55	55
Tue Feb  2 17:26:37 2010	 El Paso TX 	Partly Cloudy	48	46	N	10	30.03	28	48	44
Tue Feb  2 17:26:41 2010	 New York City NY 	Mostly Cloudy	30	43	SE	9	30.27	10	30	23
Tue Feb  2 17:26:46 2010	 Baltimore MD 	Fair	36	60	N/A		30.21	23	36	36
Tue Feb  2 17:26:48 2010	 Las Vegas NV 	Partly Cloudy	45	66	N	3	29.94	34	45	44
Tue Feb  2 17:26:52 2010	 Washington DC 	Overcast	36	60	N/A		30.21	23	36	36
Tue Feb  2 17:26:53 2010	 Austin TX 	Fog And Mist	48	87	N/A		30.18	45	48	48
Tue Feb  2 17:26:54 2010	 San Francisco CA 	Mostly Cloudy	46	87	ENE	3	29.88	43	46	46
Tue Feb  2 17:26:55 2010	 Oklahoma City OK 	Overcast	34	81	N/A		30.21	28	34	34
Tue Feb  2 17:26:56 2010	 Nashville TN 	Fog	37	100	N/A		30.12	37	37	37
Tue Feb  2 17:27:00 2010	 Fort Worth TX 	Overcast	45	66	N	6	30.27	34	45	42
Tue Feb  2 17:27:01 2010	 Phoenix AZ 	Overcast	55	55	E	6	29.88	39	55	55
Tue Feb  2 17:27:04 2010	 Portland OR 	Mostly Cloudy	39	100	N/A		29.88	39	39	39
Tue Feb  2 17:27:05 2010	 Chicago IL 	Light Snow	28	93	S	5	30.03	27	28	24
Tue Feb  2 17:27:09 2010	 San Antonio TX 	Fog And Mist	48	94	NE	10	30.15	46	48	44
Tue Feb  2 17:27:13 2010	 Indianapolis IN 	Mostly Cloudy	36	56	SSE	6	30.03	21	36	31
Tue Feb  2 17:27:14 2010	 Boston MA 	Mostly Cloudy	28	43	Variable	6	30.27	9	28	23
Tue Feb  2 17:27:15 2010	 Jacksonville FL 	Light Rain	59	94	WNW	5	29.97	57	59	59
Tue Feb  2 17:27:19 2010	 Columbus OH 	Overcast	34	60	Variable	3	30.09	21	34	31
Tue Feb  2 17:27:20 2010	 Dallas TX 	Overcast	43	71	N	8	30.24	34	43	38
Tue Feb  2 17:27:27 2010	 Houston TX 	Overcast	52	82	NE	12	30.15	46	52	48
Tue Feb  2 17:27:28 2010	 Seattle WA 	Partly Cloudy	39	93	N/A		29.88	37	39	39
Tue Feb  2 17:27:29 2010	 Milwaukee WI 	Light Snow	30	86	S	7	30	27	30	24
Tue Feb  2 17:27:30 2010	 Detroit MI 	Light Snow	27	80	ESE	7	30.12	21	27	20
Tue Feb  2 17:27:31 2010	 Philadelphia PA 	Overcast	34	44	E	10	30.24	14	34	27
Tue Feb  2 18:12:23 2010	 San Jose CA 	Mostly Cloudy	48	87	N/A		29.88	45	48	48
Tue Feb  2 18:12:24 2010	 Charlotte NC 	Light Rain	36	93	NNE	10	30.06	34	36	29
Tue Feb  2 18:12:25 2010	 San Diego CA 	Hazy	55	77	N/A		29.85	48	55	55
Tue Feb  2 18:12:26 2010	 Denver CO 	Partly Cloudy	37	33	SW	12	29.97	10	37	31
Tue Feb  2 18:12:27 2010	 Memphis TN 	Overcast	45	71	NW	7	30.15	36	45	41
Tue Feb  2 18:12:28 2010	 Los Angeles CA 	Hazy	57	77	N/A		29.85	50	57	57
Tue Feb  2 18:12:29 2010	 El Paso TX 	Partly Cloudy	52	44	N	6	30.03	30	52	50
Tue Feb  2 18:12:30 2010	 New York City NY 	Mostly Cloudy	32	44	Variable	5	30.24	12	32	28
Tue Feb  2 18:12:31 2010	 Baltimore MD 	Fair	34	65	N/A		30.21	23	34	34
Tue Feb  2 18:12:32 2010	 Las Vegas NV 	Clear	48	58	N/A		29.94	34	48	48
Tue Feb  2 18:12:33 2010	 Washington DC 	Overcast	36	56	N/A		30.21	21	36	36
Tue Feb  2 18:12:34 2010	 Austin TX 	Fog And Mist	50	88	N/A		30.21	46	50	50
Tue Feb  2 18:12:35 2010	 San Francisco CA 	Mostly Cloudy	52	72	N	3	29.91	43	52	52
Tue Feb  2 18:12:36 2010	 Oklahoma City OK 	Overcast	36	81	N/A		30.24	30	36	36
Tue Feb  2 18:12:37 2010	 Nashville TN 	Fog	37	100	N/A		30.09	37	37	37
Tue Feb  2 18:12:38 2010	 Fort Worth TX 	Overcast	45	66	NNE	5	30.27	34	45	43
Tue Feb  2 18:12:39 2010	 Phoenix AZ 	Mostly Cloudy	61	42	E	5	29.88	37	61	61
Tue Feb  2 18:12:40 2010	 Portland OR 	Fog And Mist	41	93	NW	3	29.88	39	41	39
Tue Feb  2 18:12:41 2010	 Chicago IL 	Light Snow	30	86	N/A		30	27	30	30
Tue Feb  2 18:12:42 2010	 San Antonio TX 	Fog And Mist	50	88	NE	10	30.15	46	50	46
Tue Feb  2 18:12:43 2010	 Indianapolis IN 	Overcast	37	52	SSE	5	30	21	37	34
Tue Feb  2 18:12:44 2010	 Boston MA 	Overcast	28	43	Variable	5	30.24	9	28	24
Tue Feb  2 18:12:45 2010	 Jacksonville FL 	Overcast	61	88	W	10	29.97	57	61	60
Tue Feb  2 18:12:47 2010	 Columbus OH 	Overcast	36	52	E	5	30.06	19	36	32
Tue Feb  2 18:12:47 2010	 Dallas TX 	Mostly Cloudy	45	66	N	9	30.24	34	45	40
Tue Feb  2 18:12:49 2010	 Houston TX 	Light Rain	54	77	ENE	3	30.18	46	54	54
Tue Feb  2 18:12:50 2010	 Seattle WA 	Partly Cloudy	45	87	Variable	5	29.88	41	45	43
Tue Feb  2 18:12:51 2010	 Milwaukee WI 	Light Snow	30	86	SW	7	30	27	30	24
Tue Feb  2 18:12:53 2010	 Detroit MI 	Light Snow	27	86	ESE	7	30.09	23	27	20
Tue Feb  2 18:12:53 2010	 Philadelphia PA 	Overcast	36	38	ESE	8	30.24	12	36	30
Tue Feb  2 18:56:26 2010	 San Jose CA 	Mostly Cloudy	48	87	N/A		29.88	45	48	48
Tue Feb  2 18:56:27 2010	 Charlotte NC 	Fog And Mist	36	93	N	12	30.03	34	36	28
Tue Feb  2 18:56:28 2010	 San Diego CA 	Hazy	55	77	N/A		29.85	48	55	55
Tue Feb  2 18:56:30 2010	 Denver CO 	Partly Cloudy	37	33	SW	12	29.97	10	37	31
Tue Feb  2 18:56:30 2010	 Memphis TN 	Overcast	45	71	NW	7	30.15	36	45	41
Tue Feb  2 18:56:31 2010	 Los Angeles CA 	Hazy	57	77	N/A		29.85	50	57	57
Tue Feb  2 18:56:32 2010	 El Paso TX 	Partly Cloudy	52	44	N	6	30.03	30	52	50
Tue Feb  2 18:56:34 2010	 New York City NY 	Mostly Cloudy	32	44	Variable	5	30.24	12	32	28
Tue Feb  2 18:56:35 2010	 Baltimore MD 	Fair	34	65	N/A		30.21	23	34	34
Tue Feb  2 18:56:35 2010	 Las Vegas NV 	Clear	48	58	N/A		29.94	34	48	48
Tue Feb  2 18:56:36 2010	 Washington DC 	Overcast	36	56	N/A		30.21	21	36	36
Tue Feb  2 18:56:37 2010	 Austin TX 	Fog And Mist	50	88	N/A		30.21	46	50	50
Tue Feb  2 18:56:38 2010	 San Francisco CA 	Mostly Cloudy	52	72	N	3	29.91	43	52	52
Tue Feb  2 18:56:39 2010	 Oklahoma City OK 	Overcast	36	81	N/A		30.24	30	36	36
Tue Feb  2 18:56:40 2010	 Nashville TN 	Fog And Mist	39	93	N/A		30.09	37	39	39
Tue Feb  2 18:56:41 2010	 Fort Worth TX 	Overcast	45	66	NNE	5	30.27	34	45	43
Tue Feb  2 18:56:42 2010	 Phoenix AZ 	Mostly Cloudy	61	42	E	5	29.88	37	61	61
Tue Feb  2 18:56:43 2010	 Portland OR 	Fog And Mist	41	93	NW	3	29.88	39	41	39
Tue Feb  2 18:56:45 2010	 Chicago IL 	Light Snow	30	86	S	3	30	27	30	27
Tue Feb  2 18:56:46 2010	 San Antonio TX 	Fog And Mist	50	88	NE	8	30.15	46	50	47
Tue Feb  2 18:56:46 2010	 Indianapolis IN 	Overcast	37	52	SSE	5	30	21	37	34
Tue Feb  2 18:56:47 2010	 Boston MA 	Overcast	28	43	Variable	5	30.24	9	28	24
Tue Feb  2 18:56:49 2010	 Jacksonville FL 	Overcast	61	88	WNW	10	29.94	57	61	60
Tue Feb  2 18:56:50 2010	 Columbus OH 	Overcast	36	52	E	5	30.06	19	36	32
Tue Feb  2 18:56:51 2010	 Dallas TX 	Mostly Cloudy	45	66	NNW	8	30.24	34	45	41
Tue Feb  2 18:56:52 2010	 Houston TX 	Light Rain	54	77	ENE	3	30.18	46	54	54
Tue Feb  2 18:56:53 2010	 Seattle WA 	Partly Cloudy	45	87	Variable	5	29.88	41	45	43
Tue Feb  2 18:56:54 2010	 Milwaukee WI 	Light Snow	32	80	SSE	6	30	27	32	27
Tue Feb  2 18:56:55 2010	 Detroit MI 	Light Snow	28	80	ESE	7	30.09	23	28	22
Tue Feb  2 18:56:56 2010	 Philadelphia PA 	Overcast	36	38	ESE	8	30.24	12	36	30
Tue Feb  2 19:44:53 2010	 San Jose CA 	Overcast	52	82	N/A		29.88	46	52	52
Tue Feb  2 19:44:54 2010	 Charlotte NC 	Fog And Mist	36	93	N	10	30	34	36	29
Tue Feb  2 19:44:55 2010	 San Diego CA 	Mostly Cloudy	57	72	WNW	5	29.88	48	57	57
Tue Feb  2 19:44:56 2010	 Denver CO 	Partly Cloudy	43	22	S	8	29.94	7	43	38
Tue Feb  2 19:44:57 2010	 Memphis TN 	Overcast	45	71	WNW	9	30.15	36	45	40
Tue Feb  2 19:44:58 2010	 Los Angeles CA 	Hazy	61	68	N/A		29.85	50	61	61
Tue Feb  2 19:45:00 2010	 El Paso TX 	Mostly Cloudy	55	38	NNE	7	30.03	30	55	54
Tue Feb  2 19:45:02 2010	 New York City NY 	Overcast	34	35	SSE	7	30.24	9	34	28
Tue Feb  2 19:45:03 2010	 Baltimore MD 	Fair	37	65	N/A		30.18	27	37	37
Tue Feb  2 19:45:04 2010	 Las Vegas NV 	Clear	52	44	N/A		29.94	30	52	52
Tue Feb  2 19:45:05 2010	 Washington DC 	Overcast	37	52	N/A		30.18	21	37	37
Tue Feb  2 19:45:06 2010	 Austin TX 	Fog And Mist	48	94	NE	6	30.18	46	48	46
Tue Feb  2 19:45:08 2010	 San Francisco CA 	Mostly Cloudy	52	72	ESE	3	29.91	43	52	52
Tue Feb  2 19:45:10 2010	 Oklahoma City OK 	Hazy	36	81	NW	3	30.21	30	36	33
Tue Feb  2 19:45:11 2010	 Nashville TN 	Hazy	43	81	NW	5	30.06	37	43	40
Tue Feb  2 19:45:13 2010	 Fort Worth TX 	Overcast	45	71	NNE	8	30.3	36	45	41
Tue Feb  2 19:45:14 2010	 Phoenix AZ 	Mostly Cloudy	63	39	E	8	29.88	37	63	62
Tue Feb  2 19:45:16 2010	 Portland OR 	Partly Cloudy	43	87	NW	5	29.88	39	43	40
Tue Feb  2 19:45:17 2010	 Chicago IL 	Hazy	30	80	SSE	6	30	25	30	25
Tue Feb  2 19:45:18 2010	 San Antonio TX 	Fog And Mist	52	88	NE	10	30.12	48	52	49
Tue Feb  2 19:45:19 2010	 Indianapolis IN 	Overcast	37	52	SW	7	29.97	21	37	33
Tue Feb  2 19:45:20 2010	 Boston MA 	Overcast	30	40	N/A		30.21	9	30	30
Tue Feb  2 19:45:22 2010	 Jacksonville FL 	Overcast	61	88	WNW	9	29.94	57	61	60
Tue Feb  2 19:45:23 2010	 Columbus OH 	Overcast	37	52	E	6	30.03	21	37	33
Tue Feb  2 19:45:24 2010	 Dallas TX 	Mostly Cloudy	46	62	Variable	5	30.24	34	46	45
Tue Feb  2 19:45:25 2010	 Houston TX 	Light Rain	54	77	ENE	8	30.15	46	54	51
Tue Feb  2 19:45:27 2010	 Seattle WA 	Mostly Cloudy	46	87	N/A		29.88	43	46	46
Tue Feb  2 19:45:28 2010	 Milwaukee WI 	Light Snow	32	80	S	5	29.97	27	32	28
Tue Feb  2 19:45:29 2010	 Detroit MI 	Hazy	28	80	SE	7	30.06	23	28	22
Tue Feb  2 19:45:30 2010	 Philadelphia PA 	Overcast	36	38	E	5	30.21	12	36	32
Tue Feb  2 20:36:33 2010	 San Jose CA 	Mostly Cloudy	55	72	N/A		29.88	46	55	55
Tue Feb  2 20:36:39 2010	 Charlotte NC 	Light Rain	36	93	N	9	29.97	34	36	29
Tue Feb  2 20:36:40 2010	 San Diego CA 	Mostly Cloudy	61	63	NW	8	29.85	48	61	60
Tue Feb  2 20:36:41 2010	 Denver CO 	Partly Cloudy	46	21	WNW	3	29.91	9	46	46
Tue Feb  2 20:36:43 2010	 Memphis TN 	Overcast	45	66	NNW	12	30.15	34	45	39
Tue Feb  2 20:36:45 2010	 Los Angeles CA 	Hazy	63	52	N/A		29.83	45	63	63
Tue Feb  2 20:36:48 2010	 El Paso TX 	Mostly Cloudy	59	34	NE	9	29.97	30	59	58
Tue Feb  2 20:36:51 2010	 New York City NY 	Mostly Cloudy	34	38	SSE	8	30.21	10	34	28
Tue Feb  2 20:36:52 2010	 Baltimore MD 	Fair	36	65	N/A		30.15	25	36	36
Tue Feb  2 20:36:57 2010	 Las Vegas NV 	Clear	54	38	N/A		29.91	28	54	54
Tue Feb  2 20:36:58 2010	 Washington DC 	Overcast	39	48	N/A		30.15	21	39	39
Tue Feb  2 20:36:59 2010	 Austin TX 	Fog And Mist	50	88	NE	7	30.15	46	50	48
Tue Feb  2 20:37:02 2010	 San Francisco CA 	Mostly Cloudy	54	72	SSE	6	29.88	45	54	52
Tue Feb  2 20:37:04 2010	 Oklahoma City OK 	Hazy	37	75	N/A		30.18	30	37	37
Tue Feb  2 20:37:04 2010	 Nashville TN 	Mostly Cloudy	45	71	Variable	5	30.06	36	45	43
Tue Feb  2 20:37:10 2010	 Fort Worth TX 	Overcast	45	71	NNE	6	30.27	36	45	42
Tue Feb  2 20:37:11 2010	 Phoenix AZ 	Mostly Cloudy	66	32	E	5	29.83	36	66	66
Tue Feb  2 20:37:12 2010	 Portland OR 	Partly Cloudy	45	81	N/A		29.88	39	45	45
Tue Feb  2 20:37:13 2010	 Chicago IL 	Hazy	32	69	SW	6	29.97	23	32	27
Tue Feb  2 20:37:14 2010	 San Antonio TX 	Fog And Mist	54	82	NE	12	30.09	48	54	50
Tue Feb  2 20:37:15 2010	 Indianapolis IN 	Overcast	37	56	SSW	9	29.97	23	37	31
Tue Feb  2 20:37:20 2010	 Boston MA 	Overcast	30	43	S	7	30.21	10	30	24
Tue Feb  2 20:37:23 2010	 Jacksonville FL 	Overcast	61	83	WNW	10	29.94	55	61	60
Tue Feb  2 20:37:25 2010	 Columbus OH 	Overcast	41	45	N/A		29.97	21	41	41
Tue Feb  2 20:37:27 2010	 Dallas TX 	Mostly Cloudy	48	58	N	6	30.21	34	48	46
Tue Feb  2 20:37:30 2010	 Houston TX 	Light Rain	54	82	N	8	30.12	48	54	51
Tue Feb  2 20:37:32 2010	 Seattle WA 	Mostly Cloudy	48	82	SSE	5	29.88	43	48	47
Tue Feb  2 20:37:33 2010	 Milwaukee WI 	Light Snow	32	80	SW	3	29.97	27	32	29
Tue Feb  2 20:37:36 2010	 Detroit MI 	Light Snow	28	86	ESE	5	30.03	25	28	24
Tue Feb  2 20:37:39 2010	 Philadelphia PA 	Overcast	36	41	N/A		30.18	14	36	36
Tue Feb  2 21:23:34 2010	 San Jose CA 	Mostly Cloudy	55	72	N/A		29.85	46	55	55
Tue Feb  2 21:23:35 2010	 Charlotte NC 	Drizzle	36	100	N	9	29.97	36	36	29
Tue Feb  2 21:23:36 2010	 San Diego CA 	Mostly Cloudy	61	63	NW	7	29.83	48	61	60
Tue Feb  2 21:23:37 2010	 Denver CO 	Partly Cloudy	48	20	NNW	5	29.88	9	48	47
Tue Feb  2 21:23:38 2010	 Memphis TN 	Overcast	45	66	NW	8	30.12	34	45	41
Tue Feb  2 21:23:39 2010	 Los Angeles CA 	Hazy	64	52	N/A		29.83	46	64	64
Tue Feb  2 21:23:40 2010	 El Paso TX 	Mostly Cloudy	61	31	ESE	12	29.94	30	61	59
Tue Feb  2 21:23:42 2010	 New York City NY 	Mostly Cloudy	34	48	Variable	6	30.21	16	34	29
Tue Feb  2 21:23:43 2010	 Baltimore MD 	Fair	37	60	N/A		30.15	25	37	37
Tue Feb  2 21:23:44 2010	 Las Vegas NV 	Clear	55	36	E	6	29.88	28	55	55
Tue Feb  2 21:23:45 2010	 Washington DC 	Overcast	41	45	N/A		30.12	21	41	41
Tue Feb  2 21:23:46 2010	 Austin TX 	Hazy	52	82	NE	8	30.12	46	52	49
Tue Feb  2 21:23:47 2010	 San Francisco CA 	Mostly Cloudy	54	77	S	6	29.85	46	54	52
Tue Feb  2 21:23:48 2010	 Oklahoma City OK 	Hazy	36	81	SW	5	30.18	30	36	32
Tue Feb  2 21:23:49 2010	 Nashville TN 	Mostly Cloudy	45	71	W	5	30.06	36	45	43
Tue Feb  2 21:23:51 2010	 Fort Worth TX 	Mostly Cloudy	45	71	NNE	8	30.24	36	45	41
Tue Feb  2 21:23:52 2010	 Phoenix AZ 	Mostly Cloudy	68	30	Variable	5	29.8	36	68	68
Tue Feb  2 21:23:53 2010	 Portland OR 	Mostly Cloudy	46	87	W	5	29.85	43	46	45
Tue Feb  2 21:23:54 2010	 Chicago IL 	Hazy	32	75	SSW	8	29.97	25	32	26
Tue Feb  2 21:23:55 2010	 San Antonio TX 	Hazy	54	82	NE	8	30.09	48	54	51
Tue Feb  2 21:23:56 2010	 Indianapolis IN 	Overcast	37	60	SSW	7	29.97	25	37	33
Tue Feb  2 21:23:57 2010	 Boston MA 	Mostly Cloudy	30	43	SE	7	30.21	10	30	24
Tue Feb  2 21:23:58 2010	 Jacksonville FL 	Overcast	61	83	NW	13	29.91	55	61	59
Tue Feb  2 21:23:59 2010	 Columbus OH 	Overcast	43	39	SE	6	29.97	19	43	40
Tue Feb  2 21:24:00 2010	 Dallas TX 	Partly Cloudy	48	58	N	7	30.18	34	48	46
Tue Feb  2 21:24:01 2010	 Houston TX 	Overcast	55	82	NE	9	30.09	50	55	53
Tue Feb  2 21:24:02 2010	 Seattle WA 	Mostly Cloudy	50	71	S	3	29.88	41	50	50
Tue Feb  2 21:24:03 2010	 Milwaukee WI 	Hazy	34	75	N/A		29.94	27	34	34
Tue Feb  2 21:24:04 2010	 Detroit MI 	Light Snow	28	86	E	6	30.03	25	28	23
Tue Feb  2 21:24:05 2010	 Philadelphia PA 	Overcast	36	41	ESE	5	30.18	14	36	32
Tue Feb  2 22:10:17 2010	 San Jose CA 	Overcast	57	67	N/A		29.83	46	57	57
Tue Feb  2 22:10:22 2010	 Charlotte NC 	Drizzle	37	93	N	10	29.97	36	37	31
Tue Feb  2 22:10:23 2010	 San Diego CA 	Mostly Cloudy	61	63	W	8	29.83	48	61	60
Tue Feb  2 22:10:25 2010	 Denver CO 	Mostly Cloudy	46	25	N	14	29.88	12	46	41
Tue Feb  2 22:10:26 2010	 Memphis TN 	Overcast	45	66	NW	10	30.15	34	45	40
Tue Feb  2 22:10:27 2010	 Los Angeles CA 	Hazy	64	60	Variable	6	29.8	50	64	64
Tue Feb  2 22:11:22 2010	 El Paso TX 	Mostly Cloudy	63	30	E	10	29.91	30	63	62
Tue Feb  2 22:11:23 2010	 New York City NY 	Mostly Cloudy	34	48	S	5	30.21	16	34	30
Tue Feb  2 22:11:24 2010	 Baltimore MD 	Fair	37	60	N/A		30.12	25	37	37
Tue Feb  2 22:11:26 2010	 Las Vegas NV 	Clear	57	33	SE	10	29.85	28	57	55
Tue Feb  2 22:11:27 2010	 Washington DC 	Overcast	39	48	ESE	8	30.12	21	39	34
Tue Feb  2 22:11:28 2010	 Austin TX 	Overcast	52	77	Variable	6	30.09	45	52	50
Tue Feb  2 22:11:29 2010	 San Francisco CA 	Mostly Cloudy	54	77	SW	5	29.83	46	54	53
Tue Feb  2 22:11:30 2010	 Oklahoma City OK 	Fog And Mist	36	81	N/A		30.18	30	36	36
Tue Feb  2 22:11:30 2010	 Nashville TN 	Mostly Cloudy	46	57	WNW	7	30.06	32	46	43
Tue Feb  2 22:11:32 2010	 Fort Worth TX 	Partly Cloudy	48	66	NNE	3	30.21	37	48	47
Tue Feb  2 22:11:33 2010	 Phoenix AZ 	Mostly Cloudy	72	27	E	6	29.77	36	76	72
Tue Feb  2 22:11:34 2010	 Portland OR 	Mostly Cloudy	48	82	Variable	3	29.8	43	48	47
Tue Feb  2 22:11:35 2010	 Chicago IL 	Hazy	32	75	W	8	29.97	25	32	26
Tue Feb  2 22:11:36 2010	 San Antonio TX 	Hazy	54	82	ENE	9	30.09	48	54	51
Tue Feb  2 22:11:37 2010	 Indianapolis IN 	Overcast	37	60	SSW	12	29.97	25	37	31
Tue Feb  2 22:11:37 2010	 Boston MA 	Overcast	30	43	S	6	30.21	10	30	25
Tue Feb  2 22:11:39 2010	 Jacksonville FL 	Overcast	61	77	NW	12	29.94	54	61	59
Tue Feb  2 22:11:40 2010	 Columbus OH 	Overcast	43	39	SSE	6	29.94	19	43	40
Tue Feb  2 22:11:41 2010	 Dallas TX 	Partly Cloudy	50	58	N/A		30.18	36	50	50
Tue Feb  2 22:11:42 2010	 Houston TX 	Overcast	57	77	NE	10	30.12	50	57	55
Tue Feb  2 22:11:43 2010	 Seattle WA 	Mostly Cloudy	52	62	N/A		29.83	39	52	52
Tue Feb  2 22:11:44 2010	 Milwaukee WI 	Light Snow	32	80	W	3	29.94	27	32	29
Tue Feb  2 22:11:45 2010	 Detroit MI 	Light Snow	28	93	ESE	8	30.03	27	28	21
Tue Feb  2 22:11:46 2010	 Philadelphia PA 	Overcast	36	44	E	5	30.18	16	36	32
Tue Feb  2 22:56:33 2010	 San Jose CA 	Overcast	57	67	N/A		29.83	46	57	57
Tue Feb  2 22:56:34 2010	 Charlotte NC 	Drizzle	37	93	N	10	29.97	36	37	31
Tue Feb  2 22:56:36 2010	 San Diego CA 	Mostly Cloudy	61	63	W	8	29.83	48	61	60
Tue Feb  2 22:56:37 2010	 Denver CO 	Mostly Cloudy	46	25	N	14	29.88	12	46	41
Tue Feb  2 22:56:38 2010	 Memphis TN 	Overcast	45	66	NW	10	30.15	34	45	40
Tue Feb  2 22:56:39 2010	 Los Angeles CA 	Hazy	64	60	Variable	6	29.8	50	64	64
Tue Feb  2 22:56:40 2010	 El Paso TX 	Mostly Cloudy	63	30	E	10	29.91	30	63	62
Tue Feb  2 22:56:43 2010	 New York City NY 	Mostly Cloudy	34	48	S	5	30.21	16	34	30
Tue Feb  2 22:56:44 2010	 Baltimore MD 	Fair	37	60	N/A		30.12	25	37	37
Tue Feb  2 22:56:45 2010	 Las Vegas NV 	Clear	57	33	SE	10	29.85	28	57	55
Tue Feb  2 22:56:46 2010	 Washington DC 	Overcast	39	48	ESE	8	30.12	21	39	34
Tue Feb  2 22:56:47 2010	 Austin TX 	Overcast	52	77	Variable	6	30.09	45	52	50
Tue Feb  2 22:56:48 2010	 San Francisco CA 	Mostly Cloudy	54	77	SW	5	29.83	46	54	53
Tue Feb  2 22:56:49 2010	 Oklahoma City OK 	Fog And Mist	36	81	N/A		30.18	30	36	36
Tue Feb  2 22:56:50 2010	 Nashville TN 	Mostly Cloudy	46	57	WNW	7	30.06	32	46	43
Tue Feb  2 22:56:51 2010	 Fort Worth TX 	Partly Cloudy	48	66	NNE	3	30.21	37	48	47
Tue Feb  2 22:56:53 2010	 Phoenix AZ 	Mostly Cloudy	72	27	E	6	29.77	36	76	72
Tue Feb  2 22:56:54 2010	 Portland OR 	Mostly Cloudy	48	82	Variable	3	29.8	43	48	47
Tue Feb  2 22:56:55 2010	 Chicago IL 	Hazy	32	75	W	8	29.97	25	32	26
Tue Feb  2 22:56:56 2010	 San Antonio TX 	Hazy	54	82	ENE	9	30.09	48	54	51
Tue Feb  2 22:56:57 2010	 Indianapolis IN 	Overcast	37	60	SSW	12	29.97	25	37	31
Tue Feb  2 22:56:58 2010	 Boston MA 	Overcast	30	43	S	6	30.21	10	30	25
Tue Feb  2 22:56:59 2010	 Jacksonville FL 	Overcast	61	77	NW	12	29.94	54	61	59
Tue Feb  2 22:57:00 2010	 Columbus OH 	Overcast	43	39	SSE	6	29.94	19	43	40
Tue Feb  2 22:57:01 2010	 Dallas TX 	Partly Cloudy	50	58	N/A		30.18	36	50	50
Tue Feb  2 22:57:02 2010	 Houston TX 	Overcast	57	77	NE	10	30.12	50	57	55
Tue Feb  2 22:57:02 2010	 Seattle WA 	Mostly Cloudy	52	62	N/A		29.83	39	52	52
Tue Feb  2 22:57:03 2010	 Milwaukee WI 	Light Snow	32	80	W	3	29.94	27	32	29
Tue Feb  2 22:57:04 2010	 Detroit MI 	Light Snow	28	93	ESE	8	30.03	27	28	21
Tue Feb  2 22:57:05 2010	 Philadelphia PA 	Overcast	36	44	E	5	30.18	16	36	32
Tue Feb  2 23:41:17 2010	 San Jose CA 	Overcast	57	72	N/A		29.83	48	57	57
Tue Feb  2 23:41:18 2010	 Charlotte NC 	Light Rain	37	93	N	8	30	36	37	32
Tue Feb  2 23:41:18 2010	 San Diego CA 	Mostly Cloudy	61	68	NW	9	29.8	50	61	60
Tue Feb  2 23:41:24 2010	 Denver CO 	Mostly Cloudy	46	25	N	7	29.88	12	46	43
Tue Feb  2 23:41:31 2010	 Memphis TN 	Overcast	43	71	NNW	8	30.15	34	43	38
Tue Feb  2 23:41:32 2010	 Los Angeles CA 	Hazy	64	60	W	5	29.8	50	64	64
Tue Feb  2 23:41:33 2010	 El Paso TX 	Mostly Cloudy	63	30	E	13	29.91	30	63	61
Tue Feb  2 23:41:35 2010	 New York City NY 	Mostly Cloudy	34	51	Variable	6	30.21	18	34	29
Tue Feb  2 23:41:36 2010	 Baltimore MD 	Fair	37	56	N/A		30.12	23	37	37
Tue Feb  2 23:41:37 2010	 Las Vegas NV 	Clear	57	33	ESE	3	29.83	28	57	57
Tue Feb  2 23:41:38 2010	 Washington DC 	Overcast	37	65	E	7	30.12	27	37	33
Tue Feb  2 23:41:40 2010	 Austin TX 	Hazy	52	77	N/A		30.12	45	52	52
Tue Feb  2 23:41:42 2010	 San Francisco CA 	Overcast	54	77	W	6	29.83	46	54	52
Tue Feb  2 23:41:44 2010	 Oklahoma City OK 	Hazy	36	81	N/A		30.18	30	36	36
Tue Feb  2 23:41:49 2010	 Nashville TN 	Overcast	45	57	WNW	6	30.06	30	45	42
Tue Feb  2 23:41:50 2010	 Fort Worth TX 	Partly Cloudy	55	47	NE	7	30.21	36	55	54
Tue Feb  2 23:41:51 2010	 Phoenix AZ 	Mostly Cloudy	72	27	N/A		29.74	36	76	72
Tue Feb  2 23:41:52 2010	 Portland OR 	Mostly Cloudy	50	82	N	3	29.8	45	50	50
Tue Feb  2 23:41:53 2010	 Chicago IL 	Light Snow	30	86	W	7	30	27	30	24
Tue Feb  2 23:41:53 2010	 San Antonio TX 	Light Rain	52	88	NE	13	30.09	48	52	48
Tue Feb  2 23:41:55 2010	 Indianapolis IN 	Overcast	37	60	SSW	9	29.97	25	37	31
Tue Feb  2 23:41:55 2010	 Boston MA 	Overcast	28	55	SE	10	30.21	14	28	20
Tue Feb  2 23:42:00 2010	 Jacksonville FL 	Overcast	59	82	NW	8	29.94	54	59	58
Tue Feb  2 23:42:01 2010	 Columbus OH 	Overcast	41	42	SSE	3	29.97	19	41	39
Tue Feb  2 23:42:02 2010	 Dallas TX 	Mostly Cloudy	52	54	NNE	10	30.15	36	52	49
Tue Feb  2 23:42:03 2010	 Houston TX 	Overcast	57	77	NE	9	30.12	50	57	55
Tue Feb  2 23:42:04 2010	 Seattle WA 	Partly Cloudy	54	58	NE	5	29.83	39	54	53
Tue Feb  2 23:42:05 2010	 Milwaukee WI 	Light Snow	32	80	W	5	29.97	27	32	28
Tue Feb  2 23:42:06 2010	 Detroit MI 	Light Snow	27	93	SE	9	30	25	27	18
Tue Feb  2 23:42:07 2010	 Philadelphia PA 	Overcast	36	48	NE	3	30.15	18	36	33
Wed Feb  3 00:26:25 2010	 San Jose CA 	Overcast	59	63	NW	5	29.83	46	59	59
Wed Feb  3 00:26:27 2010	 Charlotte NC 	Light Rain	37	93	NE	7	29.97	36	37	33
Wed Feb  3 00:26:27 2010	 San Diego CA 	Mostly Cloudy	61	68	NW	7	29.8	50	61	60
Wed Feb  3 00:26:29 2010	 Denver CO 	Mostly Cloudy	45	29	NNW	9	29.88	14	45	40
Wed Feb  3 00:26:30 2010	 Memphis TN 	Overcast	41	70	NNW	8	30.18	32	41	36
Wed Feb  3 00:26:31 2010	 Los Angeles CA 	Hazy	64	60	Variable	3	29.8	50	64	64
Wed Feb  3 00:26:32 2010	 El Paso TX 	Mostly Cloudy	63	32	SE	9	29.88	32	63	62
Wed Feb  3 00:26:34 2010	 New York City NY 	Overcast	34	56	Variable	3	30.18	19	34	31
Wed Feb  3 00:26:35 2010	 Baltimore MD 	Fair	36	56	N/A		30.12	21	36	36
Wed Feb  3 00:26:36 2010	 Las Vegas NV 	Clear	57	36	E	7	29.83	30	57	56
Wed Feb  3 00:26:38 2010	 Washington DC 	Light Snow	37	70	NE	9	30.12	28	37	31
Wed Feb  3 00:26:39 2010	 Austin TX 	Hazy	52	77	Variable	3	30.15	45	52	52
Wed Feb  3 00:26:40 2010	 San Francisco CA 	Light Rain	55	72	W	7	29.83	46	55	54
Wed Feb  3 00:26:41 2010	 Oklahoma City OK 	Hazy	36	81	S	3	30.18	30	36	33
Wed Feb  3 00:26:42 2010	 Nashville TN 	Overcast	45	57	WNW	5	30.09	30	45	43
Wed Feb  3 00:26:43 2010	 Fort Worth TX 	Partly Cloudy	54	54	ENE	6	30.21	37	54	52
Wed Feb  3 00:26:44 2010	 Phoenix AZ 	Mostly Cloudy	72	29	SSE	3	29.74	37	76	72
Wed Feb  3 00:26:44 2010	 Portland OR 	Mostly Cloudy	54	67	N/A		29.77	43	54	54
Wed Feb  3 00:26:45 2010	 Chicago IL 	Light Snow	30	86	W	6	30	27	30	25
Wed Feb  3 00:26:46 2010	 San Antonio TX 	Fog And Mist	52	88	NE	13	30.12	48	52	48
Wed Feb  3 00:26:48 2010	 Indianapolis IN 	Overcast	36	70	W	9	30	27	36	29
Wed Feb  3 00:26:49 2010	 Boston MA 	Overcast	28	47	SW	8	30.21	10	28	21
Wed Feb  3 00:26:50 2010	 Jacksonville FL 	Overcast	57	82	NW	14	29.97	52	57	54
Wed Feb  3 00:26:51 2010	 Columbus OH 	Overcast	39	45	SW	3	29.97	19	39	37
Wed Feb  3 00:26:51 2010	 Dallas TX 	Mostly Cloudy	50	58	NE	10	30.15	36	50	46
Wed Feb  3 00:26:53 2010	 Houston TX 	Overcast	57	72	NE	9	30.12	48	57	55
Wed Feb  3 00:26:54 2010	 Seattle WA 	Mostly Cloudy	55	47	ENE	5	29.8	36	55	55
Wed Feb  3 00:26:56 2010	 Milwaukee WI 	Light Snow	32	80	SSW	3	29.97	27	32	29
Wed Feb  3 00:26:57 2010	 Detroit MI 	Fog And Mist	27	93	SE	8	30	25	27	19
Wed Feb  3 00:26:58 2010	 Philadelphia PA 	Overcast	34	56	N/A		30.15	19	34	34
Wed Feb  3 01:10:07 2010	 San Jose CA 	Light Rain	57	77	NW	6	29.83	50	57	57
Wed Feb  3 01:10:08 2010	 Charlotte NC 	Light Rain	37	93	Variable	3	29.97	36	37	35
Wed Feb  3 01:10:09 2010	 San Diego CA 	Mostly Cloudy	61	68	NW	9	29.8	50	61	60
Wed Feb  3 01:10:11 2010	 Denver CO 	Mostly Cloudy	37	41	NNW	7	29.88	16	37	33
Wed Feb  3 01:10:13 2010	 Memphis TN 	Overcast	41	70	NNW	7	30.18	32	41	37
Wed Feb  3 01:10:14 2010	 Los Angeles CA 	Clear	64	56	Variable	3	29.77	48	64	64
Wed Feb  3 01:10:15 2010	 El Paso TX 	Mostly Cloudy	61	36	E	13	29.88	34	61	59
Wed Feb  3 01:10:17 2010	 New York City NY 	Overcast	32	60	Variable	7	30.18	19	32	26
Wed Feb  3 01:10:18 2010	 Baltimore MD 	Fair	34	70	N/A		30.12	25	34	34
Wed Feb  3 01:10:19 2010	 Las Vegas NV 	Clear	57	36	ENE	6	29.83	30	57	57
Wed Feb  3 01:13:19 2010										
Wed Feb  3 01:13:20 2010	 Austin TX 	Hazy	52	77	N/A		30.15	45	52	52
Wed Feb  3 01:13:21 2010	 San Francisco CA 	Mostly Cloudy	55	72	N/A		29.83	46	55	55
Wed Feb  3 01:13:22 2010	 Oklahoma City OK 	Fog And Mist	34	81	S	7	30.18	28	34	28
Wed Feb  3 01:13:23 2010	 Nashville TN 	Overcast	43	61	NW	5	30.09	30	43	40
Wed Feb  3 01:13:26 2010	 Fort Worth TX 	Partly Cloudy	54	51	ENE	3	30.21	36	54	54
Wed Feb  3 01:13:27 2010	 Phoenix AZ 	Mostly Cloudy	72	29	E	3	29.74	37	76	72
Wed Feb  3 01:13:28 2010	 Portland OR 	Mostly Cloudy	52	67	N/A		29.77	41	52	52
Wed Feb  3 01:13:28 2010	 Chicago IL 	Light Snow	30	86	W	7	30	27	30	24
Wed Feb  3 01:13:29 2010	 San Antonio TX 	Fog And Mist	52	88	NE	10	30.12	48	52	49
Wed Feb  3 01:13:37 2010	 Indianapolis IN 	Overcast	34	75	SSW	13	30.03	27	34	26
Wed Feb  3 01:13:38 2010	 Boston MA 	Mostly Cloudy	28	47	SW	5	30.21	10	28	24
Wed Feb  3 01:13:39 2010	 Jacksonville FL 	Overcast	57	82	NW	9	30	52	57	55
Wed Feb  3 01:13:40 2010	 Columbus OH 	Overcast	41	39	N/A		29.97	18	41	41
Wed Feb  3 01:13:41 2010	 Dallas TX 	Mostly Cloudy	48	62	N	6	30.15	36	48	46
Wed Feb  3 01:13:42 2010	 Houston TX 	Overcast	57	72	NE	7	30.15	48	57	56
Wed Feb  3 01:13:43 2010	 Seattle WA 	Mostly Cloudy	54	58	NW	3	29.8	39	54	54
Wed Feb  3 01:13:43 2010	 Milwaukee WI 	Light Snow	32	80	SSW	5	29.97	27	32	28
Wed Feb  3 01:13:44 2010	 Detroit MI 	Light Snow	27	93	SE	6	30.03	25	27	21
Wed Feb  3 01:13:51 2010	 Philadelphia PA 	Overcast	34	60	N/A		30.15	21	34	34
Wed Feb  3 01:58:13 2010	 San Jose CA 	Light Rain	57	77	NW	6	29.83	50	57	57
Wed Feb  3 01:58:15 2010	 Charlotte NC 	Light Rain	37	93	Variable	3	29.97	36	37	35
Wed Feb  3 01:58:16 2010	 San Diego CA 	Mostly Cloudy	61	68	NW	9	29.8	50	61	60
Wed Feb  3 01:58:18 2010	 Denver CO 	Mostly Cloudy	37	41	NNW	7	29.88	16	37	33
Wed Feb  3 01:58:20 2010	 Memphis TN 	Overcast	41	70	NW	5	30.18	32	41	38
Wed Feb  3 01:58:20 2010	 Los Angeles CA 	Clear	64	56	Variable	3	29.77	48	64	64
Wed Feb  3 01:58:21 2010	 El Paso TX 	Mostly Cloudy	61	36	E	13	29.88	34	61	59
Wed Feb  3 01:58:23 2010	 New York City NY 	Overcast	32	60	Variable	7	30.18	19	32	26
Wed Feb  3 01:58:24 2010	 Baltimore MD 	Fair	34	70	N/A		30.12	25	34	34
Wed Feb  3 01:58:25 2010	 Las Vegas NV 	Clear	57	36	ENE	6	29.83	30	57	57
Wed Feb  3 01:58:26 2010	 Washington DC 	Light Snow	34	81	NE	7	30.12	28	34	28
Wed Feb  3 01:58:27 2010	 Austin TX 	Mostly Cloudy	52	77	N/A		30.15	45	52	52
Wed Feb  3 01:58:28 2010	 San Francisco CA 	Mostly Cloudy	55	72	N/A		29.83	46	55	55
Wed Feb  3 01:58:29 2010	 Oklahoma City OK 	Fog And Mist	34	87	S	3	30.18	30	34	31
Wed Feb  3 01:58:30 2010	 Nashville TN 	Overcast	43	61	NW	5	30.09	30	43	40
Wed Feb  3 01:58:31 2010	 Fort Worth TX 	Partly Cloudy	54	51	ENE	3	30.21	36	54	54
Wed Feb  3 01:58:32 2010	 Phoenix AZ 	Mostly Cloudy	72	29	E	3	29.74	37	76	72
Wed Feb  3 01:58:33 2010	 Portland OR 	Mostly Cloudy	52	67	N/A		29.77	41	52	52
Wed Feb  3 01:58:35 2010	 Chicago IL 	Light Snow	30	86	W	7	30	27	30	24
Wed Feb  3 01:58:35 2010	 San Antonio TX 	Fog And Mist	52	88	NE	10	30.12	48	52	49
Wed Feb  3 01:58:36 2010	 Indianapolis IN 	Overcast	34	75	SSW	10	30.03	27	34	27
Wed Feb  3 01:58:37 2010	 Boston MA 	Mostly Cloudy	28	47	SW	5	30.21	10	28	24
Wed Feb  3 01:58:40 2010	 Jacksonville FL 	Overcast	57	82	NW	9	30	52	57	55
Wed Feb  3 01:58:40 2010	 Columbus OH 	Overcast	41	39	N/A		29.97	18	41	41
Wed Feb  3 01:58:41 2010	 Dallas TX 	Mostly Cloudy	48	62	N	6	30.15	36	48	46
Wed Feb  3 01:58:42 2010	 Houston TX 	Overcast	57	72	NE	7	30.15	48	57	56
Wed Feb  3 01:58:44 2010	 Seattle WA 	Mostly Cloudy	54	58	NW	3	29.8	39	54	54
Wed Feb  3 01:58:45 2010	 Milwaukee WI 	Light Snow	32	80	SSW	5	29.97	27	32	28
Wed Feb  3 01:58:46 2010	 Detroit MI 	Light Snow	27	93	SSE	5	30.03	25	27	22
Wed Feb  3 01:58:47 2010	 Philadelphia PA 	Overcast	34	60	N/A		30.15	21	34	34
Wed Feb  3 02:46:59 2010	 San Jose CA 	Light Rain	55	77	N/A		29.83	48	55	55
Wed Feb  3 02:47:00 2010	 Charlotte NC 	Fog And Mist	37	93	N	5	30	36	37	34
Wed Feb  3 02:47:01 2010	 San Diego CA 	Mostly Cloudy	59	72	NW	6	29.8	50	59	59
Wed Feb  3 02:47:02 2010	 Denver CO 	Mostly Cloudy	37	41	NW	5	29.88	16	37	34
Wed Feb  3 02:47:03 2010	 Memphis TN 	Mostly Cloudy	39	70	NW	3	30.21	30	39	37
Wed Feb  3 02:47:04 2010	 Los Angeles CA 	Clear	63	59	W	5	29.77	48	63	63
Wed Feb  3 02:47:05 2010	 El Paso TX 	Overcast	57	41	ENE	10	29.88	34	57	55
Wed Feb  3 02:47:07 2010	 New York City NY 	Overcast	32	64	SE	8	30.18	21	32	26
Wed Feb  3 02:47:08 2010	 Baltimore MD 	Fair	32	87	N/A		30.12	28	32	32
Wed Feb  3 02:47:09 2010	 Las Vegas NV 	Clear	55	41	SE	3	29.83	32	55	55
Wed Feb  3 02:47:10 2010	 Washington DC 	Light Snow	34	81	NE	6	30.12	28	34	29
Wed Feb  3 02:47:12 2010	 Austin TX 	Mostly Cloudy	50	82	N/A		30.15	45	50	50
Wed Feb  3 02:47:13 2010	 San Francisco CA 	Mostly Cloudy	55	72	W	3	29.85	46	55	55
Wed Feb  3 02:47:14 2010	 Oklahoma City OK 	Fog And Mist	34	87	SSE	7	30.18	30	34	28
Wed Feb  3 02:47:15 2010	 Nashville TN 	Overcast	43	61	NW	8	30.12	30	43	38
Wed Feb  3 02:47:16 2010	 Fort Worth TX 	Partly Cloudy	46	62	NE	3	30.24	34	46	46
Wed Feb  3 02:47:17 2010	 Phoenix AZ 	Mostly Cloudy	70	33	N/A		29.74	39	70	70
Wed Feb  3 02:47:18 2010	 Portland OR 	Mostly Cloudy	48	71	SE	13	29.77	39	48	43
Wed Feb  3 02:47:19 2010	 Chicago IL 	Light Snow	32	80	SSW	12	30.03	27	32	24
Wed Feb  3 02:47:20 2010	 San Antonio TX 	Fog And Mist	52	88	NE	9	30.12	48	52	49
Wed Feb  3 02:47:22 2010	 Indianapolis IN 	Overcast	34	81	SSW	12	30.03	28	34	26
Wed Feb  3 02:47:22 2010	 Boston MA 	Mostly Cloudy	27	54	S	6	30.18	12	27	21
Wed Feb  3 02:47:23 2010	 Jacksonville FL 	Overcast	57	82	NNW	12	30	52	57	55
Wed Feb  3 02:47:25 2010	 Columbus OH 	Overcast	39	48	N	3	29.97	21	39	37
Wed Feb  3 02:47:25 2010	 Dallas TX 	Mostly Cloudy	48	62	N/A		30.21	36	48	48
Wed Feb  3 02:47:27 2010	 Houston TX 	Overcast	55	77	ENE	6	30.15	48	55	55
Wed Feb  3 02:47:28 2010	 Seattle WA 	Mostly Cloudy	52	62	NNW	6	29.8	39	52	50
Wed Feb  3 02:47:29 2010	 Milwaukee WI 	Light Snow	32	80	W	3	30	27	32	29
Wed Feb  3 02:47:30 2010	 Detroit MI 	Fog And Mist	27	93	SSE	3	30.03	25	27	23
Wed Feb  3 02:47:31 2010	 Philadelphia PA 	Overcast	34	56	E	5	30.15	19	34	30
Wed Feb  3 03:33:57 2010	 San Jose CA 	Overcast	55	77	N/A		29.83	48	55	55
Wed Feb  3 03:33:58 2010	 Charlotte NC 	Fog And Mist	37	93	N	3	30	36	37	35
Wed Feb  3 03:34:00 2010	 San Diego CA 	Mostly Cloudy	59	77	NW	6	29.8	52	59	59
Wed Feb  3 03:34:01 2010	 Denver CO 	Mostly Cloudy	34	48	N/A		29.88	16	34	34
Wed Feb  3 03:34:02 2010	 Memphis TN 	Clear	37	75	NW	3	30.24	30	37	35
Wed Feb  3 03:34:03 2010	 Los Angeles CA 	Mostly Cloudy	61	68	SSW	3	29.77	50	61	61
Wed Feb  3 03:34:04 2010	 El Paso TX 	Overcast	54	47	ENE	9	29.88	34	54	51
Wed Feb  3 03:34:06 2010	 New York City NY 	Overcast	30	75	N/A		30.18	23	30	30
Wed Feb  3 03:34:06 2010	 Baltimore MD 	Fair	32	87	N/A		30.09	28	32	32
Wed Feb  3 03:34:07 2010	 Las Vegas NV 	Clear	54	47	N/A		29.83	34	54	54
Wed Feb  3 03:34:08 2010	 Washington DC 	Light Snow	34	87	NE	7	30.09	30	34	28
Wed Feb  3 03:34:09 2010	 Austin TX 	Overcast	52	82	N/A		30.15	46	52	52
Wed Feb  3 03:34:10 2010	 San Francisco CA 	Overcast	55	77	N/A		29.85	48	55	55
Wed Feb  3 03:34:11 2010	 Oklahoma City OK 	Fog And Mist	34	87	N/A		30.21	30	34	34
Wed Feb  3 03:34:12 2010	 Nashville TN 	Overcast	41	66	NW	5	30.15	30	41	38
Wed Feb  3 03:34:13 2010	 Fort Worth TX 	Clear	45	66	NE	3	30.24	34	45	44
Wed Feb  3 03:34:14 2010	 Phoenix AZ 	Mostly Cloudy	66	43	N/A		29.71	43	66	66
Wed Feb  3 03:34:15 2010	 Portland OR 	Overcast	48	71	SE	12	29.77	39	48	44
Wed Feb  3 03:34:16 2010	 Chicago IL 	Light Snow	30	80	W	13	30.06	25	30	21
Wed Feb  3 03:34:18 2010	 San Antonio TX 	Fog And Mist	52	88	ENE	13	30.12	48	52	48
Wed Feb  3 03:34:19 2010	 Indianapolis IN 	Light Snow	34	81	W	10	30.06	28	34	27
Wed Feb  3 03:34:20 2010	 Boston MA 	Mostly Cloudy	27	54	S	7	30.18	12	27	20
Wed Feb  3 03:34:22 2010	 Jacksonville FL 	Overcast	55	77	NNW	14	30.03	48	55	52
Wed Feb  3 03:34:23 2010	 Columbus OH 	Overcast	37	56	N	5	30	23	37	34
Wed Feb  3 03:34:24 2010	 Dallas TX 	Mostly Cloudy	45	71	NE	5	30.21	36	45	43
Wed Feb  3 03:34:25 2010	 Houston TX 	Overcast	55	77	ENE	6	30.15	48	55	55
Wed Feb  3 03:34:26 2010	 Seattle WA 	Clear	52	62	W	5	29.77	39	52	51
Wed Feb  3 03:34:27 2010	 Milwaukee WI 	Light Snow	30	86	WNW	6	30	27	30	25
Wed Feb  3 03:34:28 2010	 Detroit MI 	Fog And Mist	27	93	SSE	6	30.03	25	27	21
Wed Feb  3 03:34:33 2010	 Philadelphia PA 	Overcast	34	60	ENE	3	30.12	21	34	31
Wed Feb  3 04:22:01 2010	 San Jose CA 	Overcast	55	77	N/A		29.83	48	55	55
Wed Feb  3 04:22:02 2010	 Charlotte NC 	Fog And Mist	37	93	N/A		30	36	37	37
Wed Feb  3 04:22:03 2010	 San Diego CA 	Overcast	57	77	NNW	6	29.83	50	57	57
Wed Feb  3 04:22:04 2010	 Denver CO 	Mostly Cloudy	32	55	S	5	29.91	18	32	28
Wed Feb  3 04:22:04 2010	 Memphis TN 	Clear	36	81	N/A		30.24	30	36	36
Wed Feb  3 04:22:05 2010	 Los Angeles CA 	Clear	57	72	N/A		29.8	48	57	57
Wed Feb  3 04:22:06 2010	 El Paso TX 	Overcast	54	51	E	12	29.88	36	54	50
Wed Feb  3 04:22:11 2010	 New York City NY 	Light Snow	30	80	NE	5	30.15	25	30	26
Wed Feb  3 04:22:12 2010	 Baltimore MD 	Fair	32	93	N/A		30.09	30	32	32
Wed Feb  3 04:22:13 2010	 Las Vegas NV 	Clear	54	44	N/A		29.83	32	54	54
Wed Feb  3 04:22:14 2010	 Washington DC 	Light Snow	32	93	N	6	30.09	30	32	27
Wed Feb  3 04:22:15 2010	 Austin TX 	Overcast	52	82	NE	3	30.15	46	52	52
Wed Feb  3 04:22:16 2010	 San Francisco CA 	Overcast	54	82	WNW	6	29.85	48	54	52
Wed Feb  3 04:22:17 2010	 Oklahoma City OK 	Fog And Mist	32	87	SSE	5	30.21	28	32	28
Wed Feb  3 04:22:19 2010	 Nashville TN 	Overcast	39	70	WNW	8	30.18	30	39	34
Wed Feb  3 04:22:20 2010	 Fort Worth TX 	Partly Cloudy	43	71	NE	5	30.24	34	43	40
Wed Feb  3 04:22:21 2010	 Phoenix AZ 	Mostly Cloudy	63	56	SW	3	29.74	46	63	63
Wed Feb  3 04:22:21 2010	 Portland OR 	Light Rain	46	76	ESE	15	29.77	39	46	40
Wed Feb  3 04:22:22 2010	 Chicago IL 	Light Snow	28	74	W	10	30.06	21	28	20
Wed Feb  3 04:22:23 2010	 San Antonio TX 	Fog And Mist	52	88	NE	10	30.12	48	52	49
Wed Feb  3 04:22:25 2010	 Indianapolis IN 	Overcast	34	81	W	10	30.06	28	34	27
Wed Feb  3 04:22:25 2010	 Boston MA 	Mostly Cloudy	27	59	SSE	8	30.18	14	27	19
Wed Feb  3 04:22:26 2010	 Jacksonville FL 	Overcast	55	77	NW	10	30.03	48	55	53
Wed Feb  3 04:22:27 2010	 Columbus OH 	Overcast	37	56	N	3	30	23	37	35
Wed Feb  3 04:22:28 2010	 Dallas TX 	Partly Cloudy	45	71	E	7	30.21	36	45	41
Wed Feb  3 04:22:30 2010	 Houston TX 	Overcast	55	77	ENE	6	30.18	48	55	55
Wed Feb  3 04:22:31 2010	 Seattle WA 	Mostly Cloudy	50	67	N/A		29.77	39	50	50
Wed Feb  3 04:22:32 2010	 Milwaukee WI 	Light Snow	30	86	W	5	30.03	27	30	26
Wed Feb  3 04:22:33 2010	 Detroit MI 	Light Snow	27	100	N/A		30.03	27	27	27
Wed Feb  3 04:22:34 2010	 Philadelphia PA 	Light Snow	34	65	NE	3	30.12	23	34	31
Wed Feb  3 05:05:36 2010	 San Jose CA 	Overcast	55	77	N/A		29.83	48	55	55
Wed Feb  3 05:05:38 2010	 Charlotte NC 	Fog And Mist	37	93	N/A		30	36	37	37
Wed Feb  3 05:05:39 2010	 San Diego CA 	Overcast	57	77	NNW	6	29.83	50	57	57
Wed Feb  3 05:05:40 2010	 Denver CO 	Mostly Cloudy	32	55	S	5	29.91	18	32	28
Wed Feb  3 05:05:41 2010	 Memphis TN 	Clear	36	81	N/A		30.24	30	36	36
Wed Feb  3 05:08:41 2010										
Wed Feb  3 05:08:42 2010	 El Paso TX 	Overcast	50	62	E	12	29.88	37	50	46
Wed Feb  3 05:08:44 2010	 New York City NY 	Light Snow	28	93	NE	3	30.12	27	28	25
Wed Feb  3 05:08:45 2010	 Baltimore MD 	Fair	32	87	N/A		30.06	28	32	32
Wed Feb  3 05:08:47 2010	 Las Vegas NV 	Clear	52	50	N/A		29.83	34	52	52
Wed Feb  3 05:08:48 2010	 Washington DC 	Light Snow	34	87	NNE	5	30.09	30	34	30
Wed Feb  3 05:08:49 2010	 Austin TX 	Partly Cloudy	52	77	Variable	5	30.15	45	52	51
Wed Feb  3 05:08:50 2010	 San Francisco CA 	Mostly Cloudy	54	82	N/A		29.85	48	54	54
Wed Feb  3 05:08:51 2010	 Oklahoma City OK 	Fog	30	93	SSE	3	30.21	28	30	27
Wed Feb  3 05:08:52 2010	 Nashville TN 	Overcast	39	65	NW	7	30.18	28	39	35
Wed Feb  3 05:08:53 2010	 Fort Worth TX 	Clear	37	87	N/A		30.21	34	37	37
Wed Feb  3 05:08:54 2010	 Phoenix AZ 	Overcast	63	52	SW	5	29.71	45	63	63
Wed Feb  3 05:08:55 2010	 Portland OR 	Overcast	46	76	SE	14	29.77	39	46	41
Wed Feb  3 05:08:56 2010	 Chicago IL 	Hazy	27	80	W	12	30.09	21	27	17
Wed Feb  3 05:08:57 2010	 San Antonio TX 	Light Rain	52	88	ENE	8	30.12	48	52	49
Wed Feb  3 05:08:58 2010	 Indianapolis IN 	Overcast	34	81	W	10	30.06	28	34	27
Wed Feb  3 05:08:59 2010	 Boston MA 	Mostly Cloudy	27	59	SSE	8	30.18	14	27	19
Wed Feb  3 05:09:00 2010	 Jacksonville FL 	Overcast	54	82	NNW	10	30.06	48	54	51
Wed Feb  3 05:09:00 2010	 Columbus OH 	Light Snow	37	60	WNW	10	30	25	37	31
Wed Feb  3 05:09:01 2010	 Dallas TX 	Partly Cloudy	43	76	E	3	30.21	36	43	41
Wed Feb  3 05:09:03 2010	 Houston TX 	Mostly Cloudy	54	82	NE	9	30.15	48	54	51
Wed Feb  3 05:09:04 2010	 Seattle WA 	Partly Cloudy	48	71	N/A		29.77	39	48	48
Wed Feb  3 05:09:05 2010	 Milwaukee WI 	Light Snow	30	86	W	5	30.03	27	30	26
Wed Feb  3 05:09:06 2010	 Detroit MI 	Light Snow	27	93	SSE	3	30.03	25	27	23
Wed Feb  3 05:09:08 2010	 Philadelphia PA 	Light Snow	32	80	NE	6	30.09	27	32	27
Wed Feb  3 05:56:41 2010	 San Jose CA 	Mostly Cloudy	54	82	W	6	29.83	48	54	52
Wed Feb  3 05:56:42 2010	 Charlotte NC 	Fog And Mist	37	93	NW	3	30.03	36	37	35
Wed Feb  3 05:56:43 2010	 San Diego CA 	Overcast	57	82	N	3	29.83	52	57	57
Wed Feb  3 05:56:44 2010	 Denver CO 	Partly Cloudy	28	64	S	9	29.91	18	28	20
Wed Feb  3 05:56:45 2010	 Memphis TN 	Clear	36	75	N/A		30.24	28	36	36
Wed Feb  3 05:56:46 2010	 Los Angeles CA 	Clear	57	77	N/A		29.8	50	57	57
Wed Feb  3 05:56:47 2010	 El Paso TX 	Overcast	50	62	E	12	29.88	37	50	46
Wed Feb  3 05:56:48 2010	 New York City NY 	Light Snow	28	93	Variable	5	30.12	27	28	24
Wed Feb  3 05:56:48 2010	 Baltimore MD 	Fair	32	87	N/A		30.06	28	32	32
Wed Feb  3 05:56:50 2010	 Las Vegas NV 	Clear	52	50	N/A		29.83	34	52	52
Wed Feb  3 05:56:51 2010	 Washington DC 	Light Snow	32	87	NE	7	30.06	28	32	26
Wed Feb  3 05:56:52 2010	 Austin TX 	Partly Cloudy	52	77	Variable	5	30.15	45	52	51
Wed Feb  3 05:56:53 2010	 San Francisco CA 	Mostly Cloudy	54	82	N/A		29.85	48	54	54
Wed Feb  3 05:56:54 2010	 Oklahoma City OK 	Fog	30	93	S	5	30.21	28	30	26
Wed Feb  3 05:56:55 2010	 Nashville TN 	Overcast	39	65	NW	7	30.18	28	39	35
Wed Feb  3 05:56:56 2010	 Fort Worth TX 	Clear	37	87	N/A		30.21	34	37	37
Wed Feb  3 05:56:57 2010	 Phoenix AZ 	Overcast	63	52	SW	5	29.71	45	63	63
Wed Feb  3 05:56:57 2010	 Portland OR 	Overcast	46	76	SE	14	29.77	39	46	41
Wed Feb  3 05:56:59 2010	 Chicago IL 	Hazy	25	80	SSW	9	30.09	19	25	16
Wed Feb  3 05:56:59 2010	 San Antonio TX 	Light Rain	52	88	NE	7	30.09	48	52	50
Wed Feb  3 05:57:01 2010	 Indianapolis IN 	Overcast	32	80	W	10	30.09	27	32	24
Wed Feb  3 05:57:02 2010	 Boston MA 	Overcast	27	59	S	5	30.15	14	27	22
Wed Feb  3 05:57:03 2010	 Jacksonville FL 	Overcast	54	82	NNW	10	30.06	48	54	51
Wed Feb  3 05:57:04 2010	 Columbus OH 	Light Snow	37	60	WNW	10	30	25	37	31
Wed Feb  3 05:57:05 2010	 Dallas TX 	Partly Cloudy	43	76	E	3	30.21	36	43	41
Wed Feb  3 05:57:06 2010	 Houston TX 	Mostly Cloudy	54	82	NE	9	30.15	48	54	51
Wed Feb  3 05:57:06 2010	 Seattle WA 	Partly Cloudy	48	71	N/A		29.77	39	48	48
Wed Feb  3 05:57:08 2010	 Milwaukee WI 	Light Snow	30	86	W	5	30.03	27	30	26
Wed Feb  3 05:57:09 2010	 Detroit MI 	Fog And Mist	27	93	SW	3	30.03	25	27	23
Wed Feb  3 05:57:10 2010	 Philadelphia PA 	Light Snow	30	86	NE	5	30.09	27	30	26
Wed Feb  3 06:42:55 2010	 San Jose CA 	Partly Cloudy	52	88	N/A		29.83	48	52	52
Wed Feb  3 06:42:55 2010	 Charlotte NC 	Fog And Mist	37	93	N/A		30.03	36	37	37
Wed Feb  3 06:42:56 2010	 San Diego CA 	Overcast	57	82	N	5	29.83	52	57	57
Wed Feb  3 06:42:57 2010	 Denver CO 	Mostly Cloudy	28	59	S	7	29.88	16	28	22
Wed Feb  3 06:42:59 2010	 Memphis TN 	Clear	32	80	N/A		30.24	27	32	32
Wed Feb  3 06:43:00 2010	 Los Angeles CA 	Clear	55	88	N/A		29.8	52	55	55
Wed Feb  3 06:43:02 2010	 El Paso TX 	Overcast	50	58	E	16	29.88	36	50	45
Wed Feb  3 06:43:06 2010	 New York City NY 	Light Snow	28	93	Variable	3	30.12	27	28	25
Wed Feb  3 06:43:06 2010	 Baltimore MD 	Fair	32	87	N/A		30.06	28	32	32
Wed Feb  3 06:43:11 2010	 Las Vegas NV 	Clear	48	62	N	3	29.83	36	48	47
Wed Feb  3 06:43:12 2010	 Washington DC 	Snow	32	87	NE	6	30.06	28	32	27
Wed Feb  3 06:43:13 2010	 Austin TX 	Overcast	50	76	NE	5	30.15	43	50	49
Wed Feb  3 06:43:14 2010	 San Francisco CA 	Mostly Cloudy	54	88	N/A		29.85	50	54	54
Wed Feb  3 06:43:15 2010	 Oklahoma City OK 	Fog	30	93	SSE	6	30.21	28	30	25
Wed Feb  3 06:43:18 2010	 Nashville TN 	Overcast	37	70	NNW	7	30.18	28	37	33
Wed Feb  3 06:43:19 2010	 Fort Worth TX 	Partly Cloudy	41	76	N/A		30.27	34	41	41
Wed Feb  3 06:43:21 2010	 Phoenix AZ 	Mostly Cloudy	61	59	SW	5	29.71	46	61	61
Wed Feb  3 06:43:22 2010	 Portland OR 	Light Rain	45	81	ESE	10	29.77	39	45	40
Wed Feb  3 06:43:23 2010	 Chicago IL 	Hazy	25	80	W	8	30.09	19	25	17
Wed Feb  3 06:43:23 2010	 San Antonio TX 	Light Rain	52	88	NE	8	30.09	48	52	49
Wed Feb  3 06:43:33 2010	 Indianapolis IN 	Overcast	32	80	SSW	9	30.09	27	32	25
Wed Feb  3 06:43:34 2010	 Boston MA 	Overcast	27	64	S	3	30.15	16	27	23
Wed Feb  3 06:43:35 2010	 Jacksonville FL 	Overcast	52	77	WNW	9	30.06	45	52	49
Wed Feb  3 06:43:36 2010	 Columbus OH 	Overcast	36	70	W	9	30.03	27	36	29
Wed Feb  3 06:43:37 2010	 Dallas TX 	Mostly Cloudy	41	81	ENE	3	30.21	36	41	39
Wed Feb  3 06:43:45 2010	 Houston TX 	Mostly Cloudy	54	82	ENE	7	30.15	48	54	52
Wed Feb  3 06:43:48 2010	 Seattle WA 	Clear	46	76	N/A		29.77	39	46	46
Wed Feb  3 06:43:49 2010	 Milwaukee WI 	Fog And Mist	30	86	W	5	30.06	27	30	26
Wed Feb  3 06:43:54 2010	 Detroit MI 	Light Snow	27	93	N/A		30.03	25	27	27
Wed Feb  3 06:43:59 2010	 Philadelphia PA 	Light Snow	30	93	NNE	3	30.09	28	30	27
Wed Feb  3 07:28:05 2010	 San Jose CA 	Partly Cloudy	50	94	S	3	29.85	48	50	50
Wed Feb  3 07:28:06 2010	 Charlotte NC 	Fog And Mist	37	93	N/A		30.03	36	37	37
Wed Feb  3 07:28:07 2010	 San Diego CA 	Overcast	57	82	NNE	3	29.83	52	57	57
Wed Feb  3 07:28:08 2010	 Denver CO 	Mostly Cloudy	28	59	S	8	29.88	16	28	21
Wed Feb  3 07:28:09 2010	 Memphis TN 	Clear	30	86	N/A		30.24	27	30	30
Wed Feb  3 07:28:10 2010	 Los Angeles CA 	Mostly Cloudy	57	82	N/A		29.8	52	57	57
Wed Feb  3 07:28:11 2010	 El Paso TX 	Light Rain	46	76	N/A		29.88	39	46	46
Wed Feb  3 07:28:13 2010	 New York City NY 	Light Snow	28	93	Variable	5	30.09	27	28	24
Wed Feb  3 07:28:14 2010	 Baltimore MD 	Fair	32	87	N/A		30.03	28	32	32
Wed Feb  3 07:28:16 2010	 Las Vegas NV 	Clear	46	66	NNW	3	29.83	36	46	46
Wed Feb  3 07:28:17 2010	 Washington DC 	Light Snow	32	93	N	6	30.06	30	32	27
Wed Feb  3 07:28:18 2010	 Austin TX 	Overcast	50	76	Variable	3	30.15	43	50	50
Wed Feb  3 07:28:19 2010	 San Francisco CA 	Mostly Cloudy	52	88	NW	3	29.85	48	52	52
Wed Feb  3 07:28:20 2010	 Oklahoma City OK 	Fog	30	93	S	3	30.21	28	30	27
Wed Feb  3 07:28:21 2010	 Nashville TN 	Overcast	37	70	NW	8	30.21	28	37	32
Wed Feb  3 07:28:22 2010	 Fort Worth TX 	Clear	39	81	NE	6	30.21	34	39	35
Wed Feb  3 07:28:23 2010	 Phoenix AZ 	Overcast	61	59	SSW	3	29.68	46	61	61
Wed Feb  3 07:28:23 2010	 Portland OR 	Light Rain	45	87	ESE	13	29.77	41	45	39
Wed Feb  3 07:28:25 2010	 Chicago IL 	Hazy	25	80	W	12	30.09	19	25	15
Wed Feb  3 07:28:25 2010	 San Antonio TX 	Light Rain	52	88	NE	10	30.09	48	52	49
Wed Feb  3 07:28:27 2010	 Indianapolis IN 	Overcast	32	80	SSW	8	30.09	27	32	26
Wed Feb  3 07:28:27 2010	 Boston MA 	Overcast	27	69	S	3	30.12	18	27	23
Wed Feb  3 07:28:28 2010	 Jacksonville FL 	Overcast	52	77	NNW	16	30.09	45	52	47
Wed Feb  3 07:28:29 2010	 Columbus OH 	Overcast	36	70	W	13	30.03	27	36	28
Wed Feb  3 07:28:30 2010	 Dallas TX 	Overcast	41	81	N/A		30.21	36	41	41
Wed Feb  3 07:28:31 2010	 Houston TX 	Mostly Cloudy	54	77	ENE	6	30.15	46	54	52
Wed Feb  3 07:28:32 2010	 Seattle WA 	Partly Cloudy	46	71	N/A		29.77	37	46	46
Wed Feb  3 07:28:33 2010	 Milwaukee WI 	Fog And Mist	30	86	W	5	30.06	27	30	26
Wed Feb  3 07:28:34 2010	 Detroit MI 	Light Snow	27	93	N/A		30.03	25	27	27
Wed Feb  3 07:28:35 2010	 Philadelphia PA 	Light Snow	30	93	N	6	30.06	28	30	25
Wed Feb  3 08:11:07 2010	 San Jose CA 	Partly Cloudy	50	94	SE	3	29.83	48	50	50
Wed Feb  3 08:11:08 2010	 Charlotte NC 	Fog And Mist	37	93	N	5	30.03	36	37	34
Wed Feb  3 08:11:10 2010	 San Diego CA 	Mostly Cloudy	57	82	N	3	29.8	52	57	57
Wed Feb  3 08:11:11 2010	 Denver CO 	Mostly Cloudy	27	59	S	7	29.88	14	27	20
Wed Feb  3 08:11:12 2010	 Memphis TN 	Clear	34	75	NNE	3	30.24	27	34	31
Wed Feb  3 08:11:13 2010	 Los Angeles CA 	Mostly Cloudy	55	88	N/A		29.8	52	55	55
Wed Feb  3 08:11:14 2010	 El Paso TX 	Overcast	46	71	NE	10	29.83	37	46	42
Wed Feb  3 08:11:16 2010	 New York City NY 	Light Snow	28	93	NNE	5	30.09	27	28	24
Wed Feb  3 08:11:17 2010	 Baltimore MD 	Fair	32	87	N/A		30.03	28	32	32
Wed Feb  3 08:11:17 2010	 Las Vegas NV 	Mostly Cloudy	46	71	NW	5	29.83	37	46	45
Wed Feb  3 08:11:18 2010	 Washington DC 	Light Snow	32	93	N	7	30.06	30	32	26
Wed Feb  3 08:11:20 2010	 Austin TX 	Overcast	48	87	Variable	5	30.12	45	48	47
Wed Feb  3 08:11:21 2010	 San Francisco CA 	Mostly Cloudy	52	94	N/A		29.85	50	52	52
Wed Feb  3 08:11:22 2010	 Oklahoma City OK 	Fog	30	93	S	7	30.21	28	30	24
Wed Feb  3 08:11:23 2010	 Nashville TN 	Overcast	37	70	N	8	30.21	28	37	32
Wed Feb  3 08:11:24 2010	 Fort Worth TX 	Clear	37	87	NE	7	30.18	34	37	33
Wed Feb  3 08:11:25 2010	 Phoenix AZ 	Overcast	59	59	SSW	3	29.68	45	59	59
Wed Feb  3 08:11:26 2010	 Portland OR 	Mostly Cloudy	43	87	E	7	29.74	39	43	39
Wed Feb  3 08:11:27 2010	 Chicago IL 	Hazy	25	80	W	8	30.12	19	25	17
Wed Feb  3 08:11:28 2010	 San Antonio TX 	Light Rain	52	88	ENE	10	30.06	48	52	49
Wed Feb  3 08:11:29 2010	 Indianapolis IN 	Overcast	32	80	SSW	7	30.09	27	32	26
Wed Feb  3 08:11:31 2010	 Boston MA 	Overcast	27	69	NNE	3	30.12	18	27	23
Wed Feb  3 08:11:32 2010	 Jacksonville FL 	Overcast	52	72	NNW	15	30.09	43	52	47
Wed Feb  3 08:11:33 2010	 Columbus OH 	Overcast	34	75	W	8	30.06	27	34	28
Wed Feb  3 08:11:34 2010	 Dallas TX 	Overcast	37	87	NE	3	30.21	34	37	35
Wed Feb  3 08:11:35 2010	 Houston TX 	Mostly Cloudy	54	77	ENE	5	30.15	46	54	53
Wed Feb  3 08:11:36 2010	 Seattle WA 	Clear	45	76	N/A		29.77	37	45	45
Wed Feb  3 08:11:37 2010	 Milwaukee WI 	Fog And Mist	30	86	NW	7	30.06	27	30	24
Wed Feb  3 08:11:38 2010	 Detroit MI 	Fog And Mist	28	86	SSW	3	30.03	25	28	25
Wed Feb  3 08:11:40 2010	 Philadelphia PA 	Light Snow	30	93	N/A		30.06	28	30	30
Wed Feb  3 08:54:33 2010	 San Jose CA 	Partly Cloudy	50	94	SE	3	29.83	48	50	50
Wed Feb  3 08:54:34 2010	 Charlotte NC 	Fog And Mist	37	93	NNW	6	30.06	36	37	33
Wed Feb  3 08:54:36 2010	 San Diego CA 	Mostly Cloudy	57	82	N	3	29.8	52	57	57
Wed Feb  3 08:54:37 2010	 Denver CO 	Mostly Cloudy	27	59	S	7	29.88	14	27	20
Wed Feb  3 08:54:38 2010	 Memphis TN 	Clear	34	75	NNE	3	30.24	27	34	31
Wed Feb  3 08:54:39 2010	 Los Angeles CA 	Mostly Cloudy	55	88	N/A		29.8	52	55	55
Wed Feb  3 08:54:40 2010	 El Paso TX 	Overcast	46	71	NE	10	29.83	37	46	42
Wed Feb  3 08:54:41 2010	 New York City NY 	Light Snow	28	93	NE	7	30.06	27	28	22
Wed Feb  3 08:54:42 2010	 Baltimore MD 	Fair	32	87	N/A		30.03	28	32	32
Wed Feb  3 08:54:43 2010	 Las Vegas NV 	Mostly Cloudy	46	71	NW	5	29.83	37	46	45
Wed Feb  3 08:57:43 2010										
Wed Feb  3 08:57:45 2010	 Austin TX 	Overcast	48	87	Variable	3	30.09	45	48	47
Wed Feb  3 08:57:46 2010	 San Francisco CA 	Mostly Cloudy	52	94	N/A		29.85	50	52	52
Wed Feb  3 08:57:47 2010	 Oklahoma City OK 	Fog	30	93	S	7	30.21	28	30	24
Wed Feb  3 08:57:48 2010	 Nashville TN 	Overcast	37	70	N	8	30.21	28	37	32
Wed Feb  3 08:57:49 2010	 Fort Worth TX 	Clear	37	87	NE	7	30.18	34	37	33
Wed Feb  3 08:57:50 2010	 Phoenix AZ 	Overcast	59	59	SSW	3	29.68	45	59	59
Wed Feb  3 08:57:51 2010	 Portland OR 	Mostly Cloudy	43	87	E	7	29.74	39	43	39
Wed Feb  3 08:57:52 2010	 Chicago IL 	Hazy	25	80	SSW	10	30.12	19	25	15
Wed Feb  3 08:57:53 2010	 San Antonio TX 	Light Rain	52	88	ENE	12	30.03	48	52	48
Wed Feb  3 08:57:54 2010	 Indianapolis IN 	Overcast	32	80	W	8	30.12	27	32	26
Wed Feb  3 08:57:55 2010	 Boston MA 	Light Snow	27	69	N/A		30.12	18	27	27
Wed Feb  3 08:57:56 2010	 Jacksonville FL 	Overcast	52	72	NNW	15	30.09	43	52	47
Wed Feb  3 08:57:57 2010	 Columbus OH 	Overcast	34	75	W	8	30.06	27	34	28
Wed Feb  3 08:57:58 2010	 Dallas TX 	Overcast	37	87	NE	3	30.21	34	37	35
Wed Feb  3 08:57:59 2010	 Houston TX 	Mostly Cloudy	54	77	ENE	5	30.15	46	54	53
Wed Feb  3 08:58:00 2010	 Seattle WA 	Clear	45	76	N/A		29.77	37	45	45
Wed Feb  3 08:58:01 2010	 Milwaukee WI 	Fog And Mist	30	86	NW	7	30.06	27	30	24
Wed Feb  3 08:58:02 2010	 Detroit MI 	Fog And Mist	28	86	W	3	30.03	25	28	25
Wed Feb  3 08:58:03 2010	 Philadelphia PA 	Light Snow	30	93	N/A		30.06	28	30	30
Wed Feb  3 09:41:03 2010	 San Jose CA 	Partly Cloudy	48	94	N/A		29.85	46	48	48
Wed Feb  3 09:41:04 2010	 Charlotte NC 	Fog And Mist	37	93	N	5	30.06	36	37	34
Wed Feb  3 09:41:05 2010	 San Diego CA 	Mostly Cloudy	57	82	N	3	29.8	52	57	57
Wed Feb  3 09:41:06 2010	 Denver CO 	Mostly Cloudy	27	59	S	10	29.88	14	27	18
Wed Feb  3 09:41:07 2010	 Memphis TN 	Clear	30	86	N/A		30.24	27	30	30
Wed Feb  3 09:41:09 2010	 Los Angeles CA 	Overcast	55	88	N/A		29.8	52	55	55
Wed Feb  3 09:41:10 2010	 El Paso TX 	Overcast	46	71	N	9	29.85	37	46	42
Wed Feb  3 09:41:11 2010	 New York City NY 	Light Snow	28	93	NE	6	30.06	27	28	23
Wed Feb  3 09:41:12 2010	 Baltimore MD 	Fair	32	87	N/A		30.03	28	32	32
Wed Feb  3 09:41:13 2010	 Las Vegas NV 	Mostly Cloudy	46	66	NNW	5	29.8	36	46	45
Wed Feb  3 09:41:14 2010	 Washington DC 	Light Snow	34	87	NE	3	30.06	30	34	31
Wed Feb  3 09:41:17 2010	 Austin TX 	Overcast	48	82	Variable	5	30.09	43	48	47
Wed Feb  3 09:41:18 2010	 San Francisco CA 	Partly Cloudy	50	94	N/A		29.85	48	50	50
Wed Feb  3 09:41:19 2010	 Oklahoma City OK 	Fog	30	86	SW	8	30.21	27	30	23
Wed Feb  3 09:41:20 2010	 Nashville TN 	Overcast	36	65	NW	9	30.24	25	36	29
Wed Feb  3 09:41:21 2010	 Fort Worth TX 	Clear	37	87	E	5	30.15	34	37	34
Wed Feb  3 09:41:22 2010	 Phoenix AZ 	Overcast	57	63	SSW	5	29.68	45	57	57
Wed Feb  3 09:41:23 2010	 Portland OR 	Overcast	43	87	N/A		29.74	39	43	43
Wed Feb  3 09:41:24 2010	 Chicago IL 	Hazy	25	80	W	12	30.15	19	25	15
Wed Feb  3 09:41:25 2010	 San Antonio TX 	Light Rain	52	88	ENE	10	30.03	48	52	49
Wed Feb  3 09:41:26 2010	 Indianapolis IN 	Fog And Mist	32	87	W	7	30.12	28	32	26
Wed Feb  3 09:41:27 2010	 Boston MA 	Light Snow	27	74	N/A		30.12	19	27	27
Wed Feb  3 09:41:28 2010	 Jacksonville FL 	Overcast	52	72	NNW	13	30.09	43	52	48
Wed Feb  3 09:41:29 2010	 Columbus OH 	Light Snow	34	75	W	9	30.06	27	34	27
Wed Feb  3 09:41:30 2010	 Dallas TX 	Overcast	37	87	ENE	7	30.18	34	37	33
Wed Feb  3 09:41:31 2010	 Houston TX 	Overcast	52	77	E	9	30.12	45	52	49
Wed Feb  3 09:41:32 2010	 Seattle WA 	Mostly Cloudy	45	76	N/A		29.77	37	45	45
Wed Feb  3 09:41:33 2010	 Milwaukee WI 	Hazy	28	86	NW	8	30.09	25	28	21
Wed Feb  3 09:41:35 2010	 Detroit MI 	Fog And Mist	28	86	SSW	3	30.03	25	28	25
Wed Feb  3 09:41:36 2010	 Philadelphia PA 	Light Snow	30	100	N/A		30.06	30	30	30
Wed Feb  3 10:24:48 2010	 San Jose CA 	Clear	46	93	N/A		29.85	45	46	46
Wed Feb  3 10:24:49 2010	 Charlotte NC 	Fog And Mist	36	100	NNW	5	30.06	36	36	32
Wed Feb  3 10:24:50 2010	 San Diego CA 	Hazy	55	82	N/A		29.77	50	55	55
Wed Feb  3 10:24:51 2010	 Denver CO 	Partly Cloudy	28	51	S	12	29.88	12	28	19
Wed Feb  3 10:24:52 2010	 Memphis TN 	Clear	28	86	SSE	3	30.24	25	28	25
Wed Feb  3 10:24:53 2010	 Los Angeles CA 	Partly Cloudy	55	82	N/A		29.77	50	55	55
Wed Feb  3 10:24:54 2010	 El Paso TX 	Light Rain	45	81	ENE	5	29.83	39	45	43
Wed Feb  3 10:25:08 2010	 New York City NY 	Light Snow	28	93	NE	6	30.06	27	28	23
Wed Feb  3 10:25:09 2010	 Baltimore MD 	Fair	32	87	N/A		30.03	28	32	32
Wed Feb  3 10:25:10 2010	 Las Vegas NV 	Overcast	46	66	NNW	5	29.8	36	46	45
Wed Feb  3 10:25:11 2010	 Washington DC 	Light Snow	32	87	N	3	30.06	28	32	29
Wed Feb  3 10:25:12 2010	 Austin TX 	Overcast	48	82	NE	5	30.06	43	48	47
Wed Feb  3 10:25:13 2010	 San Francisco CA 	Partly Cloudy	46	100	N/A		29.85	46	46	46
Wed Feb  3 10:25:14 2010	 Oklahoma City OK 	Fog	30	93	S	3	30.18	28	30	27
Wed Feb  3 10:25:15 2010	 Nashville TN 	Overcast	36	65	N	7	30.24	25	36	31
Wed Feb  3 10:25:17 2010	 Fort Worth TX 	Clear	37	87	NE	7	30.15	34	37	33
Wed Feb  3 10:25:17 2010	 Phoenix AZ 	Overcast	55	67	SW	5	29.65	45	55	55
Wed Feb  3 10:25:18 2010	 Portland OR 	Overcast	43	93	NNW	5	29.71	41	43	40
Wed Feb  3 10:25:19 2010	 Chicago IL 	Fog And Mist	25	80	W	10	30.15	19	25	15
Wed Feb  3 10:25:20 2010	 San Antonio TX 	Light Rain	52	88	ENE	12	30	48	52	48
Wed Feb  3 10:25:21 2010	 Indianapolis IN 	Light Snow	28	93	WNW	7	30.15	27	28	22
Wed Feb  3 10:25:23 2010	 Boston MA 	Light Snow	25	80	N/A		30.09	19	25	25
Wed Feb  3 10:25:24 2010	 Jacksonville FL 	Overcast	50	76	NNW	17	30.09	43	50	45
Wed Feb  3 10:25:25 2010	 Columbus OH 	Light Snow	34	75	W	9	30.06	27	34	27
Wed Feb  3 10:25:26 2010	 Dallas TX 	Mostly Cloudy	37	87	ENE	3	30.15	34	37	35
Wed Feb  3 10:25:27 2010	 Houston TX 	Mostly Cloudy	52	77	E	10	30.09	45	52	49
Wed Feb  3 10:25:29 2010	 Seattle WA 	Mostly Cloudy	45	76	N/A		29.74	37	45	45
Wed Feb  3 10:25:30 2010	 Milwaukee WI 	Hazy	28	80	WNW	8	30.12	23	28	21
Wed Feb  3 10:25:31 2010	 Detroit MI 	Fog And Mist	28	86	SSW	3	30.03	25	28	25
Wed Feb  3 10:25:32 2010	 Philadelphia PA 	Light Snow	30	100	N/A		30.03	30	30	30
Wed Feb  3 11:08:33 2010	 San Jose CA 	Mostly Cloudy	45	100	E	5	29.83	45	45	43
Wed Feb  3 11:08:34 2010	 Charlotte NC 	Fog And Mist	36	100	NW	3	30.09	36	36	33
Wed Feb  3 11:08:35 2010	 San Diego CA 	Fog And Mist	55	88	N/A		29.77	52	55	55
Wed Feb  3 11:11:36 2010										
Wed Feb  3 11:11:37 2010	 Memphis TN 	Clear	28	93	N/A		30.24	27	28	28
Wed Feb  3 11:11:38 2010	 Los Angeles CA 	Hazy	54	82	N/A		29.77	48	54	54
Wed Feb  3 11:11:40 2010	 El Paso TX 	Light Rain	45	81	E	8	29.83	39	45	41
Wed Feb  3 11:11:41 2010	 New York City NY 	Light Snow	28	93	NE	5	30.06	27	28	24
Wed Feb  3 11:11:42 2010	 Baltimore MD 	Fair	32	87	N/A		30.06	28	32	32
Wed Feb  3 11:11:44 2010	 Las Vegas NV 	Mostly Cloudy	45	71	NW	3	29.8	36	45	44
Wed Feb  3 11:11:45 2010	 Washington DC 	Light Snow	32	87	NNW	8	30.06	28	32	26
Wed Feb  3 11:11:46 2010	 Austin TX 	Light Rain	48	87	Variable	3	30.06	45	48	47
Wed Feb  3 11:11:47 2010	 San Francisco CA 	Partly Cloudy	46	93	N/A		29.85	45	46	46
Wed Feb  3 11:11:49 2010	 Oklahoma City OK 	Fog	28	93	SSE	5	30.18	27	28	24
Wed Feb  3 11:11:51 2010	 Nashville TN 	Overcast	36	70	NE	3	30.24	27	36	33
Wed Feb  3 11:11:52 2010	 Fort Worth TX 	Clear	36	93	N/A		30.15	34	36	36
Wed Feb  3 11:11:53 2010	 Phoenix AZ 	Overcast	57	59	SSW	5	29.65	43	57	57
Wed Feb  3 11:11:54 2010	 Portland OR 	Mostly Cloudy	43	93	N/A		29.71	41	43	43
Wed Feb  3 11:11:55 2010	 Chicago IL 	Hazy	25	80	W	10	30.15	19	25	15
Wed Feb  3 11:11:57 2010	 San Antonio TX 	Rain	52	88	ENE	9	30	48	52	49
Wed Feb  3 11:11:58 2010	 Indianapolis IN 	Overcast	28	74	WNW	13	30.15	21	28	19
Wed Feb  3 11:11:59 2010	 Boston MA 	Light Snow	27	80	N/A		30.09	21	27	27
Wed Feb  3 11:12:00 2010	 Jacksonville FL 	Mostly Cloudy	48	82	NW	6	30.09	43	48	46
Wed Feb  3 11:12:01 2010	 Columbus OH 	Light Snow	34	81	W	13	30.12	28	34	26
Wed Feb  3 11:12:02 2010	 Dallas TX 	Mostly Cloudy	37	87	NE	7	30.15	34	37	33
Wed Feb  3 11:12:04 2010	 Houston TX 	Mostly Cloudy	52	77	E	10	30.09	45	52	49
Wed Feb  3 11:12:05 2010	 Seattle WA 	Overcast	43	81	N/A		29.74	37	43	43
Wed Feb  3 11:12:06 2010	 Milwaukee WI 	Hazy	28	80	NW	8	30.12	23	28	21
Wed Feb  3 11:12:07 2010	 Detroit MI 	Fog And Mist	28	93	W	3	30.06	27	28	25
Wed Feb  3 11:12:09 2010	 Philadelphia PA 	Light Snow	32	93	N/A		30.06	30	32	32
Wed Feb  3 11:56:26 2010	 San Jose CA 	Mostly Cloudy	45	100	E	5	29.83	45	45	43
Wed Feb  3 11:56:28 2010	 Charlotte NC 	Fog And Mist	36	100	NW	3	30.09	36	36	33
Wed Feb  3 11:56:28 2010	 San Diego CA 	Hazy	55	82	N/A		29.77	50	55	55
Wed Feb  3 11:56:30 2010	 Denver CO 	Partly Cloudy	28	47	S	10	29.88	10	28	20
Wed Feb  3 11:56:31 2010	 Memphis TN 	Clear	28	93	N/A		30.24	27	28	28
Wed Feb  3 11:56:32 2010	 Los Angeles CA 	Hazy	54	82	N/A		29.77	48	54	54
Wed Feb  3 11:56:33 2010	 El Paso TX 	Light Rain	45	81	E	8	29.83	39	45	41
Wed Feb  3 11:56:34 2010	 New York City NY 	Light Snow	28	93	NE	5	30.06	27	28	24
Wed Feb  3 11:56:35 2010	 Baltimore MD 	Fair	32	87	N/A		30.06	28	32	32
Wed Feb  3 11:56:36 2010	 Las Vegas NV 	Mostly Cloudy	45	71	NW	3	29.8	36	45	44
Wed Feb  3 11:56:37 2010	 Washington DC 	Light Snow	32	87	NNW	7	30.06	28	32	26
Wed Feb  3 11:56:38 2010	 Austin TX 	Light Rain	48	87	Variable	3	30.06	45	48	47
Wed Feb  3 11:56:39 2010	 San Francisco CA 	Partly Cloudy	46	93	N/A		29.85	45	46	46
Wed Feb  3 11:56:40 2010	 Oklahoma City OK 	Fog	28	93	SSE	5	30.18	27	28	24
Wed Feb  3 11:56:41 2010	 Nashville TN 	Overcast	36	70	NE	3	30.24	27	36	33
Wed Feb  3 11:56:42 2010	 Fort Worth TX 	Clear	36	93	N/A		30.15	34	36	36
Wed Feb  3 11:56:43 2010	 Phoenix AZ 	Overcast	57	59	SSW	5	29.65	43	57	57
Wed Feb  3 11:56:46 2010	 Portland OR 	Mostly Cloudy	43	93	N/A		29.71	41	43	43
Wed Feb  3 11:56:47 2010	 Chicago IL 	Hazy	25	80	W	10	30.15	19	25	15
Wed Feb  3 11:56:47 2010	 San Antonio TX 	Rain	52	88	NE	9	30	48	52	49
Wed Feb  3 11:56:48 2010	 Indianapolis IN 	Partly Cloudy	27	74	W	7	30.15	19	27	20
Wed Feb  3 11:56:49 2010	 Boston MA 	Light Snow	27	80	N/A		30.09	21	27	27
Wed Feb  3 11:56:51 2010	 Jacksonville FL 	Mostly Cloudy	48	82	NW	6	30.09	43	48	46
Wed Feb  3 11:56:52 2010	 Columbus OH 	Light Snow	34	81	NW	9	30.12	28	34	27
Wed Feb  3 11:56:53 2010	 Dallas TX 	Mostly Cloudy	37	87	NE	7	30.15	34	37	33
Wed Feb  3 11:56:54 2010	 Houston TX 	Mostly Cloudy	52	77	E	10	30.09	45	52	49
Wed Feb  3 11:56:54 2010	 Seattle WA 	Overcast	43	81	N/A		29.74	37	43	43
Wed Feb  3 11:56:55 2010	 Milwaukee WI 	Hazy	28	69	WNW	12	30.15	19	28	19
Wed Feb  3 11:56:57 2010	 Detroit MI 	Light Snow	28	93	W	6	30.09	27	28	23
Wed Feb  3 11:56:58 2010	 Philadelphia PA 	Light Snow	32	93	N/A		30.06	30	32	32
Wed Feb  3 12:39:41 2010	 San Jose CA 	Partly Cloudy	46	93	S	3	29.83	45	46	46
Wed Feb  3 12:39:41 2010	 Charlotte NC 	Fog	34	100	NW	3	30.09	34	34	31
Wed Feb  3 12:39:42 2010	 San Diego CA 	Mostly Cloudy	55	82	NNE	5	29.77	50	55	55
Wed Feb  3 12:39:43 2010	 Denver CO 	Partly Cloudy	30	40	SW	7	29.88	9	30	24
Wed Feb  3 12:39:44 2010	 Memphis TN 	Partly Cloudy	28	86	N/A		30.24	25	28	28
Wed Feb  3 12:39:45 2010	 Los Angeles CA 	Fog And Mist	52	88	N/A		29.74	48	52	52
Wed Feb  3 12:39:47 2010	 El Paso TX 	Light Rain	45	81	E	15	29.77	39	45	38
Wed Feb  3 12:39:48 2010	 New York City NY 	Fog And Mist	28	93	N/A		30.06	27	28	28
Wed Feb  3 12:39:49 2010	 Baltimore MD 	Fair	32	87	N/A		30.06	28	32	32
Wed Feb  3 12:39:50 2010	 Las Vegas NV 	Clear	45	66	NW	6	29.77	34	45	42
Wed Feb  3 12:39:51 2010	 Washington DC 	Fog And Mist	32	87	N/A		30.06	28	32	32
Wed Feb  3 12:39:52 2010	 Austin TX 	Rain	46	93	NE	3	30.06	45	46	46
Wed Feb  3 12:39:53 2010	 San Francisco CA 	Partly Cloudy	46	100	N/A		29.85	46	46	46
Wed Feb  3 12:39:54 2010	 Oklahoma City OK 	Fog	28	93	N/A		30.15	27	28	28
Wed Feb  3 12:39:55 2010	 Nashville TN 	Overcast	34	75	N/A		30.24	27	34	34
Wed Feb  3 12:39:56 2010	 Fort Worth TX 	Clear	36	93	NE	6	30.12	34	36	31
Wed Feb  3 12:39:57 2010	 Phoenix AZ 	Overcast	55	67	SSW	3	29.62	45	55	55
Wed Feb  3 12:39:58 2010	 Portland OR 	Overcast	43	87	N/A		29.71	39	43	43
Wed Feb  3 12:40:00 2010	 Chicago IL 	Hazy	25	80	SSW	7	30.18	19	25	18
Wed Feb  3 12:40:00 2010	 San Antonio TX 	Heavy Rain	52	88	ENE	9	30	48	52	49
Wed Feb  3 12:40:02 2010	 Indianapolis IN 	Partly Cloudy	25	74	W	7	30.15	18	25	18
Wed Feb  3 12:40:02 2010	 Boston MA 	Light Snow	27	80	N/A		30.06	21	27	27
Wed Feb  3 12:40:03 2010	 Jacksonville FL 	Mostly Cloudy	46	87	SSW	3	30.12	43	46	46
Wed Feb  3 12:40:04 2010	 Columbus OH 	Light Snow	34	81	WNW	8	30.15	28	34	28
Wed Feb  3 12:40:05 2010	 Dallas TX 	Overcast	39	81	N/A		30.15	34	39	39
Wed Feb  3 12:40:06 2010	 Houston TX 	Overcast	50	82	E	9	30.09	45	50	47
Wed Feb  3 12:40:08 2010	 Seattle WA 	Overcast	43	81	N/A		29.74	37	43	43
Wed Feb  3 12:40:09 2010	 Milwaukee WI 	Overcast	27	74	NW	10	30.15	19	27	18
Wed Feb  3 12:40:09 2010	 Detroit MI 	Light Snow	28	93	W	3	30.09	27	28	25
Wed Feb  3 12:40:10 2010	 Philadelphia PA 	Fog And Mist	32	93	N/A		30.06	30	32	32
Wed Feb  3 13:23:20 2010	 San Jose CA 	Partly Cloudy	46	93	N/A		29.83	45	46	46
Wed Feb  3 13:23:21 2010	 Charlotte NC 	Fog	34	100	N/A		30.12	34	34	34
Wed Feb  3 13:23:22 2010	 San Diego CA 	Hazy	55	82	N/A		29.77	50	55	55
Wed Feb  3 13:23:23 2010	 Denver CO 	Partly Cloudy	27	46	S	8	29.88	9	27	19
Wed Feb  3 13:23:24 2010	 Memphis TN 	Partly Cloudy	28	86	N/A		30.27	25	28	28
Wed Feb  3 13:23:25 2010	 Los Angeles CA 	Clear	52	82	N/A		29.74	46	52	52
Wed Feb  3 13:23:26 2010	 El Paso TX 	Light Rain	43	87	ENE	14	29.74	39	43	36
Wed Feb  3 13:23:28 2010	 New York City NY 	Fog And Mist	30	86	N/A		30.06	27	30	30
Wed Feb  3 13:23:29 2010	 Baltimore MD 	Fair	30	93	N/A		30.09	28	30	30
Wed Feb  3 13:23:30 2010	 Las Vegas NV 	Clear	43	71	NNW	6	29.77	34	43	40
Wed Feb  3 13:23:32 2010	 Washington DC 	Fog And Mist	34	81	N/A		30.09	28	34	34
Wed Feb  3 13:23:33 2010	 Austin TX 	Rain	46	93	Variable	3	30.06	45	46	46
Wed Feb  3 13:23:34 2010	 San Francisco CA 	Clear	45	100	E	3	29.83	45	45	44
Wed Feb  3 13:23:35 2010	 Oklahoma City OK 	Fog	28	86	E	8	30.15	25	28	21
Wed Feb  3 13:23:36 2010	 Nashville TN 	Overcast	34	75	N/A		30.24	27	34	34
Wed Feb  3 13:23:37 2010	 Fort Worth TX 	Mostly Cloudy	37	87	ENE	3	30.18	34	37	35
Wed Feb  3 13:23:38 2010	 Phoenix AZ 	Overcast	55	67	N/A		29.62	45	55	55
Wed Feb  3 13:23:39 2010	 Portland OR 	Overcast	45	81	SE	14	29.71	39	45	38
Wed Feb  3 13:23:40 2010	 Chicago IL 	Hazy	25	80	W	8	30.18	19	25	17
Wed Feb  3 13:23:41 2010	 San Antonio TX 	Rain	52	88	ENE	10	29.97	48	52	49
Wed Feb  3 13:23:42 2010	 Indianapolis IN 	Overcast	25	80	WNW	10	30.18	19	25	15
Wed Feb  3 13:23:43 2010	 Boston MA 	Light Snow	27	80	N/A		30.06	21	27	27
Wed Feb  3 13:23:44 2010	 Jacksonville FL 	Mostly Cloudy	48	76	NNW	9	30.12	41	48	44
Wed Feb  3 13:23:45 2010	 Columbus OH 	Light Snow	32	87	W	10	30.15	28	32	24
Wed Feb  3 13:23:46 2010	 Dallas TX 	Overcast	39	81	E	3	30.15	34	39	37
Wed Feb  3 13:23:47 2010	 Houston TX 	Light Rain	50	82	E	13	30.12	45	50	46
Wed Feb  3 13:23:48 2010	 Seattle WA 	Overcast	43	87	N/A		29.74	39	43	43
Wed Feb  3 13:23:49 2010	 Milwaukee WI 	Overcast	27	74	NW	8	30.18	19	27	19
Wed Feb  3 13:23:50 2010	 Detroit MI 	Fog And Mist	28	93	W	3	30.09	27	28	25
Wed Feb  3 13:23:51 2010	 Philadelphia PA 	Fog And Mist	32	87	NNW	3	30.06	28	32	29
Wed Feb  3 14:08:46 2010	 San Jose CA 	Fog And Mist	45	100	N/A		29.83	45	45	45
Wed Feb  3 14:08:47 2010	 Charlotte NC 	Fog	34	100	N/A		30.12	34	34	34
Wed Feb  3 14:08:48 2010	 San Diego CA 	Hazy	55	82	NNE	5	29.77	50	55	55
Wed Feb  3 14:08:49 2010	 Denver CO 	Partly Cloudy	27	46	S	9	29.91	9	27	18
Wed Feb  3 14:08:50 2010	 Memphis TN 	Fog And Mist	28	86	N/A		30.3	25	28	28
Wed Feb  3 14:08:51 2010	 Los Angeles CA 	Clear	50	82	N/A		29.74	45	50	50
Wed Feb  3 14:08:52 2010	 El Paso TX 	Rain	43	87	E	14	29.71	39	43	36
Wed Feb  3 14:08:53 2010	 New York City NY 	Fog And Mist	30	86	N/A		30.09	27	30	30
Wed Feb  3 14:08:54 2010	 Baltimore MD 	Fair	32	87	N/A		30.09	28	32	32
Wed Feb  3 14:08:56 2010	 Las Vegas NV 	Clear	45	61	NNW	7	29.77	32	45	41
Wed Feb  3 14:08:56 2010	 Washington DC 	Fog And Mist	34	87	N/A		30.12	30	34	34
Wed Feb  3 14:08:58 2010	 Austin TX 	Rain	46	93	Variable	6	30.06	45	46	44
Wed Feb  3 14:08:59 2010	 San Francisco CA 	Clear	46	93	SSE	6	29.83	45	46	44
Wed Feb  3 14:09:00 2010	 Oklahoma City OK 	Fog	28	93	E	3	30.15	27	28	25
Wed Feb  3 14:09:01 2010	 Nashville TN 	Overcast	36	70	N/A		30.27	27	36	36
Wed Feb  3 14:09:02 2010	 Fort Worth TX 	Mostly Cloudy	37	87	NE	3	30.21	34	37	35
Wed Feb  3 14:09:03 2010	 Phoenix AZ 	Overcast	55	63	SSW	3	29.62	43	55	55
Wed Feb  3 14:09:04 2010	 Portland OR 	Overcast	45	81	SE	16	29.74	39	45	38
Wed Feb  3 14:09:05 2010	 Chicago IL 	Hazy	23	80	NW	7	30.21	18	23	16
Wed Feb  3 14:09:06 2010	 San Antonio TX 	Rain	52	94	ENE	13	29.94	50	52	48
Wed Feb  3 14:09:07 2010	 Indianapolis IN 	Hazy	25	74	NW	7	30.18	18	25	18
Wed Feb  3 14:09:08 2010	 Boston MA 	Light Snow	27	86	N/A		30.06	23	27	27
Wed Feb  3 14:09:09 2010	 Jacksonville FL 	Mostly Cloudy	46	82	NNW	9	30.15	41	46	42
Wed Feb  3 14:09:10 2010	 Columbus OH 	Light Snow	32	87	WNW	9	30.15	28	32	25
Wed Feb  3 14:09:10 2010	 Dallas TX 	Overcast	39	87	E	9	30.15	36	39	33
Wed Feb  3 14:09:12 2010	 Houston TX 	Light Rain	50	82	E	12	30.15	45	50	46
Wed Feb  3 14:09:13 2010	 Seattle WA 	Light Rain	46	87	NNW	3	29.71	43	46	46
Wed Feb  3 14:09:14 2010	 Milwaukee WI 	Overcast	25	80	NW	8	30.18	19	25	17
Wed Feb  3 14:09:15 2010	 Detroit MI 	Fog And Mist	28	93	W	5	30.12	27	28	24
Wed Feb  3 14:09:16 2010	 Philadelphia PA 	Fog And Mist	30	93	NW	6	30.09	28	30	25
Wed Feb  3 14:54:47 2010	 San Jose CA 	Fog And Mist	45	100	N/A		29.83	45	45	45
Wed Feb  3 14:54:48 2010	 Charlotte NC 	Fog	34	100	N/A		30.12	34	34	34
Wed Feb  3 14:54:49 2010	 San Diego CA 	Hazy	55	82	NNE	5	29.77	50	55	55
Wed Feb  3 14:54:50 2010	 Denver CO 	Partly Cloudy	27	46	S	9	29.91	9	27	18
Wed Feb  3 14:54:51 2010	 Memphis TN 	Fog And Mist	28	86	N/A		30.3	25	28	28
Wed Feb  3 14:54:52 2010	 Los Angeles CA 	Clear	50	82	N/A		29.74	45	50	50
Wed Feb  3 14:54:53 2010	 El Paso TX 	Rain	43	87	E	14	29.71	39	43	36
Wed Feb  3 14:54:54 2010	 New York City NY 	Fog And Mist	30	86	N/A		30.09	27	30	30
Wed Feb  3 14:54:55 2010	 Baltimore MD 	Fair	32	87	N/A		30.09	28	32	32
Wed Feb  3 14:54:56 2010	 Las Vegas NV 	Clear	45	61	NNW	7	29.77	32	45	41
Wed Feb  3 14:54:57 2010	 Washington DC 	Fog And Mist	34	87	N/A		30.12	30	34	34
Wed Feb  3 14:54:58 2010	 Austin TX 	Rain	46	93	Variable	6	30.06	45	46	44
Wed Feb  3 14:54:58 2010	 San Francisco CA 	Clear	46	93	SSE	6	29.83	45	46	44
Wed Feb  3 14:55:00 2010	 Oklahoma City OK 	Fog	28	93	ESE	3	30.18	27	28	25
Wed Feb  3 14:55:01 2010	 Nashville TN 	Overcast	36	70	N/A		30.27	27	36	36
Wed Feb  3 14:55:02 2010	 Fort Worth TX 	Mostly Cloudy	37	87	NE	3	30.21	34	37	35
Wed Feb  3 14:55:03 2010	 Phoenix AZ 	Overcast	55	63	SSW	3	29.62	43	55	55
Wed Feb  3 14:55:04 2010	 Portland OR 	Overcast	45	81	SE	16	29.74	39	45	38
Wed Feb  3 14:55:05 2010	 Chicago IL 	Hazy	23	80	NW	7	30.21	18	23	16
Wed Feb  3 14:55:06 2010	 San Antonio TX 	Rain	52	94	ENE	13	29.94	50	52	48
Wed Feb  3 14:55:07 2010	 Indianapolis IN 	Hazy	25	74	NW	7	30.18	18	25	18
Wed Feb  3 14:55:08 2010	 Boston MA 	Light Snow	27	93	N/A		30.06	25	27	27
Wed Feb  3 14:55:09 2010	 Jacksonville FL 	Mostly Cloudy	46	82	NNW	9	30.15	41	46	42
Wed Feb  3 14:55:10 2010	 Columbus OH 	Light Snow	32	87	W	14	30.18	28	32	23
Wed Feb  3 14:55:10 2010	 Dallas TX 	Overcast	39	87	E	9	30.15	36	39	33
Wed Feb  3 14:55:12 2010	 Houston TX 	Light Rain	50	82	E	12	30.15	45	50	46
Wed Feb  3 14:55:13 2010	 Seattle WA 	Light Rain	46	87	NNW	3	29.71	43	46	46
Wed Feb  3 14:55:13 2010	 Milwaukee WI 	Overcast	25	80	NNW	6	30.21	19	25	19
Wed Feb  3 14:55:14 2010	 Detroit MI 	Fog And Mist	30	86	NW	6	30.12	27	30	25
Wed Feb  3 14:55:15 2010	 Philadelphia PA 	Fog And Mist	30	93	NW	6	30.09	28	30	25
Wed Feb  3 15:40:01 2010	 San Jose CA 	Mostly Cloudy	45	93	ESE	3	29.88	43	45	44
Wed Feb  3 15:40:03 2010	 Charlotte NC 	Fog	34	100	N/A		30.12	34	34	34
Wed Feb  3 15:40:03 2010	 San Diego CA 	Hazy	55	82	N/A		29.77	50	55	55
Wed Feb  3 15:40:05 2010	 Denver CO 	Mostly Cloudy	27	43	S	9	29.91	7	27	18
Wed Feb  3 15:40:06 2010	 Memphis TN 	Fog And Mist	30	86	N/A		30.3	27	30	30
Wed Feb  3 15:40:07 2010	 Los Angeles CA 	Clear	50	82	N/A		29.74	45	50	50
Wed Feb  3 15:40:08 2010	 El Paso TX 	Light Rain	43	87	E	7	29.74	39	43	39
Wed Feb  3 15:40:10 2010	 New York City NY 	Fog And Mist	30	93	N/A		30.09	28	30	30
Wed Feb  3 15:40:11 2010	 Baltimore MD 	Fair	34	81	N/A		30.12	28	34	34
Wed Feb  3 15:40:12 2010	 Las Vegas NV 	Clear	43	71	NW	6	29.77	34	43	40
Wed Feb  3 15:40:13 2010	 Washington DC 	Fog And Mist	34	81	SSW	3	30.12	28	34	31
Wed Feb  3 15:40:14 2010	 Austin TX 	Rain	46	93	Variable	7	30.06	45	46	43
Wed Feb  3 15:40:15 2010	 San Francisco CA 	Partly Cloudy	45	93	SE	5	29.88	43	45	43
Wed Feb  3 15:40:16 2010	 Oklahoma City OK 	Fog	28	93	E	3	30.18	27	28	25
Wed Feb  3 15:40:17 2010	 Nashville TN 	Overcast	37	65	N/A		30.3	27	37	37
Wed Feb  3 15:40:18 2010	 Fort Worth TX 	Mostly Cloudy	37	87	NE	6	30.21	34	37	33
Wed Feb  3 15:40:19 2010	 Phoenix AZ 	Mostly Cloudy	55	63	N/A		29.62	43	55	55
Wed Feb  3 15:40:20 2010	 Portland OR 	Light Rain	45	87	SE	10	29.74	41	45	40
Wed Feb  3 15:40:21 2010	 Chicago IL 	Hazy	25	80	WNW	7	30.24	19	25	18
Wed Feb  3 15:40:22 2010	 San Antonio TX 	Rain	52	94	ENE	9	29.97	50	52	49
Wed Feb  3 15:40:22 2010	 Indianapolis IN 	Hazy	23	80	NW	7	30.24	18	23	16
Wed Feb  3 15:40:23 2010	 Boston MA 	Light Snow	28	86	NE	3	30.06	25	28	25
Wed Feb  3 15:40:24 2010	 Jacksonville FL 	Partly Cloudy	48	76	N	15	30.15	41	48	43
Wed Feb  3 15:40:25 2010	 Columbus OH 	Light Snow	32	80	NW	8	30.18	27	32	26
Wed Feb  3 15:40:26 2010	 Dallas TX 	Overcast	41	81	E	9	30.18	36	41	36
Wed Feb  3 15:40:27 2010	 Houston TX 	Overcast	48	87	ENE	18	30.09	45	48	42
Wed Feb  3 15:40:28 2010	 Seattle WA 	Partly Cloudy	43	87	N/A		29.71	39	43	43
Wed Feb  3 15:40:29 2010	 Milwaukee WI 	Overcast	25	80	NW	9	30.21	19	25	16
Wed Feb  3 15:40:30 2010	 Detroit MI 	Fog And Mist	30	86	NNW	7	30.15	27	30	24
Wed Feb  3 15:40:31 2010	 Philadelphia PA 	Fog And Mist	32	87	NNW	6	30.09	28	32	27
Wed Feb  3 16:25:39 2010	 San Jose CA 	Mostly Cloudy	45	93	SE	3	29.88	43	45	44
Wed Feb  3 16:25:40 2010	 Charlotte NC 	Fog	36	100	NW	3	30.18	36	36	33
Wed Feb  3 16:25:41 2010	 San Diego CA 	Hazy	55	82	NE	3	29.77	50	55	55
Wed Feb  3 16:25:42 2010	 Denver CO 	Mostly Cloudy	32	34	SW	8	29.91	7	32	26
Wed Feb  3 16:25:43 2010	 Memphis TN 	Hazy	37	81	NNE	6	30.3	32	37	33
Wed Feb  3 16:25:44 2010	 Los Angeles CA 	Clear	48	87	N/A		29.77	45	48	48
Wed Feb  3 16:25:45 2010	 El Paso TX 	Overcast	43	81	E	17	29.74	37	43	35
Wed Feb  3 16:25:47 2010	 New York City NY 	Fog And Mist	30	86	Variable	3	30.09	27	30	27
Wed Feb  3 16:25:48 2010	 Baltimore MD 	Fair	36	81	N/A		30.12	30	36	36
Wed Feb  3 16:25:48 2010	 Las Vegas NV 	Clear	43	66	N	6	29.8	32	43	40
Wed Feb  3 16:25:49 2010	 Washington DC 	Fog And Mist	34	87	N	6	30.12	30	34	29
Wed Feb  3 16:25:50 2010	 Austin TX 	Light Rain	46	100	ENE	8	30.06	46	46	43
Wed Feb  3 16:25:51 2010	 San Francisco CA 	Mostly Cloudy	45	100	N/A		29.88	45	45	45
Wed Feb  3 16:25:52 2010	 Oklahoma City OK 	Fog And Mist	30	93	ESE	3	30.18	28	30	27
Wed Feb  3 16:25:53 2010	 Nashville TN 	Overcast	37	65	N	5	30.3	27	37	34
Wed Feb  3 16:25:54 2010	 Fort Worth TX 	Mostly Cloudy	39	81	ENE	7	30.21	34	39	35
Wed Feb  3 16:25:55 2010	 Phoenix AZ 	Mostly Cloudy	54	67	N/A		29.62	43	54	54
Wed Feb  3 16:25:56 2010	 Portland OR 	Light Rain	43	93	SE	9	29.74	41	43	38
Wed Feb  3 16:25:57 2010	 Chicago IL 	Hazy	25	80	SSW	6	30.27	19	25	19
Wed Feb  3 16:25:58 2010	 San Antonio TX 	Heavy Rain	52	94	NE	8	30	50	52	49
Wed Feb  3 16:25:59 2010	 Indianapolis IN 	Hazy	25	80	NW	8	30.27	19	25	17
Wed Feb  3 16:26:00 2010	 Boston MA 	Light Snow	28	80	Variable	7	30.06	23	28	22
Wed Feb  3 16:26:02 2010	 Jacksonville FL 	Partly Cloudy	50	71	N	9	30.18	41	50	47
Wed Feb  3 16:26:03 2010	 Columbus OH 	Hazy	34	70	W	10	30.21	25	34	27
Wed Feb  3 16:26:04 2010	 Dallas TX 	Overcast	43	81	SE	10	30.18	37	43	37
Wed Feb  3 16:26:05 2010	 Houston TX 	Overcast	48	82	E	16	30.06	43	48	42
Wed Feb  3 16:26:07 2010	 Seattle WA 	Mostly Cloudy	43	87	N/A		29.71	39	43	43
Wed Feb  3 16:26:08 2010	 Milwaukee WI 	Hazy	27	74	NW	10	30.24	19	27	18
Wed Feb  3 16:26:09 2010	 Detroit MI 	Overcast	28	80	NW	8	30.15	23	28	21
Wed Feb  3 16:26:09 2010	 Philadelphia PA 	Overcast	34	81	NW	8	30.12	28	34	28
Wed Feb  3 17:12:48 2010	 San Jose CA 	Fog And Mist	46	87	SE	5	29.88	43	46	45
Wed Feb  3 17:12:48 2010	 Charlotte NC 	Fog And Mist	37	93	N/A		30.18	36	37	37
Wed Feb  3 17:12:57 2010	 San Diego CA 	Hazy	57	77	NE	3	29.8	50	57	57
Wed Feb  3 17:13:00 2010	 Denver CO 	Mostly Cloudy	36	32	SSE	6	29.91	9	36	31
Wed Feb  3 17:13:02 2010	 Memphis TN 	Mostly Cloudy	39	70	NE	7	30.33	30	39	35
Wed Feb  3 17:13:03 2010	 Los Angeles CA 	Clear	52	77	N/A		29.77	45	52	52
Wed Feb  3 17:13:04 2010	 El Paso TX 	Light Rain	43	81	E	12	29.74	37	43	37
Wed Feb  3 17:13:07 2010	 New York City NY 	Overcast	34	81	Variable	6	30.06	28	34	29
Wed Feb  3 17:13:08 2010	 Baltimore MD 	Fair	37	75	N/A		30.09	30	37	37
Wed Feb  3 17:13:09 2010	 Las Vegas NV 	Clear	45	61	NNW	8	29.8	32	45	41
Wed Feb  3 17:13:10 2010	 Washington DC 	Hazy	36	75	N	5	30.12	28	36	32
Wed Feb  3 17:13:11 2010	 Austin TX 	Light Rain	46	93	Variable	6	30.06	45	46	44
Wed Feb  3 17:13:14 2010	 San Francisco CA 	Fog And Mist	46	100	SE	6	29.91	46	46	44
Wed Feb  3 17:13:15 2010	 Oklahoma City OK 	Fog And Mist	30	93	SE	8	30.18	28	30	23
Wed Feb  3 17:13:16 2010	 Nashville TN 	Mostly Cloudy	39	61	N	6	30.33	27	39	35
Wed Feb  3 17:13:18 2010	 Fort Worth TX 	Mostly Cloudy	43	71	S	8	30.21	34	43	38
Wed Feb  3 17:13:19 2010	 Phoenix AZ 	Mostly Cloudy	57	59	SW	3	29.65	43	57	57
Wed Feb  3 17:13:20 2010	 Portland OR 	Overcast	43	87	SE	12	29.74	39	43	37
Wed Feb  3 17:13:21 2010	 Chicago IL 	Hazy	25	80	W	8	30.3	19	25	17
Wed Feb  3 17:13:22 2010	 San Antonio TX 	Rain	52	94	ENE	12	29.97	50	52	48
Wed Feb  3 17:13:24 2010	 Indianapolis IN 	Light Snow	25	80	NW	6	30.27	19	25	19
Wed Feb  3 17:13:25 2010	 Boston MA 	Light Snow	28	80	NW	6	30.03	23	28	23
Wed Feb  3 17:13:26 2010	 Jacksonville FL 	Partly Cloudy	52	67	NNE	10	30.18	41	52	49
Wed Feb  3 17:13:27 2010	 Columbus OH 	Overcast	34	70	W	10	30.21	25	34	27
Wed Feb  3 17:13:28 2010	 Dallas TX 	Overcast	45	76	ESE	10	30.18	37	45	40
Wed Feb  3 17:13:29 2010	 Houston TX 	Overcast	48	82	E	16	30.09	43	48	42
Wed Feb  3 17:13:31 2010	 Seattle WA 	Overcast	45	81	N/A		29.71	39	45	45
Wed Feb  3 17:13:31 2010	 Milwaukee WI 	Hazy	27	74	NW	10	30.27	19	27	18
Wed Feb  3 17:13:32 2010	 Detroit MI 	Overcast	30	75	Variable	5	30.18	23	30	26
Wed Feb  3 17:13:33 2010	 Philadelphia PA 	Overcast	34	81	NNW	6	30.09	28	34	29
Wed Feb  3 18:01:28 2010	 San Jose CA 	Fog And Mist	46	87	SE	5	29.88	43	46	45
Wed Feb  3 18:01:29 2010	 Charlotte NC 	Partly Cloudy	39	93	Variable	3	30.18	37	39	37
Wed Feb  3 18:01:30 2010	 San Diego CA 	Hazy	57	77	NE	3	29.8	50	57	57
Wed Feb  3 18:01:31 2010	 Denver CO 	Mostly Cloudy	36	32	SSE	6	29.91	9	36	31
Wed Feb  3 18:01:32 2010	 Memphis TN 	Mostly Cloudy	39	70	NE	7	30.33	30	39	35
Wed Feb  3 18:01:33 2010	 Los Angeles CA 	Clear	52	77	N/A		29.77	45	52	52
Wed Feb  3 18:01:34 2010	 El Paso TX 	Light Rain	43	81	E	12	29.74	37	43	37
Wed Feb  3 18:01:36 2010	 New York City NY 	Overcast	34	81	Variable	6	30.06	28	34	29
Wed Feb  3 18:01:36 2010	 Baltimore MD 	Fair	37	75	N/A		30.09	30	37	37
Wed Feb  3 18:01:38 2010	 Las Vegas NV 	Clear	45	61	NNW	8	29.8	32	45	41
Wed Feb  3 18:01:38 2010	 Washington DC 	Hazy	36	75	N	5	30.12	28	36	32
Wed Feb  3 18:01:40 2010	 Austin TX 	Light Rain	46	93	E	6	30.06	45	46	44
Wed Feb  3 18:01:40 2010	 San Francisco CA 	Fog And Mist	46	100	SE	6	29.91	46	46	44
Wed Feb  3 18:01:45 2010	 Oklahoma City OK 	Fog And Mist	30	93	SE	8	30.18	28	30	23
Wed Feb  3 18:01:46 2010	 Nashville TN 	Mostly Cloudy	39	61	N	6	30.33	27	39	35
Wed Feb  3 18:01:47 2010	 Fort Worth TX 	Mostly Cloudy	43	71	S	8	30.21	34	43	38
Wed Feb  3 18:01:49 2010	 Phoenix AZ 	Mostly Cloudy	57	59	SW	3	29.65	43	57	57
Wed Feb  3 18:01:50 2010	 Portland OR 	Overcast	43	87	ESE	12	29.74	39	43	37
Wed Feb  3 18:01:51 2010	 Chicago IL 	Hazy	25	80	W	7	30.3	19	25	18
Wed Feb  3 18:01:52 2010	 San Antonio TX 	Rain	52	94	ENE	12	29.97	50	52	48
Wed Feb  3 18:01:52 2010	 Indianapolis IN 	Light Snow	25	80	NW	6	30.27	19	25	19
Wed Feb  3 18:01:53 2010	 Boston MA 	Light Snow	28	80	NW	6	30.03	23	28	23
Wed Feb  3 18:01:55 2010	 Jacksonville FL 	Partly Cloudy	52	67	NNE	10	30.18	41	52	49
Wed Feb  3 18:01:56 2010	 Columbus OH 	Overcast	34	70	W	10	30.21	25	34	27
Wed Feb  3 18:01:57 2010	 Dallas TX 	Overcast	45	76	ESE	10	30.18	37	45	40
Wed Feb  3 18:02:01 2010	 Houston TX 	Overcast	48	82	E	16	30.09	43	48	42
Wed Feb  3 18:02:03 2010	 Seattle WA 	Overcast	45	81	N/A		29.71	39	45	45
Wed Feb  3 18:02:04 2010	 Milwaukee WI 	Hazy	27	74	NW	10	30.27	19	27	18
Wed Feb  3 18:02:05 2010	 Detroit MI 	Overcast	30	75	Variable	5	30.18	23	30	26
Wed Feb  3 18:02:06 2010	 Philadelphia PA 	Overcast	34	81	NNW	6	30.09	28	34	29
Wed Feb  3 18:44:49 2010	 San Jose CA 	Partly Cloudy	48	94	ESE	3	29.91	46	48	47
Wed Feb  3 18:44:50 2010	 Charlotte NC 	Partly Cloudy	41	87	NW	3	30.18	37	41	39
Wed Feb  3 18:44:51 2010	 San Diego CA 	Overcast	57	72	N/A		29.8	48	57	57
Wed Feb  3 18:44:52 2010	 Denver CO 	Mostly Cloudy	39	28	SSW	7	29.91	9	39	35
Wed Feb  3 18:44:53 2010	 Memphis TN 	Partly Cloudy	43	61	NE	5	30.3	30	43	40
Wed Feb  3 18:44:54 2010	 Los Angeles CA 	Clear	57	63	N/A		29.8	45	57	57
Wed Feb  3 18:44:55 2010	 El Paso TX 	Light Rain	45	81	ENE	10	29.74	39	45	40
Wed Feb  3 18:44:57 2010	 New York City NY 	Partly Cloudy	34	81	W	7	30.03	28	34	28
Wed Feb  3 18:44:58 2010	 Baltimore MD 	Fair	39	70	N/A		30.09	30	39	39
Wed Feb  3 18:44:59 2010	 Las Vegas NV 	Clear	48	58	N	5	29.77	34	48	47
Wed Feb  3 18:45:00 2010	 Washington DC 	Hazy	37	75	Variable	5	30.12	30	37	34
Wed Feb  3 18:45:01 2010	 Austin TX 	Light Rain	46	93	E	8	30.06	45	46	43
Wed Feb  3 18:45:01 2010	 San Francisco CA 	Fog And Mist	48	94	SE	6	29.91	46	48	46
Wed Feb  3 18:45:02 2010	 Oklahoma City OK 	Fog And Mist	32	93	SE	8	30.18	30	32	26
Wed Feb  3 18:45:04 2010	 Nashville TN 	Partly Cloudy	41	57	NNW	5	30.33	27	41	38
Wed Feb  3 18:45:05 2010	 Fort Worth TX 	Clear	45	76	ESE	12	30.15	37	45	39
Wed Feb  3 18:45:06 2010	 Phoenix AZ 	Mostly Cloudy	59	51	SSW	5	29.65	41	59	59
Wed Feb  3 18:45:07 2010	 Portland OR 	Mostly Cloudy	45	87	ESE	12	29.74	41	45	39
Wed Feb  3 18:45:08 2010	 Chicago IL 	Hazy	27	74	WNW	7	30.3	19	27	20
Wed Feb  3 18:45:09 2010	 San Antonio TX 	Rain	52	88	E	20	29.91	48	52	46
Wed Feb  3 18:45:10 2010	 Indianapolis IN 	Hazy	27	74	WNW	6	30.3	19	27	21
Wed Feb  3 18:45:11 2010	 Boston MA 	Overcast	30	80	NNE	5	30.03	25	30	26
Wed Feb  3 18:45:12 2010	 Jacksonville FL 	Partly Cloudy	54	67	NNE	7	30.15	43	54	52
Wed Feb  3 18:45:13 2010	 Columbus OH 	Hazy	34	70	NW	10	30.21	25	34	27
Wed Feb  3 18:45:14 2010	 Dallas TX 	Overcast	45	76	E	7	30.18	37	45	41
Wed Feb  3 18:45:14 2010	 Houston TX 	Overcast	52	72	E	17	30.09	43	52	47
Wed Feb  3 18:45:17 2010	 Seattle WA 	Light Rain	46	87	N/A		29.74	43	46	46
Wed Feb  3 18:45:18 2010	 Milwaukee WI 	Hazy	28	64	NNW	9	30.3	18	28	20
Wed Feb  3 18:45:19 2010	 Detroit MI 	Partly Cloudy	32	75	WNW	5	30.21	25	32	28
Wed Feb  3 18:45:20 2010	 Philadelphia PA 	Partly Cloudy	36	81	Variable	6	30.06	30	36	31
Wed Feb  3 19:28:25 2010	 San Jose CA 	Partly Cloudy	54	77	N/A		29.91	46	54	54
Wed Feb  3 19:28:26 2010	 Charlotte NC 	Partly Cloudy	45	76	N/A		30.18	37	45	45
Wed Feb  3 19:28:30 2010	 San Diego CA 	Mostly Cloudy	59	68	NNW	6	29.83	48	59	59
Wed Feb  3 19:28:33 2010	 Denver CO 	Mostly Cloudy	43	24	SW	6	29.94	9	43	40
Wed Feb  3 19:28:33 2010	 Memphis TN 	Partly Cloudy	45	57	NE	7	30.27	30	45	41
Wed Feb  3 19:28:35 2010	 Los Angeles CA 	Clear	61	55	N/A		29.8	45	61	61
Wed Feb  3 19:28:36 2010	 El Paso TX 	Light Rain	45	81	NE	8	29.74	39	45	41
Wed Feb  3 19:28:39 2010	 New York City NY 	Mostly Cloudy	36	70	SSW	3	30.03	27	36	33
Wed Feb  3 19:28:39 2010	 Baltimore MD 	Fair	43	57	N/A		30.09	28	43	43
Wed Feb  3 19:28:41 2010	 Las Vegas NV 	Clear	54	47	NNW	10	29.77	34	54	51
Wed Feb  3 19:28:42 2010	 Washington DC 	Hazy	41	66	NW	6	30.12	30	41	38
Wed Feb  3 19:28:43 2010	 Austin TX 	Light Rain	46	93	Variable	6	30.03	45	46	44
Wed Feb  3 19:28:44 2010	 San Francisco CA 	Mostly Cloudy	54	77	SSE	8	29.91	46	54	51
Wed Feb  3 19:28:45 2010	 Oklahoma City OK 	Fog And Mist	34	87	SSE	5	30.18	30	34	30
Wed Feb  3 19:28:46 2010	 Nashville TN 	Partly Cloudy	43	53	W	7	30.3	27	43	39
Wed Feb  3 19:28:47 2010	 Fort Worth TX 	Overcast	46	66	SE	9	30.15	36	46	42
Wed Feb  3 19:28:48 2010	 Phoenix AZ 	Mostly Cloudy	61	45	N/A		29.65	39	61	61
Wed Feb  3 19:28:49 2010	 Portland OR 	Mostly Cloudy	46	82	SE	15	29.74	41	46	40
Wed Feb  3 19:28:50 2010	 Chicago IL 	Hazy	30	69	NNW	7	30.3	21	30	24
Wed Feb  3 19:28:50 2010	 San Antonio TX 	Rain	52	88	ENE	16	29.91	48	52	47
Wed Feb  3 19:28:52 2010	 Indianapolis IN 	Hazy	28	74	NW	5	30.3	21	28	24
Wed Feb  3 19:28:53 2010	 Boston MA 	Overcast	30	75	NE	5	29.97	23	30	26
Wed Feb  3 19:28:54 2010	 Jacksonville FL 	Partly Cloudy	54	67	ENE	12	30.15	43	54	50
Wed Feb  3 19:28:55 2010	 Columbus OH 	Overcast	36	56	W	9	30.21	21	36	29
Wed Feb  3 19:28:56 2010	 Dallas TX 	Overcast	46	71	E	12	30.15	37	46	42
Wed Feb  3 19:28:58 2010	 Houston TX 	Overcast	52	72	E	16	30.09	43	52	47
Wed Feb  3 19:28:58 2010	 Seattle WA 	Light Rain	46	87	SSE	6	29.77	43	46	44
Wed Feb  3 19:28:59 2010	 Milwaukee WI 	Mostly Cloudy	28	64	NW	7	30.3	18	28	22
Wed Feb  3 19:29:00 2010	 Detroit MI 	Partly Cloudy	32	69	NW	8	30.21	23	32	26
Wed Feb  3 19:29:01 2010	 Philadelphia PA 	Partly Cloudy	37	70	NW	7	30.06	28	37	33
Wed Feb  3 20:12:13 2010	 San Jose CA 	Partly Cloudy	57	67	N/A		29.88	46	57	57
Wed Feb  3 20:12:14 2010	 Charlotte NC 	Partly Cloudy	48	62	N/A		30.15	36	48	48
Wed Feb  3 20:12:15 2010	 San Diego CA 	Mostly Cloudy	61	68	WNW	9	29.83	50	61	60
Wed Feb  3 20:12:16 2010	 Denver CO 	Mostly Cloudy	46	21	E	9	29.91	9	46	42
Wed Feb  3 20:12:17 2010	 Memphis TN 	Mostly Cloudy	48	50	NE	8	30.27	30	48	45
Wed Feb  3 20:12:19 2010	 Los Angeles CA 	Clear	64	46	N/A		29.77	43	64	64
Wed Feb  3 20:12:20 2010	 El Paso TX 	Rain	45	87	N	9	29.71	41	45	40
Wed Feb  3 20:12:21 2010	 New York City NY 	Mostly Cloudy	37	65	WNW	9	30	27	37	31
Wed Feb  3 20:12:22 2010	 Baltimore MD 	Fair	43	53	N/A		30.06	27	43	43
Wed Feb  3 20:12:24 2010	 Las Vegas NV 	Clear	55	44	Variable	6	29.77	34	55	55
Wed Feb  3 20:12:25 2010	 Washington DC 	Partly Cloudy	43	61	NW	10	30.09	30	43	37
Wed Feb  3 20:12:26 2010	 Austin TX 	Light Rain	46	93	Variable	7	30	45	46	43
Wed Feb  3 20:12:27 2010	 San Francisco CA 	Mostly Cloudy	54	82	S	7	29.91	48	54	52
Wed Feb  3 20:12:28 2010	 Oklahoma City OK 	Fog And Mist	34	93	N/A		30.15	32	34	34
Wed Feb  3 20:12:29 2010	 Nashville TN 	Partly Cloudy	45	49	NE	5	30.27	27	45	43
Wed Feb  3 20:12:30 2010	 Fort Worth TX 	Light Rain	46	71	E	10	30.12	37	46	42
Wed Feb  3 20:12:31 2010	 Phoenix AZ 	Mostly Cloudy	66	32	ESE	6	29.62	36	66	66
Wed Feb  3 20:12:32 2010	 Portland OR 	Mostly Cloudy	46	76	SE	15	29.74	39	46	40
Wed Feb  3 20:12:33 2010	 Chicago IL 	Hazy	30	69	NW	5	30.3	21	30	26
Wed Feb  3 20:12:34 2010	 San Antonio TX 	Rain	52	88	ENE	14	29.88	48	52	48
Wed Feb  3 20:12:35 2010	 Indianapolis IN 	Hazy	28	74	NW	6	30.27	21	28	23
Wed Feb  3 20:12:36 2010	 Boston MA 	Overcast	32	69	NNW	7	29.97	23	32	26
Wed Feb  3 20:12:37 2010	 Jacksonville FL 	Mostly Cloudy	54	67	NE	10	30.15	43	54	51
Wed Feb  3 20:12:38 2010	 Columbus OH 	Overcast	36	56	W	12	30.21	21	36	28
Wed Feb  3 20:12:39 2010	 Dallas TX 	Overcast	46	71	E	13	30.06	37	46	41
Wed Feb  3 20:12:40 2010	 Houston TX 	Overcast	54	72	E	18	30.03	45	54	49
Wed Feb  3 20:12:42 2010	 Seattle WA 	Light Rain	45	93	SE	3	29.77	43	45	44
Wed Feb  3 20:12:43 2010	 Milwaukee WI 	Mostly Cloudy	28	64	NNW	5	30.3	18	28	24
Wed Feb  3 20:12:44 2010	 Detroit MI 	Overcast	34	65	WNW	7	30.21	23	34	28
Wed Feb  3 20:12:45 2010	 Philadelphia PA 	Partly Cloudy	37	70	W	14	30.06	28	37	30
Wed Feb  3 20:57:04 2010	 San Jose CA 	Partly Cloudy	57	67	N/A		29.88	46	57	57
Wed Feb  3 20:57:05 2010	 Charlotte NC 	Partly Cloudy	48	62	N/A		30.15	36	48	48
Wed Feb  3 20:57:06 2010	 San Diego CA 	Mostly Cloudy	61	68	WNW	9	29.83	50	61	60
Wed Feb  3 20:57:07 2010	 Denver CO 	Mostly Cloudy	46	21	E	9	29.91	9	46	42
Wed Feb  3 20:57:08 2010	 Memphis TN 	Mostly Cloudy	48	50	NE	8	30.27	30	48	45
Wed Feb  3 20:57:09 2010	 Los Angeles CA 	Clear	64	46	N/A		29.77	43	64	64
Wed Feb  3 20:57:10 2010	 El Paso TX 	Rain	45	87	N	9	29.71	41	45	40
Wed Feb  3 20:57:12 2010	 New York City NY 	Mostly Cloudy	37	65	WNW	9	30	27	37	31
Wed Feb  3 20:57:13 2010	 Baltimore MD 	Fair	43	53	N/A		30.06	27	43	43
Wed Feb  3 20:57:14 2010	 Las Vegas NV 	Clear	55	44	Variable	6	29.77	34	55	55
Wed Feb  3 20:57:14 2010	 Washington DC 	Mostly Cloudy	41	61	NW	7	30.12	28	41	37
Wed Feb  3 20:57:15 2010	 Austin TX 	Light Rain	46	93	Variable	7	30	45	46	43
Wed Feb  3 20:57:17 2010	 San Francisco CA 	Mostly Cloudy	54	82	S	7	29.91	48	54	52
Wed Feb  3 20:57:17 2010	 Oklahoma City OK 	Fog And Mist	34	93	N/A		30.15	32	34	34
Wed Feb  3 20:57:19 2010	 Nashville TN 	Partly Cloudy	45	49	NE	5	30.27	27	45	43
Wed Feb  3 20:57:20 2010	 Fort Worth TX 	Light Rain	46	71	E	10	30.12	37	46	42
Wed Feb  3 20:57:20 2010	 Phoenix AZ 	Mostly Cloudy	66	32	ESE	6	29.62	36	66	66
Wed Feb  3 20:57:21 2010	 Portland OR 	Mostly Cloudy	46	76	SE	15	29.74	39	46	40
Wed Feb  3 20:57:22 2010	 Chicago IL 	Hazy	30	69	NNW	3	30.27	21	30	27
Wed Feb  3 20:57:23 2010	 San Antonio TX 	Light Rain	52	88	ENE	16	29.85	48	52	47
Wed Feb  3 20:57:24 2010	 Indianapolis IN 	Hazy	28	74	NW	6	30.27	21	28	23
Wed Feb  3 20:57:25 2010	 Boston MA 	Overcast	32	69	NNW	7	29.97	23	32	26
Wed Feb  3 20:57:26 2010	 Jacksonville FL 	Mostly Cloudy	54	67	NE	10	30.15	43	54	51
Wed Feb  3 20:57:27 2010	 Columbus OH 	Overcast	36	56	W	12	30.21	21	36	28
Wed Feb  3 20:57:28 2010	 Dallas TX 	Overcast	46	71	E	13	30.06	37	46	41
Wed Feb  3 20:57:28 2010	 Houston TX 	Overcast	54	72	E	18	30.03	45	54	49
Wed Feb  3 20:57:30 2010	 Seattle WA 	Light Rain	45	93	SE	3	29.77	43	45	44
Wed Feb  3 20:57:31 2010	 Milwaukee WI 	Mostly Cloudy	28	64	NNW	5	30.3	18	28	24
Wed Feb  3 20:57:32 2010	 Detroit MI 	Overcast	34	65	WNW	7	30.21	23	34	28
Wed Feb  3 20:57:33 2010	 Philadelphia PA 	Mostly Cloudy	39	61	WNW	15	30.06	27	39	32
Wed Feb  3 21:44:47 2010	 San Jose CA 	Partly Cloudy	61	59	N/A		29.85	46	61	61
Wed Feb  3 21:44:48 2010	 Charlotte NC 	Clear	50	54	N/A		30.12	34	50	50
Wed Feb  3 21:44:49 2010	 San Diego CA 	Partly Cloudy	63	64	NNW	7	29.8	50	63	63
Wed Feb  3 21:44:50 2010	 Denver CO 	Mostly Cloudy	46	23	E	10	29.88	10	46	42
Wed Feb  3 21:44:51 2010	 Memphis TN 	Overcast	46	53	ENE	7	30.24	30	46	43
Wed Feb  3 21:44:52 2010	 Los Angeles CA 	Clear	66	52	N/A		29.77	48	66	66
Wed Feb  3 21:44:53 2010	 El Paso TX 	Rain	43	93	N	12	29.68	41	43	37
Wed Feb  3 21:44:54 2010	 New York City NY 	Overcast	37	60	Variable	3	30	25	37	35
Wed Feb  3 21:44:55 2010	 Baltimore MD 	Fair	43	53	N/A		30.09	27	43	43
Wed Feb  3 21:44:56 2010	 Las Vegas NV 	Clear	59	36	N	13	29.77	32	59	57
Wed Feb  3 21:44:57 2010	 Washington DC 	Overcast	41	61	WNW	9	30.12	28	41	36
Wed Feb  3 21:44:59 2010	 Austin TX 	Light Rain	46	93	E	8	29.97	45	46	43
Wed Feb  3 21:45:00 2010	 San Francisco CA 	Cumulonimbus Clouds	55	77	SW	3	29.88	48	55	55
Wed Feb  3 21:45:01 2010	 Oklahoma City OK 	Fog And Mist	36	87	N/A		30.12	32	36	36
Wed Feb  3 21:45:02 2010	 Nashville TN 	Partly Cloudy	45	49	N/A		30.24	27	45	45
Wed Feb  3 21:45:03 2010	 Fort Worth TX 	Light Rain	46	71	ENE	9	30.09	37	46	42
Wed Feb  3 21:45:04 2010	 Phoenix AZ 	Mostly Cloudy	70	29	N/A		29.62	36	70	70
Wed Feb  3 21:45:05 2010	 Portland OR 	Light Rain	46	76	SE	10	29.74	39	46	42
Wed Feb  3 21:45:07 2010	 Chicago IL 	Hazy	30	64	N	3	30.27	19	30	27
Wed Feb  3 21:45:08 2010	 San Antonio TX 	Light Rain	52	88	E	14	29.85	48	52	48
Wed Feb  3 21:45:09 2010	 Indianapolis IN 	Hazy	28	74	NW	5	30.27	21	28	24
Wed Feb  3 21:45:10 2010	 Boston MA 	Overcast	32	60	NNW	10	29.97	19	32	24
Wed Feb  3 21:45:11 2010	 Jacksonville FL 	Overcast	54	72	NE	14	30.15	45	54	50
Wed Feb  3 21:45:12 2010	 Columbus OH 	Overcast	34	60	W	14	30.21	21	34	25
Wed Feb  3 21:45:14 2010	 Dallas TX 	Light Rain	46	76	E	9	30.09	39	46	42
Wed Feb  3 21:45:15 2010	 Houston TX 	Overcast	54	67	E	17	30.03	43	54	49
Wed Feb  3 21:45:17 2010	 Seattle WA 	Light Rain	45	93	N/A		29.74	43	45	45
Wed Feb  3 21:45:19 2010	 Milwaukee WI 	Partly Cloudy	32	55	N	5	30.27	18	32	28
Wed Feb  3 21:45:20 2010	 Detroit MI 	Overcast	34	65	WNW	9	30.18	23	34	27
Wed Feb  3 21:45:21 2010	 Philadelphia PA 	Mostly Cloudy	39	61	NW	14	30.06	27	39	32
Wed Feb  3 22:30:21 2010	 San Jose CA 	Partly Cloudy	63	56	WNW	6	29.83	46	63	63
Wed Feb  3 22:30:22 2010	 Charlotte NC 	Partly Cloudy	50	50	Variable	3	30.12	32	50	50
Wed Feb  3 22:30:23 2010	 San Diego CA 	Partly Cloudy	63	64	N/A		29.8	50	63	63
Wed Feb  3 22:30:24 2010	 Denver CO 	Mostly Cloudy	46	25	ESE	13	29.85	12	46	41
Wed Feb  3 22:30:25 2010	 Memphis TN 	Overcast	48	46	ENE	12	30.21	28	48	44
Wed Feb  3 22:30:26 2010	 Los Angeles CA 	Clear	70	40	Variable	5	29.74	45	70	70
Wed Feb  3 22:30:28 2010	 El Paso TX 	Heavy Rain	43	93	N	13	29.68	41	43	37
Wed Feb  3 22:30:29 2010	 New York City NY 	Mostly Cloudy	37	52	WNW	12	30.03	21	37	31
Wed Feb  3 22:30:30 2010	 Baltimore MD 	Fair	43	53	N/A		30.09	27	43	43
Wed Feb  3 22:30:31 2010	 Las Vegas NV 	Clear	61	31	N	17	29.74	30	61	58
Wed Feb  3 22:30:32 2010	 Washington DC 	Overcast	41	61	W	8	30.15	28	41	36
Wed Feb  3 22:30:33 2010	 Austin TX 	Light Rain	46	93	Variable	5	29.94	45	46	45
Wed Feb  3 22:30:35 2010	 San Francisco CA 	Partly Cloudy	55	77	SSW	5	29.85	48	55	55
Wed Feb  3 22:30:35 2010	 Oklahoma City OK 	Hazy	36	81	E	7	30.12	30	36	31
Wed Feb  3 22:30:37 2010	 Nashville TN 	Partly Cloudy	46	46	NE	9	30.24	27	46	42
Wed Feb  3 22:30:38 2010	 Fort Worth TX 	Rain	45	76	ENE	9	30.06	37	45	40
Wed Feb  3 22:30:39 2010	 Phoenix AZ 	Mostly Cloudy	70	29	SW	3	29.59	36	70	70
Wed Feb  3 22:30:40 2010	 Portland OR 	Rain	45	87	ESE	10	29.74	41	45	40
Wed Feb  3 22:30:40 2010	 Chicago IL 	Overcast	30	69	E	7	30.3	21	30	24
Wed Feb  3 22:30:41 2010	 San Antonio TX 	Rain	52	88	ENE	13	29.88	48	52	48
Wed Feb  3 22:30:42 2010	 Indianapolis IN 	Overcast	28	74	NNE	5	30.27	21	28	24
Wed Feb  3 22:30:43 2010	 Boston MA 	Overcast	32	60	NW	10	29.97	19	32	24
Wed Feb  3 22:30:44 2010	 Jacksonville FL 	Overcast	52	72	NE	9	30.15	43	52	49
Wed Feb  3 22:30:45 2010	 Columbus OH 	Overcast	34	60	WNW	10	30.24	21	34	27
Wed Feb  3 22:30:46 2010	 Dallas TX 	Light Rain	45	81	NE	12	30.03	39	45	39
Wed Feb  3 22:30:47 2010	 Houston TX 	Overcast	52	77	ESE	13	30	45	52	48
Wed Feb  3 22:30:48 2010	 Seattle WA 	Light Rain	46	87	SSE	5	29.74	43	46	45
Wed Feb  3 22:30:50 2010	 Milwaukee WI 	Partly Cloudy	28	64	ENE	5	30.27	18	28	24
Wed Feb  3 22:30:50 2010	 Detroit MI 	Overcast	34	65	NW	5	30.21	23	34	30
Wed Feb  3 22:30:52 2010	 Philadelphia PA 	Mostly Cloudy	39	61	NW	13	30.06	27	39	32
Wed Feb  3 23:21:07 2010	 San Jose CA 	Partly Cloudy	63	52	NW	5	29.8	45	63	63
Wed Feb  3 23:21:08 2010	 Charlotte NC 	Clear	52	47	Variable	3	30.15	32	52	52
Wed Feb  3 23:21:09 2010	 San Diego CA 	Partly Cloudy	63	64	NW	7	29.77	50	63	63
Wed Feb  3 23:21:10 2010	 Denver CO 	Overcast	46	27	SE	16	29.83	14	46	40
Wed Feb  3 23:21:11 2010	 Memphis TN 	Overcast	46	50	ENE	10	30.21	28	46	42
Wed Feb  3 23:21:12 2010	 Los Angeles CA 	Clear	68	40	N/A		29.71	43	68	68
Wed Feb  3 23:21:13 2010	 El Paso TX 	Light Rain	43	93	NNE	14	29.68	41	43	36
Wed Feb  3 23:21:14 2010	 New York City NY 	Overcast	36	60	WNW	7	30.03	23	36	31
Wed Feb  3 23:21:15 2010	 Baltimore MD 	Fair	41	57	N/A		30.12	27	41	41
Wed Feb  3 23:21:16 2010	 Las Vegas NV 	Clear	61	34	SE	6	29.71	32	61	61
Wed Feb  3 23:21:17 2010	 Washington DC 	Overcast	41	61	NW	8	30.15	28	41	36
Wed Feb  3 23:21:18 2010	 Austin TX 	Light Rain	46	93	Variable	7	29.94	45	46	43
Wed Feb  3 23:21:19 2010	 San Francisco CA 	Partly Cloudy	57	72	SSW	6	29.83	48	57	57
Wed Feb  3 23:21:20 2010	 Oklahoma City OK 	Hazy	37	81	E	10	30.09	32	37	31
Wed Feb  3 23:21:22 2010	 Nashville TN 	Partly Cloudy	45	49	NNE	7	30.24	27	45	41
Wed Feb  3 23:21:22 2010	 Fort Worth TX 	Light Rain	45	81	E	6	30.12	39	45	42
Wed Feb  3 23:21:23 2010	 Phoenix AZ 	Mostly Cloudy	70	31	SSE	8	29.59	37	70	70
Wed Feb  3 23:21:24 2010	 Portland OR 	Light Rain	46	87	SE	13	29.71	43	46	41
Wed Feb  3 23:21:25 2010	 Chicago IL 	Mostly Cloudy	30	69	E	7	30.3	21	30	24
Wed Feb  3 23:21:27 2010	 San Antonio TX 	Light Rain	52	88	NE	10	29.88	48	52	49
Wed Feb  3 23:21:28 2010	 Indianapolis IN 	Overcast	28	74	N	3	30.3	21	28	25
Wed Feb  3 23:21:29 2010	 Boston MA 	Overcast	32	60	NNW	8	29.97	19	32	26
Wed Feb  3 23:21:30 2010	 Jacksonville FL 	Mostly Cloudy	54	67	ENE	6	30.15	43	54	52
Wed Feb  3 23:21:31 2010	 Columbus OH 	Overcast	34	60	W	8	30.24	21	34	28
Wed Feb  3 23:21:33 2010	 Dallas TX 	Light Rain	45	81	ENE	5	30.06	39	45	43
Wed Feb  3 23:21:34 2010	 Houston TX 	Overcast	52	77	E	17	29.97	45	52	47
Wed Feb  3 23:21:35 2010	 Seattle WA 	Light Rain	46	93	N/A		29.71	45	46	46
Wed Feb  3 23:21:36 2010	 Milwaukee WI 	Partly Cloudy	28	64	ENE	6	30.3	18	28	23
Wed Feb  3 23:21:37 2010	 Detroit MI 	Overcast	32	69	NW	7	30.24	23	32	26
Wed Feb  3 23:21:38 2010	 Philadelphia PA 	Mostly Cloudy	37	65	WNW	13	30.09	27	37	30
